<?xml version="1.0" encoding="UTF-8" standalone="no" ?>
<gpx xmlns="http://www.topografix.com/GPX/1/1" xmlns:xsi="http://www.w3.org/2001/XMLSchema-instance" xsi:schemaLocation="http://www.topografix.com/GPX/1/1 http://www.topografix.com/GPX/1/1/gpx.xsd" version="1.1" creator="VisuGPX - https://www.visugpx.com">
  <metadata>
    <name>2019-09-08 05:17:12 Jour</name>
  </metadata>
  <trk>
    <name><![CDATA[2019-09-08 05:17:12 Jour]]></name>
    <trkseg>
      <trkpt lat="49.19046" lon="6.67284">
        <ele>165</ele>
        <time>2019-09-08T03:17:12Z</time>
      </trkpt>
      <trkpt lat="49.19052" lon="6.67295">
        <ele>165</ele>
        <time>2019-09-08T03:17:22Z</time>
      </trkpt>
      <trkpt lat="49.1906" lon="6.67306">
        <ele>180.38</ele>
        <time>2019-09-08T03:17:32Z</time>
      </trkpt>
      <trkpt lat="49.19066" lon="6.67317">
        <ele>190.96</ele>
        <time>2019-09-08T03:17:42Z</time>
      </trkpt>
      <trkpt lat="49.19074" lon="6.67328">
        <ele>198.17</ele>
        <time>2019-09-08T03:17:52Z</time>
      </trkpt>
      <trkpt lat="49.19077" lon="6.67334">
        <ele>202.98</ele>
        <time>2019-09-08T03:18:02Z</time>
      </trkpt>
      <trkpt lat="49.19084" lon="6.67342">
        <ele>206.34</ele>
        <time>2019-09-08T03:18:12Z</time>
      </trkpt>
      <trkpt lat="49.19093" lon="6.67353">
        <ele>209.7</ele>
        <time>2019-09-08T03:18:22Z</time>
      </trkpt>
      <trkpt lat="49.19102" lon="6.67362">
        <ele>211.15</ele>
        <time>2019-09-08T03:18:32Z</time>
      </trkpt>
      <trkpt lat="49.19112" lon="6.67371">
        <ele>212.59</ele>
        <time>2019-09-08T03:18:42Z</time>
      </trkpt>
      <trkpt lat="49.19122" lon="6.67376">
        <ele>213.55</ele>
        <time>2019-09-08T03:18:52Z</time>
      </trkpt>
      <trkpt lat="49.19134" lon="6.67384">
        <ele>213.55</ele>
        <time>2019-09-08T03:19:02Z</time>
      </trkpt>
      <trkpt lat="49.19147" lon="6.6739">
        <ele>214.03</ele>
        <time>2019-09-08T03:19:12Z</time>
      </trkpt>
      <trkpt lat="49.19158" lon="6.67396">
        <ele>214.51</ele>
        <time>2019-09-08T03:19:23Z</time>
      </trkpt>
      <trkpt lat="49.19169" lon="6.674">
        <ele>214.51</ele>
        <time>2019-09-08T03:19:33Z</time>
      </trkpt>
      <trkpt lat="49.1918" lon="6.67403">
        <ele>214.51</ele>
        <time>2019-09-08T03:19:43Z</time>
      </trkpt>
      <trkpt lat="49.19192" lon="6.67407">
        <ele>213.07</ele>
        <time>2019-09-08T03:19:53Z</time>
      </trkpt>
      <trkpt lat="49.19203" lon="6.67415">
        <ele>213.07</ele>
        <time>2019-09-08T03:20:03Z</time>
      </trkpt>
      <trkpt lat="49.19214" lon="6.67424">
        <ele>213.07</ele>
        <time>2019-09-08T03:20:13Z</time>
      </trkpt>
      <trkpt lat="49.19224" lon="6.67434">
        <ele>213.07</ele>
        <time>2019-09-08T03:20:23Z</time>
      </trkpt>
      <trkpt lat="49.19231" lon="6.67443">
        <ele>212.59</ele>
        <time>2019-09-08T03:20:33Z</time>
      </trkpt>
      <trkpt lat="49.19235" lon="6.67455">
        <ele>213.07</ele>
        <time>2019-09-08T03:20:43Z</time>
      </trkpt>
      <trkpt lat="49.19241" lon="6.67471">
        <ele>213.07</ele>
        <time>2019-09-08T03:20:53Z</time>
      </trkpt>
      <trkpt lat="49.19246" lon="6.67489">
        <ele>213.07</ele>
        <time>2019-09-08T03:21:03Z</time>
      </trkpt>
      <trkpt lat="49.19253" lon="6.67508">
        <ele>213.07</ele>
        <time>2019-09-08T03:21:13Z</time>
      </trkpt>
      <trkpt lat="49.19256" lon="6.67526">
        <ele>213.07</ele>
        <time>2019-09-08T03:21:23Z</time>
      </trkpt>
      <trkpt lat="49.1926" lon="6.67545">
        <ele>213.07</ele>
        <time>2019-09-08T03:21:33Z</time>
      </trkpt>
      <trkpt lat="49.19263" lon="6.67562">
        <ele>213.07</ele>
        <time>2019-09-08T03:21:43Z</time>
      </trkpt>
      <trkpt lat="49.19267" lon="6.67578">
        <ele>214.03</ele>
        <time>2019-09-08T03:21:53Z</time>
      </trkpt>
      <trkpt lat="49.19272" lon="6.67594">
        <ele>214.03</ele>
        <time>2019-09-08T03:22:03Z</time>
      </trkpt>
      <trkpt lat="49.19278" lon="6.6761">
        <ele>214.03</ele>
        <time>2019-09-08T03:22:13Z</time>
      </trkpt>
      <trkpt lat="49.19284" lon="6.67624">
        <ele>214.51</ele>
        <time>2019-09-08T03:22:23Z</time>
      </trkpt>
      <trkpt lat="49.19291" lon="6.6764">
        <ele>214.51</ele>
        <time>2019-09-08T03:22:33Z</time>
      </trkpt>
      <trkpt lat="49.19299" lon="6.67656">
        <ele>214.51</ele>
        <time>2019-09-08T03:22:43Z</time>
      </trkpt>
      <trkpt lat="49.19306" lon="6.6767">
        <ele>214.51</ele>
        <time>2019-09-08T03:22:53Z</time>
      </trkpt>
      <trkpt lat="49.19314" lon="6.67682">
        <ele>214.99</ele>
        <time>2019-09-08T03:23:03Z</time>
      </trkpt>
      <trkpt lat="49.19323" lon="6.67691">
        <ele>215.47</ele>
        <time>2019-09-08T03:23:13Z</time>
      </trkpt>
      <trkpt lat="49.19326" lon="6.67706">
        <ele>215.47</ele>
        <time>2019-09-08T03:23:23Z</time>
      </trkpt>
      <trkpt lat="49.19328" lon="6.67716">
        <ele>215.47</ele>
        <time>2019-09-08T03:23:33Z</time>
      </trkpt>
      <trkpt lat="49.19331" lon="6.6774">
        <ele>215.47</ele>
        <time>2019-09-08T03:23:43Z</time>
      </trkpt>
      <trkpt lat="49.19339" lon="6.67762">
        <ele>214.03</ele>
        <time>2019-09-08T03:23:53Z</time>
      </trkpt>
      <trkpt lat="49.1935" lon="6.67771">
        <ele>214.03</ele>
        <time>2019-09-08T03:24:03Z</time>
      </trkpt>
      <trkpt lat="49.19357" lon="6.6778">
        <ele>214.51</ele>
        <time>2019-09-08T03:24:13Z</time>
      </trkpt>
      <trkpt lat="49.19363" lon="6.67792">
        <ele>214.51</ele>
        <time>2019-09-08T03:24:23Z</time>
      </trkpt>
      <trkpt lat="49.19363" lon="6.67806">
        <ele>213.55</ele>
        <time>2019-09-08T03:24:33Z</time>
      </trkpt>
      <trkpt lat="49.19364" lon="6.67824">
        <ele>213.07</ele>
        <time>2019-09-08T03:24:43Z</time>
      </trkpt>
      <trkpt lat="49.1937" lon="6.67841">
        <ele>213.07</ele>
        <time>2019-09-08T03:24:53Z</time>
      </trkpt>
      <trkpt lat="49.19379" lon="6.67856">
        <ele>212.59</ele>
        <time>2019-09-08T03:25:03Z</time>
      </trkpt>
      <trkpt lat="49.19385" lon="6.67868">
        <ele>212.11</ele>
        <time>2019-09-08T03:25:13Z</time>
      </trkpt>
      <trkpt lat="49.1939" lon="6.67882">
        <ele>212.11</ele>
        <time>2019-09-08T03:25:23Z</time>
      </trkpt>
      <trkpt lat="49.19395" lon="6.67896">
        <ele>211.63</ele>
        <time>2019-09-08T03:25:33Z</time>
      </trkpt>
      <trkpt lat="49.19405" lon="6.67913">
        <ele>211.63</ele>
        <time>2019-09-08T03:25:43Z</time>
      </trkpt>
      <trkpt lat="49.1941" lon="6.67931">
        <ele>211.63</ele>
        <time>2019-09-08T03:25:53Z</time>
      </trkpt>
      <trkpt lat="49.19417" lon="6.67947">
        <ele>211.15</ele>
        <time>2019-09-08T03:26:03Z</time>
      </trkpt>
      <trkpt lat="49.19424" lon="6.67962">
        <ele>210.67</ele>
        <time>2019-09-08T03:26:13Z</time>
      </trkpt>
      <trkpt lat="49.1943" lon="6.67977">
        <ele>210.67</ele>
        <time>2019-09-08T03:26:23Z</time>
      </trkpt>
      <trkpt lat="49.19437" lon="6.67992">
        <ele>210.19</ele>
        <time>2019-09-08T03:26:33Z</time>
      </trkpt>
      <trkpt lat="49.19443" lon="6.68008">
        <ele>209.7</ele>
        <time>2019-09-08T03:26:43Z</time>
      </trkpt>
      <trkpt lat="49.19448" lon="6.68025">
        <ele>209.7</ele>
        <time>2019-09-08T03:26:53Z</time>
      </trkpt>
      <trkpt lat="49.19452" lon="6.6804">
        <ele>209.7</ele>
        <time>2019-09-08T03:27:03Z</time>
      </trkpt>
      <trkpt lat="49.19459" lon="6.68056">
        <ele>209.7</ele>
        <time>2019-09-08T03:27:13Z</time>
      </trkpt>
      <trkpt lat="49.19465" lon="6.6807">
        <ele>209.22</ele>
        <time>2019-09-08T03:27:23Z</time>
      </trkpt>
      <trkpt lat="49.19469" lon="6.68084">
        <ele>209.22</ele>
        <time>2019-09-08T03:27:33Z</time>
      </trkpt>
      <trkpt lat="49.19473" lon="6.681">
        <ele>209.22</ele>
        <time>2019-09-08T03:27:43Z</time>
      </trkpt>
      <trkpt lat="49.1948" lon="6.68114">
        <ele>209.22</ele>
        <time>2019-09-08T03:27:53Z</time>
      </trkpt>
      <trkpt lat="49.19489" lon="6.68129">
        <ele>209.22</ele>
        <time>2019-09-08T03:28:03Z</time>
      </trkpt>
      <trkpt lat="49.19498" lon="6.68146">
        <ele>209.22</ele>
        <time>2019-09-08T03:28:13Z</time>
      </trkpt>
      <trkpt lat="49.19506" lon="6.68164">
        <ele>209.22</ele>
        <time>2019-09-08T03:28:23Z</time>
      </trkpt>
      <trkpt lat="49.19512" lon="6.68181">
        <ele>209.22</ele>
        <time>2019-09-08T03:28:33Z</time>
      </trkpt>
      <trkpt lat="49.19517" lon="6.68197">
        <ele>210.67</ele>
        <time>2019-09-08T03:28:43Z</time>
      </trkpt>
      <trkpt lat="49.19523" lon="6.68212">
        <ele>210.67</ele>
        <time>2019-09-08T03:28:53Z</time>
      </trkpt>
      <trkpt lat="49.19527" lon="6.68227">
        <ele>210.67</ele>
        <time>2019-09-08T03:29:03Z</time>
      </trkpt>
      <trkpt lat="49.19532" lon="6.68243">
        <ele>210.67</ele>
        <time>2019-09-08T03:29:13Z</time>
      </trkpt>
      <trkpt lat="49.19538" lon="6.68258">
        <ele>210.67</ele>
        <time>2019-09-08T03:29:23Z</time>
      </trkpt>
      <trkpt lat="49.19545" lon="6.68274">
        <ele>211.15</ele>
        <time>2019-09-08T03:29:33Z</time>
      </trkpt>
      <trkpt lat="49.19551" lon="6.68289">
        <ele>211.15</ele>
        <time>2019-09-08T03:29:43Z</time>
      </trkpt>
      <trkpt lat="49.19559" lon="6.68306">
        <ele>211.15</ele>
        <time>2019-09-08T03:29:53Z</time>
      </trkpt>
      <trkpt lat="49.19565" lon="6.6832">
        <ele>211.15</ele>
        <time>2019-09-08T03:30:03Z</time>
      </trkpt>
      <trkpt lat="49.19571" lon="6.68335">
        <ele>211.15</ele>
        <time>2019-09-08T03:30:13Z</time>
      </trkpt>
      <trkpt lat="49.19577" lon="6.68351">
        <ele>211.15</ele>
        <time>2019-09-08T03:30:23Z</time>
      </trkpt>
      <trkpt lat="49.19584" lon="6.68367">
        <ele>211.63</ele>
        <time>2019-09-08T03:30:33Z</time>
      </trkpt>
      <trkpt lat="49.19591" lon="6.68383">
        <ele>211.63</ele>
        <time>2019-09-08T03:30:43Z</time>
      </trkpt>
      <trkpt lat="49.19597" lon="6.68399">
        <ele>211.63</ele>
        <time>2019-09-08T03:30:53Z</time>
      </trkpt>
      <trkpt lat="49.19604" lon="6.68414">
        <ele>211.63</ele>
        <time>2019-09-08T03:31:03Z</time>
      </trkpt>
      <trkpt lat="49.1961" lon="6.6843">
        <ele>211.63</ele>
        <time>2019-09-08T03:31:13Z</time>
      </trkpt>
      <trkpt lat="49.19617" lon="6.68445">
        <ele>211.63</ele>
        <time>2019-09-08T03:31:23Z</time>
      </trkpt>
      <trkpt lat="49.19623" lon="6.6846">
        <ele>211.63</ele>
        <time>2019-09-08T03:31:33Z</time>
      </trkpt>
      <trkpt lat="49.19629" lon="6.68476">
        <ele>211.63</ele>
        <time>2019-09-08T03:31:43Z</time>
      </trkpt>
      <trkpt lat="49.19634" lon="6.6849">
        <ele>211.63</ele>
        <time>2019-09-08T03:31:53Z</time>
      </trkpt>
      <trkpt lat="49.1964" lon="6.68505">
        <ele>211.63</ele>
        <time>2019-09-08T03:32:03Z</time>
      </trkpt>
      <trkpt lat="49.19647" lon="6.68523">
        <ele>211.63</ele>
        <time>2019-09-08T03:32:13Z</time>
      </trkpt>
      <trkpt lat="49.19653" lon="6.68537">
        <ele>211.63</ele>
        <time>2019-09-08T03:32:23Z</time>
      </trkpt>
      <trkpt lat="49.19659" lon="6.68551">
        <ele>211.63</ele>
        <time>2019-09-08T03:32:33Z</time>
      </trkpt>
      <trkpt lat="49.19667" lon="6.68567">
        <ele>211.63</ele>
        <time>2019-09-08T03:32:43Z</time>
      </trkpt>
      <trkpt lat="49.19673" lon="6.68583">
        <ele>211.63</ele>
        <time>2019-09-08T03:32:53Z</time>
      </trkpt>
      <trkpt lat="49.19679" lon="6.68598">
        <ele>211.63</ele>
        <time>2019-09-08T03:33:03Z</time>
      </trkpt>
      <trkpt lat="49.19686" lon="6.68615">
        <ele>211.63</ele>
        <time>2019-09-08T03:33:13Z</time>
      </trkpt>
      <trkpt lat="49.19693" lon="6.68631">
        <ele>211.63</ele>
        <time>2019-09-08T03:33:23Z</time>
      </trkpt>
      <trkpt lat="49.19698" lon="6.68648">
        <ele>211.63</ele>
        <time>2019-09-08T03:33:33Z</time>
      </trkpt>
      <trkpt lat="49.19706" lon="6.68662">
        <ele>211.63</ele>
        <time>2019-09-08T03:33:43Z</time>
      </trkpt>
      <trkpt lat="49.19714" lon="6.68678">
        <ele>211.63</ele>
        <time>2019-09-08T03:33:53Z</time>
      </trkpt>
      <trkpt lat="49.1972" lon="6.68692">
        <ele>211.63</ele>
        <time>2019-09-08T03:34:03Z</time>
      </trkpt>
      <trkpt lat="49.19725" lon="6.68706">
        <ele>211.63</ele>
        <time>2019-09-08T03:34:13Z</time>
      </trkpt>
      <trkpt lat="49.19732" lon="6.68722">
        <ele>211.63</ele>
        <time>2019-09-08T03:34:23Z</time>
      </trkpt>
      <trkpt lat="49.19737" lon="6.68736">
        <ele>211.63</ele>
        <time>2019-09-08T03:34:33Z</time>
      </trkpt>
      <trkpt lat="49.19747" lon="6.68752">
        <ele>211.63</ele>
        <time>2019-09-08T03:34:43Z</time>
      </trkpt>
      <trkpt lat="49.19753" lon="6.68766">
        <ele>211.63</ele>
        <time>2019-09-08T03:34:53Z</time>
      </trkpt>
      <trkpt lat="49.19758" lon="6.68781">
        <ele>211.63</ele>
        <time>2019-09-08T03:35:03Z</time>
      </trkpt>
      <trkpt lat="49.19765" lon="6.68797">
        <ele>211.63</ele>
        <time>2019-09-08T03:35:13Z</time>
      </trkpt>
      <trkpt lat="49.19772" lon="6.68811">
        <ele>211.63</ele>
        <time>2019-09-08T03:35:23Z</time>
      </trkpt>
      <trkpt lat="49.19778" lon="6.68825">
        <ele>211.63</ele>
        <time>2019-09-08T03:35:33Z</time>
      </trkpt>
      <trkpt lat="49.19784" lon="6.6884">
        <ele>211.63</ele>
        <time>2019-09-08T03:35:43Z</time>
      </trkpt>
      <trkpt lat="49.19793" lon="6.68855">
        <ele>211.63</ele>
        <time>2019-09-08T03:35:53Z</time>
      </trkpt>
      <trkpt lat="49.19801" lon="6.68869">
        <ele>211.63</ele>
        <time>2019-09-08T03:36:03Z</time>
      </trkpt>
      <trkpt lat="49.19809" lon="6.68881">
        <ele>211.63</ele>
        <time>2019-09-08T03:36:13Z</time>
      </trkpt>
      <trkpt lat="49.19816" lon="6.68896">
        <ele>211.63</ele>
        <time>2019-09-08T03:36:23Z</time>
      </trkpt>
      <trkpt lat="49.19826" lon="6.68908">
        <ele>211.63</ele>
        <time>2019-09-08T03:36:33Z</time>
      </trkpt>
      <trkpt lat="49.19834" lon="6.6892">
        <ele>211.63</ele>
        <time>2019-09-08T03:36:43Z</time>
      </trkpt>
      <trkpt lat="49.19843" lon="6.68931">
        <ele>211.63</ele>
        <time>2019-09-08T03:36:53Z</time>
      </trkpt>
      <trkpt lat="49.19851" lon="6.68946">
        <ele>211.63</ele>
        <time>2019-09-08T03:37:03Z</time>
      </trkpt>
      <trkpt lat="49.19859" lon="6.68958">
        <ele>211.63</ele>
        <time>2019-09-08T03:37:13Z</time>
      </trkpt>
      <trkpt lat="49.1987" lon="6.6897">
        <ele>211.63</ele>
        <time>2019-09-08T03:37:23Z</time>
      </trkpt>
      <trkpt lat="49.1988" lon="6.6898">
        <ele>211.63</ele>
        <time>2019-09-08T03:37:33Z</time>
      </trkpt>
      <trkpt lat="49.19892" lon="6.68993">
        <ele>211.63</ele>
        <time>2019-09-08T03:37:43Z</time>
      </trkpt>
      <trkpt lat="49.19902" lon="6.69004">
        <ele>211.63</ele>
        <time>2019-09-08T03:37:53Z</time>
      </trkpt>
      <trkpt lat="49.19913" lon="6.69013">
        <ele>210.67</ele>
        <time>2019-09-08T03:38:03Z</time>
      </trkpt>
      <trkpt lat="49.19924" lon="6.69026">
        <ele>210.67</ele>
        <time>2019-09-08T03:38:13Z</time>
      </trkpt>
      <trkpt lat="49.19934" lon="6.69036">
        <ele>210.19</ele>
        <time>2019-09-08T03:38:23Z</time>
      </trkpt>
      <trkpt lat="49.19946" lon="6.69047">
        <ele>210.19</ele>
        <time>2019-09-08T03:38:33Z</time>
      </trkpt>
      <trkpt lat="49.19955" lon="6.69057">
        <ele>209.7</ele>
        <time>2019-09-08T03:38:43Z</time>
      </trkpt>
      <trkpt lat="49.19963" lon="6.69068">
        <ele>209.22</ele>
        <time>2019-09-08T03:38:53Z</time>
      </trkpt>
      <trkpt lat="49.19964" lon="6.69084">
        <ele>209.22</ele>
        <time>2019-09-08T03:39:03Z</time>
      </trkpt>
      <trkpt lat="49.19971" lon="6.69096">
        <ele>208.26</ele>
        <time>2019-09-08T03:39:13Z</time>
      </trkpt>
      <trkpt lat="49.19982" lon="6.69096">
        <ele>208.26</ele>
        <time>2019-09-08T03:39:23Z</time>
      </trkpt>
      <trkpt lat="49.19993" lon="6.69101">
        <ele>208.26</ele>
        <time>2019-09-08T03:39:33Z</time>
      </trkpt>
      <trkpt lat="49.20004" lon="6.69108">
        <ele>208.26</ele>
        <time>2019-09-08T03:39:43Z</time>
      </trkpt>
      <trkpt lat="49.20014" lon="6.69117">
        <ele>208.26</ele>
        <time>2019-09-08T03:39:53Z</time>
      </trkpt>
      <trkpt lat="49.20025" lon="6.69128">
        <ele>208.26</ele>
        <time>2019-09-08T03:40:03Z</time>
      </trkpt>
      <trkpt lat="49.20035" lon="6.69139">
        <ele>208.26</ele>
        <time>2019-09-08T03:40:13Z</time>
      </trkpt>
      <trkpt lat="49.20047" lon="6.69149">
        <ele>208.26</ele>
        <time>2019-09-08T03:40:23Z</time>
      </trkpt>
      <trkpt lat="49.20057" lon="6.69161">
        <ele>207.78</ele>
        <time>2019-09-08T03:40:33Z</time>
      </trkpt>
      <trkpt lat="49.20067" lon="6.69172">
        <ele>207.3</ele>
        <time>2019-09-08T03:40:43Z</time>
      </trkpt>
      <trkpt lat="49.20078" lon="6.69183">
        <ele>207.3</ele>
        <time>2019-09-08T03:40:53Z</time>
      </trkpt>
      <trkpt lat="49.20088" lon="6.69192">
        <ele>207.3</ele>
        <time>2019-09-08T03:41:03Z</time>
      </trkpt>
      <trkpt lat="49.20092" lon="6.69196">
        <ele>207.3</ele>
        <time>2019-09-08T03:41:13Z</time>
      </trkpt>
      <trkpt lat="49.20092" lon="6.69196">
        <ele>207.3</ele>
        <time>2019-09-08T03:41:23Z</time>
      </trkpt>
      <trkpt lat="49.20093" lon="6.69195">
        <ele>207.3</ele>
        <time>2019-09-08T03:41:33Z</time>
      </trkpt>
      <trkpt lat="49.20093" lon="6.69195">
        <ele>207.3</ele>
        <time>2019-09-08T03:41:43Z</time>
      </trkpt>
      <trkpt lat="49.20096" lon="6.69199">
        <ele>207.3</ele>
        <time>2019-09-08T03:41:53Z</time>
      </trkpt>
      <trkpt lat="49.20106" lon="6.69207">
        <ele>206.82</ele>
        <time>2019-09-08T03:42:03Z</time>
      </trkpt>
      <trkpt lat="49.20115" lon="6.69216">
        <ele>206.82</ele>
        <time>2019-09-08T03:42:13Z</time>
      </trkpt>
      <trkpt lat="49.20124" lon="6.69226">
        <ele>206.82</ele>
        <time>2019-09-08T03:42:23Z</time>
      </trkpt>
      <trkpt lat="49.20134" lon="6.69236">
        <ele>206.34</ele>
        <time>2019-09-08T03:42:33Z</time>
      </trkpt>
      <trkpt lat="49.20145" lon="6.69245">
        <ele>206.34</ele>
        <time>2019-09-08T03:42:43Z</time>
      </trkpt>
      <trkpt lat="49.20155" lon="6.69256">
        <ele>206.34</ele>
        <time>2019-09-08T03:42:53Z</time>
      </trkpt>
      <trkpt lat="49.20164" lon="6.69266">
        <ele>206.34</ele>
        <time>2019-09-08T03:43:03Z</time>
      </trkpt>
      <trkpt lat="49.20172" lon="6.69276">
        <ele>206.34</ele>
        <time>2019-09-08T03:43:13Z</time>
      </trkpt>
      <trkpt lat="49.20181" lon="6.69285">
        <ele>206.34</ele>
        <time>2019-09-08T03:43:23Z</time>
      </trkpt>
      <trkpt lat="49.20189" lon="6.69295">
        <ele>206.34</ele>
        <time>2019-09-08T03:43:33Z</time>
      </trkpt>
      <trkpt lat="49.20202" lon="6.69301">
        <ele>206.34</ele>
        <time>2019-09-08T03:43:43Z</time>
      </trkpt>
      <trkpt lat="49.20213" lon="6.69313">
        <ele>206.34</ele>
        <time>2019-09-08T03:43:53Z</time>
      </trkpt>
      <trkpt lat="49.20222" lon="6.69324">
        <ele>206.34</ele>
        <time>2019-09-08T03:44:03Z</time>
      </trkpt>
      <trkpt lat="49.20232" lon="6.69335">
        <ele>205.86</ele>
        <time>2019-09-08T03:44:13Z</time>
      </trkpt>
      <trkpt lat="49.2024" lon="6.69345">
        <ele>205.86</ele>
        <time>2019-09-08T03:44:23Z</time>
      </trkpt>
      <trkpt lat="49.2025" lon="6.69356">
        <ele>205.86</ele>
        <time>2019-09-08T03:44:33Z</time>
      </trkpt>
      <trkpt lat="49.20258" lon="6.69366">
        <ele>205.86</ele>
        <time>2019-09-08T03:44:43Z</time>
      </trkpt>
      <trkpt lat="49.20266" lon="6.69375">
        <ele>205.86</ele>
        <time>2019-09-08T03:44:53Z</time>
      </trkpt>
      <trkpt lat="49.20279" lon="6.69385">
        <ele>204.9</ele>
        <time>2019-09-08T03:45:03Z</time>
      </trkpt>
      <trkpt lat="49.20288" lon="6.69394">
        <ele>204.9</ele>
        <time>2019-09-08T03:45:13Z</time>
      </trkpt>
      <trkpt lat="49.20298" lon="6.694">
        <ele>204.9</ele>
        <time>2019-09-08T03:45:23Z</time>
      </trkpt>
      <trkpt lat="49.20306" lon="6.69408">
        <ele>204.9</ele>
        <time>2019-09-08T03:45:33Z</time>
      </trkpt>
      <trkpt lat="49.20316" lon="6.69414">
        <ele>204.9</ele>
        <time>2019-09-08T03:45:43Z</time>
      </trkpt>
      <trkpt lat="49.20329" lon="6.69419">
        <ele>204.9</ele>
        <time>2019-09-08T03:45:53Z</time>
      </trkpt>
      <trkpt lat="49.20343" lon="6.69424">
        <ele>204.9</ele>
        <time>2019-09-08T03:46:03Z</time>
      </trkpt>
      <trkpt lat="49.20356" lon="6.69429">
        <ele>206.34</ele>
        <time>2019-09-08T03:46:13Z</time>
      </trkpt>
      <trkpt lat="49.20369" lon="6.6943">
        <ele>206.82</ele>
        <time>2019-09-08T03:46:23Z</time>
      </trkpt>
      <trkpt lat="49.20383" lon="6.69434">
        <ele>206.82</ele>
        <time>2019-09-08T03:46:33Z</time>
      </trkpt>
      <trkpt lat="49.20396" lon="6.69436">
        <ele>207.3</ele>
        <time>2019-09-08T03:46:43Z</time>
      </trkpt>
      <trkpt lat="49.20407" lon="6.69435">
        <ele>207.3</ele>
        <time>2019-09-08T03:46:53Z</time>
      </trkpt>
      <trkpt lat="49.20418" lon="6.69436">
        <ele>207.78</ele>
        <time>2019-09-08T03:47:03Z</time>
      </trkpt>
      <trkpt lat="49.20432" lon="6.69435">
        <ele>208.26</ele>
        <time>2019-09-08T03:47:13Z</time>
      </trkpt>
      <trkpt lat="49.20442" lon="6.69435">
        <ele>208.74</ele>
        <time>2019-09-08T03:47:23Z</time>
      </trkpt>
      <trkpt lat="49.20452" lon="6.69434">
        <ele>209.22</ele>
        <time>2019-09-08T03:47:33Z</time>
      </trkpt>
      <trkpt lat="49.20458" lon="6.6944">
        <ele>209.22</ele>
        <time>2019-09-08T03:47:43Z</time>
      </trkpt>
      <trkpt lat="49.20471" lon="6.69447">
        <ele>209.22</ele>
        <time>2019-09-08T03:47:53Z</time>
      </trkpt>
      <trkpt lat="49.20483" lon="6.69453">
        <ele>209.7</ele>
        <time>2019-09-08T03:48:03Z</time>
      </trkpt>
      <trkpt lat="49.20494" lon="6.69459">
        <ele>209.7</ele>
        <time>2019-09-08T03:48:13Z</time>
      </trkpt>
      <trkpt lat="49.20505" lon="6.69466">
        <ele>209.22</ele>
        <time>2019-09-08T03:48:23Z</time>
      </trkpt>
      <trkpt lat="49.20513" lon="6.69474">
        <ele>208.26</ele>
        <time>2019-09-08T03:48:33Z</time>
      </trkpt>
      <trkpt lat="49.20522" lon="6.69477">
        <ele>207.78</ele>
        <time>2019-09-08T03:48:43Z</time>
      </trkpt>
      <trkpt lat="49.20536" lon="6.69476">
        <ele>207.3</ele>
        <time>2019-09-08T03:48:53Z</time>
      </trkpt>
      <trkpt lat="49.20554" lon="6.69486">
        <ele>206.34</ele>
        <time>2019-09-08T03:49:03Z</time>
      </trkpt>
      <trkpt lat="49.20566" lon="6.69498">
        <ele>205.86</ele>
        <time>2019-09-08T03:49:13Z</time>
      </trkpt>
      <trkpt lat="49.20579" lon="6.69507">
        <ele>205.38</ele>
        <time>2019-09-08T03:49:23Z</time>
      </trkpt>
      <trkpt lat="49.20587" lon="6.69514">
        <ele>205.38</ele>
        <time>2019-09-08T03:49:33Z</time>
      </trkpt>
      <trkpt lat="49.20595" lon="6.69514">
        <ele>204.9</ele>
        <time>2019-09-08T03:49:43Z</time>
      </trkpt>
      <trkpt lat="49.20606" lon="6.69514">
        <ele>204.42</ele>
        <time>2019-09-08T03:49:53Z</time>
      </trkpt>
      <trkpt lat="49.20615" lon="6.69513">
        <ele>203.94</ele>
        <time>2019-09-08T03:50:03Z</time>
      </trkpt>
      <trkpt lat="49.20626" lon="6.69515">
        <ele>203.94</ele>
        <time>2019-09-08T03:50:13Z</time>
      </trkpt>
      <trkpt lat="49.2064" lon="6.69519">
        <ele>203.46</ele>
        <time>2019-09-08T03:50:23Z</time>
      </trkpt>
      <trkpt lat="49.20652" lon="6.69519">
        <ele>203.46</ele>
        <time>2019-09-08T03:50:33Z</time>
      </trkpt>
      <trkpt lat="49.20665" lon="6.69519">
        <ele>202.98</ele>
        <time>2019-09-08T03:50:43Z</time>
      </trkpt>
      <trkpt lat="49.20677" lon="6.69523">
        <ele>202.98</ele>
        <time>2019-09-08T03:50:53Z</time>
      </trkpt>
      <trkpt lat="49.20691" lon="6.69528">
        <ele>202.49</ele>
        <time>2019-09-08T03:51:03Z</time>
      </trkpt>
      <trkpt lat="49.20705" lon="6.69531">
        <ele>202.49</ele>
        <time>2019-09-08T03:51:13Z</time>
      </trkpt>
      <trkpt lat="49.20716" lon="6.69534">
        <ele>202.98</ele>
        <time>2019-09-08T03:51:23Z</time>
      </trkpt>
      <trkpt lat="49.20728" lon="6.69535">
        <ele>202.98</ele>
        <time>2019-09-08T03:51:33Z</time>
      </trkpt>
      <trkpt lat="49.20738" lon="6.6953">
        <ele>202.98</ele>
        <time>2019-09-08T03:51:43Z</time>
      </trkpt>
      <trkpt lat="49.20747" lon="6.69529">
        <ele>202.98</ele>
        <time>2019-09-08T03:51:53Z</time>
      </trkpt>
      <trkpt lat="49.20757" lon="6.69535">
        <ele>202.98</ele>
        <time>2019-09-08T03:52:03Z</time>
      </trkpt>
      <trkpt lat="49.20771" lon="6.69539">
        <ele>202.98</ele>
        <time>2019-09-08T03:52:13Z</time>
      </trkpt>
      <trkpt lat="49.20782" lon="6.69542">
        <ele>202.98</ele>
        <time>2019-09-08T03:52:23Z</time>
      </trkpt>
      <trkpt lat="49.20793" lon="6.69542">
        <ele>202.98</ele>
        <time>2019-09-08T03:52:33Z</time>
      </trkpt>
      <trkpt lat="49.20806" lon="6.69545">
        <ele>202.98</ele>
        <time>2019-09-08T03:52:43Z</time>
      </trkpt>
      <trkpt lat="49.20818" lon="6.69548">
        <ele>202.98</ele>
        <time>2019-09-08T03:52:53Z</time>
      </trkpt>
      <trkpt lat="49.20828" lon="6.69548">
        <ele>202.49</ele>
        <time>2019-09-08T03:53:03Z</time>
      </trkpt>
      <trkpt lat="49.20835" lon="6.69552">
        <ele>202.49</ele>
        <time>2019-09-08T03:53:13Z</time>
      </trkpt>
      <trkpt lat="49.20842" lon="6.69555">
        <ele>202.49</ele>
        <time>2019-09-08T03:53:23Z</time>
      </trkpt>
      <trkpt lat="49.20858" lon="6.69564">
        <ele>203.94</ele>
        <time>2019-09-08T03:53:33Z</time>
      </trkpt>
      <trkpt lat="49.20872" lon="6.6957">
        <ele>203.94</ele>
        <time>2019-09-08T03:53:43Z</time>
      </trkpt>
      <trkpt lat="49.20884" lon="6.69576">
        <ele>203.94</ele>
        <time>2019-09-08T03:53:53Z</time>
      </trkpt>
      <trkpt lat="49.20896" lon="6.69579">
        <ele>203.94</ele>
        <time>2019-09-08T03:54:03Z</time>
      </trkpt>
      <trkpt lat="49.20908" lon="6.69583">
        <ele>203.94</ele>
        <time>2019-09-08T03:54:13Z</time>
      </trkpt>
      <trkpt lat="49.20916" lon="6.69588">
        <ele>203.94</ele>
        <time>2019-09-08T03:54:23Z</time>
      </trkpt>
      <trkpt lat="49.20926" lon="6.69592">
        <ele>203.94</ele>
        <time>2019-09-08T03:54:33Z</time>
      </trkpt>
      <trkpt lat="49.20936" lon="6.696">
        <ele>204.42</ele>
        <time>2019-09-08T03:54:43Z</time>
      </trkpt>
      <trkpt lat="49.20947" lon="6.69607">
        <ele>204.42</ele>
        <time>2019-09-08T03:54:53Z</time>
      </trkpt>
      <trkpt lat="49.20958" lon="6.69613">
        <ele>204.42</ele>
        <time>2019-09-08T03:55:03Z</time>
      </trkpt>
      <trkpt lat="49.2097" lon="6.69614">
        <ele>204.42</ele>
        <time>2019-09-08T03:55:13Z</time>
      </trkpt>
      <trkpt lat="49.20982" lon="6.69618">
        <ele>204.9</ele>
        <time>2019-09-08T03:55:23Z</time>
      </trkpt>
      <trkpt lat="49.20996" lon="6.69619">
        <ele>204.9</ele>
        <time>2019-09-08T03:55:33Z</time>
      </trkpt>
      <trkpt lat="49.21006" lon="6.69622">
        <ele>205.38</ele>
        <time>2019-09-08T03:55:43Z</time>
      </trkpt>
      <trkpt lat="49.21017" lon="6.69622">
        <ele>205.38</ele>
        <time>2019-09-08T03:55:53Z</time>
      </trkpt>
      <trkpt lat="49.21028" lon="6.69622">
        <ele>205.86</ele>
        <time>2019-09-08T03:56:03Z</time>
      </trkpt>
      <trkpt lat="49.21039" lon="6.69621">
        <ele>205.86</ele>
        <time>2019-09-08T03:56:13Z</time>
      </trkpt>
      <trkpt lat="49.2105" lon="6.6962">
        <ele>205.86</ele>
        <time>2019-09-08T03:56:23Z</time>
      </trkpt>
      <trkpt lat="49.21061" lon="6.69621">
        <ele>206.34</ele>
        <time>2019-09-08T03:56:33Z</time>
      </trkpt>
      <trkpt lat="49.21072" lon="6.69621">
        <ele>206.34</ele>
        <time>2019-09-08T03:56:43Z</time>
      </trkpt>
      <trkpt lat="49.21083" lon="6.69619">
        <ele>206.34</ele>
        <time>2019-09-08T03:56:53Z</time>
      </trkpt>
      <trkpt lat="49.21094" lon="6.69616">
        <ele>206.82</ele>
        <time>2019-09-08T03:57:03Z</time>
      </trkpt>
      <trkpt lat="49.21105" lon="6.69615">
        <ele>206.82</ele>
        <time>2019-09-08T03:57:13Z</time>
      </trkpt>
      <trkpt lat="49.21117" lon="6.69613">
        <ele>206.82</ele>
        <time>2019-09-08T03:57:23Z</time>
      </trkpt>
      <trkpt lat="49.21128" lon="6.69612">
        <ele>206.82</ele>
        <time>2019-09-08T03:57:33Z</time>
      </trkpt>
      <trkpt lat="49.2114" lon="6.69615">
        <ele>206.82</ele>
        <time>2019-09-08T03:57:43Z</time>
      </trkpt>
      <trkpt lat="49.21148" lon="6.69611">
        <ele>206.82</ele>
        <time>2019-09-08T03:57:53Z</time>
      </trkpt>
      <trkpt lat="49.2116" lon="6.69607">
        <ele>206.82</ele>
        <time>2019-09-08T03:58:03Z</time>
      </trkpt>
      <trkpt lat="49.21172" lon="6.69604">
        <ele>206.82</ele>
        <time>2019-09-08T03:58:13Z</time>
      </trkpt>
      <trkpt lat="49.21185" lon="6.69599">
        <ele>206.82</ele>
        <time>2019-09-08T03:58:23Z</time>
      </trkpt>
      <trkpt lat="49.21197" lon="6.69594">
        <ele>206.82</ele>
        <time>2019-09-08T03:58:33Z</time>
      </trkpt>
      <trkpt lat="49.21208" lon="6.69589">
        <ele>207.3</ele>
        <time>2019-09-08T03:58:43Z</time>
      </trkpt>
      <trkpt lat="49.21219" lon="6.69583">
        <ele>205.86</ele>
        <time>2019-09-08T03:58:53Z</time>
      </trkpt>
      <trkpt lat="49.2123" lon="6.69577">
        <ele>205.86</ele>
        <time>2019-09-08T03:59:03Z</time>
      </trkpt>
      <trkpt lat="49.2124" lon="6.69573">
        <ele>205.86</ele>
        <time>2019-09-08T03:59:13Z</time>
      </trkpt>
      <trkpt lat="49.21251" lon="6.69567">
        <ele>205.86</ele>
        <time>2019-09-08T03:59:23Z</time>
      </trkpt>
      <trkpt lat="49.21261" lon="6.69561">
        <ele>205.38</ele>
        <time>2019-09-08T03:59:33Z</time>
      </trkpt>
      <trkpt lat="49.21271" lon="6.69556">
        <ele>205.86</ele>
        <time>2019-09-08T03:59:43Z</time>
      </trkpt>
      <trkpt lat="49.21282" lon="6.69551">
        <ele>205.86</ele>
        <time>2019-09-08T03:59:53Z</time>
      </trkpt>
      <trkpt lat="49.21294" lon="6.69544">
        <ele>205.86</ele>
        <time>2019-09-08T04:00:03Z</time>
      </trkpt>
      <trkpt lat="49.21305" lon="6.69539">
        <ele>205.86</ele>
        <time>2019-09-08T04:00:13Z</time>
      </trkpt>
      <trkpt lat="49.21316" lon="6.69533">
        <ele>205.86</ele>
        <time>2019-09-08T04:00:23Z</time>
      </trkpt>
      <trkpt lat="49.21327" lon="6.69527">
        <ele>205.38</ele>
        <time>2019-09-08T04:00:33Z</time>
      </trkpt>
      <trkpt lat="49.21339" lon="6.6952">
        <ele>205.38</ele>
        <time>2019-09-08T04:00:43Z</time>
      </trkpt>
      <trkpt lat="49.21349" lon="6.69514">
        <ele>205.38</ele>
        <time>2019-09-08T04:00:53Z</time>
      </trkpt>
      <trkpt lat="49.21359" lon="6.69508">
        <ele>205.38</ele>
        <time>2019-09-08T04:01:03Z</time>
      </trkpt>
      <trkpt lat="49.2137" lon="6.69504">
        <ele>205.38</ele>
        <time>2019-09-08T04:01:13Z</time>
      </trkpt>
      <trkpt lat="49.2138" lon="6.69497">
        <ele>205.38</ele>
        <time>2019-09-08T04:01:23Z</time>
      </trkpt>
      <trkpt lat="49.2139" lon="6.69491">
        <ele>205.38</ele>
        <time>2019-09-08T04:01:33Z</time>
      </trkpt>
      <trkpt lat="49.21399" lon="6.69484">
        <ele>205.38</ele>
        <time>2019-09-08T04:01:43Z</time>
      </trkpt>
      <trkpt lat="49.21408" lon="6.6948">
        <ele>205.86</ele>
        <time>2019-09-08T04:01:53Z</time>
      </trkpt>
      <trkpt lat="49.21419" lon="6.69474">
        <ele>205.86</ele>
        <time>2019-09-08T04:02:03Z</time>
      </trkpt>
      <trkpt lat="49.21432" lon="6.69466">
        <ele>205.86</ele>
        <time>2019-09-08T04:02:13Z</time>
      </trkpt>
      <trkpt lat="49.21442" lon="6.69458">
        <ele>205.86</ele>
        <time>2019-09-08T04:02:23Z</time>
      </trkpt>
      <trkpt lat="49.21453" lon="6.69448">
        <ele>205.86</ele>
        <time>2019-09-08T04:02:33Z</time>
      </trkpt>
      <trkpt lat="49.21464" lon="6.69441">
        <ele>205.86</ele>
        <time>2019-09-08T04:02:43Z</time>
      </trkpt>
      <trkpt lat="49.21472" lon="6.69427">
        <ele>205.86</ele>
        <time>2019-09-08T04:02:53Z</time>
      </trkpt>
      <trkpt lat="49.21479" lon="6.69414">
        <ele>205.86</ele>
        <time>2019-09-08T04:03:03Z</time>
      </trkpt>
      <trkpt lat="49.21487" lon="6.694">
        <ele>205.86</ele>
        <time>2019-09-08T04:03:13Z</time>
      </trkpt>
      <trkpt lat="49.21494" lon="6.69386">
        <ele>205.86</ele>
        <time>2019-09-08T04:03:23Z</time>
      </trkpt>
      <trkpt lat="49.21502" lon="6.69374">
        <ele>205.86</ele>
        <time>2019-09-08T04:03:33Z</time>
      </trkpt>
      <trkpt lat="49.21508" lon="6.6936">
        <ele>205.86</ele>
        <time>2019-09-08T04:03:43Z</time>
      </trkpt>
      <trkpt lat="49.21517" lon="6.69351">
        <ele>205.86</ele>
        <time>2019-09-08T04:03:53Z</time>
      </trkpt>
      <trkpt lat="49.21523" lon="6.69337">
        <ele>205.86</ele>
        <time>2019-09-08T04:04:03Z</time>
      </trkpt>
      <trkpt lat="49.21528" lon="6.69322">
        <ele>205.86</ele>
        <time>2019-09-08T04:04:13Z</time>
      </trkpt>
      <trkpt lat="49.21536" lon="6.69307">
        <ele>205.86</ele>
        <time>2019-09-08T04:04:23Z</time>
      </trkpt>
      <trkpt lat="49.21543" lon="6.69294">
        <ele>205.86</ele>
        <time>2019-09-08T04:04:33Z</time>
      </trkpt>
      <trkpt lat="49.21551" lon="6.69281">
        <ele>205.86</ele>
        <time>2019-09-08T04:04:43Z</time>
      </trkpt>
      <trkpt lat="49.21558" lon="6.69268">
        <ele>205.86</ele>
        <time>2019-09-08T04:04:53Z</time>
      </trkpt>
      <trkpt lat="49.21566" lon="6.69257">
        <ele>205.86</ele>
        <time>2019-09-08T04:05:03Z</time>
      </trkpt>
      <trkpt lat="49.21574" lon="6.69241">
        <ele>205.86</ele>
        <time>2019-09-08T04:05:13Z</time>
      </trkpt>
      <trkpt lat="49.2158" lon="6.69229">
        <ele>205.86</ele>
        <time>2019-09-08T04:05:23Z</time>
      </trkpt>
      <trkpt lat="49.21588" lon="6.69216">
        <ele>205.86</ele>
        <time>2019-09-08T04:05:33Z</time>
      </trkpt>
      <trkpt lat="49.21594" lon="6.69201">
        <ele>205.86</ele>
        <time>2019-09-08T04:05:43Z</time>
      </trkpt>
      <trkpt lat="49.21602" lon="6.6919">
        <ele>205.86</ele>
        <time>2019-09-08T04:05:53Z</time>
      </trkpt>
      <trkpt lat="49.21609" lon="6.69176">
        <ele>205.86</ele>
        <time>2019-09-08T04:06:03Z</time>
      </trkpt>
      <trkpt lat="49.21615" lon="6.69164">
        <ele>205.86</ele>
        <time>2019-09-08T04:06:13Z</time>
      </trkpt>
      <trkpt lat="49.21622" lon="6.69149">
        <ele>205.86</ele>
        <time>2019-09-08T04:06:23Z</time>
      </trkpt>
      <trkpt lat="49.2163" lon="6.69134">
        <ele>205.38</ele>
        <time>2019-09-08T04:06:33Z</time>
      </trkpt>
      <trkpt lat="49.21637" lon="6.6912">
        <ele>205.38</ele>
        <time>2019-09-08T04:06:43Z</time>
      </trkpt>
      <trkpt lat="49.21645" lon="6.69108">
        <ele>204.9</ele>
        <time>2019-09-08T04:06:53Z</time>
      </trkpt>
      <trkpt lat="49.21653" lon="6.69096">
        <ele>204.9</ele>
        <time>2019-09-08T04:07:03Z</time>
      </trkpt>
      <trkpt lat="49.21659" lon="6.69085">
        <ele>204.9</ele>
        <time>2019-09-08T04:07:13Z</time>
      </trkpt>
      <trkpt lat="49.21666" lon="6.69074">
        <ele>204.9</ele>
        <time>2019-09-08T04:07:23Z</time>
      </trkpt>
      <trkpt lat="49.21673" lon="6.6906">
        <ele>204.9</ele>
        <time>2019-09-08T04:07:33Z</time>
      </trkpt>
      <trkpt lat="49.2168" lon="6.69044">
        <ele>204.9</ele>
        <time>2019-09-08T04:07:43Z</time>
      </trkpt>
      <trkpt lat="49.21686" lon="6.6903">
        <ele>206.34</ele>
        <time>2019-09-08T04:07:53Z</time>
      </trkpt>
      <trkpt lat="49.21694" lon="6.6902">
        <ele>206.82</ele>
        <time>2019-09-08T04:08:03Z</time>
      </trkpt>
      <trkpt lat="49.21699" lon="6.69005">
        <ele>206.82</ele>
        <time>2019-09-08T04:08:13Z</time>
      </trkpt>
      <trkpt lat="49.21707" lon="6.68993">
        <ele>207.78</ele>
        <time>2019-09-08T04:08:23Z</time>
      </trkpt>
      <trkpt lat="49.21714" lon="6.68982">
        <ele>208.26</ele>
        <time>2019-09-08T04:08:33Z</time>
      </trkpt>
      <trkpt lat="49.21719" lon="6.6897">
        <ele>209.22</ele>
        <time>2019-09-08T04:08:43Z</time>
      </trkpt>
      <trkpt lat="49.21725" lon="6.68956">
        <ele>209.7</ele>
        <time>2019-09-08T04:08:53Z</time>
      </trkpt>
      <trkpt lat="49.21732" lon="6.68941">
        <ele>210.67</ele>
        <time>2019-09-08T04:09:03Z</time>
      </trkpt>
      <trkpt lat="49.2174" lon="6.6893">
        <ele>210.67</ele>
        <time>2019-09-08T04:09:13Z</time>
      </trkpt>
      <trkpt lat="49.21748" lon="6.6892">
        <ele>211.15</ele>
        <time>2019-09-08T04:09:23Z</time>
      </trkpt>
      <trkpt lat="49.21757" lon="6.68911">
        <ele>211.63</ele>
        <time>2019-09-08T04:09:33Z</time>
      </trkpt>
      <trkpt lat="49.21765" lon="6.68899">
        <ele>211.63</ele>
        <time>2019-09-08T04:09:43Z</time>
      </trkpt>
      <trkpt lat="49.21772" lon="6.68888">
        <ele>211.63</ele>
        <time>2019-09-08T04:09:53Z</time>
      </trkpt>
      <trkpt lat="49.21783" lon="6.68881">
        <ele>211.63</ele>
        <time>2019-09-08T04:10:03Z</time>
      </trkpt>
      <trkpt lat="49.21792" lon="6.68875">
        <ele>211.63</ele>
        <time>2019-09-08T04:10:13Z</time>
      </trkpt>
      <trkpt lat="49.21801" lon="6.68872">
        <ele>211.63</ele>
        <time>2019-09-08T04:10:23Z</time>
      </trkpt>
      <trkpt lat="49.21812" lon="6.68864">
        <ele>211.63</ele>
        <time>2019-09-08T04:10:33Z</time>
      </trkpt>
      <trkpt lat="49.21824" lon="6.68857">
        <ele>211.63</ele>
        <time>2019-09-08T04:10:43Z</time>
      </trkpt>
      <trkpt lat="49.21836" lon="6.6885">
        <ele>211.63</ele>
        <time>2019-09-08T04:10:53Z</time>
      </trkpt>
      <trkpt lat="49.21846" lon="6.68845">
        <ele>210.19</ele>
        <time>2019-09-08T04:11:03Z</time>
      </trkpt>
      <trkpt lat="49.21855" lon="6.68838">
        <ele>209.7</ele>
        <time>2019-09-08T04:11:13Z</time>
      </trkpt>
      <trkpt lat="49.21864" lon="6.68831">
        <ele>209.7</ele>
        <time>2019-09-08T04:11:23Z</time>
      </trkpt>
      <trkpt lat="49.21875" lon="6.68822">
        <ele>209.22</ele>
        <time>2019-09-08T04:11:33Z</time>
      </trkpt>
      <trkpt lat="49.2189" lon="6.68814">
        <ele>209.22</ele>
        <time>2019-09-08T04:11:43Z</time>
      </trkpt>
      <trkpt lat="49.21899" lon="6.68808">
        <ele>208.74</ele>
        <time>2019-09-08T04:11:53Z</time>
      </trkpt>
      <trkpt lat="49.2191" lon="6.68801">
        <ele>208.26</ele>
        <time>2019-09-08T04:12:03Z</time>
      </trkpt>
      <trkpt lat="49.21921" lon="6.68796">
        <ele>207.78</ele>
        <time>2019-09-08T04:12:13Z</time>
      </trkpt>
      <trkpt lat="49.21933" lon="6.68789">
        <ele>207.78</ele>
        <time>2019-09-08T04:12:23Z</time>
      </trkpt>
      <trkpt lat="49.21944" lon="6.68784">
        <ele>207.3</ele>
        <time>2019-09-08T04:12:33Z</time>
      </trkpt>
      <trkpt lat="49.21955" lon="6.68779">
        <ele>207.3</ele>
        <time>2019-09-08T04:12:43Z</time>
      </trkpt>
      <trkpt lat="49.21966" lon="6.68773">
        <ele>207.3</ele>
        <time>2019-09-08T04:12:53Z</time>
      </trkpt>
      <trkpt lat="49.21976" lon="6.68766">
        <ele>207.3</ele>
        <time>2019-09-08T04:13:03Z</time>
      </trkpt>
      <trkpt lat="49.21987" lon="6.68761">
        <ele>207.3</ele>
        <time>2019-09-08T04:13:13Z</time>
      </trkpt>
      <trkpt lat="49.21996" lon="6.68756">
        <ele>207.3</ele>
        <time>2019-09-08T04:13:23Z</time>
      </trkpt>
      <trkpt lat="49.22006" lon="6.6875">
        <ele>206.82</ele>
        <time>2019-09-08T04:13:33Z</time>
      </trkpt>
      <trkpt lat="49.2202" lon="6.68739">
        <ele>206.82</ele>
        <time>2019-09-08T04:13:43Z</time>
      </trkpt>
      <trkpt lat="49.22031" lon="6.6873">
        <ele>206.82</ele>
        <time>2019-09-08T04:13:53Z</time>
      </trkpt>
      <trkpt lat="49.22042" lon="6.68723">
        <ele>206.34</ele>
        <time>2019-09-08T04:14:03Z</time>
      </trkpt>
      <trkpt lat="49.22055" lon="6.68716">
        <ele>206.34</ele>
        <time>2019-09-08T04:14:13Z</time>
      </trkpt>
      <trkpt lat="49.22065" lon="6.68709">
        <ele>205.86</ele>
        <time>2019-09-08T04:14:23Z</time>
      </trkpt>
      <trkpt lat="49.22073" lon="6.68704">
        <ele>205.86</ele>
        <time>2019-09-08T04:14:33Z</time>
      </trkpt>
      <trkpt lat="49.22081" lon="6.687">
        <ele>205.38</ele>
        <time>2019-09-08T04:14:43Z</time>
      </trkpt>
      <trkpt lat="49.22091" lon="6.68694">
        <ele>205.38</ele>
        <time>2019-09-08T04:14:53Z</time>
      </trkpt>
      <trkpt lat="49.22102" lon="6.68686">
        <ele>204.9</ele>
        <time>2019-09-08T04:15:03Z</time>
      </trkpt>
      <trkpt lat="49.22112" lon="6.68681">
        <ele>204.9</ele>
        <time>2019-09-08T04:15:13Z</time>
      </trkpt>
      <trkpt lat="49.22122" lon="6.68673">
        <ele>204.9</ele>
        <time>2019-09-08T04:15:23Z</time>
      </trkpt>
      <trkpt lat="49.22131" lon="6.68668">
        <ele>204.42</ele>
        <time>2019-09-08T04:15:33Z</time>
      </trkpt>
      <trkpt lat="49.22142" lon="6.68662">
        <ele>204.42</ele>
        <time>2019-09-08T04:15:43Z</time>
      </trkpt>
      <trkpt lat="49.22153" lon="6.68657">
        <ele>204.42</ele>
        <time>2019-09-08T04:15:53Z</time>
      </trkpt>
      <trkpt lat="49.22164" lon="6.68655">
        <ele>204.42</ele>
        <time>2019-09-08T04:16:03Z</time>
      </trkpt>
      <trkpt lat="49.22174" lon="6.68648">
        <ele>204.42</ele>
        <time>2019-09-08T04:16:13Z</time>
      </trkpt>
      <trkpt lat="49.22184" lon="6.6864">
        <ele>204.42</ele>
        <time>2019-09-08T04:16:23Z</time>
      </trkpt>
      <trkpt lat="49.22195" lon="6.68635">
        <ele>204.42</ele>
        <time>2019-09-08T04:16:33Z</time>
      </trkpt>
      <trkpt lat="49.22209" lon="6.68626">
        <ele>204.42</ele>
        <time>2019-09-08T04:16:43Z</time>
      </trkpt>
      <trkpt lat="49.22223" lon="6.68615">
        <ele>204.42</ele>
        <time>2019-09-08T04:16:53Z</time>
      </trkpt>
      <trkpt lat="49.22238" lon="6.68606">
        <ele>203.94</ele>
        <time>2019-09-08T04:17:03Z</time>
      </trkpt>
      <trkpt lat="49.2225" lon="6.686">
        <ele>203.94</ele>
        <time>2019-09-08T04:17:13Z</time>
      </trkpt>
      <trkpt lat="49.22262" lon="6.68595">
        <ele>203.94</ele>
        <time>2019-09-08T04:17:23Z</time>
      </trkpt>
      <trkpt lat="49.22273" lon="6.6859">
        <ele>203.94</ele>
        <time>2019-09-08T04:17:33Z</time>
      </trkpt>
      <trkpt lat="49.22282" lon="6.68585">
        <ele>203.94</ele>
        <time>2019-09-08T04:17:43Z</time>
      </trkpt>
      <trkpt lat="49.2229" lon="6.68581">
        <ele>203.94</ele>
        <time>2019-09-08T04:17:53Z</time>
      </trkpt>
      <trkpt lat="49.22299" lon="6.68579">
        <ele>203.94</ele>
        <time>2019-09-08T04:18:03Z</time>
      </trkpt>
      <trkpt lat="49.22304" lon="6.68579">
        <ele>203.46</ele>
        <time>2019-09-08T04:18:13Z</time>
      </trkpt>
      <trkpt lat="49.22309" lon="6.68579">
        <ele>203.46</ele>
        <time>2019-09-08T04:18:23Z</time>
      </trkpt>
      <trkpt lat="49.22324" lon="6.68577">
        <ele>202.98</ele>
        <time>2019-09-08T04:18:33Z</time>
      </trkpt>
      <trkpt lat="49.22336" lon="6.68577">
        <ele>202.98</ele>
        <time>2019-09-08T04:18:43Z</time>
      </trkpt>
      <trkpt lat="49.22347" lon="6.68581">
        <ele>202.49</ele>
        <time>2019-09-08T04:18:53Z</time>
      </trkpt>
      <trkpt lat="49.22357" lon="6.68584">
        <ele>202.49</ele>
        <time>2019-09-08T04:19:03Z</time>
      </trkpt>
      <trkpt lat="49.22371" lon="6.68586">
        <ele>202.01</ele>
        <time>2019-09-08T04:19:13Z</time>
      </trkpt>
      <trkpt lat="49.22382" lon="6.68591">
        <ele>202.01</ele>
        <time>2019-09-08T04:19:23Z</time>
      </trkpt>
      <trkpt lat="49.22393" lon="6.68594">
        <ele>201.53</ele>
        <time>2019-09-08T04:19:33Z</time>
      </trkpt>
      <trkpt lat="49.22404" lon="6.68596">
        <ele>201.53</ele>
        <time>2019-09-08T04:19:43Z</time>
      </trkpt>
      <trkpt lat="49.22416" lon="6.68599">
        <ele>201.53</ele>
        <time>2019-09-08T04:19:53Z</time>
      </trkpt>
      <trkpt lat="49.22428" lon="6.68601">
        <ele>201.05</ele>
        <time>2019-09-08T04:20:03Z</time>
      </trkpt>
      <trkpt lat="49.22439" lon="6.68603">
        <ele>201.05</ele>
        <time>2019-09-08T04:20:13Z</time>
      </trkpt>
      <trkpt lat="49.22453" lon="6.68609">
        <ele>200.57</ele>
        <time>2019-09-08T04:20:23Z</time>
      </trkpt>
      <trkpt lat="49.22471" lon="6.68615">
        <ele>200.09</ele>
        <time>2019-09-08T04:20:33Z</time>
      </trkpt>
      <trkpt lat="49.22477" lon="6.68621">
        <ele>200.09</ele>
        <time>2019-09-08T04:20:43Z</time>
      </trkpt>
      <trkpt lat="49.22497" lon="6.68623">
        <ele>200.09</ele>
        <time>2019-09-08T04:20:53Z</time>
      </trkpt>
      <trkpt lat="49.22509" lon="6.6863">
        <ele>200.09</ele>
        <time>2019-09-08T04:21:03Z</time>
      </trkpt>
      <trkpt lat="49.22525" lon="6.68638">
        <ele>200.09</ele>
        <time>2019-09-08T04:21:13Z</time>
      </trkpt>
      <trkpt lat="49.22524" lon="6.68642">
        <ele>199.13</ele>
        <time>2019-09-08T04:21:23Z</time>
      </trkpt>
      <trkpt lat="49.22522" lon="6.68652">
        <ele>198.17</ele>
        <time>2019-09-08T04:21:33Z</time>
      </trkpt>
      <trkpt lat="49.22522" lon="6.68662">
        <ele>198.17</ele>
        <time>2019-09-08T04:21:43Z</time>
      </trkpt>
      <trkpt lat="49.22525" lon="6.68673">
        <ele>197.69</ele>
        <time>2019-09-08T04:21:53Z</time>
      </trkpt>
      <trkpt lat="49.22529" lon="6.68683">
        <ele>197.69</ele>
        <time>2019-09-08T04:22:03Z</time>
      </trkpt>
      <trkpt lat="49.22533" lon="6.68696">
        <ele>197.69</ele>
        <time>2019-09-08T04:22:13Z</time>
      </trkpt>
      <trkpt lat="49.22541" lon="6.68709">
        <ele>197.21</ele>
        <time>2019-09-08T04:22:23Z</time>
      </trkpt>
      <trkpt lat="49.22547" lon="6.68723">
        <ele>197.21</ele>
        <time>2019-09-08T04:22:33Z</time>
      </trkpt>
      <trkpt lat="49.22554" lon="6.68735">
        <ele>196.73</ele>
        <time>2019-09-08T04:22:43Z</time>
      </trkpt>
      <trkpt lat="49.2256" lon="6.6875">
        <ele>196.73</ele>
        <time>2019-09-08T04:22:53Z</time>
      </trkpt>
      <trkpt lat="49.22565" lon="6.68765">
        <ele>196.25</ele>
        <time>2019-09-08T04:23:03Z</time>
      </trkpt>
      <trkpt lat="49.22565" lon="6.68782">
        <ele>196.25</ele>
        <time>2019-09-08T04:23:13Z</time>
      </trkpt>
      <trkpt lat="49.22568" lon="6.68799">
        <ele>195.77</ele>
        <time>2019-09-08T04:23:23Z</time>
      </trkpt>
      <trkpt lat="49.2257" lon="6.68815">
        <ele>195.77</ele>
        <time>2019-09-08T04:23:33Z</time>
      </trkpt>
      <trkpt lat="49.22573" lon="6.68829">
        <ele>195.77</ele>
        <time>2019-09-08T04:23:43Z</time>
      </trkpt>
      <trkpt lat="49.22576" lon="6.6884">
        <ele>195.77</ele>
        <time>2019-09-08T04:23:53Z</time>
      </trkpt>
      <trkpt lat="49.22579" lon="6.68854">
        <ele>195.77</ele>
        <time>2019-09-08T04:24:03Z</time>
      </trkpt>
      <trkpt lat="49.2258" lon="6.68869">
        <ele>195.77</ele>
        <time>2019-09-08T04:24:13Z</time>
      </trkpt>
      <trkpt lat="49.22581" lon="6.68886">
        <ele>196.73</ele>
        <time>2019-09-08T04:24:23Z</time>
      </trkpt>
      <trkpt lat="49.22581" lon="6.689">
        <ele>196.73</ele>
        <time>2019-09-08T04:24:33Z</time>
      </trkpt>
      <trkpt lat="49.22582" lon="6.68911">
        <ele>196.73</ele>
        <time>2019-09-08T04:24:43Z</time>
      </trkpt>
      <trkpt lat="49.22584" lon="6.68919">
        <ele>196.73</ele>
        <time>2019-09-08T04:24:53Z</time>
      </trkpt>
      <trkpt lat="49.22587" lon="6.68927">
        <ele>196.73</ele>
        <time>2019-09-08T04:25:03Z</time>
      </trkpt>
      <trkpt lat="49.22593" lon="6.68943">
        <ele>196.73</ele>
        <time>2019-09-08T04:25:13Z</time>
      </trkpt>
      <trkpt lat="49.22594" lon="6.6896">
        <ele>197.21</ele>
        <time>2019-09-08T04:25:23Z</time>
      </trkpt>
      <trkpt lat="49.22594" lon="6.68976">
        <ele>196.73</ele>
        <time>2019-09-08T04:25:33Z</time>
      </trkpt>
      <trkpt lat="49.22594" lon="6.68991">
        <ele>197.21</ele>
        <time>2019-09-08T04:25:43Z</time>
      </trkpt>
      <trkpt lat="49.22601" lon="6.69002">
        <ele>197.69</ele>
        <time>2019-09-08T04:25:53Z</time>
      </trkpt>
      <trkpt lat="49.22614" lon="6.69">
        <ele>196.73</ele>
        <time>2019-09-08T04:26:03Z</time>
      </trkpt>
      <trkpt lat="49.22622" lon="6.68999">
        <ele>195.77</ele>
        <time>2019-09-08T04:26:13Z</time>
      </trkpt>
      <trkpt lat="49.22629" lon="6.69">
        <ele>195.77</ele>
        <time>2019-09-08T04:26:23Z</time>
      </trkpt>
      <trkpt lat="49.22638" lon="6.69007">
        <ele>195.77</ele>
        <time>2019-09-08T04:26:33Z</time>
      </trkpt>
      <trkpt lat="49.22644" lon="6.69015">
        <ele>195.77</ele>
        <time>2019-09-08T04:26:43Z</time>
      </trkpt>
      <trkpt lat="49.22654" lon="6.69023">
        <ele>195.77</ele>
        <time>2019-09-08T04:26:53Z</time>
      </trkpt>
      <trkpt lat="49.22662" lon="6.6903">
        <ele>195.77</ele>
        <time>2019-09-08T04:27:03Z</time>
      </trkpt>
      <trkpt lat="49.22674" lon="6.6904">
        <ele>195.77</ele>
        <time>2019-09-08T04:27:13Z</time>
      </trkpt>
      <trkpt lat="49.22689" lon="6.69047">
        <ele>196.73</ele>
        <time>2019-09-08T04:27:23Z</time>
      </trkpt>
      <trkpt lat="49.22696" lon="6.69052">
        <ele>197.21</ele>
        <time>2019-09-08T04:27:33Z</time>
      </trkpt>
      <trkpt lat="49.22704" lon="6.69058">
        <ele>197.21</ele>
        <time>2019-09-08T04:27:43Z</time>
      </trkpt>
      <trkpt lat="49.2272" lon="6.69065">
        <ele>197.21</ele>
        <time>2019-09-08T04:27:53Z</time>
      </trkpt>
      <trkpt lat="49.22728" lon="6.69068">
        <ele>197.21</ele>
        <time>2019-09-08T04:28:03Z</time>
      </trkpt>
      <trkpt lat="49.22738" lon="6.69075">
        <ele>197.21</ele>
        <time>2019-09-08T04:28:13Z</time>
      </trkpt>
      <trkpt lat="49.22747" lon="6.69081">
        <ele>197.69</ele>
        <time>2019-09-08T04:28:23Z</time>
      </trkpt>
      <trkpt lat="49.22758" lon="6.69083">
        <ele>198.17</ele>
        <time>2019-09-08T04:28:33Z</time>
      </trkpt>
      <trkpt lat="49.22762" lon="6.69083">
        <ele>198.17</ele>
        <time>2019-09-08T04:28:43Z</time>
      </trkpt>
      <trkpt lat="49.22771" lon="6.69086">
        <ele>198.17</ele>
        <time>2019-09-08T04:28:53Z</time>
      </trkpt>
      <trkpt lat="49.22784" lon="6.6909">
        <ele>198.65</ele>
        <time>2019-09-08T04:29:03Z</time>
      </trkpt>
      <trkpt lat="49.22797" lon="6.69093">
        <ele>198.17</ele>
        <time>2019-09-08T04:29:13Z</time>
      </trkpt>
      <trkpt lat="49.22804" lon="6.69094">
        <ele>198.17</ele>
        <time>2019-09-08T04:29:23Z</time>
      </trkpt>
      <trkpt lat="49.22811" lon="6.69096">
        <ele>198.17</ele>
        <time>2019-09-08T04:29:33Z</time>
      </trkpt>
      <trkpt lat="49.22822" lon="6.69095">
        <ele>198.65</ele>
        <time>2019-09-08T04:29:43Z</time>
      </trkpt>
      <trkpt lat="49.2283" lon="6.69093">
        <ele>198.17</ele>
        <time>2019-09-08T04:29:53Z</time>
      </trkpt>
      <trkpt lat="49.22839" lon="6.69092">
        <ele>198.17</ele>
        <time>2019-09-08T04:30:03Z</time>
      </trkpt>
      <trkpt lat="49.22849" lon="6.69097">
        <ele>198.65</ele>
        <time>2019-09-08T04:30:13Z</time>
      </trkpt>
      <trkpt lat="49.22861" lon="6.69099">
        <ele>198.17</ele>
        <time>2019-09-08T04:30:23Z</time>
      </trkpt>
      <trkpt lat="49.22873" lon="6.69102">
        <ele>198.65</ele>
        <time>2019-09-08T04:30:33Z</time>
      </trkpt>
      <trkpt lat="49.22885" lon="6.69109">
        <ele>198.65</ele>
        <time>2019-09-08T04:30:43Z</time>
      </trkpt>
      <trkpt lat="49.22898" lon="6.69113">
        <ele>198.65</ele>
        <time>2019-09-08T04:30:53Z</time>
      </trkpt>
      <trkpt lat="49.22911" lon="6.69116">
        <ele>198.65</ele>
        <time>2019-09-08T04:31:03Z</time>
      </trkpt>
      <trkpt lat="49.22922" lon="6.69117">
        <ele>198.65</ele>
        <time>2019-09-08T04:31:13Z</time>
      </trkpt>
      <trkpt lat="49.22934" lon="6.69122">
        <ele>199.13</ele>
        <time>2019-09-08T04:31:23Z</time>
      </trkpt>
      <trkpt lat="49.22947" lon="6.69126">
        <ele>199.13</ele>
        <time>2019-09-08T04:31:33Z</time>
      </trkpt>
      <trkpt lat="49.22957" lon="6.6913">
        <ele>199.13</ele>
        <time>2019-09-08T04:31:43Z</time>
      </trkpt>
      <trkpt lat="49.22966" lon="6.69132">
        <ele>199.61</ele>
        <time>2019-09-08T04:31:53Z</time>
      </trkpt>
      <trkpt lat="49.22979" lon="6.69136">
        <ele>199.13</ele>
        <time>2019-09-08T04:32:03Z</time>
      </trkpt>
      <trkpt lat="49.22992" lon="6.69141">
        <ele>199.13</ele>
        <time>2019-09-08T04:32:13Z</time>
      </trkpt>
      <trkpt lat="49.23004" lon="6.69146">
        <ele>199.61</ele>
        <time>2019-09-08T04:32:23Z</time>
      </trkpt>
      <trkpt lat="49.23014" lon="6.6915">
        <ele>199.61</ele>
        <time>2019-09-08T04:32:33Z</time>
      </trkpt>
      <trkpt lat="49.23026" lon="6.69151">
        <ele>199.61</ele>
        <time>2019-09-08T04:32:43Z</time>
      </trkpt>
      <trkpt lat="49.23034" lon="6.69155">
        <ele>199.61</ele>
        <time>2019-09-08T04:32:53Z</time>
      </trkpt>
      <trkpt lat="49.23042" lon="6.69158">
        <ele>200.09</ele>
        <time>2019-09-08T04:33:03Z</time>
      </trkpt>
      <trkpt lat="49.23052" lon="6.69161">
        <ele>200.09</ele>
        <time>2019-09-08T04:33:13Z</time>
      </trkpt>
      <trkpt lat="49.23063" lon="6.69165">
        <ele>200.09</ele>
        <time>2019-09-08T04:33:23Z</time>
      </trkpt>
      <trkpt lat="49.23073" lon="6.69168">
        <ele>199.61</ele>
        <time>2019-09-08T04:33:33Z</time>
      </trkpt>
      <trkpt lat="49.23083" lon="6.69171">
        <ele>200.09</ele>
        <time>2019-09-08T04:33:43Z</time>
      </trkpt>
      <trkpt lat="49.23099" lon="6.69174">
        <ele>200.09</ele>
        <time>2019-09-08T04:33:53Z</time>
      </trkpt>
      <trkpt lat="49.23112" lon="6.69176">
        <ele>200.09</ele>
        <time>2019-09-08T04:34:03Z</time>
      </trkpt>
      <trkpt lat="49.23123" lon="6.69178">
        <ele>200.09</ele>
        <time>2019-09-08T04:34:13Z</time>
      </trkpt>
      <trkpt lat="49.23134" lon="6.69182">
        <ele>200.57</ele>
        <time>2019-09-08T04:34:23Z</time>
      </trkpt>
      <trkpt lat="49.23144" lon="6.69187">
        <ele>200.09</ele>
        <time>2019-09-08T04:34:33Z</time>
      </trkpt>
      <trkpt lat="49.23156" lon="6.69191">
        <ele>200.09</ele>
        <time>2019-09-08T04:34:43Z</time>
      </trkpt>
      <trkpt lat="49.23165" lon="6.69193">
        <ele>200.57</ele>
        <time>2019-09-08T04:34:53Z</time>
      </trkpt>
      <trkpt lat="49.23174" lon="6.69199">
        <ele>200.57</ele>
        <time>2019-09-08T04:35:03Z</time>
      </trkpt>
      <trkpt lat="49.23182" lon="6.69203">
        <ele>200.57</ele>
        <time>2019-09-08T04:35:13Z</time>
      </trkpt>
      <trkpt lat="49.23191" lon="6.69204">
        <ele>202.01</ele>
        <time>2019-09-08T04:35:23Z</time>
      </trkpt>
      <trkpt lat="49.23198" lon="6.69207">
        <ele>203.46</ele>
        <time>2019-09-08T04:35:33Z</time>
      </trkpt>
      <trkpt lat="49.23209" lon="6.6921">
        <ele>204.9</ele>
        <time>2019-09-08T04:35:43Z</time>
      </trkpt>
      <trkpt lat="49.23222" lon="6.69214">
        <ele>205.86</ele>
        <time>2019-09-08T04:35:53Z</time>
      </trkpt>
      <trkpt lat="49.23235" lon="6.69222">
        <ele>205.38</ele>
        <time>2019-09-08T04:36:03Z</time>
      </trkpt>
      <trkpt lat="49.23243" lon="6.69224">
        <ele>205.86</ele>
        <time>2019-09-08T04:36:13Z</time>
      </trkpt>
      <trkpt lat="49.23255" lon="6.69225">
        <ele>205.86</ele>
        <time>2019-09-08T04:36:23Z</time>
      </trkpt>
      <trkpt lat="49.23264" lon="6.69226">
        <ele>205.86</ele>
        <time>2019-09-08T04:36:33Z</time>
      </trkpt>
      <trkpt lat="49.23277" lon="6.69228">
        <ele>205.86</ele>
        <time>2019-09-08T04:36:43Z</time>
      </trkpt>
      <trkpt lat="49.23288" lon="6.69232">
        <ele>206.34</ele>
        <time>2019-09-08T04:36:53Z</time>
      </trkpt>
      <trkpt lat="49.23298" lon="6.69236">
        <ele>206.34</ele>
        <time>2019-09-08T04:37:03Z</time>
      </trkpt>
      <trkpt lat="49.23308" lon="6.69241">
        <ele>206.34</ele>
        <time>2019-09-08T04:37:13Z</time>
      </trkpt>
      <trkpt lat="49.23319" lon="6.69243">
        <ele>206.34</ele>
        <time>2019-09-08T04:37:23Z</time>
      </trkpt>
      <trkpt lat="49.23331" lon="6.69245">
        <ele>206.34</ele>
        <time>2019-09-08T04:37:33Z</time>
      </trkpt>
      <trkpt lat="49.23345" lon="6.69248">
        <ele>206.34</ele>
        <time>2019-09-08T04:37:43Z</time>
      </trkpt>
      <trkpt lat="49.23355" lon="6.69253">
        <ele>206.34</ele>
        <time>2019-09-08T04:37:53Z</time>
      </trkpt>
      <trkpt lat="49.23367" lon="6.69256">
        <ele>205.38</ele>
        <time>2019-09-08T04:38:03Z</time>
      </trkpt>
      <trkpt lat="49.23377" lon="6.69261">
        <ele>205.38</ele>
        <time>2019-09-08T04:38:13Z</time>
      </trkpt>
      <trkpt lat="49.23388" lon="6.69265">
        <ele>205.38</ele>
        <time>2019-09-08T04:38:23Z</time>
      </trkpt>
      <trkpt lat="49.23398" lon="6.69268">
        <ele>205.38</ele>
        <time>2019-09-08T04:38:33Z</time>
      </trkpt>
      <trkpt lat="49.2341" lon="6.6927">
        <ele>205.38</ele>
        <time>2019-09-08T04:38:43Z</time>
      </trkpt>
      <trkpt lat="49.23422" lon="6.69272">
        <ele>204.9</ele>
        <time>2019-09-08T04:38:53Z</time>
      </trkpt>
      <trkpt lat="49.23433" lon="6.69275">
        <ele>204.9</ele>
        <time>2019-09-08T04:39:03Z</time>
      </trkpt>
      <trkpt lat="49.23445" lon="6.69279">
        <ele>204.9</ele>
        <time>2019-09-08T04:39:13Z</time>
      </trkpt>
      <trkpt lat="49.23457" lon="6.69282">
        <ele>204.9</ele>
        <time>2019-09-08T04:39:23Z</time>
      </trkpt>
      <trkpt lat="49.23467" lon="6.69287">
        <ele>204.9</ele>
        <time>2019-09-08T04:39:33Z</time>
      </trkpt>
      <trkpt lat="49.23477" lon="6.6929">
        <ele>205.38</ele>
        <time>2019-09-08T04:39:43Z</time>
      </trkpt>
      <trkpt lat="49.23487" lon="6.69294">
        <ele>204.9</ele>
        <time>2019-09-08T04:39:53Z</time>
      </trkpt>
      <trkpt lat="49.23496" lon="6.69303">
        <ele>204.9</ele>
        <time>2019-09-08T04:40:03Z</time>
      </trkpt>
      <trkpt lat="49.23506" lon="6.69304">
        <ele>204.9</ele>
        <time>2019-09-08T04:40:13Z</time>
      </trkpt>
      <trkpt lat="49.23517" lon="6.69312">
        <ele>204.9</ele>
        <time>2019-09-08T04:40:23Z</time>
      </trkpt>
      <trkpt lat="49.23526" lon="6.69316">
        <ele>204.42</ele>
        <time>2019-09-08T04:40:33Z</time>
      </trkpt>
      <trkpt lat="49.23539" lon="6.69322">
        <ele>204.42</ele>
        <time>2019-09-08T04:40:43Z</time>
      </trkpt>
      <trkpt lat="49.23552" lon="6.69328">
        <ele>204.42</ele>
        <time>2019-09-08T04:40:53Z</time>
      </trkpt>
      <trkpt lat="49.23566" lon="6.69332">
        <ele>203.94</ele>
        <time>2019-09-08T04:41:03Z</time>
      </trkpt>
      <trkpt lat="49.2358" lon="6.69337">
        <ele>204.42</ele>
        <time>2019-09-08T04:41:13Z</time>
      </trkpt>
      <trkpt lat="49.23594" lon="6.69343">
        <ele>204.42</ele>
        <time>2019-09-08T04:41:23Z</time>
      </trkpt>
      <trkpt lat="49.23603" lon="6.69348">
        <ele>203.94</ele>
        <time>2019-09-08T04:41:33Z</time>
      </trkpt>
      <trkpt lat="49.23613" lon="6.69353">
        <ele>203.94</ele>
        <time>2019-09-08T04:41:43Z</time>
      </trkpt>
      <trkpt lat="49.23623" lon="6.69357">
        <ele>203.94</ele>
        <time>2019-09-08T04:41:53Z</time>
      </trkpt>
      <trkpt lat="49.23633" lon="6.69363">
        <ele>203.94</ele>
        <time>2019-09-08T04:42:03Z</time>
      </trkpt>
      <trkpt lat="49.23638" lon="6.69372">
        <ele>203.94</ele>
        <time>2019-09-08T04:42:13Z</time>
      </trkpt>
      <trkpt lat="49.23643" lon="6.69388">
        <ele>203.94</ele>
        <time>2019-09-08T04:42:23Z</time>
      </trkpt>
      <trkpt lat="49.23645" lon="6.69406">
        <ele>203.94</ele>
        <time>2019-09-08T04:42:33Z</time>
      </trkpt>
      <trkpt lat="49.23648" lon="6.69421">
        <ele>203.94</ele>
        <time>2019-09-08T04:42:43Z</time>
      </trkpt>
      <trkpt lat="49.23651" lon="6.69439">
        <ele>204.42</ele>
        <time>2019-09-08T04:42:53Z</time>
      </trkpt>
      <trkpt lat="49.23653" lon="6.6945">
        <ele>205.38</ele>
        <time>2019-09-08T04:43:03Z</time>
      </trkpt>
      <trkpt lat="49.23654" lon="6.69444">
        <ele>205.38</ele>
        <time>2019-09-08T04:43:13Z</time>
      </trkpt>
      <trkpt lat="49.23665" lon="6.69437">
        <ele>205.38</ele>
        <time>2019-09-08T04:43:23Z</time>
      </trkpt>
      <trkpt lat="49.23677" lon="6.69434">
        <ele>205.38</ele>
        <time>2019-09-08T04:43:33Z</time>
      </trkpt>
      <trkpt lat="49.23689" lon="6.69431">
        <ele>204.42</ele>
        <time>2019-09-08T04:43:43Z</time>
      </trkpt>
      <trkpt lat="49.23701" lon="6.69429">
        <ele>203.94</ele>
        <time>2019-09-08T04:43:53Z</time>
      </trkpt>
      <trkpt lat="49.23713" lon="6.69429">
        <ele>203.46</ele>
        <time>2019-09-08T04:44:03Z</time>
      </trkpt>
      <trkpt lat="49.23727" lon="6.69429">
        <ele>203.46</ele>
        <time>2019-09-08T04:44:14Z</time>
      </trkpt>
      <trkpt lat="49.2374" lon="6.69428">
        <ele>203.46</ele>
        <time>2019-09-08T04:44:24Z</time>
      </trkpt>
      <trkpt lat="49.23751" lon="6.69426">
        <ele>203.46</ele>
        <time>2019-09-08T04:44:34Z</time>
      </trkpt>
      <trkpt lat="49.23763" lon="6.6943">
        <ele>203.46</ele>
        <time>2019-09-08T04:44:44Z</time>
      </trkpt>
      <trkpt lat="49.23775" lon="6.69435">
        <ele>203.46</ele>
        <time>2019-09-08T04:44:54Z</time>
      </trkpt>
      <trkpt lat="49.23786" lon="6.69441">
        <ele>203.46</ele>
        <time>2019-09-08T04:45:04Z</time>
      </trkpt>
      <trkpt lat="49.23798" lon="6.69446">
        <ele>203.46</ele>
        <time>2019-09-08T04:45:14Z</time>
      </trkpt>
      <trkpt lat="49.23808" lon="6.69447">
        <ele>203.46</ele>
        <time>2019-09-08T04:45:24Z</time>
      </trkpt>
      <trkpt lat="49.23819" lon="6.69448">
        <ele>203.46</ele>
        <time>2019-09-08T04:45:34Z</time>
      </trkpt>
      <trkpt lat="49.23828" lon="6.69451">
        <ele>203.46</ele>
        <time>2019-09-08T04:45:44Z</time>
      </trkpt>
      <trkpt lat="49.23837" lon="6.69453">
        <ele>203.46</ele>
        <time>2019-09-08T04:45:54Z</time>
      </trkpt>
      <trkpt lat="49.23848" lon="6.69455">
        <ele>203.46</ele>
        <time>2019-09-08T04:46:04Z</time>
      </trkpt>
      <trkpt lat="49.23858" lon="6.69455">
        <ele>203.46</ele>
        <time>2019-09-08T04:46:14Z</time>
      </trkpt>
      <trkpt lat="49.23869" lon="6.69452">
        <ele>203.94</ele>
        <time>2019-09-08T04:46:24Z</time>
      </trkpt>
      <trkpt lat="49.23882" lon="6.69452">
        <ele>203.94</ele>
        <time>2019-09-08T04:46:34Z</time>
      </trkpt>
      <trkpt lat="49.23891" lon="6.6945">
        <ele>203.94</ele>
        <time>2019-09-08T04:46:44Z</time>
      </trkpt>
      <trkpt lat="49.23902" lon="6.69449">
        <ele>203.94</ele>
        <time>2019-09-08T04:46:54Z</time>
      </trkpt>
      <trkpt lat="49.23915" lon="6.69444">
        <ele>203.46</ele>
        <time>2019-09-08T04:47:04Z</time>
      </trkpt>
      <trkpt lat="49.23928" lon="6.69448">
        <ele>203.46</ele>
        <time>2019-09-08T04:47:14Z</time>
      </trkpt>
      <trkpt lat="49.23941" lon="6.69448">
        <ele>203.46</ele>
        <time>2019-09-08T04:47:24Z</time>
      </trkpt>
      <trkpt lat="49.23954" lon="6.69447">
        <ele>203.46</ele>
        <time>2019-09-08T04:47:34Z</time>
      </trkpt>
      <trkpt lat="49.23964" lon="6.69442">
        <ele>202.98</ele>
        <time>2019-09-08T04:47:44Z</time>
      </trkpt>
      <trkpt lat="49.23976" lon="6.69444">
        <ele>202.98</ele>
        <time>2019-09-08T04:47:54Z</time>
      </trkpt>
      <trkpt lat="49.23987" lon="6.69441">
        <ele>202.98</ele>
        <time>2019-09-08T04:48:04Z</time>
      </trkpt>
      <trkpt lat="49.23998" lon="6.69439">
        <ele>202.98</ele>
        <time>2019-09-08T04:48:14Z</time>
      </trkpt>
      <trkpt lat="49.24011" lon="6.69438">
        <ele>202.49</ele>
        <time>2019-09-08T04:48:24Z</time>
      </trkpt>
      <trkpt lat="49.24016" lon="6.69439">
        <ele>202.49</ele>
        <time>2019-09-08T04:48:34Z</time>
      </trkpt>
      <trkpt lat="49.24013" lon="6.69429">
        <ele>202.49</ele>
        <time>2019-09-08T04:48:44Z</time>
      </trkpt>
      <trkpt lat="49.24012" lon="6.69423">
        <ele>202.49</ele>
        <time>2019-09-08T04:48:54Z</time>
      </trkpt>
      <trkpt lat="49.24017" lon="6.69427">
        <ele>202.49</ele>
        <time>2019-09-08T04:49:04Z</time>
      </trkpt>
      <trkpt lat="49.24021" lon="6.69438">
        <ele>202.49</ele>
        <time>2019-09-08T04:49:14Z</time>
      </trkpt>
      <trkpt lat="49.24024" lon="6.6945">
        <ele>202.49</ele>
        <time>2019-09-08T04:49:24Z</time>
      </trkpt>
      <trkpt lat="49.24024" lon="6.69465">
        <ele>202.49</ele>
        <time>2019-09-08T04:49:34Z</time>
      </trkpt>
      <trkpt lat="49.24025" lon="6.69478">
        <ele>202.49</ele>
        <time>2019-09-08T04:49:44Z</time>
      </trkpt>
      <trkpt lat="49.24029" lon="6.69493">
        <ele>202.49</ele>
        <time>2019-09-08T04:49:54Z</time>
      </trkpt>
      <trkpt lat="49.2403" lon="6.69509">
        <ele>202.49</ele>
        <time>2019-09-08T04:50:04Z</time>
      </trkpt>
      <trkpt lat="49.24033" lon="6.69521">
        <ele>202.49</ele>
        <time>2019-09-08T04:50:14Z</time>
      </trkpt>
      <trkpt lat="49.24041" lon="6.69521">
        <ele>202.49</ele>
        <time>2019-09-08T04:50:24Z</time>
      </trkpt>
      <trkpt lat="49.24051" lon="6.69518">
        <ele>202.49</ele>
        <time>2019-09-08T04:50:34Z</time>
      </trkpt>
      <trkpt lat="49.24062" lon="6.69516">
        <ele>202.49</ele>
        <time>2019-09-08T04:50:44Z</time>
      </trkpt>
      <trkpt lat="49.24073" lon="6.69512">
        <ele>202.49</ele>
        <time>2019-09-08T04:50:54Z</time>
      </trkpt>
      <trkpt lat="49.24083" lon="6.69509">
        <ele>202.49</ele>
        <time>2019-09-08T04:51:04Z</time>
      </trkpt>
      <trkpt lat="49.24095" lon="6.69507">
        <ele>202.49</ele>
        <time>2019-09-08T04:51:14Z</time>
      </trkpt>
      <trkpt lat="49.24105" lon="6.69504">
        <ele>202.49</ele>
        <time>2019-09-08T04:51:24Z</time>
      </trkpt>
      <trkpt lat="49.24116" lon="6.69501">
        <ele>202.01</ele>
        <time>2019-09-08T04:51:34Z</time>
      </trkpt>
      <trkpt lat="49.24129" lon="6.69497">
        <ele>202.01</ele>
        <time>2019-09-08T04:51:44Z</time>
      </trkpt>
      <trkpt lat="49.24139" lon="6.69495">
        <ele>201.53</ele>
        <time>2019-09-08T04:51:54Z</time>
      </trkpt>
      <trkpt lat="49.2415" lon="6.69491">
        <ele>201.53</ele>
        <time>2019-09-08T04:52:04Z</time>
      </trkpt>
      <trkpt lat="49.24162" lon="6.69489">
        <ele>201.53</ele>
        <time>2019-09-08T04:52:14Z</time>
      </trkpt>
      <trkpt lat="49.24174" lon="6.69486">
        <ele>201.53</ele>
        <time>2019-09-08T04:52:24Z</time>
      </trkpt>
      <trkpt lat="49.24185" lon="6.69485">
        <ele>201.05</ele>
        <time>2019-09-08T04:52:34Z</time>
      </trkpt>
      <trkpt lat="49.24195" lon="6.69484">
        <ele>201.05</ele>
        <time>2019-09-08T04:52:44Z</time>
      </trkpt>
      <trkpt lat="49.24206" lon="6.69483">
        <ele>200.57</ele>
        <time>2019-09-08T04:52:54Z</time>
      </trkpt>
      <trkpt lat="49.24218" lon="6.69482">
        <ele>200.09</ele>
        <time>2019-09-08T04:53:04Z</time>
      </trkpt>
      <trkpt lat="49.24229" lon="6.69481">
        <ele>200.57</ele>
        <time>2019-09-08T04:53:14Z</time>
      </trkpt>
      <trkpt lat="49.2424" lon="6.69478">
        <ele>200.09</ele>
        <time>2019-09-08T04:53:24Z</time>
      </trkpt>
      <trkpt lat="49.24254" lon="6.69476">
        <ele>200.09</ele>
        <time>2019-09-08T04:53:34Z</time>
      </trkpt>
      <trkpt lat="49.24268" lon="6.69473">
        <ele>199.61</ele>
        <time>2019-09-08T04:53:44Z</time>
      </trkpt>
      <trkpt lat="49.2428" lon="6.6947">
        <ele>199.61</ele>
        <time>2019-09-08T04:53:54Z</time>
      </trkpt>
      <trkpt lat="49.24289" lon="6.69466">
        <ele>199.61</ele>
        <time>2019-09-08T04:54:04Z</time>
      </trkpt>
      <trkpt lat="49.24301" lon="6.69462">
        <ele>199.61</ele>
        <time>2019-09-08T04:54:14Z</time>
      </trkpt>
      <trkpt lat="49.24313" lon="6.6946">
        <ele>199.61</ele>
        <time>2019-09-08T04:54:24Z</time>
      </trkpt>
      <trkpt lat="49.24325" lon="6.6946">
        <ele>199.61</ele>
        <time>2019-09-08T04:54:34Z</time>
      </trkpt>
      <trkpt lat="49.24336" lon="6.69458">
        <ele>200.57</ele>
        <time>2019-09-08T04:54:44Z</time>
      </trkpt>
      <trkpt lat="49.24346" lon="6.69454">
        <ele>201.05</ele>
        <time>2019-09-08T04:54:54Z</time>
      </trkpt>
      <trkpt lat="49.24355" lon="6.69458">
        <ele>201.53</ele>
        <time>2019-09-08T04:55:04Z</time>
      </trkpt>
      <trkpt lat="49.24362" lon="6.69457">
        <ele>201.53</ele>
        <time>2019-09-08T04:55:14Z</time>
      </trkpt>
      <trkpt lat="49.2436" lon="6.6946">
        <ele>201.53</ele>
        <time>2019-09-08T04:55:24Z</time>
      </trkpt>
      <trkpt lat="49.24365" lon="6.69459">
        <ele>202.01</ele>
        <time>2019-09-08T04:55:34Z</time>
      </trkpt>
      <trkpt lat="49.24374" lon="6.69458">
        <ele>202.01</ele>
        <time>2019-09-08T04:55:44Z</time>
      </trkpt>
      <trkpt lat="49.24386" lon="6.69459">
        <ele>200.57</ele>
        <time>2019-09-08T04:55:54Z</time>
      </trkpt>
      <trkpt lat="49.24398" lon="6.69459">
        <ele>200.09</ele>
        <time>2019-09-08T04:56:04Z</time>
      </trkpt>
      <trkpt lat="49.24408" lon="6.69457">
        <ele>199.61</ele>
        <time>2019-09-08T04:56:14Z</time>
      </trkpt>
      <trkpt lat="49.24417" lon="6.69457">
        <ele>198.65</ele>
        <time>2019-09-08T04:56:24Z</time>
      </trkpt>
      <trkpt lat="49.24428" lon="6.69456">
        <ele>198.17</ele>
        <time>2019-09-08T04:56:34Z</time>
      </trkpt>
      <trkpt lat="49.2444" lon="6.69457">
        <ele>197.69</ele>
        <time>2019-09-08T04:56:44Z</time>
      </trkpt>
      <trkpt lat="49.24452" lon="6.69457">
        <ele>196.73</ele>
        <time>2019-09-08T04:56:54Z</time>
      </trkpt>
      <trkpt lat="49.24463" lon="6.69456">
        <ele>196.73</ele>
        <time>2019-09-08T04:57:04Z</time>
      </trkpt>
      <trkpt lat="49.24473" lon="6.69457">
        <ele>196.73</ele>
        <time>2019-09-08T04:57:14Z</time>
      </trkpt>
      <trkpt lat="49.24483" lon="6.69455">
        <ele>196.25</ele>
        <time>2019-09-08T04:57:24Z</time>
      </trkpt>
      <trkpt lat="49.24495" lon="6.69454">
        <ele>196.25</ele>
        <time>2019-09-08T04:57:34Z</time>
      </trkpt>
      <trkpt lat="49.24507" lon="6.69451">
        <ele>195.77</ele>
        <time>2019-09-08T04:57:44Z</time>
      </trkpt>
      <trkpt lat="49.2452" lon="6.69451">
        <ele>195.77</ele>
        <time>2019-09-08T04:57:54Z</time>
      </trkpt>
      <trkpt lat="49.24532" lon="6.69451">
        <ele>195.77</ele>
        <time>2019-09-08T04:58:04Z</time>
      </trkpt>
      <trkpt lat="49.24543" lon="6.69449">
        <ele>195.77</ele>
        <time>2019-09-08T04:58:14Z</time>
      </trkpt>
      <trkpt lat="49.24553" lon="6.69448">
        <ele>195.77</ele>
        <time>2019-09-08T04:58:24Z</time>
      </trkpt>
      <trkpt lat="49.24564" lon="6.69447">
        <ele>195.77</ele>
        <time>2019-09-08T04:58:34Z</time>
      </trkpt>
      <trkpt lat="49.24575" lon="6.69445">
        <ele>195.28</ele>
        <time>2019-09-08T04:58:44Z</time>
      </trkpt>
      <trkpt lat="49.24585" lon="6.69441">
        <ele>195.28</ele>
        <time>2019-09-08T04:58:54Z</time>
      </trkpt>
      <trkpt lat="49.24595" lon="6.69439">
        <ele>195.28</ele>
        <time>2019-09-08T04:59:04Z</time>
      </trkpt>
      <trkpt lat="49.24607" lon="6.69441">
        <ele>194.8</ele>
        <time>2019-09-08T04:59:14Z</time>
      </trkpt>
      <trkpt lat="49.2462" lon="6.69441">
        <ele>194.8</ele>
        <time>2019-09-08T04:59:24Z</time>
      </trkpt>
      <trkpt lat="49.24633" lon="6.69445">
        <ele>194.32</ele>
        <time>2019-09-08T04:59:34Z</time>
      </trkpt>
      <trkpt lat="49.24643" lon="6.6945">
        <ele>193.84</ele>
        <time>2019-09-08T04:59:44Z</time>
      </trkpt>
      <trkpt lat="49.24655" lon="6.69454">
        <ele>193.84</ele>
        <time>2019-09-08T04:59:54Z</time>
      </trkpt>
      <trkpt lat="49.24666" lon="6.69458">
        <ele>193.36</ele>
        <time>2019-09-08T05:00:04Z</time>
      </trkpt>
      <trkpt lat="49.24679" lon="6.69465">
        <ele>192.88</ele>
        <time>2019-09-08T05:00:14Z</time>
      </trkpt>
      <trkpt lat="49.24689" lon="6.69475">
        <ele>192.88</ele>
        <time>2019-09-08T05:00:24Z</time>
      </trkpt>
      <trkpt lat="49.24696" lon="6.69489">
        <ele>192.4</ele>
        <time>2019-09-08T05:00:34Z</time>
      </trkpt>
      <trkpt lat="49.24699" lon="6.69504">
        <ele>192.4</ele>
        <time>2019-09-08T05:00:44Z</time>
      </trkpt>
      <trkpt lat="49.24701" lon="6.69521">
        <ele>191.92</ele>
        <time>2019-09-08T05:00:54Z</time>
      </trkpt>
      <trkpt lat="49.24702" lon="6.69538">
        <ele>191.92</ele>
        <time>2019-09-08T05:01:04Z</time>
      </trkpt>
      <trkpt lat="49.24705" lon="6.69555">
        <ele>191.92</ele>
        <time>2019-09-08T05:01:14Z</time>
      </trkpt>
      <trkpt lat="49.24707" lon="6.69574">
        <ele>191.92</ele>
        <time>2019-09-08T05:01:24Z</time>
      </trkpt>
      <trkpt lat="49.24709" lon="6.69592">
        <ele>191.92</ele>
        <time>2019-09-08T05:01:34Z</time>
      </trkpt>
      <trkpt lat="49.24712" lon="6.69611">
        <ele>191.92</ele>
        <time>2019-09-08T05:01:44Z</time>
      </trkpt>
      <trkpt lat="49.24713" lon="6.69628">
        <ele>191.92</ele>
        <time>2019-09-08T05:01:54Z</time>
      </trkpt>
      <trkpt lat="49.24715" lon="6.69648">
        <ele>191.92</ele>
        <time>2019-09-08T05:02:04Z</time>
      </trkpt>
      <trkpt lat="49.24717" lon="6.69666">
        <ele>191.44</ele>
        <time>2019-09-08T05:02:14Z</time>
      </trkpt>
      <trkpt lat="49.24719" lon="6.69684">
        <ele>191.44</ele>
        <time>2019-09-08T05:02:24Z</time>
      </trkpt>
      <trkpt lat="49.24724" lon="6.697">
        <ele>191.44</ele>
        <time>2019-09-08T05:02:34Z</time>
      </trkpt>
      <trkpt lat="49.2473" lon="6.69711">
        <ele>191.44</ele>
        <time>2019-09-08T05:02:44Z</time>
      </trkpt>
      <trkpt lat="49.24739" lon="6.6971">
        <ele>191.44</ele>
        <time>2019-09-08T05:02:54Z</time>
      </trkpt>
      <trkpt lat="49.2475" lon="6.69707">
        <ele>190.96</ele>
        <time>2019-09-08T05:03:04Z</time>
      </trkpt>
      <trkpt lat="49.24761" lon="6.69703">
        <ele>190.96</ele>
        <time>2019-09-08T05:03:14Z</time>
      </trkpt>
      <trkpt lat="49.24773" lon="6.697">
        <ele>191.44</ele>
        <time>2019-09-08T05:03:24Z</time>
      </trkpt>
      <trkpt lat="49.24785" lon="6.69699">
        <ele>191.44</ele>
        <time>2019-09-08T05:03:34Z</time>
      </trkpt>
      <trkpt lat="49.24799" lon="6.69695">
        <ele>191.44</ele>
        <time>2019-09-08T05:03:44Z</time>
      </trkpt>
      <trkpt lat="49.24812" lon="6.69693">
        <ele>191.44</ele>
        <time>2019-09-08T05:03:54Z</time>
      </trkpt>
      <trkpt lat="49.24824" lon="6.69691">
        <ele>191.44</ele>
        <time>2019-09-08T05:04:04Z</time>
      </trkpt>
      <trkpt lat="49.24836" lon="6.69692">
        <ele>191.44</ele>
        <time>2019-09-08T05:04:14Z</time>
      </trkpt>
      <trkpt lat="49.24847" lon="6.69689">
        <ele>191.44</ele>
        <time>2019-09-08T05:04:24Z</time>
      </trkpt>
      <trkpt lat="49.24856" lon="6.69689">
        <ele>190.96</ele>
        <time>2019-09-08T05:04:34Z</time>
      </trkpt>
      <trkpt lat="49.24867" lon="6.69687">
        <ele>190.96</ele>
        <time>2019-09-08T05:04:44Z</time>
      </trkpt>
      <trkpt lat="49.24878" lon="6.69687">
        <ele>190.96</ele>
        <time>2019-09-08T05:04:54Z</time>
      </trkpt>
      <trkpt lat="49.24891" lon="6.69686">
        <ele>190.96</ele>
        <time>2019-09-08T05:05:04Z</time>
      </trkpt>
      <trkpt lat="49.24902" lon="6.69686">
        <ele>190.96</ele>
        <time>2019-09-08T05:05:14Z</time>
      </trkpt>
      <trkpt lat="49.24913" lon="6.69685">
        <ele>190.96</ele>
        <time>2019-09-08T05:05:24Z</time>
      </trkpt>
      <trkpt lat="49.24924" lon="6.69685">
        <ele>190.96</ele>
        <time>2019-09-08T05:05:34Z</time>
      </trkpt>
      <trkpt lat="49.24937" lon="6.69685">
        <ele>191.44</ele>
        <time>2019-09-08T05:05:44Z</time>
      </trkpt>
      <trkpt lat="49.24948" lon="6.69685">
        <ele>191.44</ele>
        <time>2019-09-08T05:05:54Z</time>
      </trkpt>
      <trkpt lat="49.24959" lon="6.69684">
        <ele>191.44</ele>
        <time>2019-09-08T05:06:04Z</time>
      </trkpt>
      <trkpt lat="49.24972" lon="6.69683">
        <ele>191.44</ele>
        <time>2019-09-08T05:06:14Z</time>
      </trkpt>
      <trkpt lat="49.24983" lon="6.69681">
        <ele>191.44</ele>
        <time>2019-09-08T05:06:24Z</time>
      </trkpt>
      <trkpt lat="49.24996" lon="6.69681">
        <ele>191.44</ele>
        <time>2019-09-08T05:06:34Z</time>
      </trkpt>
      <trkpt lat="49.25009" lon="6.69684">
        <ele>191.44</ele>
        <time>2019-09-08T05:06:44Z</time>
      </trkpt>
      <trkpt lat="49.2502" lon="6.69686">
        <ele>191.44</ele>
        <time>2019-09-08T05:06:54Z</time>
      </trkpt>
      <trkpt lat="49.25031" lon="6.69687">
        <ele>191.44</ele>
        <time>2019-09-08T05:07:04Z</time>
      </trkpt>
      <trkpt lat="49.25042" lon="6.6969">
        <ele>191.44</ele>
        <time>2019-09-08T05:07:14Z</time>
      </trkpt>
      <trkpt lat="49.25053" lon="6.69691">
        <ele>191.44</ele>
        <time>2019-09-08T05:07:24Z</time>
      </trkpt>
      <trkpt lat="49.25064" lon="6.69694">
        <ele>191.44</ele>
        <time>2019-09-08T05:07:34Z</time>
      </trkpt>
      <trkpt lat="49.25074" lon="6.69699">
        <ele>191.44</ele>
        <time>2019-09-08T05:07:44Z</time>
      </trkpt>
      <trkpt lat="49.25085" lon="6.69704">
        <ele>191.44</ele>
        <time>2019-09-08T05:07:54Z</time>
      </trkpt>
      <trkpt lat="49.25082" lon="6.69718">
        <ele>191.44</ele>
        <time>2019-09-08T05:08:04Z</time>
      </trkpt>
      <trkpt lat="49.25083" lon="6.69733">
        <ele>191.44</ele>
        <time>2019-09-08T05:08:14Z</time>
      </trkpt>
      <trkpt lat="49.25091" lon="6.69746">
        <ele>191.44</ele>
        <time>2019-09-08T05:08:24Z</time>
      </trkpt>
      <trkpt lat="49.25103" lon="6.69753">
        <ele>191.44</ele>
        <time>2019-09-08T05:08:34Z</time>
      </trkpt>
      <trkpt lat="49.25113" lon="6.69757">
        <ele>190.96</ele>
        <time>2019-09-08T05:08:44Z</time>
      </trkpt>
      <trkpt lat="49.25123" lon="6.69767">
        <ele>190.96</ele>
        <time>2019-09-08T05:08:54Z</time>
      </trkpt>
      <trkpt lat="49.25131" lon="6.69779">
        <ele>190.48</ele>
        <time>2019-09-08T05:09:04Z</time>
      </trkpt>
      <trkpt lat="49.2514" lon="6.69791">
        <ele>190.48</ele>
        <time>2019-09-08T05:09:14Z</time>
      </trkpt>
      <trkpt lat="49.25147" lon="6.69803">
        <ele>190.48</ele>
        <time>2019-09-08T05:09:24Z</time>
      </trkpt>
      <trkpt lat="49.25154" lon="6.69816">
        <ele>190.48</ele>
        <time>2019-09-08T05:09:34Z</time>
      </trkpt>
      <trkpt lat="49.25159" lon="6.6983">
        <ele>190.48</ele>
        <time>2019-09-08T05:09:44Z</time>
      </trkpt>
      <trkpt lat="49.25166" lon="6.69844">
        <ele>190.96</ele>
        <time>2019-09-08T05:09:54Z</time>
      </trkpt>
      <trkpt lat="49.2517" lon="6.69858">
        <ele>190.96</ele>
        <time>2019-09-08T05:10:04Z</time>
      </trkpt>
      <trkpt lat="49.25173" lon="6.69873">
        <ele>190.96</ele>
        <time>2019-09-08T05:10:14Z</time>
      </trkpt>
      <trkpt lat="49.25178" lon="6.69889">
        <ele>190.96</ele>
        <time>2019-09-08T05:10:24Z</time>
      </trkpt>
      <trkpt lat="49.25185" lon="6.69905">
        <ele>190.96</ele>
        <time>2019-09-08T05:10:34Z</time>
      </trkpt>
      <trkpt lat="49.2519" lon="6.6992">
        <ele>190.96</ele>
        <time>2019-09-08T05:10:44Z</time>
      </trkpt>
      <trkpt lat="49.25195" lon="6.69935">
        <ele>190.96</ele>
        <time>2019-09-08T05:10:54Z</time>
      </trkpt>
      <trkpt lat="49.25204" lon="6.69943">
        <ele>190.96</ele>
        <time>2019-09-08T05:11:04Z</time>
      </trkpt>
      <trkpt lat="49.25212" lon="6.69955">
        <ele>190.96</ele>
        <time>2019-09-08T05:11:14Z</time>
      </trkpt>
      <trkpt lat="49.25217" lon="6.69967">
        <ele>190.96</ele>
        <time>2019-09-08T05:11:24Z</time>
      </trkpt>
      <trkpt lat="49.25222" lon="6.69984">
        <ele>190.96</ele>
        <time>2019-09-08T05:11:34Z</time>
      </trkpt>
      <trkpt lat="49.25227" lon="6.70002">
        <ele>191.92</ele>
        <time>2019-09-08T05:11:44Z</time>
      </trkpt>
      <trkpt lat="49.25232" lon="6.70018">
        <ele>191.92</ele>
        <time>2019-09-08T05:11:54Z</time>
      </trkpt>
      <trkpt lat="49.25236" lon="6.70035">
        <ele>191.92</ele>
        <time>2019-09-08T05:12:04Z</time>
      </trkpt>
      <trkpt lat="49.25242" lon="6.70052">
        <ele>192.4</ele>
        <time>2019-09-08T05:12:14Z</time>
      </trkpt>
      <trkpt lat="49.25247" lon="6.70068">
        <ele>192.88</ele>
        <time>2019-09-08T05:12:24Z</time>
      </trkpt>
      <trkpt lat="49.25251" lon="6.70084">
        <ele>192.88</ele>
        <time>2019-09-08T05:12:34Z</time>
      </trkpt>
      <trkpt lat="49.25256" lon="6.70099">
        <ele>193.36</ele>
        <time>2019-09-08T05:12:44Z</time>
      </trkpt>
      <trkpt lat="49.2526" lon="6.70115">
        <ele>193.84</ele>
        <time>2019-09-08T05:12:54Z</time>
      </trkpt>
      <trkpt lat="49.25265" lon="6.70131">
        <ele>193.84</ele>
        <time>2019-09-08T05:13:04Z</time>
      </trkpt>
      <trkpt lat="49.25269" lon="6.70148">
        <ele>194.32</ele>
        <time>2019-09-08T05:13:14Z</time>
      </trkpt>
      <trkpt lat="49.25273" lon="6.70163">
        <ele>194.32</ele>
        <time>2019-09-08T05:13:24Z</time>
      </trkpt>
      <trkpt lat="49.25279" lon="6.70177">
        <ele>194.8</ele>
        <time>2019-09-08T05:13:34Z</time>
      </trkpt>
      <trkpt lat="49.25283" lon="6.70194">
        <ele>194.8</ele>
        <time>2019-09-08T05:13:44Z</time>
      </trkpt>
      <trkpt lat="49.25289" lon="6.70207">
        <ele>194.8</ele>
        <time>2019-09-08T05:13:54Z</time>
      </trkpt>
      <trkpt lat="49.25293" lon="6.70225">
        <ele>195.28</ele>
        <time>2019-09-08T05:14:04Z</time>
      </trkpt>
      <trkpt lat="49.25297" lon="6.70241">
        <ele>195.28</ele>
        <time>2019-09-08T05:14:14Z</time>
      </trkpt>
      <trkpt lat="49.25302" lon="6.70258">
        <ele>195.28</ele>
        <time>2019-09-08T05:14:24Z</time>
      </trkpt>
      <trkpt lat="49.25307" lon="6.70273">
        <ele>195.28</ele>
        <time>2019-09-08T05:14:34Z</time>
      </trkpt>
      <trkpt lat="49.25311" lon="6.70288">
        <ele>195.77</ele>
        <time>2019-09-08T05:14:44Z</time>
      </trkpt>
      <trkpt lat="49.25315" lon="6.70304">
        <ele>195.77</ele>
        <time>2019-09-08T05:14:54Z</time>
      </trkpt>
      <trkpt lat="49.25319" lon="6.70321">
        <ele>195.77</ele>
        <time>2019-09-08T05:15:04Z</time>
      </trkpt>
      <trkpt lat="49.25324" lon="6.70337">
        <ele>195.77</ele>
        <time>2019-09-08T05:15:14Z</time>
      </trkpt>
      <trkpt lat="49.2533" lon="6.70353">
        <ele>195.77</ele>
        <time>2019-09-08T05:15:24Z</time>
      </trkpt>
      <trkpt lat="49.25335" lon="6.70368">
        <ele>195.77</ele>
        <time>2019-09-08T05:15:34Z</time>
      </trkpt>
      <trkpt lat="49.2534" lon="6.70382">
        <ele>195.77</ele>
        <time>2019-09-08T05:15:44Z</time>
      </trkpt>
      <trkpt lat="49.25344" lon="6.70399">
        <ele>195.77</ele>
        <time>2019-09-08T05:15:54Z</time>
      </trkpt>
      <trkpt lat="49.25348" lon="6.70415">
        <ele>194.32</ele>
        <time>2019-09-08T05:16:04Z</time>
      </trkpt>
      <trkpt lat="49.25353" lon="6.70431">
        <ele>194.32</ele>
        <time>2019-09-08T05:16:14Z</time>
      </trkpt>
      <trkpt lat="49.25357" lon="6.70446">
        <ele>193.84</ele>
        <time>2019-09-08T05:16:24Z</time>
      </trkpt>
      <trkpt lat="49.25363" lon="6.70459">
        <ele>193.84</ele>
        <time>2019-09-08T05:16:34Z</time>
      </trkpt>
      <trkpt lat="49.25368" lon="6.7047">
        <ele>193.36</ele>
        <time>2019-09-08T05:16:44Z</time>
      </trkpt>
      <trkpt lat="49.25374" lon="6.70487">
        <ele>193.36</ele>
        <time>2019-09-08T05:16:54Z</time>
      </trkpt>
      <trkpt lat="49.25379" lon="6.70504">
        <ele>193.36</ele>
        <time>2019-09-08T05:17:04Z</time>
      </trkpt>
      <trkpt lat="49.25386" lon="6.70516">
        <ele>193.36</ele>
        <time>2019-09-08T05:17:14Z</time>
      </trkpt>
      <trkpt lat="49.25391" lon="6.70528">
        <ele>193.36</ele>
        <time>2019-09-08T05:17:24Z</time>
      </trkpt>
      <trkpt lat="49.25397" lon="6.70545">
        <ele>193.36</ele>
        <time>2019-09-08T05:17:34Z</time>
      </trkpt>
      <trkpt lat="49.25403" lon="6.70562">
        <ele>193.36</ele>
        <time>2019-09-08T05:17:44Z</time>
      </trkpt>
      <trkpt lat="49.2541" lon="6.70577">
        <ele>193.36</ele>
        <time>2019-09-08T05:17:54Z</time>
      </trkpt>
      <trkpt lat="49.25416" lon="6.70594">
        <ele>193.36</ele>
        <time>2019-09-08T05:18:04Z</time>
      </trkpt>
      <trkpt lat="49.25423" lon="6.7061">
        <ele>193.36</ele>
        <time>2019-09-08T05:18:14Z</time>
      </trkpt>
      <trkpt lat="49.25429" lon="6.70625">
        <ele>193.36</ele>
        <time>2019-09-08T05:18:24Z</time>
      </trkpt>
      <trkpt lat="49.25435" lon="6.70639">
        <ele>193.36</ele>
        <time>2019-09-08T05:18:34Z</time>
      </trkpt>
      <trkpt lat="49.25441" lon="6.70653">
        <ele>194.8</ele>
        <time>2019-09-08T05:18:44Z</time>
      </trkpt>
      <trkpt lat="49.25447" lon="6.70667">
        <ele>194.8</ele>
        <time>2019-09-08T05:18:54Z</time>
      </trkpt>
      <trkpt lat="49.25453" lon="6.7068">
        <ele>194.8</ele>
        <time>2019-09-08T05:19:04Z</time>
      </trkpt>
      <trkpt lat="49.25459" lon="6.70696">
        <ele>194.8</ele>
        <time>2019-09-08T05:19:14Z</time>
      </trkpt>
      <trkpt lat="49.25466" lon="6.7071">
        <ele>194.8</ele>
        <time>2019-09-08T05:19:24Z</time>
      </trkpt>
      <trkpt lat="49.25472" lon="6.70725">
        <ele>194.8</ele>
        <time>2019-09-08T05:19:34Z</time>
      </trkpt>
      <trkpt lat="49.25477" lon="6.70738">
        <ele>194.8</ele>
        <time>2019-09-08T05:19:44Z</time>
      </trkpt>
      <trkpt lat="49.25484" lon="6.70752">
        <ele>194.8</ele>
        <time>2019-09-08T05:19:54Z</time>
      </trkpt>
      <trkpt lat="49.2549" lon="6.70765">
        <ele>195.28</ele>
        <time>2019-09-08T05:20:04Z</time>
      </trkpt>
      <trkpt lat="49.25497" lon="6.70776">
        <ele>195.28</ele>
        <time>2019-09-08T05:20:14Z</time>
      </trkpt>
      <trkpt lat="49.25503" lon="6.70789">
        <ele>195.28</ele>
        <time>2019-09-08T05:20:24Z</time>
      </trkpt>
      <trkpt lat="49.25511" lon="6.708">
        <ele>195.77</ele>
        <time>2019-09-08T05:20:34Z</time>
      </trkpt>
      <trkpt lat="49.25518" lon="6.70811">
        <ele>195.77</ele>
        <time>2019-09-08T05:20:44Z</time>
      </trkpt>
      <trkpt lat="49.25525" lon="6.70823">
        <ele>196.25</ele>
        <time>2019-09-08T05:20:54Z</time>
      </trkpt>
      <trkpt lat="49.25532" lon="6.70836">
        <ele>196.25</ele>
        <time>2019-09-08T05:21:04Z</time>
      </trkpt>
      <trkpt lat="49.25541" lon="6.7085">
        <ele>196.25</ele>
        <time>2019-09-08T05:21:14Z</time>
      </trkpt>
      <trkpt lat="49.25549" lon="6.70864">
        <ele>196.25</ele>
        <time>2019-09-08T05:21:24Z</time>
      </trkpt>
      <trkpt lat="49.25557" lon="6.70875">
        <ele>196.25</ele>
        <time>2019-09-08T05:21:34Z</time>
      </trkpt>
      <trkpt lat="49.25564" lon="6.70884">
        <ele>196.25</ele>
        <time>2019-09-08T05:21:44Z</time>
      </trkpt>
      <trkpt lat="49.25571" lon="6.70893">
        <ele>196.25</ele>
        <time>2019-09-08T05:21:54Z</time>
      </trkpt>
      <trkpt lat="49.25579" lon="6.70904">
        <ele>196.25</ele>
        <time>2019-09-08T05:22:04Z</time>
      </trkpt>
      <trkpt lat="49.25587" lon="6.70915">
        <ele>196.25</ele>
        <time>2019-09-08T05:22:14Z</time>
      </trkpt>
      <trkpt lat="49.25595" lon="6.70924">
        <ele>196.25</ele>
        <time>2019-09-08T05:22:24Z</time>
      </trkpt>
      <trkpt lat="49.25601" lon="6.7093">
        <ele>196.25</ele>
        <time>2019-09-08T05:22:34Z</time>
      </trkpt>
      <trkpt lat="49.2561" lon="6.70932">
        <ele>196.25</ele>
        <time>2019-09-08T05:22:44Z</time>
      </trkpt>
      <trkpt lat="49.25619" lon="6.70936">
        <ele>196.25</ele>
        <time>2019-09-08T05:22:54Z</time>
      </trkpt>
      <trkpt lat="49.25628" lon="6.70939">
        <ele>196.25</ele>
        <time>2019-09-08T05:23:04Z</time>
      </trkpt>
      <trkpt lat="49.25638" lon="6.70942">
        <ele>196.25</ele>
        <time>2019-09-08T05:23:14Z</time>
      </trkpt>
      <trkpt lat="49.25648" lon="6.70944">
        <ele>197.21</ele>
        <time>2019-09-08T05:23:24Z</time>
      </trkpt>
      <trkpt lat="49.25658" lon="6.70948">
        <ele>197.21</ele>
        <time>2019-09-08T05:23:34Z</time>
      </trkpt>
      <trkpt lat="49.25667" lon="6.70951">
        <ele>197.69</ele>
        <time>2019-09-08T05:23:44Z</time>
      </trkpt>
      <trkpt lat="49.25677" lon="6.70952">
        <ele>198.17</ele>
        <time>2019-09-08T05:23:54Z</time>
      </trkpt>
      <trkpt lat="49.25686" lon="6.70953">
        <ele>198.17</ele>
        <time>2019-09-08T05:24:04Z</time>
      </trkpt>
      <trkpt lat="49.25697" lon="6.70956">
        <ele>199.13</ele>
        <time>2019-09-08T05:24:14Z</time>
      </trkpt>
      <trkpt lat="49.25707" lon="6.7096">
        <ele>199.13</ele>
        <time>2019-09-08T05:24:24Z</time>
      </trkpt>
      <trkpt lat="49.25718" lon="6.70962">
        <ele>199.61</ele>
        <time>2019-09-08T05:24:34Z</time>
      </trkpt>
      <trkpt lat="49.25729" lon="6.70965">
        <ele>200.09</ele>
        <time>2019-09-08T05:24:44Z</time>
      </trkpt>
      <trkpt lat="49.25739" lon="6.70968">
        <ele>200.57</ele>
        <time>2019-09-08T05:24:54Z</time>
      </trkpt>
      <trkpt lat="49.25749" lon="6.70971">
        <ele>201.05</ele>
        <time>2019-09-08T05:25:04Z</time>
      </trkpt>
      <trkpt lat="49.2576" lon="6.70974">
        <ele>201.53</ele>
        <time>2019-09-08T05:25:14Z</time>
      </trkpt>
      <trkpt lat="49.25769" lon="6.70977">
        <ele>201.53</ele>
        <time>2019-09-08T05:25:24Z</time>
      </trkpt>
      <trkpt lat="49.25769" lon="6.70975">
        <ele>201.53</ele>
        <time>2019-09-08T05:25:34Z</time>
      </trkpt>
      <trkpt lat="49.2577" lon="6.70973">
        <ele>201.53</ele>
        <time>2019-09-08T05:25:44Z</time>
      </trkpt>
      <trkpt lat="49.25771" lon="6.70971">
        <ele>201.53</ele>
        <time>2019-09-08T05:25:54Z</time>
      </trkpt>
      <trkpt lat="49.25771" lon="6.70969">
        <ele>201.53</ele>
        <time>2019-09-08T05:26:04Z</time>
      </trkpt>
      <trkpt lat="49.25771" lon="6.70969">
        <ele>201.53</ele>
        <time>2019-09-08T05:26:14Z</time>
      </trkpt>
      <trkpt lat="49.25771" lon="6.70969">
        <ele>201.53</ele>
        <time>2019-09-08T05:26:24Z</time>
      </trkpt>
      <trkpt lat="49.2577" lon="6.70969">
        <ele>201.53</ele>
        <time>2019-09-08T05:26:34Z</time>
      </trkpt>
      <trkpt lat="49.25769" lon="6.7097">
        <ele>201.53</ele>
        <time>2019-09-08T05:26:44Z</time>
      </trkpt>
      <trkpt lat="49.25769" lon="6.70973">
        <ele>201.53</ele>
        <time>2019-09-08T05:26:54Z</time>
      </trkpt>
      <trkpt lat="49.2577" lon="6.70975">
        <ele>201.53</ele>
        <time>2019-09-08T05:27:04Z</time>
      </trkpt>
      <trkpt lat="49.25774" lon="6.70974">
        <ele>201.53</ele>
        <time>2019-09-08T05:27:14Z</time>
      </trkpt>
      <trkpt lat="49.25783" lon="6.70978">
        <ele>202.01</ele>
        <time>2019-09-08T05:27:24Z</time>
      </trkpt>
      <trkpt lat="49.25791" lon="6.70981">
        <ele>202.49</ele>
        <time>2019-09-08T05:27:34Z</time>
      </trkpt>
      <trkpt lat="49.25798" lon="6.70982">
        <ele>202.49</ele>
        <time>2019-09-08T05:27:44Z</time>
      </trkpt>
      <trkpt lat="49.25805" lon="6.70977">
        <ele>202.98</ele>
        <time>2019-09-08T05:27:54Z</time>
      </trkpt>
      <trkpt lat="49.25813" lon="6.70976">
        <ele>202.98</ele>
        <time>2019-09-08T05:28:04Z</time>
      </trkpt>
      <trkpt lat="49.25821" lon="6.70974">
        <ele>203.46</ele>
        <time>2019-09-08T05:28:14Z</time>
      </trkpt>
      <trkpt lat="49.25829" lon="6.70974">
        <ele>203.94</ele>
        <time>2019-09-08T05:28:24Z</time>
      </trkpt>
      <trkpt lat="49.25834" lon="6.70974">
        <ele>203.94</ele>
        <time>2019-09-08T05:28:34Z</time>
      </trkpt>
      <trkpt lat="49.25844" lon="6.70974">
        <ele>204.42</ele>
        <time>2019-09-08T05:28:44Z</time>
      </trkpt>
      <trkpt lat="49.25853" lon="6.70974">
        <ele>204.42</ele>
        <time>2019-09-08T05:28:54Z</time>
      </trkpt>
      <trkpt lat="49.25861" lon="6.70973">
        <ele>204.9</ele>
        <time>2019-09-08T05:29:04Z</time>
      </trkpt>
      <trkpt lat="49.25871" lon="6.70972">
        <ele>204.9</ele>
        <time>2019-09-08T05:29:14Z</time>
      </trkpt>
      <trkpt lat="49.25879" lon="6.70973">
        <ele>204.9</ele>
        <time>2019-09-08T05:29:24Z</time>
      </trkpt>
      <trkpt lat="49.25886" lon="6.70973">
        <ele>204.9</ele>
        <time>2019-09-08T05:29:34Z</time>
      </trkpt>
      <trkpt lat="49.25895" lon="6.70973">
        <ele>204.9</ele>
        <time>2019-09-08T05:29:44Z</time>
      </trkpt>
      <trkpt lat="49.25904" lon="6.70972">
        <ele>204.9</ele>
        <time>2019-09-08T05:29:54Z</time>
      </trkpt>
      <trkpt lat="49.25913" lon="6.70972">
        <ele>204.9</ele>
        <time>2019-09-08T05:30:04Z</time>
      </trkpt>
      <trkpt lat="49.2592" lon="6.70971">
        <ele>204.9</ele>
        <time>2019-09-08T05:30:14Z</time>
      </trkpt>
      <trkpt lat="49.25931" lon="6.70968">
        <ele>203.46</ele>
        <time>2019-09-08T05:30:24Z</time>
      </trkpt>
      <trkpt lat="49.25938" lon="6.70966">
        <ele>203.94</ele>
        <time>2019-09-08T05:30:34Z</time>
      </trkpt>
      <trkpt lat="49.25945" lon="6.70963">
        <ele>203.94</ele>
        <time>2019-09-08T05:30:44Z</time>
      </trkpt>
      <trkpt lat="49.25954" lon="6.70961">
        <ele>203.94</ele>
        <time>2019-09-08T05:30:54Z</time>
      </trkpt>
      <trkpt lat="49.25962" lon="6.70959">
        <ele>203.46</ele>
        <time>2019-09-08T05:31:04Z</time>
      </trkpt>
      <trkpt lat="49.25971" lon="6.70956">
        <ele>203.46</ele>
        <time>2019-09-08T05:31:14Z</time>
      </trkpt>
      <trkpt lat="49.2598" lon="6.70954">
        <ele>203.46</ele>
        <time>2019-09-08T05:31:24Z</time>
      </trkpt>
      <trkpt lat="49.25987" lon="6.70952">
        <ele>203.46</ele>
        <time>2019-09-08T05:31:34Z</time>
      </trkpt>
      <trkpt lat="49.25987" lon="6.70952">
        <ele>203.46</ele>
        <time>2019-09-08T05:31:44Z</time>
      </trkpt>
      <trkpt lat="49.25986" lon="6.70951">
        <ele>203.46</ele>
        <time>2019-09-08T05:31:54Z</time>
      </trkpt>
      <trkpt lat="49.25988" lon="6.70949">
        <ele>203.46</ele>
        <time>2019-09-08T05:32:04Z</time>
      </trkpt>
      <trkpt lat="49.25988" lon="6.70951">
        <ele>203.46</ele>
        <time>2019-09-08T05:32:14Z</time>
      </trkpt>
      <trkpt lat="49.25989" lon="6.70954">
        <ele>203.46</ele>
        <time>2019-09-08T05:32:24Z</time>
      </trkpt>
      <trkpt lat="49.25987" lon="6.70953">
        <ele>203.46</ele>
        <time>2019-09-08T05:32:34Z</time>
      </trkpt>
      <trkpt lat="49.25989" lon="6.70952">
        <ele>203.46</ele>
        <time>2019-09-08T05:32:44Z</time>
      </trkpt>
      <trkpt lat="49.25987" lon="6.7095">
        <ele>203.46</ele>
        <time>2019-09-08T05:32:54Z</time>
      </trkpt>
      <trkpt lat="49.25987" lon="6.70947">
        <ele>203.46</ele>
        <time>2019-09-08T05:33:04Z</time>
      </trkpt>
      <trkpt lat="49.25988" lon="6.70948">
        <ele>203.94</ele>
        <time>2019-09-08T05:33:14Z</time>
      </trkpt>
      <trkpt lat="49.25987" lon="6.70949">
        <ele>203.94</ele>
        <time>2019-09-08T05:33:24Z</time>
      </trkpt>
      <trkpt lat="49.25986" lon="6.7095">
        <ele>203.94</ele>
        <time>2019-09-08T05:33:34Z</time>
      </trkpt>
      <trkpt lat="49.25986" lon="6.70949">
        <ele>203.94</ele>
        <time>2019-09-08T05:33:44Z</time>
      </trkpt>
      <trkpt lat="49.25987" lon="6.70952">
        <ele>203.94</ele>
        <time>2019-09-08T05:33:54Z</time>
      </trkpt>
      <trkpt lat="49.25987" lon="6.70951">
        <ele>203.94</ele>
        <time>2019-09-08T05:34:04Z</time>
      </trkpt>
      <trkpt lat="49.25988" lon="6.70953">
        <ele>203.94</ele>
        <time>2019-09-08T05:34:14Z</time>
      </trkpt>
      <trkpt lat="49.25988" lon="6.70954">
        <ele>203.94</ele>
        <time>2019-09-08T05:34:24Z</time>
      </trkpt>
      <trkpt lat="49.25988" lon="6.70954">
        <ele>203.94</ele>
        <time>2019-09-08T05:34:34Z</time>
      </trkpt>
      <trkpt lat="49.25987" lon="6.70956">
        <ele>203.94</ele>
        <time>2019-09-08T05:34:44Z</time>
      </trkpt>
      <trkpt lat="49.25987" lon="6.70955">
        <ele>203.94</ele>
        <time>2019-09-08T05:34:54Z</time>
      </trkpt>
      <trkpt lat="49.25987" lon="6.70952">
        <ele>203.94</ele>
        <time>2019-09-08T05:35:04Z</time>
      </trkpt>
      <trkpt lat="49.25987" lon="6.70951">
        <ele>203.94</ele>
        <time>2019-09-08T05:35:14Z</time>
      </trkpt>
      <trkpt lat="49.25987" lon="6.7095">
        <ele>203.94</ele>
        <time>2019-09-08T05:35:24Z</time>
      </trkpt>
      <trkpt lat="49.25988" lon="6.70949">
        <ele>203.94</ele>
        <time>2019-09-08T05:35:34Z</time>
      </trkpt>
      <trkpt lat="49.25991" lon="6.70947">
        <ele>203.94</ele>
        <time>2019-09-08T05:35:44Z</time>
      </trkpt>
      <trkpt lat="49.25998" lon="6.70945">
        <ele>203.94</ele>
        <time>2019-09-08T05:35:54Z</time>
      </trkpt>
      <trkpt lat="49.26005" lon="6.70944">
        <ele>203.94</ele>
        <time>2019-09-08T05:36:04Z</time>
      </trkpt>
      <trkpt lat="49.26013" lon="6.70941">
        <ele>203.46</ele>
        <time>2019-09-08T05:36:14Z</time>
      </trkpt>
      <trkpt lat="49.26022" lon="6.7094">
        <ele>203.46</ele>
        <time>2019-09-08T05:36:24Z</time>
      </trkpt>
      <trkpt lat="49.2603" lon="6.70938">
        <ele>203.46</ele>
        <time>2019-09-08T05:36:34Z</time>
      </trkpt>
      <trkpt lat="49.26039" lon="6.70935">
        <ele>203.46</ele>
        <time>2019-09-08T05:36:44Z</time>
      </trkpt>
      <trkpt lat="49.26049" lon="6.70933">
        <ele>202.98</ele>
        <time>2019-09-08T05:36:54Z</time>
      </trkpt>
      <trkpt lat="49.26058" lon="6.7093">
        <ele>202.98</ele>
        <time>2019-09-08T05:37:04Z</time>
      </trkpt>
      <trkpt lat="49.26067" lon="6.70927">
        <ele>202.98</ele>
        <time>2019-09-08T05:37:14Z</time>
      </trkpt>
      <trkpt lat="49.26075" lon="6.70924">
        <ele>202.98</ele>
        <time>2019-09-08T05:37:24Z</time>
      </trkpt>
      <trkpt lat="49.26083" lon="6.70922">
        <ele>202.98</ele>
        <time>2019-09-08T05:37:34Z</time>
      </trkpt>
      <trkpt lat="49.26092" lon="6.7092">
        <ele>202.98</ele>
        <time>2019-09-08T05:37:44Z</time>
      </trkpt>
      <trkpt lat="49.26101" lon="6.70917">
        <ele>202.98</ele>
        <time>2019-09-08T05:37:54Z</time>
      </trkpt>
      <trkpt lat="49.2611" lon="6.70916">
        <ele>202.98</ele>
        <time>2019-09-08T05:38:04Z</time>
      </trkpt>
      <trkpt lat="49.2612" lon="6.70914">
        <ele>202.98</ele>
        <time>2019-09-08T05:38:14Z</time>
      </trkpt>
      <trkpt lat="49.26129" lon="6.70912">
        <ele>202.49</ele>
        <time>2019-09-08T05:38:24Z</time>
      </trkpt>
      <trkpt lat="49.26138" lon="6.7091">
        <ele>202.49</ele>
        <time>2019-09-08T05:38:34Z</time>
      </trkpt>
      <trkpt lat="49.26145" lon="6.70907">
        <ele>202.49</ele>
        <time>2019-09-08T05:38:44Z</time>
      </trkpt>
      <trkpt lat="49.26154" lon="6.70903">
        <ele>202.49</ele>
        <time>2019-09-08T05:38:54Z</time>
      </trkpt>
      <trkpt lat="49.26162" lon="6.709">
        <ele>202.49</ele>
        <time>2019-09-08T05:39:04Z</time>
      </trkpt>
      <trkpt lat="49.2617" lon="6.70899">
        <ele>202.01</ele>
        <time>2019-09-08T05:39:14Z</time>
      </trkpt>
      <trkpt lat="49.26179" lon="6.70896">
        <ele>202.01</ele>
        <time>2019-09-08T05:39:24Z</time>
      </trkpt>
      <trkpt lat="49.26187" lon="6.70893">
        <ele>202.01</ele>
        <time>2019-09-08T05:39:34Z</time>
      </trkpt>
      <trkpt lat="49.26195" lon="6.70891">
        <ele>202.01</ele>
        <time>2019-09-08T05:39:44Z</time>
      </trkpt>
      <trkpt lat="49.26204" lon="6.70889">
        <ele>202.01</ele>
        <time>2019-09-08T05:39:54Z</time>
      </trkpt>
      <trkpt lat="49.26213" lon="6.70886">
        <ele>202.01</ele>
        <time>2019-09-08T05:40:04Z</time>
      </trkpt>
      <trkpt lat="49.26222" lon="6.70884">
        <ele>202.01</ele>
        <time>2019-09-08T05:40:14Z</time>
      </trkpt>
      <trkpt lat="49.26232" lon="6.70881">
        <ele>202.01</ele>
        <time>2019-09-08T05:40:24Z</time>
      </trkpt>
      <trkpt lat="49.26243" lon="6.70878">
        <ele>202.01</ele>
        <time>2019-09-08T05:40:34Z</time>
      </trkpt>
      <trkpt lat="49.26253" lon="6.70875">
        <ele>202.01</ele>
        <time>2019-09-08T05:40:44Z</time>
      </trkpt>
      <trkpt lat="49.26262" lon="6.70872">
        <ele>202.01</ele>
        <time>2019-09-08T05:40:54Z</time>
      </trkpt>
      <trkpt lat="49.2627" lon="6.70869">
        <ele>202.01</ele>
        <time>2019-09-08T05:41:04Z</time>
      </trkpt>
      <trkpt lat="49.26279" lon="6.70866">
        <ele>202.01</ele>
        <time>2019-09-08T05:41:14Z</time>
      </trkpt>
      <trkpt lat="49.26289" lon="6.70865">
        <ele>202.01</ele>
        <time>2019-09-08T05:41:24Z</time>
      </trkpt>
      <trkpt lat="49.26298" lon="6.70861">
        <ele>202.01</ele>
        <time>2019-09-08T05:41:34Z</time>
      </trkpt>
      <trkpt lat="49.26307" lon="6.70858">
        <ele>202.01</ele>
        <time>2019-09-08T05:41:44Z</time>
      </trkpt>
      <trkpt lat="49.26315" lon="6.70855">
        <ele>202.01</ele>
        <time>2019-09-08T05:41:54Z</time>
      </trkpt>
      <trkpt lat="49.26324" lon="6.70852">
        <ele>202.01</ele>
        <time>2019-09-08T05:42:04Z</time>
      </trkpt>
      <trkpt lat="49.26334" lon="6.70849">
        <ele>202.01</ele>
        <time>2019-09-08T05:42:14Z</time>
      </trkpt>
      <trkpt lat="49.26343" lon="6.70846">
        <ele>202.01</ele>
        <time>2019-09-08T05:42:24Z</time>
      </trkpt>
      <trkpt lat="49.26352" lon="6.70843">
        <ele>202.01</ele>
        <time>2019-09-08T05:42:34Z</time>
      </trkpt>
      <trkpt lat="49.26361" lon="6.7084">
        <ele>202.01</ele>
        <time>2019-09-08T05:42:44Z</time>
      </trkpt>
      <trkpt lat="49.2637" lon="6.70837">
        <ele>202.01</ele>
        <time>2019-09-08T05:42:54Z</time>
      </trkpt>
      <trkpt lat="49.26378" lon="6.70833">
        <ele>202.01</ele>
        <time>2019-09-08T05:43:04Z</time>
      </trkpt>
      <trkpt lat="49.26381" lon="6.70832">
        <ele>202.01</ele>
        <time>2019-09-08T05:43:14Z</time>
      </trkpt>
      <trkpt lat="49.26383" lon="6.70835">
        <ele>202.01</ele>
        <time>2019-09-08T05:43:24Z</time>
      </trkpt>
      <trkpt lat="49.26383" lon="6.70834">
        <ele>202.01</ele>
        <time>2019-09-08T05:43:34Z</time>
      </trkpt>
      <trkpt lat="49.26381" lon="6.70828">
        <ele>202.01</ele>
        <time>2019-09-08T05:43:44Z</time>
      </trkpt>
      <trkpt lat="49.26379" lon="6.70818">
        <ele>202.49</ele>
        <time>2019-09-08T05:43:54Z</time>
      </trkpt>
      <trkpt lat="49.26379" lon="6.70821">
        <ele>202.49</ele>
        <time>2019-09-08T05:44:04Z</time>
      </trkpt>
      <trkpt lat="49.26378" lon="6.70823">
        <ele>202.49</ele>
        <time>2019-09-08T05:44:14Z</time>
      </trkpt>
      <trkpt lat="49.26378" lon="6.7082">
        <ele>202.49</ele>
        <time>2019-09-08T05:44:24Z</time>
      </trkpt>
      <trkpt lat="49.26376" lon="6.70817">
        <ele>202.49</ele>
        <time>2019-09-08T05:44:34Z</time>
      </trkpt>
      <trkpt lat="49.26376" lon="6.70817">
        <ele>202.49</ele>
        <time>2019-09-08T05:44:44Z</time>
      </trkpt>
      <trkpt lat="49.26382" lon="6.70826">
        <ele>202.49</ele>
        <time>2019-09-08T05:44:54Z</time>
      </trkpt>
      <trkpt lat="49.26386" lon="6.70832">
        <ele>202.49</ele>
        <time>2019-09-08T05:45:04Z</time>
      </trkpt>
      <trkpt lat="49.26388" lon="6.70833">
        <ele>202.49</ele>
        <time>2019-09-08T05:45:14Z</time>
      </trkpt>
      <trkpt lat="49.26394" lon="6.70831">
        <ele>202.49</ele>
        <time>2019-09-08T05:45:24Z</time>
      </trkpt>
      <trkpt lat="49.26401" lon="6.70828">
        <ele>202.98</ele>
        <time>2019-09-08T05:45:34Z</time>
      </trkpt>
      <trkpt lat="49.2641" lon="6.70825">
        <ele>202.98</ele>
        <time>2019-09-08T05:45:44Z</time>
      </trkpt>
      <trkpt lat="49.26419" lon="6.70822">
        <ele>202.49</ele>
        <time>2019-09-08T05:45:54Z</time>
      </trkpt>
      <trkpt lat="49.26428" lon="6.70818">
        <ele>202.49</ele>
        <time>2019-09-08T05:46:04Z</time>
      </trkpt>
      <trkpt lat="49.26438" lon="6.70816">
        <ele>202.49</ele>
        <time>2019-09-08T05:46:14Z</time>
      </trkpt>
      <trkpt lat="49.26448" lon="6.70814">
        <ele>202.49</ele>
        <time>2019-09-08T05:46:24Z</time>
      </trkpt>
      <trkpt lat="49.26458" lon="6.70811">
        <ele>202.49</ele>
        <time>2019-09-08T05:46:34Z</time>
      </trkpt>
      <trkpt lat="49.26465" lon="6.7081">
        <ele>202.49</ele>
        <time>2019-09-08T05:46:44Z</time>
      </trkpt>
      <trkpt lat="49.26474" lon="6.70807">
        <ele>202.49</ele>
        <time>2019-09-08T05:46:54Z</time>
      </trkpt>
      <trkpt lat="49.26485" lon="6.70803">
        <ele>202.49</ele>
        <time>2019-09-08T05:47:04Z</time>
      </trkpt>
      <trkpt lat="49.26495" lon="6.708">
        <ele>202.98</ele>
        <time>2019-09-08T05:47:14Z</time>
      </trkpt>
      <trkpt lat="49.26506" lon="6.70796">
        <ele>202.98</ele>
        <time>2019-09-08T05:47:24Z</time>
      </trkpt>
      <trkpt lat="49.26516" lon="6.70793">
        <ele>202.98</ele>
        <time>2019-09-08T05:47:34Z</time>
      </trkpt>
      <trkpt lat="49.26526" lon="6.7079">
        <ele>202.98</ele>
        <time>2019-09-08T05:47:44Z</time>
      </trkpt>
      <trkpt lat="49.26536" lon="6.70787">
        <ele>202.98</ele>
        <time>2019-09-08T05:47:54Z</time>
      </trkpt>
      <trkpt lat="49.26546" lon="6.70784">
        <ele>202.98</ele>
        <time>2019-09-08T05:48:04Z</time>
      </trkpt>
      <trkpt lat="49.26555" lon="6.70781">
        <ele>202.98</ele>
        <time>2019-09-08T05:48:14Z</time>
      </trkpt>
      <trkpt lat="49.26566" lon="6.70779">
        <ele>202.98</ele>
        <time>2019-09-08T05:48:24Z</time>
      </trkpt>
      <trkpt lat="49.26575" lon="6.70775">
        <ele>202.98</ele>
        <time>2019-09-08T05:48:34Z</time>
      </trkpt>
      <trkpt lat="49.26585" lon="6.70772">
        <ele>202.98</ele>
        <time>2019-09-08T05:48:44Z</time>
      </trkpt>
      <trkpt lat="49.26594" lon="6.70769">
        <ele>202.98</ele>
        <time>2019-09-08T05:48:54Z</time>
      </trkpt>
      <trkpt lat="49.26603" lon="6.70767">
        <ele>202.98</ele>
        <time>2019-09-08T05:49:04Z</time>
      </trkpt>
      <trkpt lat="49.26613" lon="6.70763">
        <ele>202.98</ele>
        <time>2019-09-08T05:49:14Z</time>
      </trkpt>
      <trkpt lat="49.26623" lon="6.70761">
        <ele>202.98</ele>
        <time>2019-09-08T05:49:24Z</time>
      </trkpt>
      <trkpt lat="49.26632" lon="6.70759">
        <ele>202.98</ele>
        <time>2019-09-08T05:49:34Z</time>
      </trkpt>
      <trkpt lat="49.26643" lon="6.70756">
        <ele>203.46</ele>
        <time>2019-09-08T05:49:44Z</time>
      </trkpt>
      <trkpt lat="49.26654" lon="6.70753">
        <ele>203.46</ele>
        <time>2019-09-08T05:49:54Z</time>
      </trkpt>
      <trkpt lat="49.26663" lon="6.7075">
        <ele>203.46</ele>
        <time>2019-09-08T05:50:04Z</time>
      </trkpt>
      <trkpt lat="49.26672" lon="6.70748">
        <ele>203.46</ele>
        <time>2019-09-08T05:50:14Z</time>
      </trkpt>
      <trkpt lat="49.2668" lon="6.70745">
        <ele>204.42</ele>
        <time>2019-09-08T05:50:24Z</time>
      </trkpt>
      <trkpt lat="49.26688" lon="6.70741">
        <ele>204.42</ele>
        <time>2019-09-08T05:50:34Z</time>
      </trkpt>
      <trkpt lat="49.26699" lon="6.70739">
        <ele>204.9</ele>
        <time>2019-09-08T05:50:44Z</time>
      </trkpt>
      <trkpt lat="49.26705" lon="6.70736">
        <ele>204.9</ele>
        <time>2019-09-08T05:50:54Z</time>
      </trkpt>
      <trkpt lat="49.26707" lon="6.70736">
        <ele>204.9</ele>
        <time>2019-09-08T05:51:04Z</time>
      </trkpt>
      <trkpt lat="49.26707" lon="6.70736">
        <ele>204.9</ele>
        <time>2019-09-08T05:51:14Z</time>
      </trkpt>
      <trkpt lat="49.26707" lon="6.70737">
        <ele>204.9</ele>
        <time>2019-09-08T05:51:24Z</time>
      </trkpt>
      <trkpt lat="49.26714" lon="6.70734">
        <ele>204.9</ele>
        <time>2019-09-08T05:51:34Z</time>
      </trkpt>
      <trkpt lat="49.26721" lon="6.70729">
        <ele>205.38</ele>
        <time>2019-09-08T05:51:44Z</time>
      </trkpt>
      <trkpt lat="49.26732" lon="6.70727">
        <ele>205.38</ele>
        <time>2019-09-08T05:51:54Z</time>
      </trkpt>
      <trkpt lat="49.26742" lon="6.70724">
        <ele>205.38</ele>
        <time>2019-09-08T05:52:04Z</time>
      </trkpt>
      <trkpt lat="49.2675" lon="6.70722">
        <ele>205.38</ele>
        <time>2019-09-08T05:52:14Z</time>
      </trkpt>
      <trkpt lat="49.26761" lon="6.70719">
        <ele>205.86</ele>
        <time>2019-09-08T05:52:24Z</time>
      </trkpt>
      <trkpt lat="49.26769" lon="6.70716">
        <ele>205.86</ele>
        <time>2019-09-08T05:52:34Z</time>
      </trkpt>
      <trkpt lat="49.26779" lon="6.70714">
        <ele>206.34</ele>
        <time>2019-09-08T05:52:44Z</time>
      </trkpt>
      <trkpt lat="49.26788" lon="6.7071">
        <ele>206.82</ele>
        <time>2019-09-08T05:52:54Z</time>
      </trkpt>
      <trkpt lat="49.26796" lon="6.70708">
        <ele>206.82</ele>
        <time>2019-09-08T05:53:04Z</time>
      </trkpt>
      <trkpt lat="49.26806" lon="6.70706">
        <ele>207.3</ele>
        <time>2019-09-08T05:53:14Z</time>
      </trkpt>
      <trkpt lat="49.26815" lon="6.70704">
        <ele>207.3</ele>
        <time>2019-09-08T05:53:24Z</time>
      </trkpt>
      <trkpt lat="49.26824" lon="6.70702">
        <ele>207.78</ele>
        <time>2019-09-08T05:53:34Z</time>
      </trkpt>
      <trkpt lat="49.26832" lon="6.70701">
        <ele>207.78</ele>
        <time>2019-09-08T05:53:44Z</time>
      </trkpt>
      <trkpt lat="49.26842" lon="6.70698">
        <ele>207.78</ele>
        <time>2019-09-08T05:53:54Z</time>
      </trkpt>
      <trkpt lat="49.26852" lon="6.70696">
        <ele>207.78</ele>
        <time>2019-09-08T05:54:04Z</time>
      </trkpt>
      <trkpt lat="49.26862" lon="6.70692">
        <ele>206.82</ele>
        <time>2019-09-08T05:54:14Z</time>
      </trkpt>
      <trkpt lat="49.26872" lon="6.70686">
        <ele>206.82</ele>
        <time>2019-09-08T05:54:24Z</time>
      </trkpt>
      <trkpt lat="49.26882" lon="6.70682">
        <ele>206.82</ele>
        <time>2019-09-08T05:54:34Z</time>
      </trkpt>
      <trkpt lat="49.26889" lon="6.70679">
        <ele>208.26</ele>
        <time>2019-09-08T05:54:44Z</time>
      </trkpt>
      <trkpt lat="49.26897" lon="6.70676">
        <ele>209.22</ele>
        <time>2019-09-08T05:54:54Z</time>
      </trkpt>
      <trkpt lat="49.26904" lon="6.70674">
        <ele>210.19</ele>
        <time>2019-09-08T05:55:04Z</time>
      </trkpt>
      <trkpt lat="49.26913" lon="6.70671">
        <ele>210.19</ele>
        <time>2019-09-08T05:55:14Z</time>
      </trkpt>
      <trkpt lat="49.26922" lon="6.70668">
        <ele>210.19</ele>
        <time>2019-09-08T05:55:24Z</time>
      </trkpt>
      <trkpt lat="49.26929" lon="6.70667">
        <ele>210.67</ele>
        <time>2019-09-08T05:55:34Z</time>
      </trkpt>
      <trkpt lat="49.26937" lon="6.70665">
        <ele>211.15</ele>
        <time>2019-09-08T05:55:44Z</time>
      </trkpt>
      <trkpt lat="49.26947" lon="6.70661">
        <ele>211.15</ele>
        <time>2019-09-08T05:55:54Z</time>
      </trkpt>
      <trkpt lat="49.26955" lon="6.70659">
        <ele>211.63</ele>
        <time>2019-09-08T05:56:04Z</time>
      </trkpt>
      <trkpt lat="49.26964" lon="6.70656">
        <ele>211.63</ele>
        <time>2019-09-08T05:56:14Z</time>
      </trkpt>
      <trkpt lat="49.26974" lon="6.70654">
        <ele>212.11</ele>
        <time>2019-09-08T05:56:24Z</time>
      </trkpt>
      <trkpt lat="49.26983" lon="6.70659">
        <ele>212.11</ele>
        <time>2019-09-08T05:56:34Z</time>
      </trkpt>
      <trkpt lat="49.26992" lon="6.70667">
        <ele>212.11</ele>
        <time>2019-09-08T05:56:44Z</time>
      </trkpt>
      <trkpt lat="49.26998" lon="6.70678">
        <ele>211.15</ele>
        <time>2019-09-08T05:56:54Z</time>
      </trkpt>
      <trkpt lat="49.27006" lon="6.70688">
        <ele>210.67</ele>
        <time>2019-09-08T05:57:04Z</time>
      </trkpt>
      <trkpt lat="49.27013" lon="6.70698">
        <ele>210.67</ele>
        <time>2019-09-08T05:57:14Z</time>
      </trkpt>
      <trkpt lat="49.2702" lon="6.70711">
        <ele>210.67</ele>
        <time>2019-09-08T05:57:24Z</time>
      </trkpt>
      <trkpt lat="49.27027" lon="6.70718">
        <ele>210.67</ele>
        <time>2019-09-08T05:57:34Z</time>
      </trkpt>
      <trkpt lat="49.27035" lon="6.7073">
        <ele>210.67</ele>
        <time>2019-09-08T05:57:44Z</time>
      </trkpt>
      <trkpt lat="49.27041" lon="6.70741">
        <ele>210.19</ele>
        <time>2019-09-08T05:57:54Z</time>
      </trkpt>
      <trkpt lat="49.27049" lon="6.70752">
        <ele>210.19</ele>
        <time>2019-09-08T05:58:04Z</time>
      </trkpt>
      <trkpt lat="49.27056" lon="6.70763">
        <ele>210.19</ele>
        <time>2019-09-08T05:58:14Z</time>
      </trkpt>
      <trkpt lat="49.27063" lon="6.70774">
        <ele>209.7</ele>
        <time>2019-09-08T05:58:24Z</time>
      </trkpt>
      <trkpt lat="49.2707" lon="6.70784">
        <ele>209.7</ele>
        <time>2019-09-08T05:58:34Z</time>
      </trkpt>
      <trkpt lat="49.27077" lon="6.70796">
        <ele>209.7</ele>
        <time>2019-09-08T05:58:44Z</time>
      </trkpt>
      <trkpt lat="49.27083" lon="6.70807">
        <ele>209.22</ele>
        <time>2019-09-08T05:58:54Z</time>
      </trkpt>
      <trkpt lat="49.27089" lon="6.70817">
        <ele>209.22</ele>
        <time>2019-09-08T05:59:04Z</time>
      </trkpt>
      <trkpt lat="49.27096" lon="6.70828">
        <ele>209.22</ele>
        <time>2019-09-08T05:59:14Z</time>
      </trkpt>
      <trkpt lat="49.27103" lon="6.7084">
        <ele>209.22</ele>
        <time>2019-09-08T05:59:24Z</time>
      </trkpt>
      <trkpt lat="49.27111" lon="6.7085">
        <ele>209.22</ele>
        <time>2019-09-08T05:59:34Z</time>
      </trkpt>
      <trkpt lat="49.27117" lon="6.70861">
        <ele>208.74</ele>
        <time>2019-09-08T05:59:44Z</time>
      </trkpt>
      <trkpt lat="49.27125" lon="6.70873">
        <ele>208.74</ele>
        <time>2019-09-08T05:59:54Z</time>
      </trkpt>
      <trkpt lat="49.27131" lon="6.70884">
        <ele>208.74</ele>
        <time>2019-09-08T06:00:04Z</time>
      </trkpt>
      <trkpt lat="49.27139" lon="6.70895">
        <ele>208.74</ele>
        <time>2019-09-08T06:00:14Z</time>
      </trkpt>
      <trkpt lat="49.27146" lon="6.70905">
        <ele>208.74</ele>
        <time>2019-09-08T06:00:24Z</time>
      </trkpt>
      <trkpt lat="49.27153" lon="6.70915">
        <ele>208.26</ele>
        <time>2019-09-08T06:00:34Z</time>
      </trkpt>
      <trkpt lat="49.2716" lon="6.70927">
        <ele>208.26</ele>
        <time>2019-09-08T06:00:44Z</time>
      </trkpt>
      <trkpt lat="49.27167" lon="6.70938">
        <ele>208.26</ele>
        <time>2019-09-08T06:00:54Z</time>
      </trkpt>
      <trkpt lat="49.27174" lon="6.70947">
        <ele>208.26</ele>
        <time>2019-09-08T06:01:04Z</time>
      </trkpt>
      <trkpt lat="49.2718" lon="6.70958">
        <ele>208.26</ele>
        <time>2019-09-08T06:01:14Z</time>
      </trkpt>
      <trkpt lat="49.27187" lon="6.7097">
        <ele>208.26</ele>
        <time>2019-09-08T06:01:24Z</time>
      </trkpt>
      <trkpt lat="49.27194" lon="6.70981">
        <ele>208.26</ele>
        <time>2019-09-08T06:01:34Z</time>
      </trkpt>
      <trkpt lat="49.27201" lon="6.70993">
        <ele>208.26</ele>
        <time>2019-09-08T06:01:44Z</time>
      </trkpt>
      <trkpt lat="49.27208" lon="6.71004">
        <ele>208.26</ele>
        <time>2019-09-08T06:01:54Z</time>
      </trkpt>
      <trkpt lat="49.27215" lon="6.71015">
        <ele>208.26</ele>
        <time>2019-09-08T06:02:04Z</time>
      </trkpt>
      <trkpt lat="49.27222" lon="6.71027">
        <ele>208.26</ele>
        <time>2019-09-08T06:02:14Z</time>
      </trkpt>
      <trkpt lat="49.27228" lon="6.71038">
        <ele>208.26</ele>
        <time>2019-09-08T06:02:24Z</time>
      </trkpt>
      <trkpt lat="49.27236" lon="6.71049">
        <ele>208.26</ele>
        <time>2019-09-08T06:02:34Z</time>
      </trkpt>
      <trkpt lat="49.27242" lon="6.71061">
        <ele>208.26</ele>
        <time>2019-09-08T06:02:44Z</time>
      </trkpt>
      <trkpt lat="49.2725" lon="6.71072">
        <ele>208.26</ele>
        <time>2019-09-08T06:02:54Z</time>
      </trkpt>
      <trkpt lat="49.27257" lon="6.71083">
        <ele>208.26</ele>
        <time>2019-09-08T06:03:04Z</time>
      </trkpt>
      <trkpt lat="49.27264" lon="6.71094">
        <ele>208.26</ele>
        <time>2019-09-08T06:03:14Z</time>
      </trkpt>
      <trkpt lat="49.27271" lon="6.71104">
        <ele>208.26</ele>
        <time>2019-09-08T06:03:24Z</time>
      </trkpt>
      <trkpt lat="49.27277" lon="6.71114">
        <ele>209.22</ele>
        <time>2019-09-08T06:03:34Z</time>
      </trkpt>
      <trkpt lat="49.27283" lon="6.71125">
        <ele>209.22</ele>
        <time>2019-09-08T06:03:44Z</time>
      </trkpt>
      <trkpt lat="49.2729" lon="6.71135">
        <ele>209.22</ele>
        <time>2019-09-08T06:03:54Z</time>
      </trkpt>
      <trkpt lat="49.27297" lon="6.71146">
        <ele>209.22</ele>
        <time>2019-09-08T06:04:04Z</time>
      </trkpt>
      <trkpt lat="49.27304" lon="6.71156">
        <ele>209.22</ele>
        <time>2019-09-08T06:04:14Z</time>
      </trkpt>
      <trkpt lat="49.27311" lon="6.71167">
        <ele>209.22</ele>
        <time>2019-09-08T06:04:24Z</time>
      </trkpt>
      <trkpt lat="49.27317" lon="6.71178">
        <ele>209.22</ele>
        <time>2019-09-08T06:04:34Z</time>
      </trkpt>
      <trkpt lat="49.27324" lon="6.71188">
        <ele>209.22</ele>
        <time>2019-09-08T06:04:44Z</time>
      </trkpt>
      <trkpt lat="49.27331" lon="6.71198">
        <ele>209.22</ele>
        <time>2019-09-08T06:04:54Z</time>
      </trkpt>
      <trkpt lat="49.27337" lon="6.7121">
        <ele>209.22</ele>
        <time>2019-09-08T06:05:04Z</time>
      </trkpt>
      <trkpt lat="49.27345" lon="6.71221">
        <ele>209.22</ele>
        <time>2019-09-08T06:05:14Z</time>
      </trkpt>
      <trkpt lat="49.27351" lon="6.71231">
        <ele>209.22</ele>
        <time>2019-09-08T06:05:24Z</time>
      </trkpt>
      <trkpt lat="49.27358" lon="6.71242">
        <ele>209.22</ele>
        <time>2019-09-08T06:05:34Z</time>
      </trkpt>
      <trkpt lat="49.27365" lon="6.71253">
        <ele>209.22</ele>
        <time>2019-09-08T06:05:44Z</time>
      </trkpt>
      <trkpt lat="49.27372" lon="6.71264">
        <ele>209.22</ele>
        <time>2019-09-08T06:05:54Z</time>
      </trkpt>
      <trkpt lat="49.27379" lon="6.71274">
        <ele>209.22</ele>
        <time>2019-09-08T06:06:04Z</time>
      </trkpt>
      <trkpt lat="49.27388" lon="6.71285">
        <ele>209.22</ele>
        <time>2019-09-08T06:06:14Z</time>
      </trkpt>
      <trkpt lat="49.27395" lon="6.71292">
        <ele>209.22</ele>
        <time>2019-09-08T06:06:24Z</time>
      </trkpt>
      <trkpt lat="49.27395" lon="6.71295">
        <ele>209.22</ele>
        <time>2019-09-08T06:06:34Z</time>
      </trkpt>
      <trkpt lat="49.27391" lon="6.71301">
        <ele>209.22</ele>
        <time>2019-09-08T06:06:44Z</time>
      </trkpt>
      <trkpt lat="49.27388" lon="6.71305">
        <ele>209.22</ele>
        <time>2019-09-08T06:06:54Z</time>
      </trkpt>
      <trkpt lat="49.2739" lon="6.71309">
        <ele>209.22</ele>
        <time>2019-09-08T06:07:04Z</time>
      </trkpt>
      <trkpt lat="49.27391" lon="6.71309">
        <ele>209.22</ele>
        <time>2019-09-08T06:07:14Z</time>
      </trkpt>
      <trkpt lat="49.27391" lon="6.71309">
        <ele>209.22</ele>
        <time>2019-09-08T06:07:24Z</time>
      </trkpt>
      <trkpt lat="49.27393" lon="6.71309">
        <ele>208.74</ele>
        <time>2019-09-08T06:07:34Z</time>
      </trkpt>
      <trkpt lat="49.27394" lon="6.71306">
        <ele>208.74</ele>
        <time>2019-09-08T06:07:44Z</time>
      </trkpt>
      <trkpt lat="49.27393" lon="6.71307">
        <ele>208.74</ele>
        <time>2019-09-08T06:07:54Z</time>
      </trkpt>
      <trkpt lat="49.27393" lon="6.71307">
        <ele>208.74</ele>
        <time>2019-09-08T06:08:04Z</time>
      </trkpt>
      <trkpt lat="49.27395" lon="6.71309">
        <ele>208.74</ele>
        <time>2019-09-08T06:08:14Z</time>
      </trkpt>
      <trkpt lat="49.27403" lon="6.71314">
        <ele>208.74</ele>
        <time>2019-09-08T06:08:24Z</time>
      </trkpt>
      <trkpt lat="49.27411" lon="6.71323">
        <ele>208.74</ele>
        <time>2019-09-08T06:08:34Z</time>
      </trkpt>
      <trkpt lat="49.27416" lon="6.71333">
        <ele>208.74</ele>
        <time>2019-09-08T06:08:44Z</time>
      </trkpt>
      <trkpt lat="49.27421" lon="6.71346">
        <ele>208.74</ele>
        <time>2019-09-08T06:08:54Z</time>
      </trkpt>
      <trkpt lat="49.27429" lon="6.71356">
        <ele>208.74</ele>
        <time>2019-09-08T06:09:04Z</time>
      </trkpt>
      <trkpt lat="49.27436" lon="6.71366">
        <ele>208.74</ele>
        <time>2019-09-08T06:09:14Z</time>
      </trkpt>
      <trkpt lat="49.27442" lon="6.71378">
        <ele>208.26</ele>
        <time>2019-09-08T06:09:24Z</time>
      </trkpt>
      <trkpt lat="49.2745" lon="6.7139">
        <ele>208.26</ele>
        <time>2019-09-08T06:09:34Z</time>
      </trkpt>
      <trkpt lat="49.27457" lon="6.71402">
        <ele>208.26</ele>
        <time>2019-09-08T06:09:44Z</time>
      </trkpt>
      <trkpt lat="49.27463" lon="6.71415">
        <ele>208.26</ele>
        <time>2019-09-08T06:09:54Z</time>
      </trkpt>
      <trkpt lat="49.27469" lon="6.71429">
        <ele>208.26</ele>
        <time>2019-09-08T06:10:04Z</time>
      </trkpt>
      <trkpt lat="49.27475" lon="6.71442">
        <ele>208.74</ele>
        <time>2019-09-08T06:10:14Z</time>
      </trkpt>
      <trkpt lat="49.2748" lon="6.71457">
        <ele>208.74</ele>
        <time>2019-09-08T06:10:24Z</time>
      </trkpt>
      <trkpt lat="49.27485" lon="6.7147">
        <ele>208.74</ele>
        <time>2019-09-08T06:10:34Z</time>
      </trkpt>
      <trkpt lat="49.27491" lon="6.71483">
        <ele>208.74</ele>
        <time>2019-09-08T06:10:44Z</time>
      </trkpt>
      <trkpt lat="49.27497" lon="6.71497">
        <ele>208.74</ele>
        <time>2019-09-08T06:10:54Z</time>
      </trkpt>
      <trkpt lat="49.27503" lon="6.71511">
        <ele>208.74</ele>
        <time>2019-09-08T06:11:04Z</time>
      </trkpt>
      <trkpt lat="49.27508" lon="6.71524">
        <ele>208.74</ele>
        <time>2019-09-08T06:11:14Z</time>
      </trkpt>
      <trkpt lat="49.27514" lon="6.71538">
        <ele>208.74</ele>
        <time>2019-09-08T06:11:24Z</time>
      </trkpt>
      <trkpt lat="49.27519" lon="6.71551">
        <ele>208.74</ele>
        <time>2019-09-08T06:11:34Z</time>
      </trkpt>
      <trkpt lat="49.27524" lon="6.71563">
        <ele>209.22</ele>
        <time>2019-09-08T06:11:44Z</time>
      </trkpt>
      <trkpt lat="49.27529" lon="6.71576">
        <ele>209.22</ele>
        <time>2019-09-08T06:11:54Z</time>
      </trkpt>
      <trkpt lat="49.27534" lon="6.71589">
        <ele>209.7</ele>
        <time>2019-09-08T06:12:04Z</time>
      </trkpt>
      <trkpt lat="49.2754" lon="6.71603">
        <ele>210.19</ele>
        <time>2019-09-08T06:12:14Z</time>
      </trkpt>
      <trkpt lat="49.27545" lon="6.71615">
        <ele>210.67</ele>
        <time>2019-09-08T06:12:24Z</time>
      </trkpt>
      <trkpt lat="49.2755" lon="6.71627">
        <ele>210.67</ele>
        <time>2019-09-08T06:12:34Z</time>
      </trkpt>
      <trkpt lat="49.27555" lon="6.7164">
        <ele>211.15</ele>
        <time>2019-09-08T06:12:44Z</time>
      </trkpt>
      <trkpt lat="49.27561" lon="6.71654">
        <ele>211.63</ele>
        <time>2019-09-08T06:12:54Z</time>
      </trkpt>
      <trkpt lat="49.27566" lon="6.71666">
        <ele>212.11</ele>
        <time>2019-09-08T06:13:04Z</time>
      </trkpt>
      <trkpt lat="49.27571" lon="6.7168">
        <ele>212.59</ele>
        <time>2019-09-08T06:13:14Z</time>
      </trkpt>
      <trkpt lat="49.27576" lon="6.71692">
        <ele>213.07</ele>
        <time>2019-09-08T06:13:24Z</time>
      </trkpt>
      <trkpt lat="49.27582" lon="6.71704">
        <ele>213.55</ele>
        <time>2019-09-08T06:13:34Z</time>
      </trkpt>
      <trkpt lat="49.27587" lon="6.71717">
        <ele>214.03</ele>
        <time>2019-09-08T06:13:44Z</time>
      </trkpt>
      <trkpt lat="49.27591" lon="6.71728">
        <ele>214.51</ele>
        <time>2019-09-08T06:13:54Z</time>
      </trkpt>
      <trkpt lat="49.27597" lon="6.7174">
        <ele>214.99</ele>
        <time>2019-09-08T06:14:04Z</time>
      </trkpt>
      <trkpt lat="49.27603" lon="6.71754">
        <ele>215.47</ele>
        <time>2019-09-08T06:14:14Z</time>
      </trkpt>
      <trkpt lat="49.27609" lon="6.71766">
        <ele>215.95</ele>
        <time>2019-09-08T06:14:24Z</time>
      </trkpt>
      <trkpt lat="49.27615" lon="6.71779">
        <ele>216.91</ele>
        <time>2019-09-08T06:14:34Z</time>
      </trkpt>
      <trkpt lat="49.27621" lon="6.71791">
        <ele>217.4</ele>
        <time>2019-09-08T06:14:44Z</time>
      </trkpt>
      <trkpt lat="49.27627" lon="6.71802">
        <ele>217.88</ele>
        <time>2019-09-08T06:14:54Z</time>
      </trkpt>
      <trkpt lat="49.27634" lon="6.71813">
        <ele>218.36</ele>
        <time>2019-09-08T06:15:04Z</time>
      </trkpt>
      <trkpt lat="49.2764" lon="6.71822">
        <ele>218.36</ele>
        <time>2019-09-08T06:15:14Z</time>
      </trkpt>
      <trkpt lat="49.27647" lon="6.71832">
        <ele>218.84</ele>
        <time>2019-09-08T06:15:24Z</time>
      </trkpt>
      <trkpt lat="49.27654" lon="6.71839">
        <ele>219.32</ele>
        <time>2019-09-08T06:15:34Z</time>
      </trkpt>
      <trkpt lat="49.27662" lon="6.71847">
        <ele>219.8</ele>
        <time>2019-09-08T06:15:44Z</time>
      </trkpt>
      <trkpt lat="49.2767" lon="6.71854">
        <ele>220.28</ele>
        <time>2019-09-08T06:15:54Z</time>
      </trkpt>
      <trkpt lat="49.27678" lon="6.7186">
        <ele>220.76</ele>
        <time>2019-09-08T06:16:04Z</time>
      </trkpt>
      <trkpt lat="49.27686" lon="6.71867">
        <ele>221.24</ele>
        <time>2019-09-08T06:16:14Z</time>
      </trkpt>
      <trkpt lat="49.27695" lon="6.71873">
        <ele>221.72</ele>
        <time>2019-09-08T06:16:24Z</time>
      </trkpt>
      <trkpt lat="49.27703" lon="6.7188">
        <ele>221.72</ele>
        <time>2019-09-08T06:16:34Z</time>
      </trkpt>
      <trkpt lat="49.27712" lon="6.71885">
        <ele>221.72</ele>
        <time>2019-09-08T06:16:44Z</time>
      </trkpt>
      <trkpt lat="49.27721" lon="6.71889">
        <ele>222.68</ele>
        <time>2019-09-08T06:16:54Z</time>
      </trkpt>
      <trkpt lat="49.2773" lon="6.71895">
        <ele>222.68</ele>
        <time>2019-09-08T06:17:04Z</time>
      </trkpt>
      <trkpt lat="49.2774" lon="6.719">
        <ele>222.68</ele>
        <time>2019-09-08T06:17:14Z</time>
      </trkpt>
      <trkpt lat="49.27749" lon="6.71905">
        <ele>222.68</ele>
        <time>2019-09-08T06:17:24Z</time>
      </trkpt>
      <trkpt lat="49.27758" lon="6.71911">
        <ele>223.16</ele>
        <time>2019-09-08T06:17:34Z</time>
      </trkpt>
      <trkpt lat="49.27766" lon="6.71916">
        <ele>223.16</ele>
        <time>2019-09-08T06:17:44Z</time>
      </trkpt>
      <trkpt lat="49.27776" lon="6.71921">
        <ele>223.64</ele>
        <time>2019-09-08T06:17:54Z</time>
      </trkpt>
      <trkpt lat="49.27784" lon="6.71925">
        <ele>223.64</ele>
        <time>2019-09-08T06:18:04Z</time>
      </trkpt>
      <trkpt lat="49.27792" lon="6.7193">
        <ele>223.64</ele>
        <time>2019-09-08T06:18:14Z</time>
      </trkpt>
      <trkpt lat="49.27801" lon="6.71936">
        <ele>224.12</ele>
        <time>2019-09-08T06:18:24Z</time>
      </trkpt>
      <trkpt lat="49.2781" lon="6.71941">
        <ele>224.12</ele>
        <time>2019-09-08T06:18:34Z</time>
      </trkpt>
      <trkpt lat="49.27819" lon="6.71946">
        <ele>224.12</ele>
        <time>2019-09-08T06:18:44Z</time>
      </trkpt>
      <trkpt lat="49.27828" lon="6.71952">
        <ele>224.12</ele>
        <time>2019-09-08T06:18:54Z</time>
      </trkpt>
      <trkpt lat="49.27837" lon="6.71957">
        <ele>224.12</ele>
        <time>2019-09-08T06:19:04Z</time>
      </trkpt>
      <trkpt lat="49.27846" lon="6.71963">
        <ele>224.12</ele>
        <time>2019-09-08T06:19:14Z</time>
      </trkpt>
      <trkpt lat="49.27855" lon="6.71969">
        <ele>224.12</ele>
        <time>2019-09-08T06:19:24Z</time>
      </trkpt>
      <trkpt lat="49.27865" lon="6.71975">
        <ele>224.12</ele>
        <time>2019-09-08T06:19:34Z</time>
      </trkpt>
      <trkpt lat="49.27875" lon="6.71981">
        <ele>224.12</ele>
        <time>2019-09-08T06:19:44Z</time>
      </trkpt>
      <trkpt lat="49.27886" lon="6.71989">
        <ele>224.12</ele>
        <time>2019-09-08T06:19:54Z</time>
      </trkpt>
      <trkpt lat="49.27895" lon="6.71998">
        <ele>224.12</ele>
        <time>2019-09-08T06:20:04Z</time>
      </trkpt>
      <trkpt lat="49.27902" lon="6.72009">
        <ele>223.16</ele>
        <time>2019-09-08T06:20:14Z</time>
      </trkpt>
      <trkpt lat="49.27911" lon="6.72019">
        <ele>222.68</ele>
        <time>2019-09-08T06:20:24Z</time>
      </trkpt>
      <trkpt lat="49.27919" lon="6.72029">
        <ele>222.2</ele>
        <time>2019-09-08T06:20:34Z</time>
      </trkpt>
      <trkpt lat="49.27926" lon="6.72039">
        <ele>221.72</ele>
        <time>2019-09-08T06:20:44Z</time>
      </trkpt>
      <trkpt lat="49.27933" lon="6.72049">
        <ele>221.24</ele>
        <time>2019-09-08T06:20:54Z</time>
      </trkpt>
      <trkpt lat="49.2794" lon="6.72059">
        <ele>220.28</ele>
        <time>2019-09-08T06:21:04Z</time>
      </trkpt>
      <trkpt lat="49.27948" lon="6.72069">
        <ele>220.28</ele>
        <time>2019-09-08T06:21:14Z</time>
      </trkpt>
      <trkpt lat="49.27954" lon="6.72079">
        <ele>219.8</ele>
        <time>2019-09-08T06:21:24Z</time>
      </trkpt>
      <trkpt lat="49.27962" lon="6.7209">
        <ele>219.32</ele>
        <time>2019-09-08T06:21:34Z</time>
      </trkpt>
      <trkpt lat="49.27969" lon="6.721">
        <ele>219.32</ele>
        <time>2019-09-08T06:21:44Z</time>
      </trkpt>
      <trkpt lat="49.27976" lon="6.7211">
        <ele>218.84</ele>
        <time>2019-09-08T06:21:54Z</time>
      </trkpt>
      <trkpt lat="49.27984" lon="6.72121">
        <ele>218.36</ele>
        <time>2019-09-08T06:22:04Z</time>
      </trkpt>
      <trkpt lat="49.27992" lon="6.72131">
        <ele>217.4</ele>
        <time>2019-09-08T06:22:14Z</time>
      </trkpt>
      <trkpt lat="49.27999" lon="6.72142">
        <ele>217.4</ele>
        <time>2019-09-08T06:22:24Z</time>
      </trkpt>
      <trkpt lat="49.28007" lon="6.72152">
        <ele>216.91</ele>
        <time>2019-09-08T06:22:34Z</time>
      </trkpt>
      <trkpt lat="49.28015" lon="6.72164">
        <ele>216.43</ele>
        <time>2019-09-08T06:22:44Z</time>
      </trkpt>
      <trkpt lat="49.28022" lon="6.72176">
        <ele>215.95</ele>
        <time>2019-09-08T06:22:54Z</time>
      </trkpt>
      <trkpt lat="49.28029" lon="6.72186">
        <ele>215.47</ele>
        <time>2019-09-08T06:23:04Z</time>
      </trkpt>
      <trkpt lat="49.28036" lon="6.72196">
        <ele>215.47</ele>
        <time>2019-09-08T06:23:14Z</time>
      </trkpt>
      <trkpt lat="49.28044" lon="6.72205">
        <ele>215.47</ele>
        <time>2019-09-08T06:23:24Z</time>
      </trkpt>
      <trkpt lat="49.28051" lon="6.72215">
        <ele>214.99</ele>
        <time>2019-09-08T06:23:34Z</time>
      </trkpt>
      <trkpt lat="49.28058" lon="6.72226">
        <ele>214.51</ele>
        <time>2019-09-08T06:23:44Z</time>
      </trkpt>
      <trkpt lat="49.28065" lon="6.72238">
        <ele>214.03</ele>
        <time>2019-09-08T06:23:54Z</time>
      </trkpt>
      <trkpt lat="49.28073" lon="6.72249">
        <ele>214.03</ele>
        <time>2019-09-08T06:24:04Z</time>
      </trkpt>
      <trkpt lat="49.28081" lon="6.72259">
        <ele>214.03</ele>
        <time>2019-09-08T06:24:14Z</time>
      </trkpt>
      <trkpt lat="49.28088" lon="6.72271">
        <ele>214.03</ele>
        <time>2019-09-08T06:24:24Z</time>
      </trkpt>
      <trkpt lat="49.28096" lon="6.72279">
        <ele>213.55</ele>
        <time>2019-09-08T06:24:34Z</time>
      </trkpt>
      <trkpt lat="49.28104" lon="6.72287">
        <ele>213.55</ele>
        <time>2019-09-08T06:24:44Z</time>
      </trkpt>
      <trkpt lat="49.28111" lon="6.72296">
        <ele>213.55</ele>
        <time>2019-09-08T06:24:54Z</time>
      </trkpt>
      <trkpt lat="49.28118" lon="6.72307">
        <ele>213.55</ele>
        <time>2019-09-08T06:25:04Z</time>
      </trkpt>
      <trkpt lat="49.28125" lon="6.72319">
        <ele>213.55</ele>
        <time>2019-09-08T06:25:14Z</time>
      </trkpt>
      <trkpt lat="49.28133" lon="6.72329">
        <ele>213.55</ele>
        <time>2019-09-08T06:25:24Z</time>
      </trkpt>
      <trkpt lat="49.2814" lon="6.7234">
        <ele>213.55</ele>
        <time>2019-09-08T06:25:34Z</time>
      </trkpt>
      <trkpt lat="49.28148" lon="6.7235">
        <ele>213.55</ele>
        <time>2019-09-08T06:25:44Z</time>
      </trkpt>
      <trkpt lat="49.28155" lon="6.7236">
        <ele>213.07</ele>
        <time>2019-09-08T06:25:54Z</time>
      </trkpt>
      <trkpt lat="49.28162" lon="6.7237">
        <ele>213.07</ele>
        <time>2019-09-08T06:26:04Z</time>
      </trkpt>
      <trkpt lat="49.28168" lon="6.72381">
        <ele>213.07</ele>
        <time>2019-09-08T06:26:14Z</time>
      </trkpt>
      <trkpt lat="49.28176" lon="6.72392">
        <ele>213.07</ele>
        <time>2019-09-08T06:26:24Z</time>
      </trkpt>
      <trkpt lat="49.28184" lon="6.72403">
        <ele>213.07</ele>
        <time>2019-09-08T06:26:34Z</time>
      </trkpt>
      <trkpt lat="49.28191" lon="6.72414">
        <ele>213.07</ele>
        <time>2019-09-08T06:26:44Z</time>
      </trkpt>
      <trkpt lat="49.28198" lon="6.72424">
        <ele>213.07</ele>
        <time>2019-09-08T06:26:54Z</time>
      </trkpt>
      <trkpt lat="49.28206" lon="6.72434">
        <ele>213.07</ele>
        <time>2019-09-08T06:27:04Z</time>
      </trkpt>
      <trkpt lat="49.28214" lon="6.72444">
        <ele>213.07</ele>
        <time>2019-09-08T06:27:14Z</time>
      </trkpt>
      <trkpt lat="49.28221" lon="6.72454">
        <ele>213.07</ele>
        <time>2019-09-08T06:27:24Z</time>
      </trkpt>
      <trkpt lat="49.28229" lon="6.72464">
        <ele>213.07</ele>
        <time>2019-09-08T06:27:34Z</time>
      </trkpt>
      <trkpt lat="49.28236" lon="6.72474">
        <ele>213.07</ele>
        <time>2019-09-08T06:27:44Z</time>
      </trkpt>
      <trkpt lat="49.28244" lon="6.72485">
        <ele>213.07</ele>
        <time>2019-09-08T06:27:54Z</time>
      </trkpt>
      <trkpt lat="49.28251" lon="6.72495">
        <ele>213.07</ele>
        <time>2019-09-08T06:28:04Z</time>
      </trkpt>
      <trkpt lat="49.28259" lon="6.72505">
        <ele>213.07</ele>
        <time>2019-09-08T06:28:14Z</time>
      </trkpt>
      <trkpt lat="49.28266" lon="6.72517">
        <ele>213.07</ele>
        <time>2019-09-08T06:28:24Z</time>
      </trkpt>
      <trkpt lat="49.28273" lon="6.72527">
        <ele>213.07</ele>
        <time>2019-09-08T06:28:34Z</time>
      </trkpt>
      <trkpt lat="49.28274" lon="6.72528">
        <ele>213.07</ele>
        <time>2019-09-08T06:28:44Z</time>
      </trkpt>
      <trkpt lat="49.28276" lon="6.72528">
        <ele>214.51</ele>
        <time>2019-09-08T06:28:54Z</time>
      </trkpt>
      <trkpt lat="49.28276" lon="6.72528">
        <ele>214.51</ele>
        <time>2019-09-08T06:29:04Z</time>
      </trkpt>
      <trkpt lat="49.28277" lon="6.72529">
        <ele>214.51</ele>
        <time>2019-09-08T06:29:14Z</time>
      </trkpt>
      <trkpt lat="49.28278" lon="6.72527">
        <ele>214.51</ele>
        <time>2019-09-08T06:29:24Z</time>
      </trkpt>
      <trkpt lat="49.28279" lon="6.72527">
        <ele>214.51</ele>
        <time>2019-09-08T06:29:34Z</time>
      </trkpt>
      <trkpt lat="49.28279" lon="6.72526">
        <ele>214.51</ele>
        <time>2019-09-08T06:29:44Z</time>
      </trkpt>
      <trkpt lat="49.28278" lon="6.72526">
        <ele>214.51</ele>
        <time>2019-09-08T06:29:54Z</time>
      </trkpt>
      <trkpt lat="49.28277" lon="6.72527">
        <ele>214.51</ele>
        <time>2019-09-08T06:30:04Z</time>
      </trkpt>
      <trkpt lat="49.28275" lon="6.72529">
        <ele>214.51</ele>
        <time>2019-09-08T06:30:14Z</time>
      </trkpt>
      <trkpt lat="49.28274" lon="6.72529">
        <ele>214.51</ele>
        <time>2019-09-08T06:30:24Z</time>
      </trkpt>
      <trkpt lat="49.28273" lon="6.72528">
        <ele>214.51</ele>
        <time>2019-09-08T06:30:34Z</time>
      </trkpt>
      <trkpt lat="49.28278" lon="6.72533">
        <ele>214.51</ele>
        <time>2019-09-08T06:30:44Z</time>
      </trkpt>
      <trkpt lat="49.28285" lon="6.72543">
        <ele>214.51</ele>
        <time>2019-09-08T06:30:54Z</time>
      </trkpt>
      <trkpt lat="49.28293" lon="6.72552">
        <ele>214.51</ele>
        <time>2019-09-08T06:31:04Z</time>
      </trkpt>
      <trkpt lat="49.283" lon="6.72562">
        <ele>214.51</ele>
        <time>2019-09-08T06:31:14Z</time>
      </trkpt>
      <trkpt lat="49.28306" lon="6.72571">
        <ele>214.51</ele>
        <time>2019-09-08T06:31:24Z</time>
      </trkpt>
      <trkpt lat="49.28312" lon="6.7258">
        <ele>214.51</ele>
        <time>2019-09-08T06:31:34Z</time>
      </trkpt>
      <trkpt lat="49.28319" lon="6.72589">
        <ele>214.51</ele>
        <time>2019-09-08T06:31:44Z</time>
      </trkpt>
      <trkpt lat="49.28325" lon="6.72597">
        <ele>214.51</ele>
        <time>2019-09-08T06:31:54Z</time>
      </trkpt>
      <trkpt lat="49.28333" lon="6.72607">
        <ele>214.51</ele>
        <time>2019-09-08T06:32:04Z</time>
      </trkpt>
      <trkpt lat="49.2834" lon="6.72618">
        <ele>214.51</ele>
        <time>2019-09-08T06:32:14Z</time>
      </trkpt>
      <trkpt lat="49.28347" lon="6.72627">
        <ele>214.51</ele>
        <time>2019-09-08T06:32:24Z</time>
      </trkpt>
      <trkpt lat="49.28353" lon="6.72636">
        <ele>214.51</ele>
        <time>2019-09-08T06:32:34Z</time>
      </trkpt>
      <trkpt lat="49.28357" lon="6.72648">
        <ele>214.51</ele>
        <time>2019-09-08T06:32:44Z</time>
      </trkpt>
      <trkpt lat="49.28362" lon="6.72657">
        <ele>214.99</ele>
        <time>2019-09-08T06:32:54Z</time>
      </trkpt>
      <trkpt lat="49.28367" lon="6.72668">
        <ele>215.47</ele>
        <time>2019-09-08T06:33:04Z</time>
      </trkpt>
      <trkpt lat="49.28374" lon="6.7268">
        <ele>215.47</ele>
        <time>2019-09-08T06:33:14Z</time>
      </trkpt>
      <trkpt lat="49.2838" lon="6.7269">
        <ele>215.47</ele>
        <time>2019-09-08T06:33:24Z</time>
      </trkpt>
      <trkpt lat="49.28388" lon="6.72701">
        <ele>215.47</ele>
        <time>2019-09-08T06:33:34Z</time>
      </trkpt>
      <trkpt lat="49.28394" lon="6.72712">
        <ele>215.47</ele>
        <time>2019-09-08T06:33:44Z</time>
      </trkpt>
      <trkpt lat="49.28401" lon="6.7272">
        <ele>215.47</ele>
        <time>2019-09-08T06:33:54Z</time>
      </trkpt>
      <trkpt lat="49.28409" lon="6.7273">
        <ele>215.47</ele>
        <time>2019-09-08T06:34:04Z</time>
      </trkpt>
      <trkpt lat="49.28416" lon="6.72739">
        <ele>215.95</ele>
        <time>2019-09-08T06:34:14Z</time>
      </trkpt>
      <trkpt lat="49.28421" lon="6.72752">
        <ele>215.95</ele>
        <time>2019-09-08T06:34:24Z</time>
      </trkpt>
      <trkpt lat="49.28427" lon="6.72763">
        <ele>215.95</ele>
        <time>2019-09-08T06:34:34Z</time>
      </trkpt>
      <trkpt lat="49.28434" lon="6.72774">
        <ele>215.95</ele>
        <time>2019-09-08T06:34:44Z</time>
      </trkpt>
      <trkpt lat="49.28441" lon="6.72784">
        <ele>215.95</ele>
        <time>2019-09-08T06:34:54Z</time>
      </trkpt>
      <trkpt lat="49.28449" lon="6.72793">
        <ele>215.95</ele>
        <time>2019-09-08T06:35:04Z</time>
      </trkpt>
      <trkpt lat="49.28455" lon="6.72803">
        <ele>215.95</ele>
        <time>2019-09-08T06:35:14Z</time>
      </trkpt>
      <trkpt lat="49.28461" lon="6.72813">
        <ele>215.95</ele>
        <time>2019-09-08T06:35:24Z</time>
      </trkpt>
      <trkpt lat="49.28468" lon="6.72823">
        <ele>215.95</ele>
        <time>2019-09-08T06:35:34Z</time>
      </trkpt>
      <trkpt lat="49.28476" lon="6.72834">
        <ele>215.95</ele>
        <time>2019-09-08T06:35:44Z</time>
      </trkpt>
      <trkpt lat="49.28483" lon="6.72845">
        <ele>215.95</ele>
        <time>2019-09-08T06:35:54Z</time>
      </trkpt>
      <trkpt lat="49.28489" lon="6.72857">
        <ele>215.95</ele>
        <time>2019-09-08T06:36:04Z</time>
      </trkpt>
      <trkpt lat="49.28495" lon="6.72866">
        <ele>215.95</ele>
        <time>2019-09-08T06:36:14Z</time>
      </trkpt>
      <trkpt lat="49.28503" lon="6.72875">
        <ele>215.95</ele>
        <time>2019-09-08T06:36:24Z</time>
      </trkpt>
      <trkpt lat="49.2851" lon="6.72886">
        <ele>215.95</ele>
        <time>2019-09-08T06:36:34Z</time>
      </trkpt>
      <trkpt lat="49.28516" lon="6.72898">
        <ele>216.43</ele>
        <time>2019-09-08T06:36:44Z</time>
      </trkpt>
      <trkpt lat="49.28522" lon="6.72908">
        <ele>216.43</ele>
        <time>2019-09-08T06:36:54Z</time>
      </trkpt>
      <trkpt lat="49.28529" lon="6.72917">
        <ele>216.43</ele>
        <time>2019-09-08T06:37:04Z</time>
      </trkpt>
      <trkpt lat="49.28536" lon="6.72927">
        <ele>216.43</ele>
        <time>2019-09-08T06:37:14Z</time>
      </trkpt>
      <trkpt lat="49.28543" lon="6.72937">
        <ele>216.43</ele>
        <time>2019-09-08T06:37:24Z</time>
      </trkpt>
      <trkpt lat="49.2855" lon="6.72948">
        <ele>216.43</ele>
        <time>2019-09-08T06:37:34Z</time>
      </trkpt>
      <trkpt lat="49.28557" lon="6.72959">
        <ele>216.43</ele>
        <time>2019-09-08T06:37:44Z</time>
      </trkpt>
      <trkpt lat="49.28564" lon="6.7297">
        <ele>216.43</ele>
        <time>2019-09-08T06:37:54Z</time>
      </trkpt>
      <trkpt lat="49.28571" lon="6.72981">
        <ele>216.43</ele>
        <time>2019-09-08T06:38:04Z</time>
      </trkpt>
      <trkpt lat="49.28579" lon="6.72992">
        <ele>216.43</ele>
        <time>2019-09-08T06:38:14Z</time>
      </trkpt>
      <trkpt lat="49.28586" lon="6.73003">
        <ele>215.95</ele>
        <time>2019-09-08T06:38:24Z</time>
      </trkpt>
      <trkpt lat="49.28593" lon="6.73016">
        <ele>215.95</ele>
        <time>2019-09-08T06:38:34Z</time>
      </trkpt>
      <trkpt lat="49.28603" lon="6.73027">
        <ele>214.99</ele>
        <time>2019-09-08T06:38:44Z</time>
      </trkpt>
      <trkpt lat="49.28609" lon="6.73033">
        <ele>214.99</ele>
        <time>2019-09-08T06:38:54Z</time>
      </trkpt>
      <trkpt lat="49.28616" lon="6.73043">
        <ele>214.51</ele>
        <time>2019-09-08T06:39:04Z</time>
      </trkpt>
      <trkpt lat="49.28623" lon="6.73053">
        <ele>214.51</ele>
        <time>2019-09-08T06:39:14Z</time>
      </trkpt>
      <trkpt lat="49.2863" lon="6.73064">
        <ele>214.03</ele>
        <time>2019-09-08T06:39:24Z</time>
      </trkpt>
      <trkpt lat="49.28638" lon="6.73073">
        <ele>214.03</ele>
        <time>2019-09-08T06:39:34Z</time>
      </trkpt>
      <trkpt lat="49.28648" lon="6.73082">
        <ele>214.03</ele>
        <time>2019-09-08T06:39:44Z</time>
      </trkpt>
      <trkpt lat="49.28656" lon="6.73091">
        <ele>213.55</ele>
        <time>2019-09-08T06:39:54Z</time>
      </trkpt>
      <trkpt lat="49.28662" lon="6.73102">
        <ele>213.07</ele>
        <time>2019-09-08T06:40:04Z</time>
      </trkpt>
      <trkpt lat="49.28671" lon="6.7311">
        <ele>213.07</ele>
        <time>2019-09-08T06:40:14Z</time>
      </trkpt>
      <trkpt lat="49.2868" lon="6.73119">
        <ele>213.07</ele>
        <time>2019-09-08T06:40:24Z</time>
      </trkpt>
      <trkpt lat="49.28689" lon="6.73128">
        <ele>212.59</ele>
        <time>2019-09-08T06:40:34Z</time>
      </trkpt>
      <trkpt lat="49.28698" lon="6.73136">
        <ele>212.11</ele>
        <time>2019-09-08T06:40:44Z</time>
      </trkpt>
      <trkpt lat="49.28707" lon="6.73143">
        <ele>212.11</ele>
        <time>2019-09-08T06:40:54Z</time>
      </trkpt>
      <trkpt lat="49.28715" lon="6.73151">
        <ele>211.63</ele>
        <time>2019-09-08T06:41:04Z</time>
      </trkpt>
      <trkpt lat="49.28725" lon="6.73159">
        <ele>211.15</ele>
        <time>2019-09-08T06:41:14Z</time>
      </trkpt>
      <trkpt lat="49.28734" lon="6.73166">
        <ele>211.15</ele>
        <time>2019-09-08T06:41:24Z</time>
      </trkpt>
      <trkpt lat="49.28743" lon="6.73173">
        <ele>210.67</ele>
        <time>2019-09-08T06:41:34Z</time>
      </trkpt>
      <trkpt lat="49.28751" lon="6.73181">
        <ele>210.67</ele>
        <time>2019-09-08T06:41:44Z</time>
      </trkpt>
      <trkpt lat="49.2876" lon="6.73188">
        <ele>210.19</ele>
        <time>2019-09-08T06:41:54Z</time>
      </trkpt>
      <trkpt lat="49.2877" lon="6.73194">
        <ele>210.19</ele>
        <time>2019-09-08T06:42:04Z</time>
      </trkpt>
      <trkpt lat="49.28779" lon="6.732">
        <ele>209.7</ele>
        <time>2019-09-08T06:42:14Z</time>
      </trkpt>
      <trkpt lat="49.28787" lon="6.73205">
        <ele>209.22</ele>
        <time>2019-09-08T06:42:24Z</time>
      </trkpt>
      <trkpt lat="49.28796" lon="6.73211">
        <ele>209.7</ele>
        <time>2019-09-08T06:42:34Z</time>
      </trkpt>
      <trkpt lat="49.28805" lon="6.73217">
        <ele>209.22</ele>
        <time>2019-09-08T06:42:44Z</time>
      </trkpt>
      <trkpt lat="49.28815" lon="6.73222">
        <ele>208.74</ele>
        <time>2019-09-08T06:42:54Z</time>
      </trkpt>
      <trkpt lat="49.28824" lon="6.73227">
        <ele>208.26</ele>
        <time>2019-09-08T06:43:04Z</time>
      </trkpt>
      <trkpt lat="49.28833" lon="6.73232">
        <ele>208.26</ele>
        <time>2019-09-08T06:43:14Z</time>
      </trkpt>
      <trkpt lat="49.28842" lon="6.73237">
        <ele>207.78</ele>
        <time>2019-09-08T06:43:24Z</time>
      </trkpt>
      <trkpt lat="49.2885" lon="6.73243">
        <ele>207.78</ele>
        <time>2019-09-08T06:43:34Z</time>
      </trkpt>
      <trkpt lat="49.28858" lon="6.73248">
        <ele>207.3</ele>
        <time>2019-09-08T06:43:44Z</time>
      </trkpt>
      <trkpt lat="49.28866" lon="6.73255">
        <ele>207.3</ele>
        <time>2019-09-08T06:43:54Z</time>
      </trkpt>
      <trkpt lat="49.28876" lon="6.73261">
        <ele>207.3</ele>
        <time>2019-09-08T06:44:04Z</time>
      </trkpt>
      <trkpt lat="49.28885" lon="6.73266">
        <ele>207.3</ele>
        <time>2019-09-08T06:44:14Z</time>
      </trkpt>
      <trkpt lat="49.28893" lon="6.73272">
        <ele>207.3</ele>
        <time>2019-09-08T06:44:24Z</time>
      </trkpt>
      <trkpt lat="49.28902" lon="6.73277">
        <ele>207.3</ele>
        <time>2019-09-08T06:44:34Z</time>
      </trkpt>
      <trkpt lat="49.28911" lon="6.73283">
        <ele>207.3</ele>
        <time>2019-09-08T06:44:44Z</time>
      </trkpt>
      <trkpt lat="49.2892" lon="6.73287">
        <ele>207.3</ele>
        <time>2019-09-08T06:44:54Z</time>
      </trkpt>
      <trkpt lat="49.28929" lon="6.73292">
        <ele>207.3</ele>
        <time>2019-09-08T06:45:04Z</time>
      </trkpt>
      <trkpt lat="49.28938" lon="6.73298">
        <ele>207.3</ele>
        <time>2019-09-08T06:45:14Z</time>
      </trkpt>
      <trkpt lat="49.28946" lon="6.73302">
        <ele>207.3</ele>
        <time>2019-09-08T06:45:24Z</time>
      </trkpt>
      <trkpt lat="49.28956" lon="6.73305">
        <ele>207.3</ele>
        <time>2019-09-08T06:45:34Z</time>
      </trkpt>
      <trkpt lat="49.28966" lon="6.73307">
        <ele>207.78</ele>
        <time>2019-09-08T06:45:44Z</time>
      </trkpt>
      <trkpt lat="49.28976" lon="6.73312">
        <ele>207.78</ele>
        <time>2019-09-08T06:45:54Z</time>
      </trkpt>
      <trkpt lat="49.28985" lon="6.7332">
        <ele>207.78</ele>
        <time>2019-09-08T06:46:04Z</time>
      </trkpt>
      <trkpt lat="49.28993" lon="6.73328">
        <ele>207.78</ele>
        <time>2019-09-08T06:46:14Z</time>
      </trkpt>
      <trkpt lat="49.29002" lon="6.73333">
        <ele>207.78</ele>
        <time>2019-09-08T06:46:24Z</time>
      </trkpt>
      <trkpt lat="49.2901" lon="6.73339">
        <ele>207.78</ele>
        <time>2019-09-08T06:46:34Z</time>
      </trkpt>
      <trkpt lat="49.29018" lon="6.73342">
        <ele>207.78</ele>
        <time>2019-09-08T06:46:44Z</time>
      </trkpt>
      <trkpt lat="49.29027" lon="6.73349">
        <ele>207.78</ele>
        <time>2019-09-08T06:46:54Z</time>
      </trkpt>
      <trkpt lat="49.29036" lon="6.73355">
        <ele>207.78</ele>
        <time>2019-09-08T06:47:04Z</time>
      </trkpt>
      <trkpt lat="49.29046" lon="6.7336">
        <ele>207.78</ele>
        <time>2019-09-08T06:47:14Z</time>
      </trkpt>
      <trkpt lat="49.29055" lon="6.73365">
        <ele>207.78</ele>
        <time>2019-09-08T06:47:24Z</time>
      </trkpt>
      <trkpt lat="49.29062" lon="6.73369">
        <ele>207.78</ele>
        <time>2019-09-08T06:47:34Z</time>
      </trkpt>
      <trkpt lat="49.29071" lon="6.73373">
        <ele>207.78</ele>
        <time>2019-09-08T06:47:44Z</time>
      </trkpt>
      <trkpt lat="49.29073" lon="6.73375">
        <ele>207.78</ele>
        <time>2019-09-08T06:47:54Z</time>
      </trkpt>
      <trkpt lat="49.29073" lon="6.73374">
        <ele>207.78</ele>
        <time>2019-09-08T06:48:04Z</time>
      </trkpt>
      <trkpt lat="49.2908" lon="6.73379">
        <ele>207.78</ele>
        <time>2019-09-08T06:48:14Z</time>
      </trkpt>
      <trkpt lat="49.29084" lon="6.73382">
        <ele>207.78</ele>
        <time>2019-09-08T06:48:24Z</time>
      </trkpt>
      <trkpt lat="49.29094" lon="6.73387">
        <ele>207.78</ele>
        <time>2019-09-08T06:48:34Z</time>
      </trkpt>
      <trkpt lat="49.29094" lon="6.73388">
        <ele>209.22</ele>
        <time>2019-09-08T06:48:44Z</time>
      </trkpt>
      <trkpt lat="49.29093" lon="6.73387">
        <ele>209.22</ele>
        <time>2019-09-08T06:48:54Z</time>
      </trkpt>
      <trkpt lat="49.29094" lon="6.73389">
        <ele>209.22</ele>
        <time>2019-09-08T06:49:04Z</time>
      </trkpt>
      <trkpt lat="49.29095" lon="6.73388">
        <ele>209.22</ele>
        <time>2019-09-08T06:49:14Z</time>
      </trkpt>
      <trkpt lat="49.29102" lon="6.73392">
        <ele>209.22</ele>
        <time>2019-09-08T06:49:24Z</time>
      </trkpt>
      <trkpt lat="49.29105" lon="6.73394">
        <ele>209.22</ele>
        <time>2019-09-08T06:49:34Z</time>
      </trkpt>
      <trkpt lat="49.29105" lon="6.73394">
        <ele>209.22</ele>
        <time>2019-09-08T06:49:44Z</time>
      </trkpt>
      <trkpt lat="49.29111" lon="6.73396">
        <ele>209.22</ele>
        <time>2019-09-08T06:49:54Z</time>
      </trkpt>
      <trkpt lat="49.2912" lon="6.73401">
        <ele>209.22</ele>
        <time>2019-09-08T06:50:04Z</time>
      </trkpt>
      <trkpt lat="49.29128" lon="6.73406">
        <ele>209.22</ele>
        <time>2019-09-08T06:50:14Z</time>
      </trkpt>
      <trkpt lat="49.29136" lon="6.73409">
        <ele>209.22</ele>
        <time>2019-09-08T06:50:24Z</time>
      </trkpt>
      <trkpt lat="49.29144" lon="6.73414">
        <ele>208.74</ele>
        <time>2019-09-08T06:50:34Z</time>
      </trkpt>
      <trkpt lat="49.29153" lon="6.73418">
        <ele>208.74</ele>
        <time>2019-09-08T06:50:44Z</time>
      </trkpt>
      <trkpt lat="49.29162" lon="6.73423">
        <ele>208.74</ele>
        <time>2019-09-08T06:50:54Z</time>
      </trkpt>
      <trkpt lat="49.29173" lon="6.73427">
        <ele>208.74</ele>
        <time>2019-09-08T06:51:04Z</time>
      </trkpt>
      <trkpt lat="49.29184" lon="6.73433">
        <ele>208.74</ele>
        <time>2019-09-08T06:51:14Z</time>
      </trkpt>
      <trkpt lat="49.29194" lon="6.73436">
        <ele>208.74</ele>
        <time>2019-09-08T06:51:24Z</time>
      </trkpt>
      <trkpt lat="49.29204" lon="6.73441">
        <ele>208.74</ele>
        <time>2019-09-08T06:51:34Z</time>
      </trkpt>
      <trkpt lat="49.29213" lon="6.7345">
        <ele>208.74</ele>
        <time>2019-09-08T06:51:44Z</time>
      </trkpt>
      <trkpt lat="49.29221" lon="6.7346">
        <ele>208.74</ele>
        <time>2019-09-08T06:51:54Z</time>
      </trkpt>
      <trkpt lat="49.29229" lon="6.73467">
        <ele>208.74</ele>
        <time>2019-09-08T06:52:04Z</time>
      </trkpt>
      <trkpt lat="49.29236" lon="6.73474">
        <ele>209.22</ele>
        <time>2019-09-08T06:52:14Z</time>
      </trkpt>
      <trkpt lat="49.29244" lon="6.73481">
        <ele>208.74</ele>
        <time>2019-09-08T06:52:24Z</time>
      </trkpt>
      <trkpt lat="49.29253" lon="6.73487">
        <ele>208.74</ele>
        <time>2019-09-08T06:52:34Z</time>
      </trkpt>
      <trkpt lat="49.29262" lon="6.73495">
        <ele>208.74</ele>
        <time>2019-09-08T06:52:44Z</time>
      </trkpt>
      <trkpt lat="49.29268" lon="6.735">
        <ele>208.26</ele>
        <time>2019-09-08T06:52:54Z</time>
      </trkpt>
      <trkpt lat="49.29276" lon="6.73508">
        <ele>208.26</ele>
        <time>2019-09-08T06:53:04Z</time>
      </trkpt>
      <trkpt lat="49.29286" lon="6.73515">
        <ele>208.26</ele>
        <time>2019-09-08T06:53:14Z</time>
      </trkpt>
      <trkpt lat="49.29294" lon="6.73522">
        <ele>207.78</ele>
        <time>2019-09-08T06:53:24Z</time>
      </trkpt>
      <trkpt lat="49.29301" lon="6.73527">
        <ele>207.78</ele>
        <time>2019-09-08T06:53:34Z</time>
      </trkpt>
      <trkpt lat="49.2931" lon="6.73535">
        <ele>207.78</ele>
        <time>2019-09-08T06:53:44Z</time>
      </trkpt>
      <trkpt lat="49.29319" lon="6.73544">
        <ele>207.78</ele>
        <time>2019-09-08T06:53:54Z</time>
      </trkpt>
      <trkpt lat="49.29328" lon="6.73551">
        <ele>207.78</ele>
        <time>2019-09-08T06:54:04Z</time>
      </trkpt>
      <trkpt lat="49.29338" lon="6.73557">
        <ele>207.3</ele>
        <time>2019-09-08T06:54:14Z</time>
      </trkpt>
      <trkpt lat="49.29346" lon="6.73563">
        <ele>207.3</ele>
        <time>2019-09-08T06:54:24Z</time>
      </trkpt>
      <trkpt lat="49.29355" lon="6.73566">
        <ele>207.3</ele>
        <time>2019-09-08T06:54:34Z</time>
      </trkpt>
      <trkpt lat="49.29364" lon="6.73573">
        <ele>207.3</ele>
        <time>2019-09-08T06:54:44Z</time>
      </trkpt>
      <trkpt lat="49.29374" lon="6.73581">
        <ele>207.3</ele>
        <time>2019-09-08T06:54:54Z</time>
      </trkpt>
      <trkpt lat="49.29382" lon="6.73587">
        <ele>207.3</ele>
        <time>2019-09-08T06:55:04Z</time>
      </trkpt>
      <trkpt lat="49.29391" lon="6.73595">
        <ele>207.3</ele>
        <time>2019-09-08T06:55:14Z</time>
      </trkpt>
      <trkpt lat="49.294" lon="6.73601">
        <ele>207.3</ele>
        <time>2019-09-08T06:55:24Z</time>
      </trkpt>
      <trkpt lat="49.2941" lon="6.73608">
        <ele>207.3</ele>
        <time>2019-09-08T06:55:34Z</time>
      </trkpt>
      <trkpt lat="49.29419" lon="6.73615">
        <ele>207.3</ele>
        <time>2019-09-08T06:55:44Z</time>
      </trkpt>
      <trkpt lat="49.29428" lon="6.73623">
        <ele>207.3</ele>
        <time>2019-09-08T06:55:54Z</time>
      </trkpt>
      <trkpt lat="49.29436" lon="6.73631">
        <ele>206.82</ele>
        <time>2019-09-08T06:56:04Z</time>
      </trkpt>
      <trkpt lat="49.29445" lon="6.73637">
        <ele>206.82</ele>
        <time>2019-09-08T06:56:14Z</time>
      </trkpt>
      <trkpt lat="49.29454" lon="6.73645">
        <ele>206.82</ele>
        <time>2019-09-08T06:56:24Z</time>
      </trkpt>
      <trkpt lat="49.29464" lon="6.73652">
        <ele>206.82</ele>
        <time>2019-09-08T06:56:34Z</time>
      </trkpt>
      <trkpt lat="49.29473" lon="6.73659">
        <ele>206.82</ele>
        <time>2019-09-08T06:56:44Z</time>
      </trkpt>
      <trkpt lat="49.29483" lon="6.73665">
        <ele>206.82</ele>
        <time>2019-09-08T06:56:54Z</time>
      </trkpt>
      <trkpt lat="49.29493" lon="6.73671">
        <ele>206.82</ele>
        <time>2019-09-08T06:57:04Z</time>
      </trkpt>
      <trkpt lat="49.29502" lon="6.73679">
        <ele>206.34</ele>
        <time>2019-09-08T06:57:14Z</time>
      </trkpt>
      <trkpt lat="49.29512" lon="6.73686">
        <ele>205.86</ele>
        <time>2019-09-08T06:57:24Z</time>
      </trkpt>
      <trkpt lat="49.29521" lon="6.73695">
        <ele>205.38</ele>
        <time>2019-09-08T06:57:34Z</time>
      </trkpt>
      <trkpt lat="49.29531" lon="6.73703">
        <ele>205.38</ele>
        <time>2019-09-08T06:57:44Z</time>
      </trkpt>
      <trkpt lat="49.29541" lon="6.73709">
        <ele>204.9</ele>
        <time>2019-09-08T06:57:54Z</time>
      </trkpt>
      <trkpt lat="49.2955" lon="6.73716">
        <ele>204.42</ele>
        <time>2019-09-08T06:58:04Z</time>
      </trkpt>
      <trkpt lat="49.2956" lon="6.73721">
        <ele>203.94</ele>
        <time>2019-09-08T06:58:14Z</time>
      </trkpt>
      <trkpt lat="49.2957" lon="6.73726">
        <ele>203.46</ele>
        <time>2019-09-08T06:58:24Z</time>
      </trkpt>
      <trkpt lat="49.2958" lon="6.7373">
        <ele>202.98</ele>
        <time>2019-09-08T06:58:34Z</time>
      </trkpt>
      <trkpt lat="49.29588" lon="6.73733">
        <ele>202.98</ele>
        <time>2019-09-08T06:58:44Z</time>
      </trkpt>
      <trkpt lat="49.29588" lon="6.73731">
        <ele>202.98</ele>
        <time>2019-09-08T06:58:54Z</time>
      </trkpt>
      <trkpt lat="49.29586" lon="6.73729">
        <ele>202.49</ele>
        <time>2019-09-08T06:59:04Z</time>
      </trkpt>
      <trkpt lat="49.29591" lon="6.73733">
        <ele>202.49</ele>
        <time>2019-09-08T06:59:14Z</time>
      </trkpt>
      <trkpt lat="49.29601" lon="6.73737">
        <ele>202.01</ele>
        <time>2019-09-08T06:59:24Z</time>
      </trkpt>
      <trkpt lat="49.29611" lon="6.73739">
        <ele>201.53</ele>
        <time>2019-09-08T06:59:34Z</time>
      </trkpt>
      <trkpt lat="49.29622" lon="6.73742">
        <ele>201.05</ele>
        <time>2019-09-08T06:59:44Z</time>
      </trkpt>
      <trkpt lat="49.29633" lon="6.73743">
        <ele>200.09</ele>
        <time>2019-09-08T06:59:54Z</time>
      </trkpt>
      <trkpt lat="49.29643" lon="6.73743">
        <ele>200.09</ele>
        <time>2019-09-08T07:00:04Z</time>
      </trkpt>
      <trkpt lat="49.29652" lon="6.73746">
        <ele>199.13</ele>
        <time>2019-09-08T07:00:14Z</time>
      </trkpt>
      <trkpt lat="49.29662" lon="6.73745">
        <ele>198.65</ele>
        <time>2019-09-08T07:00:24Z</time>
      </trkpt>
      <trkpt lat="49.29673" lon="6.73744">
        <ele>198.17</ele>
        <time>2019-09-08T07:00:34Z</time>
      </trkpt>
      <trkpt lat="49.29687" lon="6.73741">
        <ele>197.21</ele>
        <time>2019-09-08T07:00:44Z</time>
      </trkpt>
      <trkpt lat="49.29699" lon="6.73742">
        <ele>196.25</ele>
        <time>2019-09-08T07:00:54Z</time>
      </trkpt>
      <trkpt lat="49.2971" lon="6.73743">
        <ele>196.25</ele>
        <time>2019-09-08T07:01:04Z</time>
      </trkpt>
      <trkpt lat="49.29721" lon="6.73744">
        <ele>195.28</ele>
        <time>2019-09-08T07:01:14Z</time>
      </trkpt>
      <trkpt lat="49.29732" lon="6.73746">
        <ele>194.8</ele>
        <time>2019-09-08T07:01:24Z</time>
      </trkpt>
      <trkpt lat="49.29741" lon="6.73746">
        <ele>194.32</ele>
        <time>2019-09-08T07:01:34Z</time>
      </trkpt>
      <trkpt lat="49.2975" lon="6.73746">
        <ele>193.84</ele>
        <time>2019-09-08T07:01:44Z</time>
      </trkpt>
      <trkpt lat="49.29761" lon="6.73746">
        <ele>193.36</ele>
        <time>2019-09-08T07:01:54Z</time>
      </trkpt>
      <trkpt lat="49.29771" lon="6.73747">
        <ele>192.88</ele>
        <time>2019-09-08T07:02:04Z</time>
      </trkpt>
      <trkpt lat="49.29782" lon="6.73747">
        <ele>192.88</ele>
        <time>2019-09-08T07:02:14Z</time>
      </trkpt>
      <trkpt lat="49.29793" lon="6.73747">
        <ele>192.4</ele>
        <time>2019-09-08T07:02:24Z</time>
      </trkpt>
      <trkpt lat="49.29801" lon="6.73748">
        <ele>192.4</ele>
        <time>2019-09-08T07:02:34Z</time>
      </trkpt>
      <trkpt lat="49.29812" lon="6.73748">
        <ele>192.4</ele>
        <time>2019-09-08T07:02:44Z</time>
      </trkpt>
      <trkpt lat="49.29821" lon="6.7375">
        <ele>192.4</ele>
        <time>2019-09-08T07:02:54Z</time>
      </trkpt>
      <trkpt lat="49.29832" lon="6.7375">
        <ele>192.4</ele>
        <time>2019-09-08T07:03:04Z</time>
      </trkpt>
      <trkpt lat="49.29842" lon="6.73751">
        <ele>192.4</ele>
        <time>2019-09-08T07:03:14Z</time>
      </trkpt>
      <trkpt lat="49.29854" lon="6.7375">
        <ele>192.4</ele>
        <time>2019-09-08T07:03:24Z</time>
      </trkpt>
      <trkpt lat="49.29864" lon="6.7375">
        <ele>192.4</ele>
        <time>2019-09-08T07:03:34Z</time>
      </trkpt>
      <trkpt lat="49.29874" lon="6.73751">
        <ele>192.4</ele>
        <time>2019-09-08T07:03:44Z</time>
      </trkpt>
      <trkpt lat="49.29883" lon="6.7375">
        <ele>192.4</ele>
        <time>2019-09-08T07:03:54Z</time>
      </trkpt>
      <trkpt lat="49.29894" lon="6.7375">
        <ele>193.36</ele>
        <time>2019-09-08T07:04:04Z</time>
      </trkpt>
      <trkpt lat="49.29904" lon="6.7375">
        <ele>193.36</ele>
        <time>2019-09-08T07:04:14Z</time>
      </trkpt>
      <trkpt lat="49.29915" lon="6.7375">
        <ele>193.84</ele>
        <time>2019-09-08T07:04:24Z</time>
      </trkpt>
      <trkpt lat="49.29924" lon="6.7375">
        <ele>193.84</ele>
        <time>2019-09-08T07:04:34Z</time>
      </trkpt>
      <trkpt lat="49.29934" lon="6.7375">
        <ele>194.32</ele>
        <time>2019-09-08T07:04:44Z</time>
      </trkpt>
      <trkpt lat="49.29944" lon="6.7375">
        <ele>194.8</ele>
        <time>2019-09-08T07:04:54Z</time>
      </trkpt>
      <trkpt lat="49.29952" lon="6.7375">
        <ele>194.8</ele>
        <time>2019-09-08T07:05:04Z</time>
      </trkpt>
      <trkpt lat="49.29961" lon="6.7375">
        <ele>194.8</ele>
        <time>2019-09-08T07:05:14Z</time>
      </trkpt>
      <trkpt lat="49.29971" lon="6.73749">
        <ele>195.77</ele>
        <time>2019-09-08T07:05:24Z</time>
      </trkpt>
      <trkpt lat="49.29981" lon="6.7375">
        <ele>195.77</ele>
        <time>2019-09-08T07:05:34Z</time>
      </trkpt>
      <trkpt lat="49.2999" lon="6.7375">
        <ele>195.77</ele>
        <time>2019-09-08T07:05:44Z</time>
      </trkpt>
      <trkpt lat="49.3" lon="6.7375">
        <ele>195.77</ele>
        <time>2019-09-08T07:05:54Z</time>
      </trkpt>
      <trkpt lat="49.3001" lon="6.73751">
        <ele>195.77</ele>
        <time>2019-09-08T07:06:04Z</time>
      </trkpt>
      <trkpt lat="49.3002" lon="6.73752">
        <ele>195.77</ele>
        <time>2019-09-08T07:06:14Z</time>
      </trkpt>
      <trkpt lat="49.3003" lon="6.73751">
        <ele>196.25</ele>
        <time>2019-09-08T07:06:24Z</time>
      </trkpt>
      <trkpt lat="49.3004" lon="6.73753">
        <ele>196.25</ele>
        <time>2019-09-08T07:06:34Z</time>
      </trkpt>
      <trkpt lat="49.3005" lon="6.73753">
        <ele>196.25</ele>
        <time>2019-09-08T07:06:44Z</time>
      </trkpt>
      <trkpt lat="49.30061" lon="6.73753">
        <ele>196.25</ele>
        <time>2019-09-08T07:06:54Z</time>
      </trkpt>
      <trkpt lat="49.30073" lon="6.73754">
        <ele>196.25</ele>
        <time>2019-09-08T07:07:04Z</time>
      </trkpt>
      <trkpt lat="49.30082" lon="6.73753">
        <ele>196.25</ele>
        <time>2019-09-08T07:07:14Z</time>
      </trkpt>
      <trkpt lat="49.30092" lon="6.73753">
        <ele>196.25</ele>
        <time>2019-09-08T07:07:24Z</time>
      </trkpt>
      <trkpt lat="49.30103" lon="6.73752">
        <ele>194.8</ele>
        <time>2019-09-08T07:07:34Z</time>
      </trkpt>
      <trkpt lat="49.30112" lon="6.73753">
        <ele>194.8</ele>
        <time>2019-09-08T07:07:44Z</time>
      </trkpt>
      <trkpt lat="49.3011" lon="6.73751">
        <ele>194.32</ele>
        <time>2019-09-08T07:07:54Z</time>
      </trkpt>
      <trkpt lat="49.30108" lon="6.7375">
        <ele>194.32</ele>
        <time>2019-09-08T07:08:04Z</time>
      </trkpt>
      <trkpt lat="49.30109" lon="6.73748">
        <ele>194.32</ele>
        <time>2019-09-08T07:08:14Z</time>
      </trkpt>
      <trkpt lat="49.30111" lon="6.73746">
        <ele>194.32</ele>
        <time>2019-09-08T07:08:24Z</time>
      </trkpt>
      <trkpt lat="49.3011" lon="6.73748">
        <ele>194.32</ele>
        <time>2019-09-08T07:08:34Z</time>
      </trkpt>
      <trkpt lat="49.30107" lon="6.7375">
        <ele>194.32</ele>
        <time>2019-09-08T07:08:44Z</time>
      </trkpt>
      <trkpt lat="49.30105" lon="6.73751">
        <ele>194.32</ele>
        <time>2019-09-08T07:08:54Z</time>
      </trkpt>
      <trkpt lat="49.30103" lon="6.73752">
        <ele>194.32</ele>
        <time>2019-09-08T07:09:04Z</time>
      </trkpt>
      <trkpt lat="49.30107" lon="6.73755">
        <ele>194.32</ele>
        <time>2019-09-08T07:09:14Z</time>
      </trkpt>
      <trkpt lat="49.3011" lon="6.73757">
        <ele>194.32</ele>
        <time>2019-09-08T07:09:24Z</time>
      </trkpt>
      <trkpt lat="49.30112" lon="6.73758">
        <ele>194.32</ele>
        <time>2019-09-08T07:09:34Z</time>
      </trkpt>
      <trkpt lat="49.30115" lon="6.73756">
        <ele>194.32</ele>
        <time>2019-09-08T07:09:44Z</time>
      </trkpt>
      <trkpt lat="49.30115" lon="6.73755">
        <ele>194.32</ele>
        <time>2019-09-08T07:09:54Z</time>
      </trkpt>
      <trkpt lat="49.30118" lon="6.73754">
        <ele>194.32</ele>
        <time>2019-09-08T07:10:04Z</time>
      </trkpt>
      <trkpt lat="49.30128" lon="6.73753">
        <ele>194.32</ele>
        <time>2019-09-08T07:10:14Z</time>
      </trkpt>
      <trkpt lat="49.30137" lon="6.73751">
        <ele>194.32</ele>
        <time>2019-09-08T07:10:24Z</time>
      </trkpt>
      <trkpt lat="49.30147" lon="6.73751">
        <ele>194.32</ele>
        <time>2019-09-08T07:10:34Z</time>
      </trkpt>
      <trkpt lat="49.30157" lon="6.73752">
        <ele>193.84</ele>
        <time>2019-09-08T07:10:44Z</time>
      </trkpt>
      <trkpt lat="49.30168" lon="6.73752">
        <ele>193.84</ele>
        <time>2019-09-08T07:10:54Z</time>
      </trkpt>
      <trkpt lat="49.30173" lon="6.73759">
        <ele>193.36</ele>
        <time>2019-09-08T07:11:04Z</time>
      </trkpt>
      <trkpt lat="49.30178" lon="6.73765">
        <ele>193.36</ele>
        <time>2019-09-08T07:11:14Z</time>
      </trkpt>
      <trkpt lat="49.30188" lon="6.73763">
        <ele>192.88</ele>
        <time>2019-09-08T07:11:24Z</time>
      </trkpt>
      <trkpt lat="49.30198" lon="6.73763">
        <ele>192.88</ele>
        <time>2019-09-08T07:11:34Z</time>
      </trkpt>
      <trkpt lat="49.30208" lon="6.73763">
        <ele>192.4</ele>
        <time>2019-09-08T07:11:44Z</time>
      </trkpt>
      <trkpt lat="49.30218" lon="6.73764">
        <ele>191.92</ele>
        <time>2019-09-08T07:11:54Z</time>
      </trkpt>
      <trkpt lat="49.30229" lon="6.73764">
        <ele>191.44</ele>
        <time>2019-09-08T07:12:04Z</time>
      </trkpt>
      <trkpt lat="49.30238" lon="6.73764">
        <ele>191.44</ele>
        <time>2019-09-08T07:12:14Z</time>
      </trkpt>
      <trkpt lat="49.30249" lon="6.73764">
        <ele>190.96</ele>
        <time>2019-09-08T07:12:24Z</time>
      </trkpt>
      <trkpt lat="49.30259" lon="6.73763">
        <ele>190.48</ele>
        <time>2019-09-08T07:12:34Z</time>
      </trkpt>
      <trkpt lat="49.30268" lon="6.73764">
        <ele>190.48</ele>
        <time>2019-09-08T07:12:44Z</time>
      </trkpt>
      <trkpt lat="49.30277" lon="6.73764">
        <ele>190</ele>
        <time>2019-09-08T07:12:54Z</time>
      </trkpt>
      <trkpt lat="49.30287" lon="6.73764">
        <ele>189.52</ele>
        <time>2019-09-08T07:13:04Z</time>
      </trkpt>
      <trkpt lat="49.30297" lon="6.73766">
        <ele>189.04</ele>
        <time>2019-09-08T07:13:14Z</time>
      </trkpt>
      <trkpt lat="49.30307" lon="6.73764">
        <ele>188.56</ele>
        <time>2019-09-08T07:13:24Z</time>
      </trkpt>
      <trkpt lat="49.30314" lon="6.73762">
        <ele>188.56</ele>
        <time>2019-09-08T07:13:34Z</time>
      </trkpt>
      <trkpt lat="49.30324" lon="6.73762">
        <ele>188.56</ele>
        <time>2019-09-08T07:13:44Z</time>
      </trkpt>
      <trkpt lat="49.30333" lon="6.73762">
        <ele>188.08</ele>
        <time>2019-09-08T07:13:54Z</time>
      </trkpt>
      <trkpt lat="49.30342" lon="6.73765">
        <ele>187.59</ele>
        <time>2019-09-08T07:14:04Z</time>
      </trkpt>
      <trkpt lat="49.30348" lon="6.73767">
        <ele>187.59</ele>
        <time>2019-09-08T07:14:14Z</time>
      </trkpt>
      <trkpt lat="49.30354" lon="6.73773">
        <ele>187.59</ele>
        <time>2019-09-08T07:14:24Z</time>
      </trkpt>
      <trkpt lat="49.30362" lon="6.73782">
        <ele>187.11</ele>
        <time>2019-09-08T07:14:34Z</time>
      </trkpt>
      <trkpt lat="49.30369" lon="6.73792">
        <ele>187.11</ele>
        <time>2019-09-08T07:14:44Z</time>
      </trkpt>
      <trkpt lat="49.30375" lon="6.73803">
        <ele>186.63</ele>
        <time>2019-09-08T07:14:54Z</time>
      </trkpt>
      <trkpt lat="49.30381" lon="6.73814">
        <ele>186.63</ele>
        <time>2019-09-08T07:15:04Z</time>
      </trkpt>
      <trkpt lat="49.30389" lon="6.73827">
        <ele>186.63</ele>
        <time>2019-09-08T07:15:14Z</time>
      </trkpt>
      <trkpt lat="49.30396" lon="6.73838">
        <ele>186.63</ele>
        <time>2019-09-08T07:15:24Z</time>
      </trkpt>
      <trkpt lat="49.30405" lon="6.73847">
        <ele>186.15</ele>
        <time>2019-09-08T07:15:34Z</time>
      </trkpt>
      <trkpt lat="49.30411" lon="6.73849">
        <ele>186.15</ele>
        <time>2019-09-08T07:15:44Z</time>
      </trkpt>
      <trkpt lat="49.3042" lon="6.73843">
        <ele>185.67</ele>
        <time>2019-09-08T07:15:54Z</time>
      </trkpt>
      <trkpt lat="49.30427" lon="6.73851">
        <ele>185.67</ele>
        <time>2019-09-08T07:16:04Z</time>
      </trkpt>
      <trkpt lat="49.30434" lon="6.73862">
        <ele>185.67</ele>
        <time>2019-09-08T07:16:14Z</time>
      </trkpt>
      <trkpt lat="49.30442" lon="6.73873">
        <ele>185.67</ele>
        <time>2019-09-08T07:16:24Z</time>
      </trkpt>
      <trkpt lat="49.3045" lon="6.73882">
        <ele>185.67</ele>
        <time>2019-09-08T07:16:34Z</time>
      </trkpt>
      <trkpt lat="49.30454" lon="6.73887">
        <ele>185.67</ele>
        <time>2019-09-08T07:16:44Z</time>
      </trkpt>
      <trkpt lat="49.30454" lon="6.73887">
        <ele>185.19</ele>
        <time>2019-09-08T07:16:54Z</time>
      </trkpt>
      <trkpt lat="49.30458" lon="6.73893">
        <ele>185.19</ele>
        <time>2019-09-08T07:17:04Z</time>
      </trkpt>
      <trkpt lat="49.30462" lon="6.739">
        <ele>185.19</ele>
        <time>2019-09-08T07:17:14Z</time>
      </trkpt>
      <trkpt lat="49.30466" lon="6.73905">
        <ele>185.19</ele>
        <time>2019-09-08T07:17:24Z</time>
      </trkpt>
      <trkpt lat="49.30471" lon="6.73912">
        <ele>185.19</ele>
        <time>2019-09-08T07:17:34Z</time>
      </trkpt>
      <trkpt lat="49.30475" lon="6.73919">
        <ele>185.19</ele>
        <time>2019-09-08T07:17:44Z</time>
      </trkpt>
      <trkpt lat="49.3048" lon="6.73924">
        <ele>185.19</ele>
        <time>2019-09-08T07:17:54Z</time>
      </trkpt>
      <trkpt lat="49.30483" lon="6.73931">
        <ele>185.19</ele>
        <time>2019-09-08T07:18:04Z</time>
      </trkpt>
      <trkpt lat="49.30489" lon="6.73939">
        <ele>185.19</ele>
        <time>2019-09-08T07:18:14Z</time>
      </trkpt>
      <trkpt lat="49.30497" lon="6.73952">
        <ele>185.19</ele>
        <time>2019-09-08T07:18:24Z</time>
      </trkpt>
      <trkpt lat="49.30503" lon="6.73961">
        <ele>185.19</ele>
        <time>2019-09-08T07:18:34Z</time>
      </trkpt>
      <trkpt lat="49.30509" lon="6.73968">
        <ele>185.19</ele>
        <time>2019-09-08T07:18:44Z</time>
      </trkpt>
      <trkpt lat="49.30515" lon="6.73976">
        <ele>185.19</ele>
        <time>2019-09-08T07:18:54Z</time>
      </trkpt>
      <trkpt lat="49.3052" lon="6.73983">
        <ele>185.19</ele>
        <time>2019-09-08T07:19:04Z</time>
      </trkpt>
      <trkpt lat="49.30524" lon="6.7399">
        <ele>185.19</ele>
        <time>2019-09-08T07:19:14Z</time>
      </trkpt>
      <trkpt lat="49.3053" lon="6.73996">
        <ele>185.19</ele>
        <time>2019-09-08T07:19:24Z</time>
      </trkpt>
      <trkpt lat="49.30534" lon="6.74004">
        <ele>185.19</ele>
        <time>2019-09-08T07:19:34Z</time>
      </trkpt>
      <trkpt lat="49.30537" lon="6.74011">
        <ele>185.19</ele>
        <time>2019-09-08T07:19:44Z</time>
      </trkpt>
      <trkpt lat="49.30543" lon="6.74019">
        <ele>185.67</ele>
        <time>2019-09-08T07:19:54Z</time>
      </trkpt>
      <trkpt lat="49.30547" lon="6.74024">
        <ele>185.19</ele>
        <time>2019-09-08T07:20:04Z</time>
      </trkpt>
      <trkpt lat="49.30551" lon="6.74032">
        <ele>185.19</ele>
        <time>2019-09-08T07:20:14Z</time>
      </trkpt>
      <trkpt lat="49.30557" lon="6.74041">
        <ele>185.19</ele>
        <time>2019-09-08T07:20:24Z</time>
      </trkpt>
      <trkpt lat="49.30563" lon="6.74049">
        <ele>185.19</ele>
        <time>2019-09-08T07:20:34Z</time>
      </trkpt>
      <trkpt lat="49.30562" lon="6.74048">
        <ele>185.19</ele>
        <time>2019-09-08T07:20:44Z</time>
      </trkpt>
      <trkpt lat="49.30565" lon="6.74053">
        <ele>185.19</ele>
        <time>2019-09-08T07:20:54Z</time>
      </trkpt>
      <trkpt lat="49.3057" lon="6.7406">
        <ele>185.19</ele>
        <time>2019-09-08T07:21:04Z</time>
      </trkpt>
      <trkpt lat="49.30574" lon="6.74068">
        <ele>185.19</ele>
        <time>2019-09-08T07:21:14Z</time>
      </trkpt>
      <trkpt lat="49.30578" lon="6.74071">
        <ele>185.19</ele>
        <time>2019-09-08T07:21:24Z</time>
      </trkpt>
      <trkpt lat="49.30583" lon="6.74077">
        <ele>185.19</ele>
        <time>2019-09-08T07:21:34Z</time>
      </trkpt>
      <trkpt lat="49.30583" lon="6.7408">
        <ele>185.19</ele>
        <time>2019-09-08T07:21:44Z</time>
      </trkpt>
      <trkpt lat="49.30588" lon="6.74088">
        <ele>185.19</ele>
        <time>2019-09-08T07:21:54Z</time>
      </trkpt>
      <trkpt lat="49.30594" lon="6.74095">
        <ele>185.19</ele>
        <time>2019-09-08T07:22:04Z</time>
      </trkpt>
      <trkpt lat="49.30599" lon="6.74103">
        <ele>185.19</ele>
        <time>2019-09-08T07:22:14Z</time>
      </trkpt>
      <trkpt lat="49.30606" lon="6.74111">
        <ele>185.19</ele>
        <time>2019-09-08T07:22:24Z</time>
      </trkpt>
      <trkpt lat="49.30611" lon="6.74121">
        <ele>185.19</ele>
        <time>2019-09-08T07:22:34Z</time>
      </trkpt>
      <trkpt lat="49.30616" lon="6.74132">
        <ele>185.67</ele>
        <time>2019-09-08T07:22:44Z</time>
      </trkpt>
      <trkpt lat="49.3062" lon="6.74139">
        <ele>185.67</ele>
        <time>2019-09-08T07:22:54Z</time>
      </trkpt>
      <trkpt lat="49.30624" lon="6.74146">
        <ele>185.67</ele>
        <time>2019-09-08T07:23:04Z</time>
      </trkpt>
      <trkpt lat="49.30628" lon="6.74153">
        <ele>185.67</ele>
        <time>2019-09-08T07:23:14Z</time>
      </trkpt>
      <trkpt lat="49.30633" lon="6.74162">
        <ele>185.67</ele>
        <time>2019-09-08T07:23:24Z</time>
      </trkpt>
      <trkpt lat="49.30639" lon="6.74167">
        <ele>185.19</ele>
        <time>2019-09-08T07:23:34Z</time>
      </trkpt>
      <trkpt lat="49.30644" lon="6.74173">
        <ele>185.19</ele>
        <time>2019-09-08T07:23:44Z</time>
      </trkpt>
      <trkpt lat="49.30648" lon="6.74175">
        <ele>185.19</ele>
        <time>2019-09-08T07:23:54Z</time>
      </trkpt>
      <trkpt lat="49.30652" lon="6.7418">
        <ele>185.19</ele>
        <time>2019-09-08T07:24:04Z</time>
      </trkpt>
      <trkpt lat="49.3065" lon="6.74181">
        <ele>185.19</ele>
        <time>2019-09-08T07:24:14Z</time>
      </trkpt>
      <trkpt lat="49.30646" lon="6.74184">
        <ele>185.19</ele>
        <time>2019-09-08T07:24:24Z</time>
      </trkpt>
      <trkpt lat="49.30643" lon="6.74185">
        <ele>185.19</ele>
        <time>2019-09-08T07:24:34Z</time>
      </trkpt>
      <trkpt lat="49.30639" lon="6.74186">
        <ele>185.19</ele>
        <time>2019-09-08T07:24:44Z</time>
      </trkpt>
      <trkpt lat="49.30636" lon="6.74187">
        <ele>185.19</ele>
        <time>2019-09-08T07:24:54Z</time>
      </trkpt>
      <trkpt lat="49.30634" lon="6.74189">
        <ele>185.19</ele>
        <time>2019-09-08T07:25:04Z</time>
      </trkpt>
      <trkpt lat="49.30634" lon="6.74191">
        <ele>185.19</ele>
        <time>2019-09-08T07:25:14Z</time>
      </trkpt>
      <trkpt lat="49.30634" lon="6.74196">
        <ele>185.19</ele>
        <time>2019-09-08T07:25:24Z</time>
      </trkpt>
      <trkpt lat="49.30634" lon="6.74196">
        <ele>185.19</ele>
        <time>2019-09-08T07:25:34Z</time>
      </trkpt>
      <trkpt lat="49.30636" lon="6.74196">
        <ele>185.19</ele>
        <time>2019-09-08T07:25:44Z</time>
      </trkpt>
      <trkpt lat="49.30635" lon="6.74192">
        <ele>185.19</ele>
        <time>2019-09-08T07:25:54Z</time>
      </trkpt>
      <trkpt lat="49.30635" lon="6.74192">
        <ele>185.19</ele>
        <time>2019-09-08T07:26:04Z</time>
      </trkpt>
      <trkpt lat="49.30638" lon="6.74187">
        <ele>185.19</ele>
        <time>2019-09-08T07:26:14Z</time>
      </trkpt>
      <trkpt lat="49.30641" lon="6.74182">
        <ele>185.19</ele>
        <time>2019-09-08T07:26:24Z</time>
      </trkpt>
      <trkpt lat="49.30642" lon="6.74181">
        <ele>185.19</ele>
        <time>2019-09-08T07:26:34Z</time>
      </trkpt>
      <trkpt lat="49.30642" lon="6.74182">
        <ele>185.19</ele>
        <time>2019-09-08T07:26:44Z</time>
      </trkpt>
      <trkpt lat="49.30639" lon="6.74182">
        <ele>185.19</ele>
        <time>2019-09-08T07:26:54Z</time>
      </trkpt>
      <trkpt lat="49.3064" lon="6.74183">
        <ele>185.19</ele>
        <time>2019-09-08T07:27:04Z</time>
      </trkpt>
      <trkpt lat="49.30642" lon="6.74183">
        <ele>185.19</ele>
        <time>2019-09-08T07:27:14Z</time>
      </trkpt>
      <trkpt lat="49.30642" lon="6.74187">
        <ele>185.19</ele>
        <time>2019-09-08T07:27:24Z</time>
      </trkpt>
      <trkpt lat="49.30643" lon="6.7419">
        <ele>185.19</ele>
        <time>2019-09-08T07:27:34Z</time>
      </trkpt>
      <trkpt lat="49.30644" lon="6.74192">
        <ele>185.19</ele>
        <time>2019-09-08T07:27:44Z</time>
      </trkpt>
      <trkpt lat="49.30646" lon="6.74188">
        <ele>185.19</ele>
        <time>2019-09-08T07:27:54Z</time>
      </trkpt>
      <trkpt lat="49.30644" lon="6.74191">
        <ele>185.19</ele>
        <time>2019-09-08T07:28:04Z</time>
      </trkpt>
      <trkpt lat="49.30644" lon="6.74189">
        <ele>185.19</ele>
        <time>2019-09-08T07:28:14Z</time>
      </trkpt>
      <trkpt lat="49.30645" lon="6.74185">
        <ele>185.19</ele>
        <time>2019-09-08T07:28:24Z</time>
      </trkpt>
      <trkpt lat="49.30644" lon="6.74185">
        <ele>185.19</ele>
        <time>2019-09-08T07:28:34Z</time>
      </trkpt>
      <trkpt lat="49.3064" lon="6.74186">
        <ele>185.19</ele>
        <time>2019-09-08T07:28:44Z</time>
      </trkpt>
      <trkpt lat="49.30641" lon="6.74184">
        <ele>185.19</ele>
        <time>2019-09-08T07:28:54Z</time>
      </trkpt>
      <trkpt lat="49.30643" lon="6.74185">
        <ele>185.19</ele>
        <time>2019-09-08T07:29:04Z</time>
      </trkpt>
      <trkpt lat="49.30643" lon="6.74188">
        <ele>185.19</ele>
        <time>2019-09-08T07:29:14Z</time>
      </trkpt>
      <trkpt lat="49.30643" lon="6.74187">
        <ele>185.19</ele>
        <time>2019-09-08T07:29:24Z</time>
      </trkpt>
      <trkpt lat="49.30643" lon="6.7419">
        <ele>185.19</ele>
        <time>2019-09-08T07:29:34Z</time>
      </trkpt>
      <trkpt lat="49.30642" lon="6.74192">
        <ele>185.67</ele>
        <time>2019-09-08T07:29:44Z</time>
      </trkpt>
      <trkpt lat="49.30642" lon="6.7419">
        <ele>185.67</ele>
        <time>2019-09-08T07:29:54Z</time>
      </trkpt>
      <trkpt lat="49.30644" lon="6.74192">
        <ele>185.67</ele>
        <time>2019-09-08T07:30:04Z</time>
      </trkpt>
      <trkpt lat="49.30651" lon="6.74195">
        <ele>185.67</ele>
        <time>2019-09-08T07:30:14Z</time>
      </trkpt>
      <trkpt lat="49.30657" lon="6.74199">
        <ele>185.67</ele>
        <time>2019-09-08T07:30:24Z</time>
      </trkpt>
      <trkpt lat="49.30655" lon="6.742">
        <ele>185.67</ele>
        <time>2019-09-08T07:30:34Z</time>
      </trkpt>
      <trkpt lat="49.30658" lon="6.74209">
        <ele>185.67</ele>
        <time>2019-09-08T07:30:44Z</time>
      </trkpt>
      <trkpt lat="49.30664" lon="6.74215">
        <ele>185.67</ele>
        <time>2019-09-08T07:30:54Z</time>
      </trkpt>
      <trkpt lat="49.30669" lon="6.74222">
        <ele>185.67</ele>
        <time>2019-09-08T07:31:04Z</time>
      </trkpt>
      <trkpt lat="49.30675" lon="6.74231">
        <ele>185.67</ele>
        <time>2019-09-08T07:31:14Z</time>
      </trkpt>
      <trkpt lat="49.30682" lon="6.74239">
        <ele>185.67</ele>
        <time>2019-09-08T07:31:24Z</time>
      </trkpt>
      <trkpt lat="49.30689" lon="6.74246">
        <ele>185.67</ele>
        <time>2019-09-08T07:31:34Z</time>
      </trkpt>
      <trkpt lat="49.30695" lon="6.74254">
        <ele>185.67</ele>
        <time>2019-09-08T07:31:44Z</time>
      </trkpt>
      <trkpt lat="49.307" lon="6.74261">
        <ele>185.67</ele>
        <time>2019-09-08T07:31:54Z</time>
      </trkpt>
      <trkpt lat="49.30706" lon="6.74269">
        <ele>185.67</ele>
        <time>2019-09-08T07:32:04Z</time>
      </trkpt>
      <trkpt lat="49.30711" lon="6.74276">
        <ele>185.67</ele>
        <time>2019-09-08T07:32:14Z</time>
      </trkpt>
      <trkpt lat="49.30715" lon="6.74284">
        <ele>185.67</ele>
        <time>2019-09-08T07:32:24Z</time>
      </trkpt>
      <trkpt lat="49.30721" lon="6.74291">
        <ele>185.67</ele>
        <time>2019-09-08T07:32:34Z</time>
      </trkpt>
      <trkpt lat="49.30726" lon="6.74299">
        <ele>185.67</ele>
        <time>2019-09-08T07:32:44Z</time>
      </trkpt>
      <trkpt lat="49.30732" lon="6.74309">
        <ele>185.19</ele>
        <time>2019-09-08T07:32:54Z</time>
      </trkpt>
      <trkpt lat="49.30737" lon="6.74316">
        <ele>185.19</ele>
        <time>2019-09-08T07:33:04Z</time>
      </trkpt>
      <trkpt lat="49.3074" lon="6.74326">
        <ele>185.19</ele>
        <time>2019-09-08T07:33:14Z</time>
      </trkpt>
      <trkpt lat="49.30745" lon="6.74334">
        <ele>185.19</ele>
        <time>2019-09-08T07:33:24Z</time>
      </trkpt>
      <trkpt lat="49.30751" lon="6.7434">
        <ele>185.19</ele>
        <time>2019-09-08T07:33:34Z</time>
      </trkpt>
      <trkpt lat="49.30756" lon="6.74348">
        <ele>185.19</ele>
        <time>2019-09-08T07:33:44Z</time>
      </trkpt>
      <trkpt lat="49.30762" lon="6.74357">
        <ele>185.19</ele>
        <time>2019-09-08T07:33:54Z</time>
      </trkpt>
      <trkpt lat="49.30766" lon="6.74362">
        <ele>184.71</ele>
        <time>2019-09-08T07:34:04Z</time>
      </trkpt>
      <trkpt lat="49.30763" lon="6.74361">
        <ele>186.15</ele>
        <time>2019-09-08T07:34:14Z</time>
      </trkpt>
      <trkpt lat="49.30762" lon="6.7436">
        <ele>186.15</ele>
        <time>2019-09-08T07:34:24Z</time>
      </trkpt>
      <trkpt lat="49.30759" lon="6.74355">
        <ele>186.15</ele>
        <time>2019-09-08T07:34:34Z</time>
      </trkpt>
      <trkpt lat="49.3076" lon="6.74353">
        <ele>184.71</ele>
        <time>2019-09-08T07:34:44Z</time>
      </trkpt>
      <trkpt lat="49.3076" lon="6.74354">
        <ele>184.71</ele>
        <time>2019-09-08T07:34:54Z</time>
      </trkpt>
      <trkpt lat="49.3076" lon="6.74353">
        <ele>184.23</ele>
        <time>2019-09-08T07:35:04Z</time>
      </trkpt>
      <trkpt lat="49.3076" lon="6.74351">
        <ele>183.75</ele>
        <time>2019-09-08T07:35:14Z</time>
      </trkpt>
      <trkpt lat="49.30759" lon="6.74349">
        <ele>183.75</ele>
        <time>2019-09-08T07:35:24Z</time>
      </trkpt>
      <trkpt lat="49.30759" lon="6.7435">
        <ele>183.75</ele>
        <time>2019-09-08T07:35:34Z</time>
      </trkpt>
      <trkpt lat="49.30759" lon="6.74348">
        <ele>183.75</ele>
        <time>2019-09-08T07:35:44Z</time>
      </trkpt>
      <trkpt lat="49.30759" lon="6.74349">
        <ele>183.75</ele>
        <time>2019-09-08T07:35:54Z</time>
      </trkpt>
      <trkpt lat="49.30759" lon="6.74348">
        <ele>183.75</ele>
        <time>2019-09-08T07:36:04Z</time>
      </trkpt>
      <trkpt lat="49.3076" lon="6.74349">
        <ele>183.75</ele>
        <time>2019-09-08T07:36:14Z</time>
      </trkpt>
      <trkpt lat="49.3076" lon="6.7435">
        <ele>183.75</ele>
        <time>2019-09-08T07:36:24Z</time>
      </trkpt>
      <trkpt lat="49.30761" lon="6.74349">
        <ele>183.27</ele>
        <time>2019-09-08T07:36:34Z</time>
      </trkpt>
      <trkpt lat="49.3076" lon="6.74349">
        <ele>183.27</ele>
        <time>2019-09-08T07:36:44Z</time>
      </trkpt>
      <trkpt lat="49.30762" lon="6.7435">
        <ele>183.27</ele>
        <time>2019-09-08T07:36:54Z</time>
      </trkpt>
      <trkpt lat="49.30762" lon="6.74352">
        <ele>182.79</ele>
        <time>2019-09-08T07:37:04Z</time>
      </trkpt>
      <trkpt lat="49.30763" lon="6.74351">
        <ele>182.79</ele>
        <time>2019-09-08T07:37:14Z</time>
      </trkpt>
      <trkpt lat="49.30762" lon="6.74348">
        <ele>182.79</ele>
        <time>2019-09-08T07:37:24Z</time>
      </trkpt>
      <trkpt lat="49.30762" lon="6.74349">
        <ele>182.79</ele>
        <time>2019-09-08T07:37:34Z</time>
      </trkpt>
      <trkpt lat="49.30764" lon="6.7435">
        <ele>182.79</ele>
        <time>2019-09-08T07:37:44Z</time>
      </trkpt>
      <trkpt lat="49.30764" lon="6.74351">
        <ele>182.79</ele>
        <time>2019-09-08T07:37:54Z</time>
      </trkpt>
      <trkpt lat="49.30764" lon="6.74351">
        <ele>182.79</ele>
        <time>2019-09-08T07:38:04Z</time>
      </trkpt>
      <trkpt lat="49.30762" lon="6.74353">
        <ele>182.79</ele>
        <time>2019-09-08T07:38:14Z</time>
      </trkpt>
      <trkpt lat="49.30759" lon="6.74351">
        <ele>182.79</ele>
        <time>2019-09-08T07:38:24Z</time>
      </trkpt>
      <trkpt lat="49.30756" lon="6.74354">
        <ele>182.79</ele>
        <time>2019-09-08T07:38:34Z</time>
      </trkpt>
      <trkpt lat="49.30755" lon="6.74356">
        <ele>182.79</ele>
        <time>2019-09-08T07:38:44Z</time>
      </trkpt>
      <trkpt lat="49.30757" lon="6.74358">
        <ele>182.79</ele>
        <time>2019-09-08T07:38:54Z</time>
      </trkpt>
      <trkpt lat="49.3076" lon="6.74365">
        <ele>182.79</ele>
        <time>2019-09-08T07:39:04Z</time>
      </trkpt>
      <trkpt lat="49.30766" lon="6.74373">
        <ele>182.79</ele>
        <time>2019-09-08T07:39:14Z</time>
      </trkpt>
      <trkpt lat="49.30772" lon="6.74379">
        <ele>182.79</ele>
        <time>2019-09-08T07:39:24Z</time>
      </trkpt>
      <trkpt lat="49.30775" lon="6.74382">
        <ele>182.79</ele>
        <time>2019-09-08T07:39:34Z</time>
      </trkpt>
      <trkpt lat="49.30777" lon="6.74384">
        <ele>182.79</ele>
        <time>2019-09-08T07:39:44Z</time>
      </trkpt>
      <trkpt lat="49.30782" lon="6.74391">
        <ele>182.79</ele>
        <time>2019-09-08T07:39:54Z</time>
      </trkpt>
      <trkpt lat="49.30787" lon="6.74396">
        <ele>182.79</ele>
        <time>2019-09-08T07:40:04Z</time>
      </trkpt>
      <trkpt lat="49.30791" lon="6.74403">
        <ele>182.79</ele>
        <time>2019-09-08T07:40:14Z</time>
      </trkpt>
      <trkpt lat="49.30796" lon="6.74411">
        <ele>182.79</ele>
        <time>2019-09-08T07:40:24Z</time>
      </trkpt>
      <trkpt lat="49.30802" lon="6.74418">
        <ele>182.79</ele>
        <time>2019-09-08T07:40:34Z</time>
      </trkpt>
      <trkpt lat="49.30807" lon="6.74427">
        <ele>182.79</ele>
        <time>2019-09-08T07:40:44Z</time>
      </trkpt>
      <trkpt lat="49.30811" lon="6.74434">
        <ele>182.79</ele>
        <time>2019-09-08T07:40:54Z</time>
      </trkpt>
      <trkpt lat="49.30813" lon="6.74436">
        <ele>182.79</ele>
        <time>2019-09-08T07:41:04Z</time>
      </trkpt>
      <trkpt lat="49.30819" lon="6.7444">
        <ele>182.79</ele>
        <time>2019-09-08T07:41:14Z</time>
      </trkpt>
      <trkpt lat="49.30823" lon="6.74446">
        <ele>182.79</ele>
        <time>2019-09-08T07:41:24Z</time>
      </trkpt>
      <trkpt lat="49.30828" lon="6.74453">
        <ele>182.79</ele>
        <time>2019-09-08T07:41:34Z</time>
      </trkpt>
      <trkpt lat="49.30831" lon="6.74456">
        <ele>182.79</ele>
        <time>2019-09-08T07:41:44Z</time>
      </trkpt>
      <trkpt lat="49.30836" lon="6.74463">
        <ele>182.79</ele>
        <time>2019-09-08T07:41:54Z</time>
      </trkpt>
      <trkpt lat="49.30837" lon="6.74468">
        <ele>182.79</ele>
        <time>2019-09-08T07:42:04Z</time>
      </trkpt>
      <trkpt lat="49.30844" lon="6.74474">
        <ele>182.79</ele>
        <time>2019-09-08T07:42:14Z</time>
      </trkpt>
      <trkpt lat="49.30845" lon="6.7448">
        <ele>182.79</ele>
        <time>2019-09-08T07:42:24Z</time>
      </trkpt>
      <trkpt lat="49.30848" lon="6.74487">
        <ele>182.79</ele>
        <time>2019-09-08T07:42:34Z</time>
      </trkpt>
      <trkpt lat="49.30852" lon="6.74494">
        <ele>183.27</ele>
        <time>2019-09-08T07:42:44Z</time>
      </trkpt>
      <trkpt lat="49.30855" lon="6.74494">
        <ele>183.27</ele>
        <time>2019-09-08T07:42:54Z</time>
      </trkpt>
      <trkpt lat="49.30859" lon="6.74502">
        <ele>183.27</ele>
        <time>2019-09-08T07:43:04Z</time>
      </trkpt>
      <trkpt lat="49.30866" lon="6.74511">
        <ele>183.27</ele>
        <time>2019-09-08T07:43:14Z</time>
      </trkpt>
      <trkpt lat="49.30871" lon="6.74519">
        <ele>182.79</ele>
        <time>2019-09-08T07:43:24Z</time>
      </trkpt>
      <trkpt lat="49.30878" lon="6.74528">
        <ele>182.79</ele>
        <time>2019-09-08T07:43:34Z</time>
      </trkpt>
      <trkpt lat="49.30883" lon="6.74536">
        <ele>182.79</ele>
        <time>2019-09-08T07:43:44Z</time>
      </trkpt>
      <trkpt lat="49.30883" lon="6.74542">
        <ele>182.79</ele>
        <time>2019-09-08T07:43:54Z</time>
      </trkpt>
      <trkpt lat="49.3088" lon="6.74543">
        <ele>182.79</ele>
        <time>2019-09-08T07:44:04Z</time>
      </trkpt>
      <trkpt lat="49.30876" lon="6.7455">
        <ele>182.79</ele>
        <time>2019-09-08T07:44:14Z</time>
      </trkpt>
      <trkpt lat="49.30877" lon="6.7455">
        <ele>182.79</ele>
        <time>2019-09-08T07:44:24Z</time>
      </trkpt>
      <trkpt lat="49.30882" lon="6.74544">
        <ele>182.79</ele>
        <time>2019-09-08T07:44:34Z</time>
      </trkpt>
      <trkpt lat="49.30889" lon="6.74548">
        <ele>182.79</ele>
        <time>2019-09-08T07:44:44Z</time>
      </trkpt>
      <trkpt lat="49.30896" lon="6.74554">
        <ele>182.79</ele>
        <time>2019-09-08T07:44:54Z</time>
      </trkpt>
      <trkpt lat="49.30902" lon="6.74562">
        <ele>182.79</ele>
        <time>2019-09-08T07:45:04Z</time>
      </trkpt>
      <trkpt lat="49.30907" lon="6.74571">
        <ele>182.79</ele>
        <time>2019-09-08T07:45:14Z</time>
      </trkpt>
      <trkpt lat="49.30911" lon="6.74581">
        <ele>182.79</ele>
        <time>2019-09-08T07:45:24Z</time>
      </trkpt>
      <trkpt lat="49.30913" lon="6.74584">
        <ele>182.79</ele>
        <time>2019-09-08T07:45:34Z</time>
      </trkpt>
      <trkpt lat="49.30916" lon="6.74589">
        <ele>182.79</ele>
        <time>2019-09-08T07:45:44Z</time>
      </trkpt>
      <trkpt lat="49.3092" lon="6.74596">
        <ele>182.31</ele>
        <time>2019-09-08T07:45:54Z</time>
      </trkpt>
      <trkpt lat="49.30925" lon="6.74603">
        <ele>182.31</ele>
        <time>2019-09-08T07:46:04Z</time>
      </trkpt>
      <trkpt lat="49.3093" lon="6.7461">
        <ele>182.31</ele>
        <time>2019-09-08T07:46:14Z</time>
      </trkpt>
      <trkpt lat="49.30936" lon="6.74619">
        <ele>182.31</ele>
        <time>2019-09-08T07:46:24Z</time>
      </trkpt>
      <trkpt lat="49.3094" lon="6.74627">
        <ele>182.31</ele>
        <time>2019-09-08T07:46:34Z</time>
      </trkpt>
      <trkpt lat="49.30944" lon="6.74635">
        <ele>182.31</ele>
        <time>2019-09-08T07:46:44Z</time>
      </trkpt>
      <trkpt lat="49.30949" lon="6.74641">
        <ele>182.31</ele>
        <time>2019-09-08T07:46:54Z</time>
      </trkpt>
      <trkpt lat="49.30953" lon="6.74647">
        <ele>181.83</ele>
        <time>2019-09-08T07:47:04Z</time>
      </trkpt>
      <trkpt lat="49.30956" lon="6.74656">
        <ele>181.83</ele>
        <time>2019-09-08T07:47:14Z</time>
      </trkpt>
      <trkpt lat="49.30961" lon="6.74661">
        <ele>181.83</ele>
        <time>2019-09-08T07:47:24Z</time>
      </trkpt>
      <trkpt lat="49.30965" lon="6.74668">
        <ele>181.83</ele>
        <time>2019-09-08T07:47:34Z</time>
      </trkpt>
      <trkpt lat="49.30969" lon="6.74675">
        <ele>181.83</ele>
        <time>2019-09-08T07:47:44Z</time>
      </trkpt>
      <trkpt lat="49.30972" lon="6.74677">
        <ele>181.35</ele>
        <time>2019-09-08T07:47:54Z</time>
      </trkpt>
      <trkpt lat="49.30972" lon="6.74675">
        <ele>181.35</ele>
        <time>2019-09-08T07:48:04Z</time>
      </trkpt>
      <trkpt lat="49.30971" lon="6.74674">
        <ele>181.35</ele>
        <time>2019-09-08T07:48:14Z</time>
      </trkpt>
      <trkpt lat="49.30971" lon="6.74673">
        <ele>181.35</ele>
        <time>2019-09-08T07:48:24Z</time>
      </trkpt>
      <trkpt lat="49.30972" lon="6.74678">
        <ele>181.35</ele>
        <time>2019-09-08T07:48:34Z</time>
      </trkpt>
      <trkpt lat="49.30973" lon="6.74681">
        <ele>181.35</ele>
        <time>2019-09-08T07:48:44Z</time>
      </trkpt>
      <trkpt lat="49.30979" lon="6.74689">
        <ele>181.35</ele>
        <time>2019-09-08T07:48:54Z</time>
      </trkpt>
      <trkpt lat="49.30983" lon="6.74696">
        <ele>181.35</ele>
        <time>2019-09-08T07:49:04Z</time>
      </trkpt>
      <trkpt lat="49.30985" lon="6.74701">
        <ele>181.35</ele>
        <time>2019-09-08T07:49:14Z</time>
      </trkpt>
      <trkpt lat="49.3099" lon="6.74708">
        <ele>181.35</ele>
        <time>2019-09-08T07:49:24Z</time>
      </trkpt>
      <trkpt lat="49.30997" lon="6.74716">
        <ele>181.35</ele>
        <time>2019-09-08T07:49:34Z</time>
      </trkpt>
      <trkpt lat="49.30999" lon="6.74721">
        <ele>181.83</ele>
        <time>2019-09-08T07:49:44Z</time>
      </trkpt>
      <trkpt lat="49.30997" lon="6.74721">
        <ele>181.83</ele>
        <time>2019-09-08T07:49:54Z</time>
      </trkpt>
      <trkpt lat="49.30995" lon="6.74721">
        <ele>181.83</ele>
        <time>2019-09-08T07:50:04Z</time>
      </trkpt>
      <trkpt lat="49.30999" lon="6.74728">
        <ele>181.83</ele>
        <time>2019-09-08T07:50:14Z</time>
      </trkpt>
      <trkpt lat="49.31003" lon="6.74733">
        <ele>181.83</ele>
        <time>2019-09-08T07:50:24Z</time>
      </trkpt>
      <trkpt lat="49.31" lon="6.74739">
        <ele>181.83</ele>
        <time>2019-09-08T07:50:34Z</time>
      </trkpt>
      <trkpt lat="49.30998" lon="6.74742">
        <ele>181.83</ele>
        <time>2019-09-08T07:50:44Z</time>
      </trkpt>
      <trkpt lat="49.30997" lon="6.74741">
        <ele>181.83</ele>
        <time>2019-09-08T07:50:54Z</time>
      </trkpt>
      <trkpt lat="49.31001" lon="6.74732">
        <ele>181.83</ele>
        <time>2019-09-08T07:51:04Z</time>
      </trkpt>
      <trkpt lat="49.31003" lon="6.74732">
        <ele>181.83</ele>
        <time>2019-09-08T07:51:14Z</time>
      </trkpt>
      <trkpt lat="49.31003" lon="6.74736">
        <ele>181.83</ele>
        <time>2019-09-08T07:51:24Z</time>
      </trkpt>
      <trkpt lat="49.31003" lon="6.74737">
        <ele>181.83</ele>
        <time>2019-09-08T07:51:34Z</time>
      </trkpt>
      <trkpt lat="49.31" lon="6.74739">
        <ele>181.83</ele>
        <time>2019-09-08T07:51:44Z</time>
      </trkpt>
      <trkpt lat="49.31001" lon="6.74739">
        <ele>181.83</ele>
        <time>2019-09-08T07:51:54Z</time>
      </trkpt>
      <trkpt lat="49.31" lon="6.74739">
        <ele>181.83</ele>
        <time>2019-09-08T07:52:04Z</time>
      </trkpt>
      <trkpt lat="49.31001" lon="6.74743">
        <ele>181.83</ele>
        <time>2019-09-08T07:52:14Z</time>
      </trkpt>
      <trkpt lat="49.31003" lon="6.74745">
        <ele>181.83</ele>
        <time>2019-09-08T07:52:24Z</time>
      </trkpt>
      <trkpt lat="49.3101" lon="6.74741">
        <ele>181.83</ele>
        <time>2019-09-08T07:52:34Z</time>
      </trkpt>
      <trkpt lat="49.31015" lon="6.74741">
        <ele>181.83</ele>
        <time>2019-09-08T07:52:44Z</time>
      </trkpt>
      <trkpt lat="49.31008" lon="6.74739">
        <ele>181.83</ele>
        <time>2019-09-08T07:52:54Z</time>
      </trkpt>
      <trkpt lat="49.31011" lon="6.7474">
        <ele>182.31</ele>
        <time>2019-09-08T07:53:04Z</time>
      </trkpt>
      <trkpt lat="49.31018" lon="6.74741">
        <ele>182.31</ele>
        <time>2019-09-08T07:53:14Z</time>
      </trkpt>
      <trkpt lat="49.31018" lon="6.74743">
        <ele>182.31</ele>
        <time>2019-09-08T07:53:24Z</time>
      </trkpt>
      <trkpt lat="49.31012" lon="6.74744">
        <ele>182.31</ele>
        <time>2019-09-08T07:53:34Z</time>
      </trkpt>
      <trkpt lat="49.31008" lon="6.74741">
        <ele>182.31</ele>
        <time>2019-09-08T07:53:44Z</time>
      </trkpt>
      <trkpt lat="49.31007" lon="6.7474">
        <ele>182.31</ele>
        <time>2019-09-08T07:53:54Z</time>
      </trkpt>
      <trkpt lat="49.31009" lon="6.74741">
        <ele>182.31</ele>
        <time>2019-09-08T07:54:04Z</time>
      </trkpt>
      <trkpt lat="49.31008" lon="6.74741">
        <ele>182.31</ele>
        <time>2019-09-08T07:54:14Z</time>
      </trkpt>
      <trkpt lat="49.31006" lon="6.74737">
        <ele>182.31</ele>
        <time>2019-09-08T07:54:24Z</time>
      </trkpt>
      <trkpt lat="49.31001" lon="6.74734">
        <ele>182.31</ele>
        <time>2019-09-08T07:54:34Z</time>
      </trkpt>
      <trkpt lat="49.31" lon="6.74735">
        <ele>182.31</ele>
        <time>2019-09-08T07:54:44Z</time>
      </trkpt>
      <trkpt lat="49.31" lon="6.74737">
        <ele>182.31</ele>
        <time>2019-09-08T07:54:54Z</time>
      </trkpt>
      <trkpt lat="49.30999" lon="6.74727">
        <ele>182.31</ele>
        <time>2019-09-08T07:55:04Z</time>
      </trkpt>
      <trkpt lat="49.30998" lon="6.74722">
        <ele>182.31</ele>
        <time>2019-09-08T07:55:14Z</time>
      </trkpt>
      <trkpt lat="49.30995" lon="6.74716">
        <ele>182.31</ele>
        <time>2019-09-08T07:55:24Z</time>
      </trkpt>
      <trkpt lat="49.30996" lon="6.7472">
        <ele>181.83</ele>
        <time>2019-09-08T07:55:34Z</time>
      </trkpt>
      <trkpt lat="49.30992" lon="6.74719">
        <ele>181.83</ele>
        <time>2019-09-08T07:55:44Z</time>
      </trkpt>
      <trkpt lat="49.30989" lon="6.7471">
        <ele>181.83</ele>
        <time>2019-09-08T07:55:54Z</time>
      </trkpt>
      <trkpt lat="49.30986" lon="6.74703">
        <ele>181.83</ele>
        <time>2019-09-08T07:56:04Z</time>
      </trkpt>
      <trkpt lat="49.30982" lon="6.74697">
        <ele>181.83</ele>
        <time>2019-09-08T07:56:14Z</time>
      </trkpt>
      <trkpt lat="49.30977" lon="6.74689">
        <ele>181.83</ele>
        <time>2019-09-08T07:56:24Z</time>
      </trkpt>
      <trkpt lat="49.30974" lon="6.74686">
        <ele>181.83</ele>
        <time>2019-09-08T07:56:34Z</time>
      </trkpt>
      <trkpt lat="49.30969" lon="6.74678">
        <ele>181.83</ele>
        <time>2019-09-08T07:56:44Z</time>
      </trkpt>
      <trkpt lat="49.30965" lon="6.7467">
        <ele>181.83</ele>
        <time>2019-09-08T07:56:54Z</time>
      </trkpt>
      <trkpt lat="49.30963" lon="6.7467">
        <ele>181.83</ele>
        <time>2019-09-08T07:57:04Z</time>
      </trkpt>
      <trkpt lat="49.30959" lon="6.74664">
        <ele>181.83</ele>
        <time>2019-09-08T07:57:14Z</time>
      </trkpt>
      <trkpt lat="49.30953" lon="6.74666">
        <ele>181.83</ele>
        <time>2019-09-08T07:57:24Z</time>
      </trkpt>
      <trkpt lat="49.30953" lon="6.74665">
        <ele>181.83</ele>
        <time>2019-09-08T07:57:34Z</time>
      </trkpt>
      <trkpt lat="49.30951" lon="6.74658">
        <ele>181.35</ele>
        <time>2019-09-08T07:57:44Z</time>
      </trkpt>
      <trkpt lat="49.30951" lon="6.7465">
        <ele>181.35</ele>
        <time>2019-09-08T07:57:54Z</time>
      </trkpt>
      <trkpt lat="49.30947" lon="6.74643">
        <ele>181.35</ele>
        <time>2019-09-08T07:58:04Z</time>
      </trkpt>
      <trkpt lat="49.30944" lon="6.74638">
        <ele>181.35</ele>
        <time>2019-09-08T07:58:14Z</time>
      </trkpt>
      <trkpt lat="49.30945" lon="6.74641">
        <ele>181.35</ele>
        <time>2019-09-08T07:58:24Z</time>
      </trkpt>
      <trkpt lat="49.30939" lon="6.74632">
        <ele>181.35</ele>
        <time>2019-09-08T07:58:34Z</time>
      </trkpt>
      <trkpt lat="49.30934" lon="6.74623">
        <ele>181.35</ele>
        <time>2019-09-08T07:58:44Z</time>
      </trkpt>
      <trkpt lat="49.30933" lon="6.74622">
        <ele>181.35</ele>
        <time>2019-09-08T07:58:54Z</time>
      </trkpt>
      <trkpt lat="49.30929" lon="6.74617">
        <ele>181.35</ele>
        <time>2019-09-08T07:59:04Z</time>
      </trkpt>
      <trkpt lat="49.30924" lon="6.74609">
        <ele>181.83</ele>
        <time>2019-09-08T07:59:14Z</time>
      </trkpt>
      <trkpt lat="49.30918" lon="6.74601">
        <ele>181.35</ele>
        <time>2019-09-08T07:59:24Z</time>
      </trkpt>
      <trkpt lat="49.30914" lon="6.74594">
        <ele>181.35</ele>
        <time>2019-09-08T07:59:34Z</time>
      </trkpt>
      <trkpt lat="49.30909" lon="6.74587">
        <ele>181.83</ele>
        <time>2019-09-08T07:59:44Z</time>
      </trkpt>
      <trkpt lat="49.30904" lon="6.74582">
        <ele>181.83</ele>
        <time>2019-09-08T07:59:54Z</time>
      </trkpt>
      <trkpt lat="49.30901" lon="6.74573">
        <ele>181.83</ele>
        <time>2019-09-08T08:00:04Z</time>
      </trkpt>
      <trkpt lat="49.309" lon="6.74573">
        <ele>181.83</ele>
        <time>2019-09-08T08:00:14Z</time>
      </trkpt>
      <trkpt lat="49.30894" lon="6.74563">
        <ele>181.83</ele>
        <time>2019-09-08T08:00:24Z</time>
      </trkpt>
      <trkpt lat="49.30888" lon="6.74553">
        <ele>181.83</ele>
        <time>2019-09-08T08:00:34Z</time>
      </trkpt>
      <trkpt lat="49.30882" lon="6.74544">
        <ele>181.83</ele>
        <time>2019-09-08T08:00:44Z</time>
      </trkpt>
      <trkpt lat="49.3088" lon="6.74543">
        <ele>181.83</ele>
        <time>2019-09-08T08:00:54Z</time>
      </trkpt>
      <trkpt lat="49.30877" lon="6.74538">
        <ele>181.83</ele>
        <time>2019-09-08T08:01:04Z</time>
      </trkpt>
      <trkpt lat="49.30871" lon="6.7453">
        <ele>181.83</ele>
        <time>2019-09-08T08:01:14Z</time>
      </trkpt>
      <trkpt lat="49.30867" lon="6.7452">
        <ele>181.83</ele>
        <time>2019-09-08T08:01:24Z</time>
      </trkpt>
      <trkpt lat="49.30861" lon="6.74512">
        <ele>181.83</ele>
        <time>2019-09-08T08:01:34Z</time>
      </trkpt>
      <trkpt lat="49.30855" lon="6.74511">
        <ele>181.83</ele>
        <time>2019-09-08T08:01:44Z</time>
      </trkpt>
      <trkpt lat="49.30852" lon="6.74513">
        <ele>181.83</ele>
        <time>2019-09-08T08:01:54Z</time>
      </trkpt>
      <trkpt lat="49.30853" lon="6.74516">
        <ele>182.31</ele>
        <time>2019-09-08T08:02:04Z</time>
      </trkpt>
      <trkpt lat="49.30854" lon="6.74515">
        <ele>182.31</ele>
        <time>2019-09-08T08:02:14Z</time>
      </trkpt>
      <trkpt lat="49.30855" lon="6.74506">
        <ele>182.31</ele>
        <time>2019-09-08T08:02:24Z</time>
      </trkpt>
      <trkpt lat="49.30853" lon="6.74499">
        <ele>182.31</ele>
        <time>2019-09-08T08:02:34Z</time>
      </trkpt>
      <trkpt lat="49.3085" lon="6.74495">
        <ele>182.31</ele>
        <time>2019-09-08T08:02:44Z</time>
      </trkpt>
      <trkpt lat="49.30846" lon="6.7449">
        <ele>182.31</ele>
        <time>2019-09-08T08:02:54Z</time>
      </trkpt>
      <trkpt lat="49.30844" lon="6.74483">
        <ele>182.31</ele>
        <time>2019-09-08T08:03:04Z</time>
      </trkpt>
      <trkpt lat="49.30839" lon="6.74477">
        <ele>182.31</ele>
        <time>2019-09-08T08:03:14Z</time>
      </trkpt>
      <trkpt lat="49.30839" lon="6.74474">
        <ele>182.31</ele>
        <time>2019-09-08T08:03:24Z</time>
      </trkpt>
      <trkpt lat="49.30837" lon="6.74465">
        <ele>181.83</ele>
        <time>2019-09-08T08:03:34Z</time>
      </trkpt>
      <trkpt lat="49.30834" lon="6.74465">
        <ele>181.83</ele>
        <time>2019-09-08T08:03:44Z</time>
      </trkpt>
      <trkpt lat="49.30831" lon="6.74463">
        <ele>181.83</ele>
        <time>2019-09-08T08:03:54Z</time>
      </trkpt>
      <trkpt lat="49.30829" lon="6.74464">
        <ele>181.35</ele>
        <time>2019-09-08T08:04:04Z</time>
      </trkpt>
      <trkpt lat="49.30828" lon="6.74463">
        <ele>181.35</ele>
        <time>2019-09-08T08:04:14Z</time>
      </trkpt>
      <trkpt lat="49.30824" lon="6.74456">
        <ele>181.83</ele>
        <time>2019-09-08T08:04:24Z</time>
      </trkpt>
      <trkpt lat="49.3082" lon="6.74448">
        <ele>181.35</ele>
        <time>2019-09-08T08:04:34Z</time>
      </trkpt>
      <trkpt lat="49.30817" lon="6.74442">
        <ele>181.35</ele>
        <time>2019-09-08T08:04:44Z</time>
      </trkpt>
      <trkpt lat="49.30817" lon="6.74444">
        <ele>181.35</ele>
        <time>2019-09-08T08:04:54Z</time>
      </trkpt>
      <trkpt lat="49.30814" lon="6.74442">
        <ele>181.83</ele>
        <time>2019-09-08T08:05:04Z</time>
      </trkpt>
      <trkpt lat="49.30813" lon="6.74441">
        <ele>181.83</ele>
        <time>2019-09-08T08:05:14Z</time>
      </trkpt>
      <trkpt lat="49.30814" lon="6.74442">
        <ele>181.83</ele>
        <time>2019-09-08T08:05:24Z</time>
      </trkpt>
      <trkpt lat="49.30813" lon="6.74441">
        <ele>181.83</ele>
        <time>2019-09-08T08:05:34Z</time>
      </trkpt>
      <trkpt lat="49.30812" lon="6.7444">
        <ele>181.83</ele>
        <time>2019-09-08T08:05:44Z</time>
      </trkpt>
      <trkpt lat="49.30812" lon="6.7444">
        <ele>181.83</ele>
        <time>2019-09-08T08:05:54Z</time>
      </trkpt>
      <trkpt lat="49.30811" lon="6.74438">
        <ele>181.83</ele>
        <time>2019-09-08T08:06:04Z</time>
      </trkpt>
      <trkpt lat="49.30812" lon="6.74437">
        <ele>181.83</ele>
        <time>2019-09-08T08:06:14Z</time>
      </trkpt>
      <trkpt lat="49.30812" lon="6.74437">
        <ele>181.83</ele>
        <time>2019-09-08T08:06:24Z</time>
      </trkpt>
      <trkpt lat="49.30813" lon="6.74437">
        <ele>181.83</ele>
        <time>2019-09-08T08:06:34Z</time>
      </trkpt>
      <trkpt lat="49.30813" lon="6.74438">
        <ele>181.83</ele>
        <time>2019-09-08T08:06:44Z</time>
      </trkpt>
      <trkpt lat="49.30813" lon="6.74437">
        <ele>181.83</ele>
        <time>2019-09-08T08:06:54Z</time>
      </trkpt>
      <trkpt lat="49.30814" lon="6.74438">
        <ele>181.83</ele>
        <time>2019-09-08T08:07:04Z</time>
      </trkpt>
      <trkpt lat="49.30815" lon="6.74438">
        <ele>181.83</ele>
        <time>2019-09-08T08:07:14Z</time>
      </trkpt>
      <trkpt lat="49.30814" lon="6.74436">
        <ele>181.83</ele>
        <time>2019-09-08T08:07:24Z</time>
      </trkpt>
      <trkpt lat="49.30815" lon="6.74438">
        <ele>181.83</ele>
        <time>2019-09-08T08:07:34Z</time>
      </trkpt>
      <trkpt lat="49.30816" lon="6.74438">
        <ele>181.83</ele>
        <time>2019-09-08T08:07:44Z</time>
      </trkpt>
      <trkpt lat="49.30815" lon="6.74438">
        <ele>182.31</ele>
        <time>2019-09-08T08:07:54Z</time>
      </trkpt>
      <trkpt lat="49.30815" lon="6.74438">
        <ele>182.31</ele>
        <time>2019-09-08T08:08:04Z</time>
      </trkpt>
      <trkpt lat="49.30816" lon="6.74438">
        <ele>182.31</ele>
        <time>2019-09-08T08:08:14Z</time>
      </trkpt>
      <trkpt lat="49.30818" lon="6.74441">
        <ele>182.31</ele>
        <time>2019-09-08T08:08:24Z</time>
      </trkpt>
      <trkpt lat="49.30819" lon="6.74444">
        <ele>182.31</ele>
        <time>2019-09-08T08:08:34Z</time>
      </trkpt>
      <trkpt lat="49.30819" lon="6.74443">
        <ele>182.31</ele>
        <time>2019-09-08T08:08:44Z</time>
      </trkpt>
      <trkpt lat="49.30819" lon="6.74443">
        <ele>182.31</ele>
        <time>2019-09-08T08:08:54Z</time>
      </trkpt>
      <trkpt lat="49.30819" lon="6.74443">
        <ele>182.31</ele>
        <time>2019-09-08T08:09:04Z</time>
      </trkpt>
      <trkpt lat="49.30818" lon="6.74444">
        <ele>182.31</ele>
        <time>2019-09-08T08:09:14Z</time>
      </trkpt>
      <trkpt lat="49.30816" lon="6.74447">
        <ele>182.31</ele>
        <time>2019-09-08T08:09:24Z</time>
      </trkpt>
      <trkpt lat="49.30816" lon="6.74448">
        <ele>182.31</ele>
        <time>2019-09-08T08:09:34Z</time>
      </trkpt>
      <trkpt lat="49.30817" lon="6.74445">
        <ele>182.31</ele>
        <time>2019-09-08T08:09:44Z</time>
      </trkpt>
      <trkpt lat="49.30819" lon="6.74444">
        <ele>182.31</ele>
        <time>2019-09-08T08:09:54Z</time>
      </trkpt>
      <trkpt lat="49.30818" lon="6.74444">
        <ele>182.31</ele>
        <time>2019-09-08T08:10:04Z</time>
      </trkpt>
      <trkpt lat="49.30817" lon="6.74446">
        <ele>182.31</ele>
        <time>2019-09-08T08:10:14Z</time>
      </trkpt>
      <trkpt lat="49.30815" lon="6.74445">
        <ele>182.31</ele>
        <time>2019-09-08T08:10:24Z</time>
      </trkpt>
      <trkpt lat="49.30814" lon="6.74444">
        <ele>182.31</ele>
        <time>2019-09-08T08:10:34Z</time>
      </trkpt>
      <trkpt lat="49.30815" lon="6.7444">
        <ele>182.31</ele>
        <time>2019-09-08T08:10:44Z</time>
      </trkpt>
      <trkpt lat="49.30815" lon="6.74439">
        <ele>182.31</ele>
        <time>2019-09-08T08:10:54Z</time>
      </trkpt>
      <trkpt lat="49.30814" lon="6.7444">
        <ele>182.31</ele>
        <time>2019-09-08T08:11:04Z</time>
      </trkpt>
      <trkpt lat="49.30814" lon="6.74438">
        <ele>182.31</ele>
        <time>2019-09-08T08:11:14Z</time>
      </trkpt>
      <trkpt lat="49.30817" lon="6.7444">
        <ele>182.31</ele>
        <time>2019-09-08T08:11:24Z</time>
      </trkpt>
      <trkpt lat="49.30817" lon="6.74441">
        <ele>183.27</ele>
        <time>2019-09-08T08:11:34Z</time>
      </trkpt>
      <trkpt lat="49.30818" lon="6.74441">
        <ele>183.27</ele>
        <time>2019-09-08T08:11:44Z</time>
      </trkpt>
      <trkpt lat="49.30818" lon="6.74439">
        <ele>183.27</ele>
        <time>2019-09-08T08:11:54Z</time>
      </trkpt>
      <trkpt lat="49.3082" lon="6.74445">
        <ele>183.27</ele>
        <time>2019-09-08T08:12:04Z</time>
      </trkpt>
      <trkpt lat="49.30827" lon="6.74454">
        <ele>183.27</ele>
        <time>2019-09-08T08:12:14Z</time>
      </trkpt>
      <trkpt lat="49.30832" lon="6.74462">
        <ele>183.27</ele>
        <time>2019-09-08T08:12:24Z</time>
      </trkpt>
      <trkpt lat="49.30836" lon="6.74467">
        <ele>183.27</ele>
        <time>2019-09-08T08:12:34Z</time>
      </trkpt>
      <trkpt lat="49.3084" lon="6.74473">
        <ele>183.27</ele>
        <time>2019-09-08T08:12:44Z</time>
      </trkpt>
      <trkpt lat="49.30845" lon="6.7448">
        <ele>183.27</ele>
        <time>2019-09-08T08:12:54Z</time>
      </trkpt>
      <trkpt lat="49.30851" lon="6.74489">
        <ele>183.27</ele>
        <time>2019-09-08T08:13:04Z</time>
      </trkpt>
      <trkpt lat="49.30856" lon="6.74495">
        <ele>183.27</ele>
        <time>2019-09-08T08:13:14Z</time>
      </trkpt>
      <trkpt lat="49.30859" lon="6.74504">
        <ele>183.27</ele>
        <time>2019-09-08T08:13:24Z</time>
      </trkpt>
      <trkpt lat="49.30865" lon="6.74513">
        <ele>183.27</ele>
        <time>2019-09-08T08:13:34Z</time>
      </trkpt>
      <trkpt lat="49.30872" lon="6.74522">
        <ele>183.27</ele>
        <time>2019-09-08T08:13:44Z</time>
      </trkpt>
      <trkpt lat="49.30879" lon="6.74533">
        <ele>183.27</ele>
        <time>2019-09-08T08:13:54Z</time>
      </trkpt>
      <trkpt lat="49.30886" lon="6.74544">
        <ele>183.27</ele>
        <time>2019-09-08T08:14:04Z</time>
      </trkpt>
      <trkpt lat="49.30889" lon="6.74551">
        <ele>183.27</ele>
        <time>2019-09-08T08:14:14Z</time>
      </trkpt>
      <trkpt lat="49.30894" lon="6.74557">
        <ele>183.27</ele>
        <time>2019-09-08T08:14:24Z</time>
      </trkpt>
      <trkpt lat="49.30894" lon="6.7456">
        <ele>183.27</ele>
        <time>2019-09-08T08:14:34Z</time>
      </trkpt>
      <trkpt lat="49.30892" lon="6.74558">
        <ele>183.27</ele>
        <time>2019-09-08T08:14:44Z</time>
      </trkpt>
      <trkpt lat="49.30894" lon="6.74559">
        <ele>183.27</ele>
        <time>2019-09-08T08:14:54Z</time>
      </trkpt>
      <trkpt lat="49.30898" lon="6.74565">
        <ele>183.27</ele>
        <time>2019-09-08T08:15:04Z</time>
      </trkpt>
      <trkpt lat="49.30903" lon="6.74572">
        <ele>182.79</ele>
        <time>2019-09-08T08:15:14Z</time>
      </trkpt>
      <trkpt lat="49.30909" lon="6.74581">
        <ele>183.27</ele>
        <time>2019-09-08T08:15:24Z</time>
      </trkpt>
      <trkpt lat="49.30914" lon="6.74589">
        <ele>183.27</ele>
        <time>2019-09-08T08:15:34Z</time>
      </trkpt>
      <trkpt lat="49.30919" lon="6.74596">
        <ele>182.79</ele>
        <time>2019-09-08T08:15:44Z</time>
      </trkpt>
      <trkpt lat="49.30924" lon="6.74605">
        <ele>182.79</ele>
        <time>2019-09-08T08:15:54Z</time>
      </trkpt>
      <trkpt lat="49.3093" lon="6.74614">
        <ele>182.79</ele>
        <time>2019-09-08T08:16:04Z</time>
      </trkpt>
      <trkpt lat="49.30936" lon="6.74621">
        <ele>182.79</ele>
        <time>2019-09-08T08:16:14Z</time>
      </trkpt>
      <trkpt lat="49.30942" lon="6.74631">
        <ele>182.79</ele>
        <time>2019-09-08T08:16:24Z</time>
      </trkpt>
      <trkpt lat="49.30946" lon="6.74638">
        <ele>182.79</ele>
        <time>2019-09-08T08:16:34Z</time>
      </trkpt>
      <trkpt lat="49.30946" lon="6.74643">
        <ele>182.79</ele>
        <time>2019-09-08T08:16:44Z</time>
      </trkpt>
      <trkpt lat="49.30953" lon="6.74651">
        <ele>182.79</ele>
        <time>2019-09-08T08:16:54Z</time>
      </trkpt>
      <trkpt lat="49.30959" lon="6.74661">
        <ele>182.79</ele>
        <time>2019-09-08T08:17:04Z</time>
      </trkpt>
      <trkpt lat="49.30965" lon="6.7467">
        <ele>182.79</ele>
        <time>2019-09-08T08:17:14Z</time>
      </trkpt>
      <trkpt lat="49.30971" lon="6.74678">
        <ele>182.79</ele>
        <time>2019-09-08T08:17:24Z</time>
      </trkpt>
      <trkpt lat="49.30976" lon="6.74685">
        <ele>182.79</ele>
        <time>2019-09-08T08:17:34Z</time>
      </trkpt>
      <trkpt lat="49.30982" lon="6.74692">
        <ele>182.31</ele>
        <time>2019-09-08T08:17:44Z</time>
      </trkpt>
      <trkpt lat="49.30988" lon="6.74703">
        <ele>182.31</ele>
        <time>2019-09-08T08:17:54Z</time>
      </trkpt>
      <trkpt lat="49.30995" lon="6.74714">
        <ele>182.31</ele>
        <time>2019-09-08T08:18:04Z</time>
      </trkpt>
      <trkpt lat="49.31001" lon="6.74724">
        <ele>182.31</ele>
        <time>2019-09-08T08:18:14Z</time>
      </trkpt>
      <trkpt lat="49.31008" lon="6.74734">
        <ele>182.31</ele>
        <time>2019-09-08T08:18:24Z</time>
      </trkpt>
      <trkpt lat="49.31018" lon="6.74739">
        <ele>182.31</ele>
        <time>2019-09-08T08:18:34Z</time>
      </trkpt>
      <trkpt lat="49.31026" lon="6.74745">
        <ele>181.35</ele>
        <time>2019-09-08T08:18:44Z</time>
      </trkpt>
      <trkpt lat="49.31032" lon="6.74752">
        <ele>181.35</ele>
        <time>2019-09-08T08:18:54Z</time>
      </trkpt>
      <trkpt lat="49.31035" lon="6.7476">
        <ele>181.35</ele>
        <time>2019-09-08T08:19:04Z</time>
      </trkpt>
      <trkpt lat="49.31041" lon="6.74769">
        <ele>181.35</ele>
        <time>2019-09-08T08:19:14Z</time>
      </trkpt>
      <trkpt lat="49.31047" lon="6.74772">
        <ele>181.35</ele>
        <time>2019-09-08T08:19:24Z</time>
      </trkpt>
      <trkpt lat="49.31056" lon="6.74773">
        <ele>181.35</ele>
        <time>2019-09-08T08:19:34Z</time>
      </trkpt>
      <trkpt lat="49.31064" lon="6.74776">
        <ele>180.87</ele>
        <time>2019-09-08T08:19:44Z</time>
      </trkpt>
      <trkpt lat="49.3107" lon="6.7478">
        <ele>180.87</ele>
        <time>2019-09-08T08:19:54Z</time>
      </trkpt>
      <trkpt lat="49.31075" lon="6.7479">
        <ele>180.87</ele>
        <time>2019-09-08T08:20:04Z</time>
      </trkpt>
      <trkpt lat="49.31085" lon="6.74791">
        <ele>180.87</ele>
        <time>2019-09-08T08:20:14Z</time>
      </trkpt>
      <trkpt lat="49.31094" lon="6.74791">
        <ele>180.87</ele>
        <time>2019-09-08T08:20:24Z</time>
      </trkpt>
      <trkpt lat="49.31105" lon="6.74794">
        <ele>180.87</ele>
        <time>2019-09-08T08:20:34Z</time>
      </trkpt>
      <trkpt lat="49.31113" lon="6.74798">
        <ele>180.38</ele>
        <time>2019-09-08T08:20:44Z</time>
      </trkpt>
      <trkpt lat="49.31122" lon="6.74801">
        <ele>180.38</ele>
        <time>2019-09-08T08:20:54Z</time>
      </trkpt>
      <trkpt lat="49.31127" lon="6.74802">
        <ele>179.9</ele>
        <time>2019-09-08T08:21:04Z</time>
      </trkpt>
      <trkpt lat="49.31134" lon="6.74804">
        <ele>179.9</ele>
        <time>2019-09-08T08:21:14Z</time>
      </trkpt>
      <trkpt lat="49.31142" lon="6.74808">
        <ele>179.9</ele>
        <time>2019-09-08T08:21:24Z</time>
      </trkpt>
      <trkpt lat="49.3115" lon="6.74808">
        <ele>179.9</ele>
        <time>2019-09-08T08:21:34Z</time>
      </trkpt>
      <trkpt lat="49.31158" lon="6.7481">
        <ele>179.9</ele>
        <time>2019-09-08T08:21:44Z</time>
      </trkpt>
      <trkpt lat="49.31166" lon="6.74813">
        <ele>179.9</ele>
        <time>2019-09-08T08:21:54Z</time>
      </trkpt>
      <trkpt lat="49.31175" lon="6.74819">
        <ele>179.9</ele>
        <time>2019-09-08T08:22:04Z</time>
      </trkpt>
      <trkpt lat="49.31184" lon="6.7482">
        <ele>179.9</ele>
        <time>2019-09-08T08:22:14Z</time>
      </trkpt>
      <trkpt lat="49.31192" lon="6.74822">
        <ele>179.9</ele>
        <time>2019-09-08T08:22:24Z</time>
      </trkpt>
      <trkpt lat="49.31199" lon="6.74826">
        <ele>179.42</ele>
        <time>2019-09-08T08:22:34Z</time>
      </trkpt>
      <trkpt lat="49.31207" lon="6.74832">
        <ele>179.42</ele>
        <time>2019-09-08T08:22:44Z</time>
      </trkpt>
      <trkpt lat="49.31217" lon="6.74835">
        <ele>179.42</ele>
        <time>2019-09-08T08:22:54Z</time>
      </trkpt>
      <trkpt lat="49.31226" lon="6.74839">
        <ele>179.42</ele>
        <time>2019-09-08T08:23:04Z</time>
      </trkpt>
      <trkpt lat="49.31233" lon="6.74842">
        <ele>179.42</ele>
        <time>2019-09-08T08:23:14Z</time>
      </trkpt>
      <trkpt lat="49.31238" lon="6.74844">
        <ele>178.94</ele>
        <time>2019-09-08T08:23:24Z</time>
      </trkpt>
      <trkpt lat="49.31246" lon="6.74844">
        <ele>178.94</ele>
        <time>2019-09-08T08:23:34Z</time>
      </trkpt>
      <trkpt lat="49.31253" lon="6.74843">
        <ele>178.94</ele>
        <time>2019-09-08T08:23:44Z</time>
      </trkpt>
      <trkpt lat="49.31256" lon="6.74845">
        <ele>178.94</ele>
        <time>2019-09-08T08:23:54Z</time>
      </trkpt>
      <trkpt lat="49.31262" lon="6.74842">
        <ele>179.42</ele>
        <time>2019-09-08T08:24:04Z</time>
      </trkpt>
      <trkpt lat="49.31272" lon="6.74843">
        <ele>178.94</ele>
        <time>2019-09-08T08:24:14Z</time>
      </trkpt>
      <trkpt lat="49.3128" lon="6.74844">
        <ele>178.94</ele>
        <time>2019-09-08T08:24:24Z</time>
      </trkpt>
      <trkpt lat="49.31287" lon="6.74847">
        <ele>179.42</ele>
        <time>2019-09-08T08:24:34Z</time>
      </trkpt>
      <trkpt lat="49.3129" lon="6.74852">
        <ele>179.42</ele>
        <time>2019-09-08T08:24:44Z</time>
      </trkpt>
      <trkpt lat="49.31299" lon="6.74855">
        <ele>179.42</ele>
        <time>2019-09-08T08:24:54Z</time>
      </trkpt>
      <trkpt lat="49.31311" lon="6.74868">
        <ele>179.42</ele>
        <time>2019-09-08T08:25:04Z</time>
      </trkpt>
      <trkpt lat="49.31318" lon="6.74875">
        <ele>179.42</ele>
        <time>2019-09-08T08:25:14Z</time>
      </trkpt>
      <trkpt lat="49.31325" lon="6.74882">
        <ele>179.42</ele>
        <time>2019-09-08T08:25:24Z</time>
      </trkpt>
      <trkpt lat="49.31334" lon="6.7488">
        <ele>179.42</ele>
        <time>2019-09-08T08:25:34Z</time>
      </trkpt>
      <trkpt lat="49.31343" lon="6.74881">
        <ele>178.94</ele>
        <time>2019-09-08T08:25:44Z</time>
      </trkpt>
      <trkpt lat="49.3135" lon="6.74882">
        <ele>178.94</ele>
        <time>2019-09-08T08:25:54Z</time>
      </trkpt>
      <trkpt lat="49.31358" lon="6.74886">
        <ele>178.94</ele>
        <time>2019-09-08T08:26:04Z</time>
      </trkpt>
      <trkpt lat="49.31368" lon="6.74888">
        <ele>178.94</ele>
        <time>2019-09-08T08:26:15Z</time>
      </trkpt>
      <trkpt lat="49.31374" lon="6.74894">
        <ele>178.94</ele>
        <time>2019-09-08T08:26:25Z</time>
      </trkpt>
      <trkpt lat="49.31379" lon="6.74905">
        <ele>178.94</ele>
        <time>2019-09-08T08:26:35Z</time>
      </trkpt>
      <trkpt lat="49.31385" lon="6.74913">
        <ele>178.94</ele>
        <time>2019-09-08T08:26:45Z</time>
      </trkpt>
      <trkpt lat="49.31389" lon="6.74919">
        <ele>178.94</ele>
        <time>2019-09-08T08:26:55Z</time>
      </trkpt>
      <trkpt lat="49.31397" lon="6.74925">
        <ele>178.94</ele>
        <time>2019-09-08T08:27:05Z</time>
      </trkpt>
      <trkpt lat="49.31405" lon="6.74935">
        <ele>178.94</ele>
        <time>2019-09-08T08:27:15Z</time>
      </trkpt>
      <trkpt lat="49.31412" lon="6.74944">
        <ele>178.94</ele>
        <time>2019-09-08T08:27:25Z</time>
      </trkpt>
      <trkpt lat="49.31418" lon="6.74951">
        <ele>178.94</ele>
        <time>2019-09-08T08:27:35Z</time>
      </trkpt>
      <trkpt lat="49.31424" lon="6.74957">
        <ele>178.94</ele>
        <time>2019-09-08T08:27:45Z</time>
      </trkpt>
      <trkpt lat="49.3143" lon="6.74966">
        <ele>178.94</ele>
        <time>2019-09-08T08:27:55Z</time>
      </trkpt>
      <trkpt lat="49.31433" lon="6.74977">
        <ele>178.94</ele>
        <time>2019-09-08T08:28:05Z</time>
      </trkpt>
      <trkpt lat="49.31436" lon="6.74981">
        <ele>178.94</ele>
        <time>2019-09-08T08:28:15Z</time>
      </trkpt>
      <trkpt lat="49.31442" lon="6.74988">
        <ele>178.94</ele>
        <time>2019-09-08T08:28:25Z</time>
      </trkpt>
      <trkpt lat="49.31448" lon="6.74996">
        <ele>178.94</ele>
        <time>2019-09-08T08:28:35Z</time>
      </trkpt>
      <trkpt lat="49.31454" lon="6.75004">
        <ele>178.94</ele>
        <time>2019-09-08T08:28:45Z</time>
      </trkpt>
      <trkpt lat="49.3146" lon="6.75016">
        <ele>178.94</ele>
        <time>2019-09-08T08:28:55Z</time>
      </trkpt>
      <trkpt lat="49.31465" lon="6.75027">
        <ele>178.94</ele>
        <time>2019-09-08T08:29:05Z</time>
      </trkpt>
      <trkpt lat="49.31472" lon="6.75039">
        <ele>178.94</ele>
        <time>2019-09-08T08:29:15Z</time>
      </trkpt>
      <trkpt lat="49.31476" lon="6.75053">
        <ele>178.94</ele>
        <time>2019-09-08T08:29:25Z</time>
      </trkpt>
      <trkpt lat="49.31479" lon="6.75063">
        <ele>178.94</ele>
        <time>2019-09-08T08:29:35Z</time>
      </trkpt>
      <trkpt lat="49.31479" lon="6.7507">
        <ele>178.94</ele>
        <time>2019-09-08T08:29:45Z</time>
      </trkpt>
      <trkpt lat="49.31478" lon="6.75067">
        <ele>179.9</ele>
        <time>2019-09-08T08:29:55Z</time>
      </trkpt>
      <trkpt lat="49.31478" lon="6.75065">
        <ele>179.9</ele>
        <time>2019-09-08T08:30:05Z</time>
      </trkpt>
      <trkpt lat="49.31478" lon="6.75061">
        <ele>179.9</ele>
        <time>2019-09-08T08:30:15Z</time>
      </trkpt>
      <trkpt lat="49.3148" lon="6.75068">
        <ele>179.9</ele>
        <time>2019-09-08T08:30:25Z</time>
      </trkpt>
      <trkpt lat="49.31484" lon="6.75079">
        <ele>179.9</ele>
        <time>2019-09-08T08:30:35Z</time>
      </trkpt>
      <trkpt lat="49.31489" lon="6.75091">
        <ele>180.38</ele>
        <time>2019-09-08T08:30:45Z</time>
      </trkpt>
      <trkpt lat="49.31494" lon="6.75101">
        <ele>180.38</ele>
        <time>2019-09-08T08:30:55Z</time>
      </trkpt>
      <trkpt lat="49.31501" lon="6.7511">
        <ele>180.38</ele>
        <time>2019-09-08T08:31:05Z</time>
      </trkpt>
      <trkpt lat="49.31509" lon="6.75118">
        <ele>180.38</ele>
        <time>2019-09-08T08:31:15Z</time>
      </trkpt>
      <trkpt lat="49.3151" lon="6.75119">
        <ele>180.87</ele>
        <time>2019-09-08T08:31:25Z</time>
      </trkpt>
      <trkpt lat="49.31512" lon="6.75124">
        <ele>180.87</ele>
        <time>2019-09-08T08:31:35Z</time>
      </trkpt>
      <trkpt lat="49.31516" lon="6.75134">
        <ele>180.87</ele>
        <time>2019-09-08T08:31:45Z</time>
      </trkpt>
      <trkpt lat="49.3152" lon="6.75143">
        <ele>180.87</ele>
        <time>2019-09-08T08:31:55Z</time>
      </trkpt>
      <trkpt lat="49.31525" lon="6.75152">
        <ele>180.87</ele>
        <time>2019-09-08T08:32:05Z</time>
      </trkpt>
      <trkpt lat="49.3153" lon="6.75161">
        <ele>180.87</ele>
        <time>2019-09-08T08:32:15Z</time>
      </trkpt>
      <trkpt lat="49.31532" lon="6.75169">
        <ele>180.87</ele>
        <time>2019-09-08T08:32:25Z</time>
      </trkpt>
      <trkpt lat="49.31538" lon="6.75177">
        <ele>180.87</ele>
        <time>2019-09-08T08:32:35Z</time>
      </trkpt>
      <trkpt lat="49.31542" lon="6.7518">
        <ele>180.87</ele>
        <time>2019-09-08T08:32:45Z</time>
      </trkpt>
      <trkpt lat="49.31551" lon="6.75184">
        <ele>180.87</ele>
        <time>2019-09-08T08:32:55Z</time>
      </trkpt>
      <trkpt lat="49.3156" lon="6.7519">
        <ele>180.87</ele>
        <time>2019-09-08T08:33:05Z</time>
      </trkpt>
      <trkpt lat="49.31571" lon="6.75196">
        <ele>180.38</ele>
        <time>2019-09-08T08:33:15Z</time>
      </trkpt>
      <trkpt lat="49.31579" lon="6.75202">
        <ele>180.38</ele>
        <time>2019-09-08T08:33:25Z</time>
      </trkpt>
      <trkpt lat="49.31584" lon="6.75206">
        <ele>180.38</ele>
        <time>2019-09-08T08:33:35Z</time>
      </trkpt>
      <trkpt lat="49.31589" lon="6.75214">
        <ele>180.38</ele>
        <time>2019-09-08T08:33:45Z</time>
      </trkpt>
      <trkpt lat="49.31587" lon="6.75226">
        <ele>180.38</ele>
        <time>2019-09-08T08:33:55Z</time>
      </trkpt>
      <trkpt lat="49.31588" lon="6.75235">
        <ele>180.38</ele>
        <time>2019-09-08T08:34:05Z</time>
      </trkpt>
      <trkpt lat="49.31592" lon="6.75244">
        <ele>180.38</ele>
        <time>2019-09-08T08:34:15Z</time>
      </trkpt>
      <trkpt lat="49.31601" lon="6.7525">
        <ele>180.38</ele>
        <time>2019-09-08T08:34:25Z</time>
      </trkpt>
      <trkpt lat="49.31607" lon="6.75255">
        <ele>180.38</ele>
        <time>2019-09-08T08:34:35Z</time>
      </trkpt>
      <trkpt lat="49.3161" lon="6.75272">
        <ele>180.38</ele>
        <time>2019-09-08T08:34:45Z</time>
      </trkpt>
      <trkpt lat="49.31612" lon="6.75287">
        <ele>180.38</ele>
        <time>2019-09-08T08:34:55Z</time>
      </trkpt>
      <trkpt lat="49.31614" lon="6.75298">
        <ele>180.38</ele>
        <time>2019-09-08T08:35:05Z</time>
      </trkpt>
      <trkpt lat="49.3162" lon="6.75307">
        <ele>180.38</ele>
        <time>2019-09-08T08:35:15Z</time>
      </trkpt>
      <trkpt lat="49.31626" lon="6.75314">
        <ele>180.38</ele>
        <time>2019-09-08T08:35:25Z</time>
      </trkpt>
      <trkpt lat="49.31631" lon="6.75323">
        <ele>180.38</ele>
        <time>2019-09-08T08:35:35Z</time>
      </trkpt>
      <trkpt lat="49.31636" lon="6.75331">
        <ele>180.38</ele>
        <time>2019-09-08T08:35:45Z</time>
      </trkpt>
      <trkpt lat="49.31641" lon="6.75338">
        <ele>180.38</ele>
        <time>2019-09-08T08:35:55Z</time>
      </trkpt>
      <trkpt lat="49.31647" lon="6.75347">
        <ele>180.38</ele>
        <time>2019-09-08T08:36:05Z</time>
      </trkpt>
      <trkpt lat="49.31651" lon="6.75356">
        <ele>180.38</ele>
        <time>2019-09-08T08:36:15Z</time>
      </trkpt>
      <trkpt lat="49.31655" lon="6.75365">
        <ele>179.9</ele>
        <time>2019-09-08T08:36:25Z</time>
      </trkpt>
      <trkpt lat="49.3166" lon="6.75373">
        <ele>179.9</ele>
        <time>2019-09-08T08:36:35Z</time>
      </trkpt>
      <trkpt lat="49.31665" lon="6.75382">
        <ele>179.9</ele>
        <time>2019-09-08T08:36:45Z</time>
      </trkpt>
      <trkpt lat="49.3167" lon="6.7539">
        <ele>179.9</ele>
        <time>2019-09-08T08:36:55Z</time>
      </trkpt>
      <trkpt lat="49.31676" lon="6.75398">
        <ele>179.9</ele>
        <time>2019-09-08T08:37:05Z</time>
      </trkpt>
      <trkpt lat="49.31683" lon="6.75406">
        <ele>180.38</ele>
        <time>2019-09-08T08:37:15Z</time>
      </trkpt>
      <trkpt lat="49.31689" lon="6.75415">
        <ele>180.38</ele>
        <time>2019-09-08T08:37:25Z</time>
      </trkpt>
      <trkpt lat="49.31695" lon="6.75425">
        <ele>180.38</ele>
        <time>2019-09-08T08:37:35Z</time>
      </trkpt>
      <trkpt lat="49.317" lon="6.75436">
        <ele>180.38</ele>
        <time>2019-09-08T08:37:45Z</time>
      </trkpt>
      <trkpt lat="49.31706" lon="6.75443">
        <ele>180.38</ele>
        <time>2019-09-08T08:37:55Z</time>
      </trkpt>
      <trkpt lat="49.31709" lon="6.75453">
        <ele>180.38</ele>
        <time>2019-09-08T08:38:05Z</time>
      </trkpt>
      <trkpt lat="49.31715" lon="6.7546">
        <ele>180.38</ele>
        <time>2019-09-08T08:38:15Z</time>
      </trkpt>
      <trkpt lat="49.31717" lon="6.75473">
        <ele>180.38</ele>
        <time>2019-09-08T08:38:25Z</time>
      </trkpt>
      <trkpt lat="49.3172" lon="6.75485">
        <ele>180.38</ele>
        <time>2019-09-08T08:38:35Z</time>
      </trkpt>
      <trkpt lat="49.31726" lon="6.75496">
        <ele>180.38</ele>
        <time>2019-09-08T08:38:45Z</time>
      </trkpt>
      <trkpt lat="49.3173" lon="6.75506">
        <ele>180.38</ele>
        <time>2019-09-08T08:38:55Z</time>
      </trkpt>
      <trkpt lat="49.31737" lon="6.75509">
        <ele>180.38</ele>
        <time>2019-09-08T08:39:05Z</time>
      </trkpt>
      <trkpt lat="49.31742" lon="6.75514">
        <ele>180.38</ele>
        <time>2019-09-08T08:39:15Z</time>
      </trkpt>
      <trkpt lat="49.31746" lon="6.75521">
        <ele>180.38</ele>
        <time>2019-09-08T08:39:25Z</time>
      </trkpt>
      <trkpt lat="49.31751" lon="6.75529">
        <ele>180.38</ele>
        <time>2019-09-08T08:39:35Z</time>
      </trkpt>
      <trkpt lat="49.31757" lon="6.75539">
        <ele>180.38</ele>
        <time>2019-09-08T08:39:45Z</time>
      </trkpt>
      <trkpt lat="49.31762" lon="6.75551">
        <ele>180.38</ele>
        <time>2019-09-08T08:39:55Z</time>
      </trkpt>
      <trkpt lat="49.31764" lon="6.75557">
        <ele>180.38</ele>
        <time>2019-09-08T08:40:05Z</time>
      </trkpt>
      <trkpt lat="49.31765" lon="6.75564">
        <ele>180.38</ele>
        <time>2019-09-08T08:40:15Z</time>
      </trkpt>
      <trkpt lat="49.31771" lon="6.75569">
        <ele>180.38</ele>
        <time>2019-09-08T08:40:25Z</time>
      </trkpt>
      <trkpt lat="49.3178" lon="6.75572">
        <ele>180.38</ele>
        <time>2019-09-08T08:40:35Z</time>
      </trkpt>
      <trkpt lat="49.3179" lon="6.75577">
        <ele>180.38</ele>
        <time>2019-09-08T08:40:45Z</time>
      </trkpt>
      <trkpt lat="49.31795" lon="6.75585">
        <ele>180.38</ele>
        <time>2019-09-08T08:40:55Z</time>
      </trkpt>
      <trkpt lat="49.31802" lon="6.7559">
        <ele>180.87</ele>
        <time>2019-09-08T08:41:05Z</time>
      </trkpt>
      <trkpt lat="49.31809" lon="6.75595">
        <ele>181.35</ele>
        <time>2019-09-08T08:41:15Z</time>
      </trkpt>
      <trkpt lat="49.31814" lon="6.75602">
        <ele>181.35</ele>
        <time>2019-09-08T08:41:25Z</time>
      </trkpt>
      <trkpt lat="49.31819" lon="6.7561">
        <ele>181.35</ele>
        <time>2019-09-08T08:41:35Z</time>
      </trkpt>
      <trkpt lat="49.31824" lon="6.75617">
        <ele>181.35</ele>
        <time>2019-09-08T08:41:45Z</time>
      </trkpt>
      <trkpt lat="49.31829" lon="6.75623">
        <ele>181.35</ele>
        <time>2019-09-08T08:41:55Z</time>
      </trkpt>
      <trkpt lat="49.31834" lon="6.75633">
        <ele>181.35</ele>
        <time>2019-09-08T08:42:05Z</time>
      </trkpt>
      <trkpt lat="49.31836" lon="6.75642">
        <ele>181.83</ele>
        <time>2019-09-08T08:42:15Z</time>
      </trkpt>
      <trkpt lat="49.31841" lon="6.75637">
        <ele>181.83</ele>
        <time>2019-09-08T08:42:25Z</time>
      </trkpt>
      <trkpt lat="49.31846" lon="6.75629">
        <ele>181.83</ele>
        <time>2019-09-08T08:42:35Z</time>
      </trkpt>
      <trkpt lat="49.31853" lon="6.75622">
        <ele>182.31</ele>
        <time>2019-09-08T08:42:45Z</time>
      </trkpt>
      <trkpt lat="49.31859" lon="6.75627">
        <ele>182.31</ele>
        <time>2019-09-08T08:42:55Z</time>
      </trkpt>
      <trkpt lat="49.31865" lon="6.75635">
        <ele>182.31</ele>
        <time>2019-09-08T08:43:05Z</time>
      </trkpt>
      <trkpt lat="49.3187" lon="6.75628">
        <ele>182.31</ele>
        <time>2019-09-08T08:43:15Z</time>
      </trkpt>
      <trkpt lat="49.31875" lon="6.75618">
        <ele>182.31</ele>
        <time>2019-09-08T08:43:25Z</time>
      </trkpt>
      <trkpt lat="49.3188" lon="6.75608">
        <ele>182.31</ele>
        <time>2019-09-08T08:43:35Z</time>
      </trkpt>
      <trkpt lat="49.31885" lon="6.75599">
        <ele>182.79</ele>
        <time>2019-09-08T08:43:45Z</time>
      </trkpt>
      <trkpt lat="49.31891" lon="6.75592">
        <ele>182.79</ele>
        <time>2019-09-08T08:43:55Z</time>
      </trkpt>
      <trkpt lat="49.31898" lon="6.75585">
        <ele>183.27</ele>
        <time>2019-09-08T08:44:05Z</time>
      </trkpt>
      <trkpt lat="49.31903" lon="6.75578">
        <ele>182.79</ele>
        <time>2019-09-08T08:44:15Z</time>
      </trkpt>
      <trkpt lat="49.31908" lon="6.75571">
        <ele>183.75</ele>
        <time>2019-09-08T08:44:25Z</time>
      </trkpt>
      <trkpt lat="49.31911" lon="6.75567">
        <ele>183.75</ele>
        <time>2019-09-08T08:44:35Z</time>
      </trkpt>
      <trkpt lat="49.31912" lon="6.75568">
        <ele>183.75</ele>
        <time>2019-09-08T08:44:45Z</time>
      </trkpt>
      <trkpt lat="49.31912" lon="6.75567">
        <ele>183.75</ele>
        <time>2019-09-08T08:44:55Z</time>
      </trkpt>
      <trkpt lat="49.31913" lon="6.75567">
        <ele>184.71</ele>
        <time>2019-09-08T08:45:05Z</time>
      </trkpt>
      <trkpt lat="49.31916" lon="6.75566">
        <ele>184.71</ele>
        <time>2019-09-08T08:45:15Z</time>
      </trkpt>
      <trkpt lat="49.3192" lon="6.75558">
        <ele>184.71</ele>
        <time>2019-09-08T08:45:25Z</time>
      </trkpt>
      <trkpt lat="49.31927" lon="6.7555">
        <ele>184.71</ele>
        <time>2019-09-08T08:45:35Z</time>
      </trkpt>
      <trkpt lat="49.31933" lon="6.75545">
        <ele>184.71</ele>
        <time>2019-09-08T08:45:45Z</time>
      </trkpt>
      <trkpt lat="49.31939" lon="6.75537">
        <ele>184.71</ele>
        <time>2019-09-08T08:45:55Z</time>
      </trkpt>
      <trkpt lat="49.31944" lon="6.7553">
        <ele>185.19</ele>
        <time>2019-09-08T08:46:05Z</time>
      </trkpt>
      <trkpt lat="49.31949" lon="6.75521">
        <ele>185.19</ele>
        <time>2019-09-08T08:46:15Z</time>
      </trkpt>
      <trkpt lat="49.31953" lon="6.75512">
        <ele>185.67</ele>
        <time>2019-09-08T08:46:25Z</time>
      </trkpt>
      <trkpt lat="49.3196" lon="6.75504">
        <ele>186.15</ele>
        <time>2019-09-08T08:46:35Z</time>
      </trkpt>
      <trkpt lat="49.31966" lon="6.75497">
        <ele>185.67</ele>
        <time>2019-09-08T08:46:45Z</time>
      </trkpt>
      <trkpt lat="49.31974" lon="6.75492">
        <ele>186.15</ele>
        <time>2019-09-08T08:46:55Z</time>
      </trkpt>
      <trkpt lat="49.31981" lon="6.75487">
        <ele>186.63</ele>
        <time>2019-09-08T08:47:05Z</time>
      </trkpt>
      <trkpt lat="49.31989" lon="6.75483">
        <ele>186.63</ele>
        <time>2019-09-08T08:47:15Z</time>
      </trkpt>
      <trkpt lat="49.31997" lon="6.75481">
        <ele>187.11</ele>
        <time>2019-09-08T08:47:25Z</time>
      </trkpt>
      <trkpt lat="49.32004" lon="6.7548">
        <ele>187.59</ele>
        <time>2019-09-08T08:47:35Z</time>
      </trkpt>
      <trkpt lat="49.32013" lon="6.75481">
        <ele>187.59</ele>
        <time>2019-09-08T08:47:45Z</time>
      </trkpt>
      <trkpt lat="49.32021" lon="6.75485">
        <ele>188.08</ele>
        <time>2019-09-08T08:47:55Z</time>
      </trkpt>
      <trkpt lat="49.32029" lon="6.75488">
        <ele>188.56</ele>
        <time>2019-09-08T08:48:05Z</time>
      </trkpt>
      <trkpt lat="49.32037" lon="6.75492">
        <ele>189.04</ele>
        <time>2019-09-08T08:48:15Z</time>
      </trkpt>
      <trkpt lat="49.32037" lon="6.75495">
        <ele>189.04</ele>
        <time>2019-09-08T08:48:25Z</time>
      </trkpt>
      <trkpt lat="49.32039" lon="6.75495">
        <ele>189.04</ele>
        <time>2019-09-08T08:48:35Z</time>
      </trkpt>
      <trkpt lat="49.32048" lon="6.75498">
        <ele>189.04</ele>
        <time>2019-09-08T08:48:45Z</time>
      </trkpt>
      <trkpt lat="49.32055" lon="6.755">
        <ele>189.04</ele>
        <time>2019-09-08T08:48:55Z</time>
      </trkpt>
      <trkpt lat="49.32055" lon="6.75502">
        <ele>189.04</ele>
        <time>2019-09-08T08:49:05Z</time>
      </trkpt>
      <trkpt lat="49.32055" lon="6.75501">
        <ele>189.04</ele>
        <time>2019-09-08T08:49:15Z</time>
      </trkpt>
      <trkpt lat="49.32056" lon="6.755">
        <ele>189.04</ele>
        <time>2019-09-08T08:49:25Z</time>
      </trkpt>
      <trkpt lat="49.32057" lon="6.755">
        <ele>189.04</ele>
        <time>2019-09-08T08:49:35Z</time>
      </trkpt>
      <trkpt lat="49.32064" lon="6.75503">
        <ele>189.04</ele>
        <time>2019-09-08T08:49:45Z</time>
      </trkpt>
      <trkpt lat="49.32071" lon="6.75507">
        <ele>189.04</ele>
        <time>2019-09-08T08:49:55Z</time>
      </trkpt>
      <trkpt lat="49.3208" lon="6.7551">
        <ele>189.04</ele>
        <time>2019-09-08T08:50:05Z</time>
      </trkpt>
      <trkpt lat="49.32087" lon="6.75514">
        <ele>189.04</ele>
        <time>2019-09-08T08:50:15Z</time>
      </trkpt>
      <trkpt lat="49.32095" lon="6.75518">
        <ele>189.04</ele>
        <time>2019-09-08T08:50:25Z</time>
      </trkpt>
      <trkpt lat="49.32102" lon="6.75521">
        <ele>189.04</ele>
        <time>2019-09-08T08:50:35Z</time>
      </trkpt>
      <trkpt lat="49.3211" lon="6.75524">
        <ele>189.04</ele>
        <time>2019-09-08T08:50:45Z</time>
      </trkpt>
      <trkpt lat="49.32118" lon="6.75528">
        <ele>189.04</ele>
        <time>2019-09-08T08:50:55Z</time>
      </trkpt>
      <trkpt lat="49.32126" lon="6.75532">
        <ele>189.04</ele>
        <time>2019-09-08T08:51:05Z</time>
      </trkpt>
      <trkpt lat="49.32135" lon="6.75535">
        <ele>188.08</ele>
        <time>2019-09-08T08:51:15Z</time>
      </trkpt>
      <trkpt lat="49.32143" lon="6.75541">
        <ele>187.59</ele>
        <time>2019-09-08T08:51:25Z</time>
      </trkpt>
      <trkpt lat="49.3215" lon="6.75543">
        <ele>187.11</ele>
        <time>2019-09-08T08:51:35Z</time>
      </trkpt>
      <trkpt lat="49.32157" lon="6.75547">
        <ele>186.63</ele>
        <time>2019-09-08T08:51:45Z</time>
      </trkpt>
      <trkpt lat="49.32167" lon="6.75549">
        <ele>186.15</ele>
        <time>2019-09-08T08:51:55Z</time>
      </trkpt>
      <trkpt lat="49.32176" lon="6.75552">
        <ele>185.19</ele>
        <time>2019-09-08T08:52:05Z</time>
      </trkpt>
      <trkpt lat="49.32183" lon="6.75557">
        <ele>184.71</ele>
        <time>2019-09-08T08:52:15Z</time>
      </trkpt>
      <trkpt lat="49.32188" lon="6.75566">
        <ele>184.23</ele>
        <time>2019-09-08T08:52:25Z</time>
      </trkpt>
      <trkpt lat="49.32191" lon="6.75572">
        <ele>183.75</ele>
        <time>2019-09-08T08:52:35Z</time>
      </trkpt>
      <trkpt lat="49.32194" lon="6.75571">
        <ele>183.75</ele>
        <time>2019-09-08T08:52:45Z</time>
      </trkpt>
      <trkpt lat="49.32201" lon="6.75569">
        <ele>183.27</ele>
        <time>2019-09-08T08:52:55Z</time>
      </trkpt>
      <trkpt lat="49.32202" lon="6.7557">
        <ele>183.75</ele>
        <time>2019-09-08T08:53:05Z</time>
      </trkpt>
      <trkpt lat="49.3221" lon="6.75573">
        <ele>183.27</ele>
        <time>2019-09-08T08:53:15Z</time>
      </trkpt>
      <trkpt lat="49.32214" lon="6.75582">
        <ele>183.27</ele>
        <time>2019-09-08T08:53:25Z</time>
      </trkpt>
      <trkpt lat="49.32218" lon="6.75593">
        <ele>182.31</ele>
        <time>2019-09-08T08:53:35Z</time>
      </trkpt>
      <trkpt lat="49.32221" lon="6.75604">
        <ele>181.83</ele>
        <time>2019-09-08T08:53:45Z</time>
      </trkpt>
      <trkpt lat="49.32225" lon="6.75613">
        <ele>181.35</ele>
        <time>2019-09-08T08:53:55Z</time>
      </trkpt>
      <trkpt lat="49.32226" lon="6.75625">
        <ele>181.35</ele>
        <time>2019-09-08T08:54:05Z</time>
      </trkpt>
      <trkpt lat="49.32227" lon="6.75637">
        <ele>181.35</ele>
        <time>2019-09-08T08:54:15Z</time>
      </trkpt>
      <trkpt lat="49.3223" lon="6.7565">
        <ele>180.87</ele>
        <time>2019-09-08T08:54:25Z</time>
      </trkpt>
      <trkpt lat="49.32231" lon="6.75663">
        <ele>180.87</ele>
        <time>2019-09-08T08:54:35Z</time>
      </trkpt>
      <trkpt lat="49.32237" lon="6.75673">
        <ele>180.87</ele>
        <time>2019-09-08T08:54:45Z</time>
      </trkpt>
      <trkpt lat="49.32244" lon="6.7568">
        <ele>180.38</ele>
        <time>2019-09-08T08:54:55Z</time>
      </trkpt>
      <trkpt lat="49.3225" lon="6.75687">
        <ele>180.38</ele>
        <time>2019-09-08T08:55:05Z</time>
      </trkpt>
      <trkpt lat="49.32258" lon="6.75689">
        <ele>180.38</ele>
        <time>2019-09-08T08:55:15Z</time>
      </trkpt>
      <trkpt lat="49.32263" lon="6.75698">
        <ele>180.38</ele>
        <time>2019-09-08T08:55:25Z</time>
      </trkpt>
      <trkpt lat="49.32265" lon="6.757">
        <ele>179.9</ele>
        <time>2019-09-08T08:55:35Z</time>
      </trkpt>
      <trkpt lat="49.3227" lon="6.75706">
        <ele>179.9</ele>
        <time>2019-09-08T08:55:45Z</time>
      </trkpt>
      <trkpt lat="49.32276" lon="6.75715">
        <ele>179.9</ele>
        <time>2019-09-08T08:55:55Z</time>
      </trkpt>
      <trkpt lat="49.32281" lon="6.75724">
        <ele>179.9</ele>
        <time>2019-09-08T08:56:05Z</time>
      </trkpt>
      <trkpt lat="49.32287" lon="6.75735">
        <ele>179.9</ele>
        <time>2019-09-08T08:56:15Z</time>
      </trkpt>
      <trkpt lat="49.32292" lon="6.75744">
        <ele>179.9</ele>
        <time>2019-09-08T08:56:25Z</time>
      </trkpt>
      <trkpt lat="49.32298" lon="6.75753">
        <ele>179.9</ele>
        <time>2019-09-08T08:56:35Z</time>
      </trkpt>
      <trkpt lat="49.32304" lon="6.75762">
        <ele>179.9</ele>
        <time>2019-09-08T08:56:45Z</time>
      </trkpt>
      <trkpt lat="49.32311" lon="6.75765">
        <ele>179.9</ele>
        <time>2019-09-08T08:56:55Z</time>
      </trkpt>
      <trkpt lat="49.32317" lon="6.75772">
        <ele>179.9</ele>
        <time>2019-09-08T08:57:05Z</time>
      </trkpt>
      <trkpt lat="49.32323" lon="6.75781">
        <ele>179.9</ele>
        <time>2019-09-08T08:57:15Z</time>
      </trkpt>
      <trkpt lat="49.32326" lon="6.75788">
        <ele>179.9</ele>
        <time>2019-09-08T08:57:25Z</time>
      </trkpt>
      <trkpt lat="49.32332" lon="6.75794">
        <ele>179.9</ele>
        <time>2019-09-08T08:57:35Z</time>
      </trkpt>
      <trkpt lat="49.32338" lon="6.75801">
        <ele>179.9</ele>
        <time>2019-09-08T08:57:45Z</time>
      </trkpt>
      <trkpt lat="49.32343" lon="6.75808">
        <ele>179.9</ele>
        <time>2019-09-08T08:57:55Z</time>
      </trkpt>
      <trkpt lat="49.32349" lon="6.75815">
        <ele>179.9</ele>
        <time>2019-09-08T08:58:05Z</time>
      </trkpt>
      <trkpt lat="49.32356" lon="6.75822">
        <ele>181.35</ele>
        <time>2019-09-08T08:58:15Z</time>
      </trkpt>
      <trkpt lat="49.32362" lon="6.75829">
        <ele>181.35</ele>
        <time>2019-09-08T08:58:25Z</time>
      </trkpt>
      <trkpt lat="49.32368" lon="6.75837">
        <ele>181.35</ele>
        <time>2019-09-08T08:58:35Z</time>
      </trkpt>
      <trkpt lat="49.32368" lon="6.75835">
        <ele>181.35</ele>
        <time>2019-09-08T08:58:45Z</time>
      </trkpt>
      <trkpt lat="49.32371" lon="6.75843">
        <ele>181.35</ele>
        <time>2019-09-08T08:58:55Z</time>
      </trkpt>
      <trkpt lat="49.32375" lon="6.75856">
        <ele>181.35</ele>
        <time>2019-09-08T08:59:05Z</time>
      </trkpt>
      <trkpt lat="49.3238" lon="6.75866">
        <ele>181.35</ele>
        <time>2019-09-08T08:59:15Z</time>
      </trkpt>
      <trkpt lat="49.32385" lon="6.75876">
        <ele>181.35</ele>
        <time>2019-09-08T08:59:25Z</time>
      </trkpt>
      <trkpt lat="49.32389" lon="6.75886">
        <ele>181.35</ele>
        <time>2019-09-08T08:59:35Z</time>
      </trkpt>
      <trkpt lat="49.32395" lon="6.75894">
        <ele>181.83</ele>
        <time>2019-09-08T08:59:45Z</time>
      </trkpt>
      <trkpt lat="49.324" lon="6.75904">
        <ele>181.83</ele>
        <time>2019-09-08T08:59:55Z</time>
      </trkpt>
      <trkpt lat="49.32406" lon="6.75913">
        <ele>181.83</ele>
        <time>2019-09-08T09:00:05Z</time>
      </trkpt>
      <trkpt lat="49.3241" lon="6.75924">
        <ele>181.83</ele>
        <time>2019-09-08T09:00:15Z</time>
      </trkpt>
      <trkpt lat="49.32415" lon="6.75933">
        <ele>181.83</ele>
        <time>2019-09-08T09:00:25Z</time>
      </trkpt>
      <trkpt lat="49.3242" lon="6.75942">
        <ele>181.83</ele>
        <time>2019-09-08T09:00:35Z</time>
      </trkpt>
      <trkpt lat="49.32425" lon="6.75953">
        <ele>182.31</ele>
        <time>2019-09-08T09:00:45Z</time>
      </trkpt>
      <trkpt lat="49.3243" lon="6.7596">
        <ele>182.31</ele>
        <time>2019-09-08T09:00:55Z</time>
      </trkpt>
      <trkpt lat="49.32433" lon="6.7597">
        <ele>182.31</ele>
        <time>2019-09-08T09:01:05Z</time>
      </trkpt>
      <trkpt lat="49.32436" lon="6.75981">
        <ele>182.31</ele>
        <time>2019-09-08T09:01:15Z</time>
      </trkpt>
      <trkpt lat="49.3244" lon="6.7599">
        <ele>182.31</ele>
        <time>2019-09-08T09:01:25Z</time>
      </trkpt>
      <trkpt lat="49.32444" lon="6.76">
        <ele>182.31</ele>
        <time>2019-09-08T09:01:35Z</time>
      </trkpt>
      <trkpt lat="49.32448" lon="6.7601">
        <ele>182.79</ele>
        <time>2019-09-08T09:01:45Z</time>
      </trkpt>
      <trkpt lat="49.32452" lon="6.76022">
        <ele>182.79</ele>
        <time>2019-09-08T09:01:55Z</time>
      </trkpt>
      <trkpt lat="49.32456" lon="6.76032">
        <ele>182.79</ele>
        <time>2019-09-08T09:02:05Z</time>
      </trkpt>
      <trkpt lat="49.32459" lon="6.76041">
        <ele>182.79</ele>
        <time>2019-09-08T09:02:15Z</time>
      </trkpt>
      <trkpt lat="49.32463" lon="6.76051">
        <ele>182.79</ele>
        <time>2019-09-08T09:02:25Z</time>
      </trkpt>
      <trkpt lat="49.32467" lon="6.76062">
        <ele>182.79</ele>
        <time>2019-09-08T09:02:35Z</time>
      </trkpt>
      <trkpt lat="49.32471" lon="6.76072">
        <ele>182.79</ele>
        <time>2019-09-08T09:02:45Z</time>
      </trkpt>
      <trkpt lat="49.32475" lon="6.76083">
        <ele>182.79</ele>
        <time>2019-09-08T09:02:55Z</time>
      </trkpt>
      <trkpt lat="49.32478" lon="6.76095">
        <ele>183.27</ele>
        <time>2019-09-08T09:03:05Z</time>
      </trkpt>
      <trkpt lat="49.32482" lon="6.76107">
        <ele>183.27</ele>
        <time>2019-09-08T09:03:15Z</time>
      </trkpt>
      <trkpt lat="49.32487" lon="6.76119">
        <ele>183.27</ele>
        <time>2019-09-08T09:03:25Z</time>
      </trkpt>
      <trkpt lat="49.32489" lon="6.76128">
        <ele>183.27</ele>
        <time>2019-09-08T09:03:35Z</time>
      </trkpt>
      <trkpt lat="49.32492" lon="6.7614">
        <ele>183.27</ele>
        <time>2019-09-08T09:03:45Z</time>
      </trkpt>
      <trkpt lat="49.32495" lon="6.76148">
        <ele>183.27</ele>
        <time>2019-09-08T09:03:55Z</time>
      </trkpt>
      <trkpt lat="49.32496" lon="6.76158">
        <ele>183.27</ele>
        <time>2019-09-08T09:04:05Z</time>
      </trkpt>
      <trkpt lat="49.32495" lon="6.7617">
        <ele>183.75</ele>
        <time>2019-09-08T09:04:15Z</time>
      </trkpt>
      <trkpt lat="49.32495" lon="6.76183">
        <ele>183.75</ele>
        <time>2019-09-08T09:04:25Z</time>
      </trkpt>
      <trkpt lat="49.32498" lon="6.76197">
        <ele>183.75</ele>
        <time>2019-09-08T09:04:35Z</time>
      </trkpt>
      <trkpt lat="49.325" lon="6.76209">
        <ele>184.23</ele>
        <time>2019-09-08T09:04:45Z</time>
      </trkpt>
      <trkpt lat="49.325" lon="6.7622">
        <ele>184.71</ele>
        <time>2019-09-08T09:04:55Z</time>
      </trkpt>
      <trkpt lat="49.325" lon="6.76232">
        <ele>184.71</ele>
        <time>2019-09-08T09:05:05Z</time>
      </trkpt>
      <trkpt lat="49.32499" lon="6.76243">
        <ele>185.67</ele>
        <time>2019-09-08T09:05:15Z</time>
      </trkpt>
      <trkpt lat="49.32499" lon="6.76254">
        <ele>185.67</ele>
        <time>2019-09-08T09:05:25Z</time>
      </trkpt>
      <trkpt lat="49.32498" lon="6.76265">
        <ele>186.15</ele>
        <time>2019-09-08T09:05:35Z</time>
      </trkpt>
      <trkpt lat="49.32498" lon="6.76276">
        <ele>186.63</ele>
        <time>2019-09-08T09:05:45Z</time>
      </trkpt>
      <trkpt lat="49.32497" lon="6.76287">
        <ele>187.11</ele>
        <time>2019-09-08T09:05:55Z</time>
      </trkpt>
      <trkpt lat="49.32497" lon="6.76297">
        <ele>187.59</ele>
        <time>2019-09-08T09:06:05Z</time>
      </trkpt>
      <trkpt lat="49.32497" lon="6.76309">
        <ele>187.59</ele>
        <time>2019-09-08T09:06:15Z</time>
      </trkpt>
      <trkpt lat="49.32496" lon="6.76322">
        <ele>187.59</ele>
        <time>2019-09-08T09:06:25Z</time>
      </trkpt>
      <trkpt lat="49.32496" lon="6.76334">
        <ele>188.08</ele>
        <time>2019-09-08T09:06:35Z</time>
      </trkpt>
      <trkpt lat="49.32495" lon="6.76345">
        <ele>188.56</ele>
        <time>2019-09-08T09:06:45Z</time>
      </trkpt>
      <trkpt lat="49.32495" lon="6.76356">
        <ele>189.04</ele>
        <time>2019-09-08T09:06:55Z</time>
      </trkpt>
      <trkpt lat="49.32494" lon="6.76367">
        <ele>189.04</ele>
        <time>2019-09-08T09:07:05Z</time>
      </trkpt>
      <trkpt lat="49.32493" lon="6.76376">
        <ele>189.52</ele>
        <time>2019-09-08T09:07:15Z</time>
      </trkpt>
      <trkpt lat="49.32493" lon="6.76388">
        <ele>189.52</ele>
        <time>2019-09-08T09:07:25Z</time>
      </trkpt>
      <trkpt lat="49.32493" lon="6.76401">
        <ele>190</ele>
        <time>2019-09-08T09:07:35Z</time>
      </trkpt>
      <trkpt lat="49.32494" lon="6.76414">
        <ele>189.52</ele>
        <time>2019-09-08T09:07:45Z</time>
      </trkpt>
      <trkpt lat="49.32496" lon="6.76427">
        <ele>189.52</ele>
        <time>2019-09-08T09:07:55Z</time>
      </trkpt>
      <trkpt lat="49.32499" lon="6.76438">
        <ele>189.52</ele>
        <time>2019-09-08T09:08:05Z</time>
      </trkpt>
      <trkpt lat="49.32503" lon="6.76449">
        <ele>189.52</ele>
        <time>2019-09-08T09:08:15Z</time>
      </trkpt>
      <trkpt lat="49.32507" lon="6.76458">
        <ele>189.52</ele>
        <time>2019-09-08T09:08:25Z</time>
      </trkpt>
      <trkpt lat="49.32509" lon="6.76468">
        <ele>189.52</ele>
        <time>2019-09-08T09:08:35Z</time>
      </trkpt>
      <trkpt lat="49.32507" lon="6.76476">
        <ele>189.52</ele>
        <time>2019-09-08T09:08:45Z</time>
      </trkpt>
      <trkpt lat="49.32506" lon="6.76486">
        <ele>188.08</ele>
        <time>2019-09-08T09:08:55Z</time>
      </trkpt>
      <trkpt lat="49.32505" lon="6.76497">
        <ele>187.59</ele>
        <time>2019-09-08T09:09:05Z</time>
      </trkpt>
      <trkpt lat="49.32511" lon="6.76498">
        <ele>186.15</ele>
        <time>2019-09-08T09:09:15Z</time>
      </trkpt>
      <trkpt lat="49.32514" lon="6.76488">
        <ele>186.15</ele>
        <time>2019-09-08T09:09:25Z</time>
      </trkpt>
      <trkpt lat="49.32514" lon="6.76484">
        <ele>186.15</ele>
        <time>2019-09-08T09:09:35Z</time>
      </trkpt>
      <trkpt lat="49.32513" lon="6.76484">
        <ele>186.15</ele>
        <time>2019-09-08T09:09:36Z</time>
      </trkpt>
      <trkpt lat="49.3252" lon="6.76483">
        <ele>186.15</ele>
        <time>2019-09-08T09:09:55Z</time>
      </trkpt>
      <trkpt lat="49.32526" lon="6.76481">
        <ele>186.15</ele>
        <time>2019-09-08T09:10:05Z</time>
      </trkpt>
      <trkpt lat="49.32528" lon="6.7648">
        <ele>186.15</ele>
        <time>2019-09-08T09:10:15Z</time>
      </trkpt>
      <trkpt lat="49.32526" lon="6.76477">
        <ele>186.15</ele>
        <time>2019-09-08T09:10:25Z</time>
      </trkpt>
      <trkpt lat="49.32527" lon="6.76476">
        <ele>186.15</ele>
        <time>2019-09-08T09:10:35Z</time>
      </trkpt>
      <trkpt lat="49.3251" lon="6.76465">
        <ele>186.15</ele>
        <time>2019-09-08T09:10:45Z</time>
      </trkpt>
      <trkpt lat="49.32509" lon="6.76494">
        <ele>186.15</ele>
        <time>2019-09-08T09:10:55Z</time>
      </trkpt>
      <trkpt lat="49.32509" lon="6.76496">
        <ele>186.15</ele>
        <time>2019-09-08T09:11:05Z</time>
      </trkpt>
      <trkpt lat="49.3251" lon="6.76498">
        <ele>186.15</ele>
        <time>2019-09-08T09:11:15Z</time>
      </trkpt>
      <trkpt lat="49.32511" lon="6.76498">
        <ele>186.15</ele>
        <time>2019-09-08T09:11:25Z</time>
      </trkpt>
      <trkpt lat="49.32511" lon="6.76498">
        <ele>186.15</ele>
        <time>2019-09-08T09:11:35Z</time>
      </trkpt>
      <trkpt lat="49.32511" lon="6.76499">
        <ele>185.67</ele>
        <time>2019-09-08T09:11:45Z</time>
      </trkpt>
      <trkpt lat="49.32511" lon="6.76497">
        <ele>185.67</ele>
        <time>2019-09-08T09:11:55Z</time>
      </trkpt>
      <trkpt lat="49.32511" lon="6.76494">
        <ele>185.67</ele>
        <time>2019-09-08T09:12:05Z</time>
      </trkpt>
      <trkpt lat="49.32509" lon="6.76492">
        <ele>185.67</ele>
        <time>2019-09-08T09:12:14Z</time>
      </trkpt>
      <trkpt lat="49.32525" lon="6.76478">
        <ele>186.63</ele>
        <time>2019-09-08T09:12:35Z</time>
      </trkpt>
      <trkpt lat="49.32532" lon="6.76488">
        <ele>186.63</ele>
        <time>2019-09-08T09:12:45Z</time>
      </trkpt>
      <trkpt lat="49.32539" lon="6.76496">
        <ele>186.63</ele>
        <time>2019-09-08T09:12:55Z</time>
      </trkpt>
      <trkpt lat="49.32546" lon="6.76501">
        <ele>185.67</ele>
        <time>2019-09-08T09:13:05Z</time>
      </trkpt>
      <trkpt lat="49.32555" lon="6.76504">
        <ele>185.67</ele>
        <time>2019-09-08T09:13:15Z</time>
      </trkpt>
      <trkpt lat="49.32562" lon="6.76506">
        <ele>187.11</ele>
        <time>2019-09-08T09:13:25Z</time>
      </trkpt>
      <trkpt lat="49.32569" lon="6.76511">
        <ele>187.59</ele>
        <time>2019-09-08T09:13:35Z</time>
      </trkpt>
      <trkpt lat="49.32574" lon="6.76516">
        <ele>188.08</ele>
        <time>2019-09-08T09:13:45Z</time>
      </trkpt>
      <trkpt lat="49.32582" lon="6.76521">
        <ele>188.08</ele>
        <time>2019-09-08T09:13:55Z</time>
      </trkpt>
      <trkpt lat="49.32591" lon="6.76525">
        <ele>188.08</ele>
        <time>2019-09-08T09:14:05Z</time>
      </trkpt>
      <trkpt lat="49.326" lon="6.76526">
        <ele>187.11</ele>
        <time>2019-09-08T09:14:15Z</time>
      </trkpt>
      <trkpt lat="49.32606" lon="6.76531">
        <ele>186.63</ele>
        <time>2019-09-08T09:14:25Z</time>
      </trkpt>
      <trkpt lat="49.32614" lon="6.76538">
        <ele>186.15</ele>
        <time>2019-09-08T09:14:35Z</time>
      </trkpt>
      <trkpt lat="49.3262" lon="6.76544">
        <ele>185.67</ele>
        <time>2019-09-08T09:14:45Z</time>
      </trkpt>
      <trkpt lat="49.32623" lon="6.76553">
        <ele>185.67</ele>
        <time>2019-09-08T09:14:55Z</time>
      </trkpt>
      <trkpt lat="49.32628" lon="6.76562">
        <ele>185.67</ele>
        <time>2019-09-08T09:15:05Z</time>
      </trkpt>
      <trkpt lat="49.32633" lon="6.76571">
        <ele>185.67</ele>
        <time>2019-09-08T09:15:15Z</time>
      </trkpt>
      <trkpt lat="49.32636" lon="6.76583">
        <ele>185.67</ele>
        <time>2019-09-08T09:15:25Z</time>
      </trkpt>
      <trkpt lat="49.3264" lon="6.76594">
        <ele>185.67</ele>
        <time>2019-09-08T09:15:35Z</time>
      </trkpt>
      <trkpt lat="49.32644" lon="6.76605">
        <ele>186.15</ele>
        <time>2019-09-08T09:15:45Z</time>
      </trkpt>
      <trkpt lat="49.32646" lon="6.7662">
        <ele>186.15</ele>
        <time>2019-09-08T09:15:55Z</time>
      </trkpt>
      <trkpt lat="49.32652" lon="6.76628">
        <ele>186.15</ele>
        <time>2019-09-08T09:16:05Z</time>
      </trkpt>
      <trkpt lat="49.32656" lon="6.76638">
        <ele>186.15</ele>
        <time>2019-09-08T09:16:15Z</time>
      </trkpt>
      <trkpt lat="49.32661" lon="6.76646">
        <ele>186.15</ele>
        <time>2019-09-08T09:16:25Z</time>
      </trkpt>
      <trkpt lat="49.32665" lon="6.76657">
        <ele>186.15</ele>
        <time>2019-09-08T09:16:35Z</time>
      </trkpt>
      <trkpt lat="49.32668" lon="6.76668">
        <ele>186.15</ele>
        <time>2019-09-08T09:16:45Z</time>
      </trkpt>
      <trkpt lat="49.32673" lon="6.76678">
        <ele>186.15</ele>
        <time>2019-09-08T09:16:55Z</time>
      </trkpt>
      <trkpt lat="49.32677" lon="6.76689">
        <ele>186.15</ele>
        <time>2019-09-08T09:17:05Z</time>
      </trkpt>
      <trkpt lat="49.32681" lon="6.76701">
        <ele>186.15</ele>
        <time>2019-09-08T09:17:15Z</time>
      </trkpt>
      <trkpt lat="49.32684" lon="6.76712">
        <ele>187.59</ele>
        <time>2019-09-08T09:17:25Z</time>
      </trkpt>
      <trkpt lat="49.32686" lon="6.76724">
        <ele>187.59</ele>
        <time>2019-09-08T09:17:35Z</time>
      </trkpt>
      <trkpt lat="49.3269" lon="6.7673">
        <ele>187.59</ele>
        <time>2019-09-08T09:17:45Z</time>
      </trkpt>
      <trkpt lat="49.32693" lon="6.76739">
        <ele>187.59</ele>
        <time>2019-09-08T09:17:55Z</time>
      </trkpt>
      <trkpt lat="49.32698" lon="6.76751">
        <ele>187.59</ele>
        <time>2019-09-08T09:18:05Z</time>
      </trkpt>
      <trkpt lat="49.32702" lon="6.76763">
        <ele>187.59</ele>
        <time>2019-09-08T09:18:15Z</time>
      </trkpt>
      <trkpt lat="49.32705" lon="6.76773">
        <ele>188.08</ele>
        <time>2019-09-08T09:18:25Z</time>
      </trkpt>
      <trkpt lat="49.32709" lon="6.76784">
        <ele>188.08</ele>
        <time>2019-09-08T09:18:35Z</time>
      </trkpt>
      <trkpt lat="49.32712" lon="6.76794">
        <ele>188.08</ele>
        <time>2019-09-08T09:18:45Z</time>
      </trkpt>
      <trkpt lat="49.32714" lon="6.76803">
        <ele>188.56</ele>
        <time>2019-09-08T09:18:55Z</time>
      </trkpt>
      <trkpt lat="49.32717" lon="6.76812">
        <ele>188.56</ele>
        <time>2019-09-08T09:19:05Z</time>
      </trkpt>
      <trkpt lat="49.3272" lon="6.76825">
        <ele>188.56</ele>
        <time>2019-09-08T09:19:15Z</time>
      </trkpt>
      <trkpt lat="49.32723" lon="6.76836">
        <ele>188.56</ele>
        <time>2019-09-08T09:19:25Z</time>
      </trkpt>
      <trkpt lat="49.32726" lon="6.76848">
        <ele>188.56</ele>
        <time>2019-09-08T09:19:35Z</time>
      </trkpt>
      <trkpt lat="49.3273" lon="6.76859">
        <ele>188.56</ele>
        <time>2019-09-08T09:19:45Z</time>
      </trkpt>
      <trkpt lat="49.32732" lon="6.76871">
        <ele>188.56</ele>
        <time>2019-09-08T09:19:55Z</time>
      </trkpt>
      <trkpt lat="49.32737" lon="6.7688">
        <ele>189.04</ele>
        <time>2019-09-08T09:20:05Z</time>
      </trkpt>
      <trkpt lat="49.32742" lon="6.76889">
        <ele>189.04</ele>
        <time>2019-09-08T09:20:15Z</time>
      </trkpt>
      <trkpt lat="49.32743" lon="6.76893">
        <ele>189.04</ele>
        <time>2019-09-08T09:20:25Z</time>
      </trkpt>
      <trkpt lat="49.32746" lon="6.76899">
        <ele>189.04</ele>
        <time>2019-09-08T09:20:35Z</time>
      </trkpt>
      <trkpt lat="49.32748" lon="6.7691">
        <ele>189.04</ele>
        <time>2019-09-08T09:20:45Z</time>
      </trkpt>
      <trkpt lat="49.32754" lon="6.76917">
        <ele>189.04</ele>
        <time>2019-09-08T09:20:55Z</time>
      </trkpt>
      <trkpt lat="49.3276" lon="6.76924">
        <ele>189.04</ele>
        <time>2019-09-08T09:21:05Z</time>
      </trkpt>
      <trkpt lat="49.32766" lon="6.76933">
        <ele>189.52</ele>
        <time>2019-09-08T09:21:15Z</time>
      </trkpt>
      <trkpt lat="49.32771" lon="6.7694">
        <ele>189.52</ele>
        <time>2019-09-08T09:21:25Z</time>
      </trkpt>
      <trkpt lat="49.32773" lon="6.76939">
        <ele>189.52</ele>
        <time>2019-09-08T09:21:35Z</time>
      </trkpt>
      <trkpt lat="49.32774" lon="6.76939">
        <ele>189.52</ele>
        <time>2019-09-08T09:21:45Z</time>
      </trkpt>
      <trkpt lat="49.32774" lon="6.76937">
        <ele>190</ele>
        <time>2019-09-08T09:21:55Z</time>
      </trkpt>
      <trkpt lat="49.32775" lon="6.76936">
        <ele>190</ele>
        <time>2019-09-08T09:22:05Z</time>
      </trkpt>
      <trkpt lat="49.32776" lon="6.76935">
        <ele>190</ele>
        <time>2019-09-08T09:22:15Z</time>
      </trkpt>
      <trkpt lat="49.32776" lon="6.76935">
        <ele>190</ele>
        <time>2019-09-08T09:22:25Z</time>
      </trkpt>
      <trkpt lat="49.32777" lon="6.76934">
        <ele>190</ele>
        <time>2019-09-08T09:22:35Z</time>
      </trkpt>
      <trkpt lat="49.32777" lon="6.76935">
        <ele>190</ele>
        <time>2019-09-08T09:22:45Z</time>
      </trkpt>
      <trkpt lat="49.32778" lon="6.76936">
        <ele>190</ele>
        <time>2019-09-08T09:22:55Z</time>
      </trkpt>
      <trkpt lat="49.3278" lon="6.76943">
        <ele>190</ele>
        <time>2019-09-08T09:23:05Z</time>
      </trkpt>
      <trkpt lat="49.32783" lon="6.76953">
        <ele>190</ele>
        <time>2019-09-08T09:23:15Z</time>
      </trkpt>
      <trkpt lat="49.32787" lon="6.76964">
        <ele>190</ele>
        <time>2019-09-08T09:23:25Z</time>
      </trkpt>
      <trkpt lat="49.3279" lon="6.76973">
        <ele>190</ele>
        <time>2019-09-08T09:23:35Z</time>
      </trkpt>
      <trkpt lat="49.32795" lon="6.76984">
        <ele>190</ele>
        <time>2019-09-08T09:23:45Z</time>
      </trkpt>
      <trkpt lat="49.32799" lon="6.76995">
        <ele>190.48</ele>
        <time>2019-09-08T09:23:55Z</time>
      </trkpt>
      <trkpt lat="49.32804" lon="6.77004">
        <ele>190.48</ele>
        <time>2019-09-08T09:24:05Z</time>
      </trkpt>
      <trkpt lat="49.32806" lon="6.7701">
        <ele>190.96</ele>
        <time>2019-09-08T09:24:15Z</time>
      </trkpt>
      <trkpt lat="49.32811" lon="6.77019">
        <ele>190.96</ele>
        <time>2019-09-08T09:24:25Z</time>
      </trkpt>
      <trkpt lat="49.32816" lon="6.77029">
        <ele>190.96</ele>
        <time>2019-09-08T09:24:35Z</time>
      </trkpt>
      <trkpt lat="49.32821" lon="6.77038">
        <ele>190.96</ele>
        <time>2019-09-08T09:24:45Z</time>
      </trkpt>
      <trkpt lat="49.32827" lon="6.77045">
        <ele>191.44</ele>
        <time>2019-09-08T09:24:55Z</time>
      </trkpt>
      <trkpt lat="49.32832" lon="6.77054">
        <ele>191.44</ele>
        <time>2019-09-08T09:25:05Z</time>
      </trkpt>
      <trkpt lat="49.32837" lon="6.7706">
        <ele>191.44</ele>
        <time>2019-09-08T09:25:15Z</time>
      </trkpt>
      <trkpt lat="49.32842" lon="6.77071">
        <ele>191.44</ele>
        <time>2019-09-08T09:25:25Z</time>
      </trkpt>
      <trkpt lat="49.32847" lon="6.7708">
        <ele>191.92</ele>
        <time>2019-09-08T09:25:35Z</time>
      </trkpt>
      <trkpt lat="49.32852" lon="6.7709">
        <ele>191.92</ele>
        <time>2019-09-08T09:25:45Z</time>
      </trkpt>
      <trkpt lat="49.32857" lon="6.771">
        <ele>191.92</ele>
        <time>2019-09-08T09:25:55Z</time>
      </trkpt>
      <trkpt lat="49.32862" lon="6.7711">
        <ele>191.92</ele>
        <time>2019-09-08T09:26:05Z</time>
      </trkpt>
      <trkpt lat="49.32868" lon="6.77118">
        <ele>191.92</ele>
        <time>2019-09-08T09:26:15Z</time>
      </trkpt>
      <trkpt lat="49.32871" lon="6.77124">
        <ele>192.4</ele>
        <time>2019-09-08T09:26:25Z</time>
      </trkpt>
      <trkpt lat="49.32875" lon="6.77132">
        <ele>192.88</ele>
        <time>2019-09-08T09:26:35Z</time>
      </trkpt>
      <trkpt lat="49.32881" lon="6.77138">
        <ele>192.88</ele>
        <time>2019-09-08T09:26:45Z</time>
      </trkpt>
      <trkpt lat="49.32886" lon="6.77146">
        <ele>193.36</ele>
        <time>2019-09-08T09:26:55Z</time>
      </trkpt>
      <trkpt lat="49.32891" lon="6.77157">
        <ele>193.36</ele>
        <time>2019-09-08T09:27:05Z</time>
      </trkpt>
      <trkpt lat="49.32896" lon="6.77167">
        <ele>193.36</ele>
        <time>2019-09-08T09:27:15Z</time>
      </trkpt>
      <trkpt lat="49.32901" lon="6.77177">
        <ele>193.36</ele>
        <time>2019-09-08T09:27:25Z</time>
      </trkpt>
      <trkpt lat="49.32906" lon="6.77187">
        <ele>193.84</ele>
        <time>2019-09-08T09:27:35Z</time>
      </trkpt>
      <trkpt lat="49.32912" lon="6.77196">
        <ele>193.84</ele>
        <time>2019-09-08T09:27:45Z</time>
      </trkpt>
      <trkpt lat="49.32918" lon="6.77206">
        <ele>193.84</ele>
        <time>2019-09-08T09:27:55Z</time>
      </trkpt>
      <trkpt lat="49.32923" lon="6.77214">
        <ele>194.32</ele>
        <time>2019-09-08T09:28:05Z</time>
      </trkpt>
      <trkpt lat="49.32928" lon="6.77222">
        <ele>194.8</ele>
        <time>2019-09-08T09:28:15Z</time>
      </trkpt>
      <trkpt lat="49.32933" lon="6.77232">
        <ele>194.8</ele>
        <time>2019-09-08T09:28:25Z</time>
      </trkpt>
      <trkpt lat="49.32939" lon="6.7724">
        <ele>195.28</ele>
        <time>2019-09-08T09:28:35Z</time>
      </trkpt>
      <trkpt lat="49.32944" lon="6.77249">
        <ele>195.28</ele>
        <time>2019-09-08T09:28:45Z</time>
      </trkpt>
      <trkpt lat="49.32949" lon="6.77257">
        <ele>195.77</ele>
        <time>2019-09-08T09:28:55Z</time>
      </trkpt>
      <trkpt lat="49.32954" lon="6.77265">
        <ele>195.77</ele>
        <time>2019-09-08T09:29:05Z</time>
      </trkpt>
      <trkpt lat="49.3296" lon="6.77275">
        <ele>195.77</ele>
        <time>2019-09-08T09:29:15Z</time>
      </trkpt>
      <trkpt lat="49.32965" lon="6.77284">
        <ele>195.77</ele>
        <time>2019-09-08T09:29:25Z</time>
      </trkpt>
      <trkpt lat="49.32971" lon="6.77291">
        <ele>195.77</ele>
        <time>2019-09-08T09:29:35Z</time>
      </trkpt>
      <trkpt lat="49.32977" lon="6.773">
        <ele>196.25</ele>
        <time>2019-09-08T09:29:45Z</time>
      </trkpt>
      <trkpt lat="49.32982" lon="6.7731">
        <ele>196.25</ele>
        <time>2019-09-08T09:29:55Z</time>
      </trkpt>
      <trkpt lat="49.32988" lon="6.77318">
        <ele>196.25</ele>
        <time>2019-09-08T09:30:05Z</time>
      </trkpt>
      <trkpt lat="49.32994" lon="6.77326">
        <ele>196.73</ele>
        <time>2019-09-08T09:30:15Z</time>
      </trkpt>
      <trkpt lat="49.33" lon="6.77335">
        <ele>196.73</ele>
        <time>2019-09-08T09:30:25Z</time>
      </trkpt>
      <trkpt lat="49.33006" lon="6.77344">
        <ele>197.21</ele>
        <time>2019-09-08T09:30:35Z</time>
      </trkpt>
      <trkpt lat="49.33011" lon="6.77352">
        <ele>197.21</ele>
        <time>2019-09-08T09:30:45Z</time>
      </trkpt>
      <trkpt lat="49.33019" lon="6.77358">
        <ele>197.69</ele>
        <time>2019-09-08T09:30:55Z</time>
      </trkpt>
      <trkpt lat="49.33023" lon="6.77369">
        <ele>197.69</ele>
        <time>2019-09-08T09:31:05Z</time>
      </trkpt>
      <trkpt lat="49.33028" lon="6.77378">
        <ele>197.69</ele>
        <time>2019-09-08T09:31:15Z</time>
      </trkpt>
      <trkpt lat="49.33032" lon="6.77388">
        <ele>197.69</ele>
        <time>2019-09-08T09:31:25Z</time>
      </trkpt>
      <trkpt lat="49.33037" lon="6.77396">
        <ele>197.69</ele>
        <time>2019-09-08T09:31:35Z</time>
      </trkpt>
      <trkpt lat="49.33043" lon="6.77404">
        <ele>198.17</ele>
        <time>2019-09-08T09:31:45Z</time>
      </trkpt>
      <trkpt lat="49.33048" lon="6.77412">
        <ele>198.17</ele>
        <time>2019-09-08T09:31:55Z</time>
      </trkpt>
      <trkpt lat="49.33052" lon="6.77421">
        <ele>198.17</ele>
        <time>2019-09-08T09:32:05Z</time>
      </trkpt>
      <trkpt lat="49.33058" lon="6.77428">
        <ele>198.65</ele>
        <time>2019-09-08T09:32:15Z</time>
      </trkpt>
      <trkpt lat="49.33062" lon="6.77435">
        <ele>199.13</ele>
        <time>2019-09-08T09:32:25Z</time>
      </trkpt>
      <trkpt lat="49.33067" lon="6.77443">
        <ele>198.65</ele>
        <time>2019-09-08T09:32:35Z</time>
      </trkpt>
      <trkpt lat="49.33073" lon="6.77452">
        <ele>199.13</ele>
        <time>2019-09-08T09:32:45Z</time>
      </trkpt>
      <trkpt lat="49.33079" lon="6.7746">
        <ele>199.13</ele>
        <time>2019-09-08T09:32:55Z</time>
      </trkpt>
      <trkpt lat="49.33083" lon="6.77467">
        <ele>199.13</ele>
        <time>2019-09-08T09:33:05Z</time>
      </trkpt>
      <trkpt lat="49.33084" lon="6.77469">
        <ele>199.13</ele>
        <time>2019-09-08T09:33:15Z</time>
      </trkpt>
      <trkpt lat="49.33091" lon="6.77476">
        <ele>199.61</ele>
        <time>2019-09-08T09:33:25Z</time>
      </trkpt>
      <trkpt lat="49.33097" lon="6.77482">
        <ele>199.61</ele>
        <time>2019-09-08T09:33:35Z</time>
      </trkpt>
      <trkpt lat="49.33102" lon="6.77489">
        <ele>200.09</ele>
        <time>2019-09-08T09:33:45Z</time>
      </trkpt>
      <trkpt lat="49.33108" lon="6.77496">
        <ele>200.09</ele>
        <time>2019-09-08T09:33:55Z</time>
      </trkpt>
      <trkpt lat="49.33113" lon="6.77504">
        <ele>200.57</ele>
        <time>2019-09-08T09:34:05Z</time>
      </trkpt>
      <trkpt lat="49.33118" lon="6.77512">
        <ele>200.57</ele>
        <time>2019-09-08T09:34:15Z</time>
      </trkpt>
      <trkpt lat="49.33123" lon="6.7752">
        <ele>200.57</ele>
        <time>2019-09-08T09:34:25Z</time>
      </trkpt>
      <trkpt lat="49.33128" lon="6.77527">
        <ele>200.57</ele>
        <time>2019-09-08T09:34:35Z</time>
      </trkpt>
      <trkpt lat="49.33134" lon="6.77535">
        <ele>200.57</ele>
        <time>2019-09-08T09:34:45Z</time>
      </trkpt>
      <trkpt lat="49.33139" lon="6.77545">
        <ele>201.05</ele>
        <time>2019-09-08T09:34:55Z</time>
      </trkpt>
      <trkpt lat="49.33144" lon="6.77554">
        <ele>201.05</ele>
        <time>2019-09-08T09:35:05Z</time>
      </trkpt>
      <trkpt lat="49.3315" lon="6.77564">
        <ele>201.53</ele>
        <time>2019-09-08T09:35:15Z</time>
      </trkpt>
      <trkpt lat="49.33155" lon="6.77575">
        <ele>201.53</ele>
        <time>2019-09-08T09:35:25Z</time>
      </trkpt>
      <trkpt lat="49.3316" lon="6.77585">
        <ele>201.53</ele>
        <time>2019-09-08T09:35:35Z</time>
      </trkpt>
      <trkpt lat="49.33165" lon="6.77595">
        <ele>202.01</ele>
        <time>2019-09-08T09:35:45Z</time>
      </trkpt>
      <trkpt lat="49.3317" lon="6.77605">
        <ele>202.01</ele>
        <time>2019-09-08T09:35:55Z</time>
      </trkpt>
      <trkpt lat="49.33174" lon="6.77615">
        <ele>202.01</ele>
        <time>2019-09-08T09:36:05Z</time>
      </trkpt>
      <trkpt lat="49.33178" lon="6.77623">
        <ele>202.49</ele>
        <time>2019-09-08T09:36:15Z</time>
      </trkpt>
      <trkpt lat="49.33182" lon="6.77631">
        <ele>202.49</ele>
        <time>2019-09-08T09:36:25Z</time>
      </trkpt>
      <trkpt lat="49.33187" lon="6.7764">
        <ele>202.49</ele>
        <time>2019-09-08T09:36:35Z</time>
      </trkpt>
      <trkpt lat="49.33191" lon="6.77649">
        <ele>202.98</ele>
        <time>2019-09-08T09:36:45Z</time>
      </trkpt>
      <trkpt lat="49.33196" lon="6.77658">
        <ele>202.98</ele>
        <time>2019-09-08T09:36:55Z</time>
      </trkpt>
      <trkpt lat="49.33201" lon="6.77666">
        <ele>203.46</ele>
        <time>2019-09-08T09:37:05Z</time>
      </trkpt>
      <trkpt lat="49.33206" lon="6.77674">
        <ele>203.46</ele>
        <time>2019-09-08T09:37:15Z</time>
      </trkpt>
      <trkpt lat="49.3321" lon="6.77683">
        <ele>203.46</ele>
        <time>2019-09-08T09:37:25Z</time>
      </trkpt>
      <trkpt lat="49.33214" lon="6.77694">
        <ele>203.94</ele>
        <time>2019-09-08T09:37:35Z</time>
      </trkpt>
      <trkpt lat="49.33218" lon="6.77707">
        <ele>203.94</ele>
        <time>2019-09-08T09:37:45Z</time>
      </trkpt>
      <trkpt lat="49.33221" lon="6.7772">
        <ele>203.94</ele>
        <time>2019-09-08T09:37:55Z</time>
      </trkpt>
      <trkpt lat="49.33226" lon="6.7773">
        <ele>203.94</ele>
        <time>2019-09-08T09:38:05Z</time>
      </trkpt>
      <trkpt lat="49.33229" lon="6.77741">
        <ele>203.94</ele>
        <time>2019-09-08T09:38:15Z</time>
      </trkpt>
      <trkpt lat="49.33235" lon="6.77747">
        <ele>203.94</ele>
        <time>2019-09-08T09:38:25Z</time>
      </trkpt>
      <trkpt lat="49.33241" lon="6.77753">
        <ele>203.94</ele>
        <time>2019-09-08T09:38:35Z</time>
      </trkpt>
      <trkpt lat="49.33248" lon="6.77761">
        <ele>203.94</ele>
        <time>2019-09-08T09:38:45Z</time>
      </trkpt>
      <trkpt lat="49.33253" lon="6.77771">
        <ele>203.46</ele>
        <time>2019-09-08T09:38:55Z</time>
      </trkpt>
      <trkpt lat="49.33255" lon="6.77782">
        <ele>203.46</ele>
        <time>2019-09-08T09:39:05Z</time>
      </trkpt>
      <trkpt lat="49.33256" lon="6.77796">
        <ele>203.46</ele>
        <time>2019-09-08T09:39:15Z</time>
      </trkpt>
      <trkpt lat="49.33259" lon="6.77806">
        <ele>203.46</ele>
        <time>2019-09-08T09:39:25Z</time>
      </trkpt>
      <trkpt lat="49.33264" lon="6.77818">
        <ele>203.46</ele>
        <time>2019-09-08T09:39:35Z</time>
      </trkpt>
      <trkpt lat="49.33269" lon="6.77828">
        <ele>203.46</ele>
        <time>2019-09-08T09:39:45Z</time>
      </trkpt>
      <trkpt lat="49.33273" lon="6.77835">
        <ele>203.46</ele>
        <time>2019-09-08T09:39:55Z</time>
      </trkpt>
      <trkpt lat="49.33277" lon="6.77845">
        <ele>203.46</ele>
        <time>2019-09-08T09:40:05Z</time>
      </trkpt>
      <trkpt lat="49.3328" lon="6.77855">
        <ele>203.94</ele>
        <time>2019-09-08T09:40:15Z</time>
      </trkpt>
      <trkpt lat="49.33284" lon="6.77863">
        <ele>203.94</ele>
        <time>2019-09-08T09:40:25Z</time>
      </trkpt>
      <trkpt lat="49.33288" lon="6.77874">
        <ele>203.94</ele>
        <time>2019-09-08T09:40:35Z</time>
      </trkpt>
      <trkpt lat="49.33292" lon="6.77885">
        <ele>204.42</ele>
        <time>2019-09-08T09:40:45Z</time>
      </trkpt>
      <trkpt lat="49.33296" lon="6.77897">
        <ele>204.42</ele>
        <time>2019-09-08T09:40:55Z</time>
      </trkpt>
      <trkpt lat="49.33302" lon="6.77906">
        <ele>204.42</ele>
        <time>2019-09-08T09:41:05Z</time>
      </trkpt>
      <trkpt lat="49.33306" lon="6.77913">
        <ele>203.94</ele>
        <time>2019-09-08T09:41:15Z</time>
      </trkpt>
      <trkpt lat="49.33311" lon="6.77923">
        <ele>203.94</ele>
        <time>2019-09-08T09:41:25Z</time>
      </trkpt>
      <trkpt lat="49.33314" lon="6.77934">
        <ele>203.94</ele>
        <time>2019-09-08T09:41:35Z</time>
      </trkpt>
      <trkpt lat="49.33319" lon="6.77945">
        <ele>203.94</ele>
        <time>2019-09-08T09:41:45Z</time>
      </trkpt>
      <trkpt lat="49.33323" lon="6.77956">
        <ele>203.94</ele>
        <time>2019-09-08T09:41:55Z</time>
      </trkpt>
      <trkpt lat="49.33328" lon="6.77966">
        <ele>203.94</ele>
        <time>2019-09-08T09:42:05Z</time>
      </trkpt>
      <trkpt lat="49.33332" lon="6.77976">
        <ele>203.94</ele>
        <time>2019-09-08T09:42:15Z</time>
      </trkpt>
      <trkpt lat="49.33337" lon="6.77988">
        <ele>203.94</ele>
        <time>2019-09-08T09:42:25Z</time>
      </trkpt>
      <trkpt lat="49.3334" lon="6.77999">
        <ele>203.94</ele>
        <time>2019-09-08T09:42:35Z</time>
      </trkpt>
      <trkpt lat="49.33343" lon="6.78008">
        <ele>204.42</ele>
        <time>2019-09-08T09:42:45Z</time>
      </trkpt>
      <trkpt lat="49.33347" lon="6.78018">
        <ele>204.42</ele>
        <time>2019-09-08T09:42:55Z</time>
      </trkpt>
      <trkpt lat="49.33351" lon="6.78027">
        <ele>204.42</ele>
        <time>2019-09-08T09:43:05Z</time>
      </trkpt>
      <trkpt lat="49.33354" lon="6.78038">
        <ele>204.42</ele>
        <time>2019-09-08T09:43:15Z</time>
      </trkpt>
      <trkpt lat="49.33359" lon="6.78047">
        <ele>204.9</ele>
        <time>2019-09-08T09:43:25Z</time>
      </trkpt>
      <trkpt lat="49.33363" lon="6.78058">
        <ele>204.9</ele>
        <time>2019-09-08T09:43:35Z</time>
      </trkpt>
      <trkpt lat="49.33366" lon="6.78068">
        <ele>204.9</ele>
        <time>2019-09-08T09:43:45Z</time>
      </trkpt>
      <trkpt lat="49.3337" lon="6.78079">
        <ele>204.9</ele>
        <time>2019-09-08T09:43:55Z</time>
      </trkpt>
      <trkpt lat="49.33374" lon="6.78091">
        <ele>204.9</ele>
        <time>2019-09-08T09:44:05Z</time>
      </trkpt>
      <trkpt lat="49.33378" lon="6.78102">
        <ele>204.42</ele>
        <time>2019-09-08T09:44:15Z</time>
      </trkpt>
      <trkpt lat="49.33382" lon="6.78112">
        <ele>204.42</ele>
        <time>2019-09-08T09:44:25Z</time>
      </trkpt>
      <trkpt lat="49.33387" lon="6.78122">
        <ele>204.9</ele>
        <time>2019-09-08T09:44:35Z</time>
      </trkpt>
      <trkpt lat="49.33392" lon="6.78133">
        <ele>204.9</ele>
        <time>2019-09-08T09:44:45Z</time>
      </trkpt>
      <trkpt lat="49.33398" lon="6.78145">
        <ele>204.9</ele>
        <time>2019-09-08T09:44:55Z</time>
      </trkpt>
      <trkpt lat="49.33403" lon="6.78153">
        <ele>205.38</ele>
        <time>2019-09-08T09:45:05Z</time>
      </trkpt>
      <trkpt lat="49.33409" lon="6.78162">
        <ele>205.38</ele>
        <time>2019-09-08T09:45:15Z</time>
      </trkpt>
      <trkpt lat="49.33416" lon="6.7817">
        <ele>205.38</ele>
        <time>2019-09-08T09:45:25Z</time>
      </trkpt>
      <trkpt lat="49.33423" lon="6.78178">
        <ele>205.38</ele>
        <time>2019-09-08T09:45:35Z</time>
      </trkpt>
      <trkpt lat="49.33428" lon="6.78187">
        <ele>205.86</ele>
        <time>2019-09-08T09:45:45Z</time>
      </trkpt>
      <trkpt lat="49.33433" lon="6.78197">
        <ele>205.86</ele>
        <time>2019-09-08T09:45:55Z</time>
      </trkpt>
      <trkpt lat="49.3344" lon="6.78204">
        <ele>206.34</ele>
        <time>2019-09-08T09:46:05Z</time>
      </trkpt>
      <trkpt lat="49.33447" lon="6.78212">
        <ele>206.34</ele>
        <time>2019-09-08T09:46:15Z</time>
      </trkpt>
      <trkpt lat="49.33453" lon="6.78219">
        <ele>206.34</ele>
        <time>2019-09-08T09:46:25Z</time>
      </trkpt>
      <trkpt lat="49.33459" lon="6.78227">
        <ele>206.34</ele>
        <time>2019-09-08T09:46:35Z</time>
      </trkpt>
      <trkpt lat="49.33465" lon="6.78234">
        <ele>206.82</ele>
        <time>2019-09-08T09:46:45Z</time>
      </trkpt>
      <trkpt lat="49.33473" lon="6.7824">
        <ele>206.82</ele>
        <time>2019-09-08T09:46:55Z</time>
      </trkpt>
      <trkpt lat="49.3348" lon="6.78249">
        <ele>207.3</ele>
        <time>2019-09-08T09:47:05Z</time>
      </trkpt>
      <trkpt lat="49.33486" lon="6.78259">
        <ele>207.3</ele>
        <time>2019-09-08T09:47:15Z</time>
      </trkpt>
      <trkpt lat="49.33494" lon="6.78267">
        <ele>207.78</ele>
        <time>2019-09-08T09:47:25Z</time>
      </trkpt>
      <trkpt lat="49.33501" lon="6.78275">
        <ele>207.78</ele>
        <time>2019-09-08T09:47:35Z</time>
      </trkpt>
      <trkpt lat="49.33507" lon="6.78282">
        <ele>208.26</ele>
        <time>2019-09-08T09:47:45Z</time>
      </trkpt>
      <trkpt lat="49.33515" lon="6.78288">
        <ele>208.26</ele>
        <time>2019-09-08T09:47:55Z</time>
      </trkpt>
      <trkpt lat="49.33522" lon="6.78294">
        <ele>208.26</ele>
        <time>2019-09-08T09:48:05Z</time>
      </trkpt>
      <trkpt lat="49.33529" lon="6.78299">
        <ele>208.26</ele>
        <time>2019-09-08T09:48:15Z</time>
      </trkpt>
      <trkpt lat="49.33536" lon="6.78306">
        <ele>208.26</ele>
        <time>2019-09-08T09:48:25Z</time>
      </trkpt>
      <trkpt lat="49.33544" lon="6.78311">
        <ele>208.26</ele>
        <time>2019-09-08T09:48:35Z</time>
      </trkpt>
      <trkpt lat="49.33551" lon="6.78315">
        <ele>208.74</ele>
        <time>2019-09-08T09:48:45Z</time>
      </trkpt>
      <trkpt lat="49.33558" lon="6.78321">
        <ele>208.74</ele>
        <time>2019-09-08T09:48:55Z</time>
      </trkpt>
      <trkpt lat="49.33563" lon="6.78328">
        <ele>208.74</ele>
        <time>2019-09-08T09:49:05Z</time>
      </trkpt>
      <trkpt lat="49.3357" lon="6.78337">
        <ele>208.74</ele>
        <time>2019-09-08T09:49:15Z</time>
      </trkpt>
      <trkpt lat="49.33577" lon="6.78343">
        <ele>208.74</ele>
        <time>2019-09-08T09:49:25Z</time>
      </trkpt>
      <trkpt lat="49.33583" lon="6.7835">
        <ele>209.22</ele>
        <time>2019-09-08T09:49:35Z</time>
      </trkpt>
      <trkpt lat="49.33589" lon="6.78359">
        <ele>209.22</ele>
        <time>2019-09-08T09:49:45Z</time>
      </trkpt>
      <trkpt lat="49.33595" lon="6.78365">
        <ele>209.7</ele>
        <time>2019-09-08T09:49:55Z</time>
      </trkpt>
      <trkpt lat="49.33602" lon="6.78372">
        <ele>209.7</ele>
        <time>2019-09-08T09:50:05Z</time>
      </trkpt>
      <trkpt lat="49.33609" lon="6.7838">
        <ele>209.7</ele>
        <time>2019-09-08T09:50:15Z</time>
      </trkpt>
      <trkpt lat="49.33616" lon="6.78387">
        <ele>209.7</ele>
        <time>2019-09-08T09:50:25Z</time>
      </trkpt>
      <trkpt lat="49.33623" lon="6.78396">
        <ele>209.7</ele>
        <time>2019-09-08T09:50:35Z</time>
      </trkpt>
      <trkpt lat="49.33632" lon="6.78399">
        <ele>209.7</ele>
        <time>2019-09-08T09:50:45Z</time>
      </trkpt>
      <trkpt lat="49.33642" lon="6.78396">
        <ele>209.7</ele>
        <time>2019-09-08T09:50:55Z</time>
      </trkpt>
      <trkpt lat="49.33648" lon="6.78388">
        <ele>209.7</ele>
        <time>2019-09-08T09:51:05Z</time>
      </trkpt>
      <trkpt lat="49.33654" lon="6.78384">
        <ele>210.19</ele>
        <time>2019-09-08T09:51:15Z</time>
      </trkpt>
      <trkpt lat="49.33659" lon="6.78392">
        <ele>210.67</ele>
        <time>2019-09-08T09:51:25Z</time>
      </trkpt>
      <trkpt lat="49.33664" lon="6.78401">
        <ele>210.67</ele>
        <time>2019-09-08T09:51:35Z</time>
      </trkpt>
      <trkpt lat="49.33666" lon="6.78411">
        <ele>210.19</ele>
        <time>2019-09-08T09:51:45Z</time>
      </trkpt>
      <trkpt lat="49.33664" lon="6.78421">
        <ele>210.19</ele>
        <time>2019-09-08T09:51:55Z</time>
      </trkpt>
      <trkpt lat="49.33664" lon="6.78423">
        <ele>210.19</ele>
        <time>2019-09-08T09:52:05Z</time>
      </trkpt>
      <trkpt lat="49.33663" lon="6.78423">
        <ele>210.19</ele>
        <time>2019-09-08T09:52:15Z</time>
      </trkpt>
      <trkpt lat="49.33663" lon="6.78424">
        <ele>210.19</ele>
        <time>2019-09-08T09:52:25Z</time>
      </trkpt>
      <trkpt lat="49.33663" lon="6.78423">
        <ele>210.19</ele>
        <time>2019-09-08T09:52:35Z</time>
      </trkpt>
      <trkpt lat="49.33663" lon="6.78425">
        <ele>210.19</ele>
        <time>2019-09-08T09:52:45Z</time>
      </trkpt>
      <trkpt lat="49.33663" lon="6.78427">
        <ele>210.67</ele>
        <time>2019-09-08T09:52:55Z</time>
      </trkpt>
      <trkpt lat="49.33664" lon="6.78437">
        <ele>210.67</ele>
        <time>2019-09-08T09:53:05Z</time>
      </trkpt>
      <trkpt lat="49.33667" lon="6.78449">
        <ele>210.67</ele>
        <time>2019-09-08T09:53:15Z</time>
      </trkpt>
      <trkpt lat="49.33673" lon="6.7846">
        <ele>210.67</ele>
        <time>2019-09-08T09:53:26Z</time>
      </trkpt>
      <trkpt lat="49.33679" lon="6.7847">
        <ele>210.67</ele>
        <time>2019-09-08T09:53:36Z</time>
      </trkpt>
      <trkpt lat="49.33684" lon="6.78481">
        <ele>210.67</ele>
        <time>2019-09-08T09:53:46Z</time>
      </trkpt>
      <trkpt lat="49.33691" lon="6.7849">
        <ele>210.67</ele>
        <time>2019-09-08T09:53:56Z</time>
      </trkpt>
      <trkpt lat="49.33697" lon="6.78498">
        <ele>210.67</ele>
        <time>2019-09-08T09:54:06Z</time>
      </trkpt>
      <trkpt lat="49.33703" lon="6.78508">
        <ele>210.67</ele>
        <time>2019-09-08T09:54:16Z</time>
      </trkpt>
      <trkpt lat="49.33709" lon="6.78516">
        <ele>210.67</ele>
        <time>2019-09-08T09:54:26Z</time>
      </trkpt>
      <trkpt lat="49.33715" lon="6.78525">
        <ele>210.67</ele>
        <time>2019-09-08T09:54:36Z</time>
      </trkpt>
      <trkpt lat="49.3372" lon="6.78534">
        <ele>210.67</ele>
        <time>2019-09-08T09:54:46Z</time>
      </trkpt>
      <trkpt lat="49.33726" lon="6.78541">
        <ele>210.19</ele>
        <time>2019-09-08T09:54:56Z</time>
      </trkpt>
      <trkpt lat="49.33731" lon="6.78551">
        <ele>210.19</ele>
        <time>2019-09-08T09:55:06Z</time>
      </trkpt>
      <trkpt lat="49.33737" lon="6.7856">
        <ele>210.19</ele>
        <time>2019-09-08T09:55:16Z</time>
      </trkpt>
      <trkpt lat="49.33743" lon="6.78571">
        <ele>210.19</ele>
        <time>2019-09-08T09:55:26Z</time>
      </trkpt>
      <trkpt lat="49.33749" lon="6.78579">
        <ele>210.19</ele>
        <time>2019-09-08T09:55:36Z</time>
      </trkpt>
      <trkpt lat="49.33755" lon="6.78589">
        <ele>210.19</ele>
        <time>2019-09-08T09:55:46Z</time>
      </trkpt>
      <trkpt lat="49.3376" lon="6.78598">
        <ele>210.19</ele>
        <time>2019-09-08T09:55:56Z</time>
      </trkpt>
      <trkpt lat="49.33767" lon="6.78606">
        <ele>210.19</ele>
        <time>2019-09-08T09:56:06Z</time>
      </trkpt>
      <trkpt lat="49.33773" lon="6.78613">
        <ele>210.19</ele>
        <time>2019-09-08T09:56:16Z</time>
      </trkpt>
      <trkpt lat="49.33779" lon="6.78622">
        <ele>210.19</ele>
        <time>2019-09-08T09:56:26Z</time>
      </trkpt>
      <trkpt lat="49.33785" lon="6.7863">
        <ele>210.19</ele>
        <time>2019-09-08T09:56:36Z</time>
      </trkpt>
      <trkpt lat="49.33792" lon="6.78637">
        <ele>210.19</ele>
        <time>2019-09-08T09:56:46Z</time>
      </trkpt>
      <trkpt lat="49.33799" lon="6.78643">
        <ele>210.19</ele>
        <time>2019-09-08T09:56:56Z</time>
      </trkpt>
      <trkpt lat="49.33805" lon="6.78651">
        <ele>210.19</ele>
        <time>2019-09-08T09:57:06Z</time>
      </trkpt>
      <trkpt lat="49.33812" lon="6.78659">
        <ele>210.19</ele>
        <time>2019-09-08T09:57:16Z</time>
      </trkpt>
      <trkpt lat="49.33818" lon="6.78668">
        <ele>208.74</ele>
        <time>2019-09-08T09:57:26Z</time>
      </trkpt>
      <trkpt lat="49.33824" lon="6.78676">
        <ele>208.74</ele>
        <time>2019-09-08T09:57:36Z</time>
      </trkpt>
      <trkpt lat="49.3383" lon="6.78686">
        <ele>208.74</ele>
        <time>2019-09-08T09:57:46Z</time>
      </trkpt>
      <trkpt lat="49.33835" lon="6.78696">
        <ele>208.74</ele>
        <time>2019-09-08T09:57:56Z</time>
      </trkpt>
      <trkpt lat="49.33841" lon="6.78705">
        <ele>208.74</ele>
        <time>2019-09-08T09:58:06Z</time>
      </trkpt>
      <trkpt lat="49.33848" lon="6.78712">
        <ele>210.19</ele>
        <time>2019-09-08T09:58:16Z</time>
      </trkpt>
      <trkpt lat="49.33854" lon="6.78719">
        <ele>210.19</ele>
        <time>2019-09-08T09:58:26Z</time>
      </trkpt>
      <trkpt lat="49.33861" lon="6.78725">
        <ele>210.19</ele>
        <time>2019-09-08T09:58:36Z</time>
      </trkpt>
      <trkpt lat="49.33867" lon="6.78732">
        <ele>210.19</ele>
        <time>2019-09-08T09:58:46Z</time>
      </trkpt>
      <trkpt lat="49.33873" lon="6.78739">
        <ele>210.67</ele>
        <time>2019-09-08T09:58:56Z</time>
      </trkpt>
      <trkpt lat="49.33879" lon="6.78745">
        <ele>210.67</ele>
        <time>2019-09-08T09:59:06Z</time>
      </trkpt>
      <trkpt lat="49.33886" lon="6.78751">
        <ele>210.67</ele>
        <time>2019-09-08T09:59:16Z</time>
      </trkpt>
      <trkpt lat="49.33893" lon="6.78758">
        <ele>210.67</ele>
        <time>2019-09-08T09:59:26Z</time>
      </trkpt>
      <trkpt lat="49.339" lon="6.78765">
        <ele>210.67</ele>
        <time>2019-09-08T09:59:36Z</time>
      </trkpt>
      <trkpt lat="49.33906" lon="6.78771">
        <ele>210.67</ele>
        <time>2019-09-08T09:59:46Z</time>
      </trkpt>
      <trkpt lat="49.33913" lon="6.78778">
        <ele>211.15</ele>
        <time>2019-09-08T09:59:56Z</time>
      </trkpt>
      <trkpt lat="49.3392" lon="6.78785">
        <ele>211.15</ele>
        <time>2019-09-08T10:00:06Z</time>
      </trkpt>
      <trkpt lat="49.33926" lon="6.78792">
        <ele>211.15</ele>
        <time>2019-09-08T10:00:16Z</time>
      </trkpt>
      <trkpt lat="49.33933" lon="6.78798">
        <ele>211.15</ele>
        <time>2019-09-08T10:00:26Z</time>
      </trkpt>
      <trkpt lat="49.33939" lon="6.78804">
        <ele>211.15</ele>
        <time>2019-09-08T10:00:36Z</time>
      </trkpt>
      <trkpt lat="49.33946" lon="6.78811">
        <ele>211.63</ele>
        <time>2019-09-08T10:00:46Z</time>
      </trkpt>
      <trkpt lat="49.33952" lon="6.78817">
        <ele>211.63</ele>
        <time>2019-09-08T10:00:56Z</time>
      </trkpt>
      <trkpt lat="49.33959" lon="6.78824">
        <ele>212.11</ele>
        <time>2019-09-08T10:01:06Z</time>
      </trkpt>
      <trkpt lat="49.33965" lon="6.78831">
        <ele>212.59</ele>
        <time>2019-09-08T10:01:16Z</time>
      </trkpt>
      <trkpt lat="49.33971" lon="6.78838">
        <ele>212.59</ele>
        <time>2019-09-08T10:01:26Z</time>
      </trkpt>
      <trkpt lat="49.33978" lon="6.78845">
        <ele>212.59</ele>
        <time>2019-09-08T10:01:36Z</time>
      </trkpt>
      <trkpt lat="49.33984" lon="6.78851">
        <ele>212.59</ele>
        <time>2019-09-08T10:01:46Z</time>
      </trkpt>
      <trkpt lat="49.33991" lon="6.78857">
        <ele>213.07</ele>
        <time>2019-09-08T10:01:56Z</time>
      </trkpt>
      <trkpt lat="49.33997" lon="6.78865">
        <ele>213.07</ele>
        <time>2019-09-08T10:02:06Z</time>
      </trkpt>
      <trkpt lat="49.34003" lon="6.78871">
        <ele>213.55</ele>
        <time>2019-09-08T10:02:16Z</time>
      </trkpt>
      <trkpt lat="49.34009" lon="6.78877">
        <ele>214.03</ele>
        <time>2019-09-08T10:02:26Z</time>
      </trkpt>
      <trkpt lat="49.34015" lon="6.78884">
        <ele>214.03</ele>
        <time>2019-09-08T10:02:36Z</time>
      </trkpt>
      <trkpt lat="49.34021" lon="6.78891">
        <ele>214.51</ele>
        <time>2019-09-08T10:02:46Z</time>
      </trkpt>
      <trkpt lat="49.34027" lon="6.78897">
        <ele>215.47</ele>
        <time>2019-09-08T10:02:56Z</time>
      </trkpt>
      <trkpt lat="49.34032" lon="6.78904">
        <ele>215.47</ele>
        <time>2019-09-08T10:03:06Z</time>
      </trkpt>
      <trkpt lat="49.34038" lon="6.78911">
        <ele>215.95</ele>
        <time>2019-09-08T10:03:16Z</time>
      </trkpt>
      <trkpt lat="49.34044" lon="6.7892">
        <ele>216.43</ele>
        <time>2019-09-08T10:03:26Z</time>
      </trkpt>
      <trkpt lat="49.3405" lon="6.78928">
        <ele>216.91</ele>
        <time>2019-09-08T10:03:36Z</time>
      </trkpt>
      <trkpt lat="49.34056" lon="6.78937">
        <ele>216.91</ele>
        <time>2019-09-08T10:03:46Z</time>
      </trkpt>
      <trkpt lat="49.34062" lon="6.78944">
        <ele>216.91</ele>
        <time>2019-09-08T10:03:56Z</time>
      </trkpt>
      <trkpt lat="49.34068" lon="6.78952">
        <ele>216.91</ele>
        <time>2019-09-08T10:04:06Z</time>
      </trkpt>
      <trkpt lat="49.34073" lon="6.78961">
        <ele>216.91</ele>
        <time>2019-09-08T10:04:16Z</time>
      </trkpt>
      <trkpt lat="49.34079" lon="6.78969">
        <ele>217.4</ele>
        <time>2019-09-08T10:04:26Z</time>
      </trkpt>
      <trkpt lat="49.34085" lon="6.78977">
        <ele>217.4</ele>
        <time>2019-09-08T10:04:36Z</time>
      </trkpt>
      <trkpt lat="49.3409" lon="6.78986">
        <ele>217.4</ele>
        <time>2019-09-08T10:04:46Z</time>
      </trkpt>
      <trkpt lat="49.34096" lon="6.78994">
        <ele>217.4</ele>
        <time>2019-09-08T10:04:56Z</time>
      </trkpt>
      <trkpt lat="49.34102" lon="6.79002">
        <ele>217.4</ele>
        <time>2019-09-08T10:05:06Z</time>
      </trkpt>
      <trkpt lat="49.34108" lon="6.79011">
        <ele>217.4</ele>
        <time>2019-09-08T10:05:16Z</time>
      </trkpt>
      <trkpt lat="49.34114" lon="6.79018">
        <ele>217.88</ele>
        <time>2019-09-08T10:05:26Z</time>
      </trkpt>
      <trkpt lat="49.3412" lon="6.79026">
        <ele>217.88</ele>
        <time>2019-09-08T10:05:36Z</time>
      </trkpt>
      <trkpt lat="49.34127" lon="6.79032">
        <ele>217.88</ele>
        <time>2019-09-08T10:05:46Z</time>
      </trkpt>
      <trkpt lat="49.34133" lon="6.7904">
        <ele>217.88</ele>
        <time>2019-09-08T10:05:56Z</time>
      </trkpt>
      <trkpt lat="49.3414" lon="6.79048">
        <ele>217.88</ele>
        <time>2019-09-08T10:06:06Z</time>
      </trkpt>
      <trkpt lat="49.34146" lon="6.79056">
        <ele>217.88</ele>
        <time>2019-09-08T10:06:16Z</time>
      </trkpt>
      <trkpt lat="49.34151" lon="6.79064">
        <ele>217.88</ele>
        <time>2019-09-08T10:06:26Z</time>
      </trkpt>
      <trkpt lat="49.34157" lon="6.79074">
        <ele>218.36</ele>
        <time>2019-09-08T10:06:36Z</time>
      </trkpt>
      <trkpt lat="49.34162" lon="6.79083">
        <ele>218.36</ele>
        <time>2019-09-08T10:06:46Z</time>
      </trkpt>
      <trkpt lat="49.34168" lon="6.79092">
        <ele>218.84</ele>
        <time>2019-09-08T10:06:56Z</time>
      </trkpt>
      <trkpt lat="49.34174" lon="6.791">
        <ele>218.84</ele>
        <time>2019-09-08T10:07:06Z</time>
      </trkpt>
      <trkpt lat="49.34179" lon="6.79108">
        <ele>218.84</ele>
        <time>2019-09-08T10:07:16Z</time>
      </trkpt>
      <trkpt lat="49.34185" lon="6.79116">
        <ele>218.84</ele>
        <time>2019-09-08T10:07:26Z</time>
      </trkpt>
      <trkpt lat="49.34192" lon="6.79124">
        <ele>218.84</ele>
        <time>2019-09-08T10:07:36Z</time>
      </trkpt>
      <trkpt lat="49.34198" lon="6.79132">
        <ele>217.4</ele>
        <time>2019-09-08T10:07:46Z</time>
      </trkpt>
      <trkpt lat="49.34204" lon="6.7914">
        <ele>217.4</ele>
        <time>2019-09-08T10:07:56Z</time>
      </trkpt>
      <trkpt lat="49.34209" lon="6.79148">
        <ele>217.4</ele>
        <time>2019-09-08T10:08:06Z</time>
      </trkpt>
      <trkpt lat="49.34216" lon="6.79156">
        <ele>216.91</ele>
        <time>2019-09-08T10:08:16Z</time>
      </trkpt>
      <trkpt lat="49.34222" lon="6.79164">
        <ele>216.91</ele>
        <time>2019-09-08T10:08:26Z</time>
      </trkpt>
      <trkpt lat="49.34228" lon="6.79173">
        <ele>216.91</ele>
        <time>2019-09-08T10:08:36Z</time>
      </trkpt>
      <trkpt lat="49.34234" lon="6.79181">
        <ele>217.88</ele>
        <time>2019-09-08T10:08:46Z</time>
      </trkpt>
      <trkpt lat="49.3424" lon="6.79189">
        <ele>217.88</ele>
        <time>2019-09-08T10:08:56Z</time>
      </trkpt>
      <trkpt lat="49.34246" lon="6.79198">
        <ele>217.88</ele>
        <time>2019-09-08T10:09:06Z</time>
      </trkpt>
      <trkpt lat="49.34253" lon="6.79206">
        <ele>217.88</ele>
        <time>2019-09-08T10:09:16Z</time>
      </trkpt>
      <trkpt lat="49.34259" lon="6.79215">
        <ele>217.88</ele>
        <time>2019-09-08T10:09:26Z</time>
      </trkpt>
      <trkpt lat="49.34265" lon="6.79223">
        <ele>217.88</ele>
        <time>2019-09-08T10:09:36Z</time>
      </trkpt>
      <trkpt lat="49.34271" lon="6.79231">
        <ele>217.88</ele>
        <time>2019-09-08T10:09:46Z</time>
      </trkpt>
      <trkpt lat="49.34277" lon="6.7924">
        <ele>217.88</ele>
        <time>2019-09-08T10:09:56Z</time>
      </trkpt>
      <trkpt lat="49.34283" lon="6.79248">
        <ele>217.88</ele>
        <time>2019-09-08T10:10:06Z</time>
      </trkpt>
      <trkpt lat="49.34289" lon="6.79256">
        <ele>217.88</ele>
        <time>2019-09-08T10:10:16Z</time>
      </trkpt>
      <trkpt lat="49.34296" lon="6.79265">
        <ele>217.88</ele>
        <time>2019-09-08T10:10:26Z</time>
      </trkpt>
      <trkpt lat="49.34302" lon="6.79274">
        <ele>217.88</ele>
        <time>2019-09-08T10:10:36Z</time>
      </trkpt>
      <trkpt lat="49.34308" lon="6.79282">
        <ele>217.88</ele>
        <time>2019-09-08T10:10:46Z</time>
      </trkpt>
      <trkpt lat="49.34314" lon="6.79292">
        <ele>217.88</ele>
        <time>2019-09-08T10:10:56Z</time>
      </trkpt>
      <trkpt lat="49.3432" lon="6.79301">
        <ele>217.88</ele>
        <time>2019-09-08T10:11:06Z</time>
      </trkpt>
      <trkpt lat="49.34325" lon="6.79308">
        <ele>217.88</ele>
        <time>2019-09-08T10:11:16Z</time>
      </trkpt>
      <trkpt lat="49.34329" lon="6.79315">
        <ele>217.88</ele>
        <time>2019-09-08T10:11:26Z</time>
      </trkpt>
      <trkpt lat="49.34333" lon="6.79326">
        <ele>216.43</ele>
        <time>2019-09-08T10:11:36Z</time>
      </trkpt>
      <trkpt lat="49.34339" lon="6.79345">
        <ele>216.43</ele>
        <time>2019-09-08T10:11:46Z</time>
      </trkpt>
      <trkpt lat="49.34351" lon="6.79349">
        <ele>216.91</ele>
        <time>2019-09-08T10:11:56Z</time>
      </trkpt>
      <trkpt lat="49.34358" lon="6.79355">
        <ele>216.91</ele>
        <time>2019-09-08T10:12:06Z</time>
      </trkpt>
      <trkpt lat="49.34365" lon="6.7936">
        <ele>216.91</ele>
        <time>2019-09-08T10:12:16Z</time>
      </trkpt>
      <trkpt lat="49.34364" lon="6.79363">
        <ele>216.91</ele>
        <time>2019-09-08T10:12:26Z</time>
      </trkpt>
      <trkpt lat="49.34363" lon="6.79365">
        <ele>216.91</ele>
        <time>2019-09-08T10:12:36Z</time>
      </trkpt>
      <trkpt lat="49.34368" lon="6.79372">
        <ele>216.91</ele>
        <time>2019-09-08T10:12:46Z</time>
      </trkpt>
      <trkpt lat="49.34375" lon="6.7938">
        <ele>216.91</ele>
        <time>2019-09-08T10:12:56Z</time>
      </trkpt>
      <trkpt lat="49.34382" lon="6.79388">
        <ele>216.91</ele>
        <time>2019-09-08T10:13:06Z</time>
      </trkpt>
      <trkpt lat="49.34389" lon="6.79397">
        <ele>216.91</ele>
        <time>2019-09-08T10:13:16Z</time>
      </trkpt>
      <trkpt lat="49.34395" lon="6.79406">
        <ele>216.91</ele>
        <time>2019-09-08T10:13:26Z</time>
      </trkpt>
      <trkpt lat="49.34401" lon="6.79414">
        <ele>216.91</ele>
        <time>2019-09-08T10:13:36Z</time>
      </trkpt>
      <trkpt lat="49.34408" lon="6.79423">
        <ele>216.91</ele>
        <time>2019-09-08T10:13:46Z</time>
      </trkpt>
      <trkpt lat="49.34414" lon="6.79432">
        <ele>216.91</ele>
        <time>2019-09-08T10:13:56Z</time>
      </trkpt>
      <trkpt lat="49.34421" lon="6.7944">
        <ele>216.91</ele>
        <time>2019-09-08T10:14:06Z</time>
      </trkpt>
      <trkpt lat="49.34427" lon="6.79449">
        <ele>216.91</ele>
        <time>2019-09-08T10:14:16Z</time>
      </trkpt>
      <trkpt lat="49.34433" lon="6.79456">
        <ele>216.91</ele>
        <time>2019-09-08T10:14:26Z</time>
      </trkpt>
      <trkpt lat="49.34438" lon="6.79465">
        <ele>216.91</ele>
        <time>2019-09-08T10:14:36Z</time>
      </trkpt>
      <trkpt lat="49.34444" lon="6.79474">
        <ele>216.91</ele>
        <time>2019-09-08T10:14:46Z</time>
      </trkpt>
      <trkpt lat="49.34451" lon="6.79483">
        <ele>216.91</ele>
        <time>2019-09-08T10:14:56Z</time>
      </trkpt>
      <trkpt lat="49.34456" lon="6.79491">
        <ele>216.91</ele>
        <time>2019-09-08T10:15:06Z</time>
      </trkpt>
      <trkpt lat="49.34462" lon="6.79499">
        <ele>216.91</ele>
        <time>2019-09-08T10:15:16Z</time>
      </trkpt>
      <trkpt lat="49.34468" lon="6.79508">
        <ele>216.91</ele>
        <time>2019-09-08T10:15:26Z</time>
      </trkpt>
      <trkpt lat="49.34474" lon="6.79516">
        <ele>216.91</ele>
        <time>2019-09-08T10:15:36Z</time>
      </trkpt>
      <trkpt lat="49.3448" lon="6.79524">
        <ele>216.91</ele>
        <time>2019-09-08T10:15:46Z</time>
      </trkpt>
      <trkpt lat="49.34486" lon="6.79534">
        <ele>216.91</ele>
        <time>2019-09-08T10:15:56Z</time>
      </trkpt>
      <trkpt lat="49.34492" lon="6.79543">
        <ele>216.91</ele>
        <time>2019-09-08T10:16:06Z</time>
      </trkpt>
      <trkpt lat="49.34498" lon="6.79553">
        <ele>216.43</ele>
        <time>2019-09-08T10:16:16Z</time>
      </trkpt>
      <trkpt lat="49.34504" lon="6.79562">
        <ele>216.43</ele>
        <time>2019-09-08T10:16:26Z</time>
      </trkpt>
      <trkpt lat="49.3451" lon="6.7957">
        <ele>216.43</ele>
        <time>2019-09-08T10:16:36Z</time>
      </trkpt>
      <trkpt lat="49.34516" lon="6.79579">
        <ele>216.43</ele>
        <time>2019-09-08T10:16:46Z</time>
      </trkpt>
      <trkpt lat="49.34521" lon="6.79588">
        <ele>216.43</ele>
        <time>2019-09-08T10:16:56Z</time>
      </trkpt>
      <trkpt lat="49.34527" lon="6.79597">
        <ele>216.43</ele>
        <time>2019-09-08T10:17:06Z</time>
      </trkpt>
      <trkpt lat="49.34533" lon="6.79605">
        <ele>216.43</ele>
        <time>2019-09-08T10:17:16Z</time>
      </trkpt>
      <trkpt lat="49.34539" lon="6.79614">
        <ele>216.43</ele>
        <time>2019-09-08T10:17:26Z</time>
      </trkpt>
      <trkpt lat="49.34545" lon="6.79622">
        <ele>216.43</ele>
        <time>2019-09-08T10:17:36Z</time>
      </trkpt>
      <trkpt lat="49.34551" lon="6.79631">
        <ele>216.43</ele>
        <time>2019-09-08T10:17:46Z</time>
      </trkpt>
      <trkpt lat="49.34556" lon="6.79639">
        <ele>216.43</ele>
        <time>2019-09-08T10:17:56Z</time>
      </trkpt>
      <trkpt lat="49.34562" lon="6.79648">
        <ele>216.43</ele>
        <time>2019-09-08T10:18:06Z</time>
      </trkpt>
      <trkpt lat="49.34568" lon="6.79658">
        <ele>216.43</ele>
        <time>2019-09-08T10:18:16Z</time>
      </trkpt>
      <trkpt lat="49.34573" lon="6.79665">
        <ele>216.43</ele>
        <time>2019-09-08T10:18:26Z</time>
      </trkpt>
      <trkpt lat="49.34579" lon="6.79674">
        <ele>216.43</ele>
        <time>2019-09-08T10:18:36Z</time>
      </trkpt>
      <trkpt lat="49.34585" lon="6.79683">
        <ele>216.43</ele>
        <time>2019-09-08T10:18:46Z</time>
      </trkpt>
      <trkpt lat="49.34592" lon="6.79689">
        <ele>217.4</ele>
        <time>2019-09-08T10:18:56Z</time>
      </trkpt>
      <trkpt lat="49.34598" lon="6.79696">
        <ele>217.4</ele>
        <time>2019-09-08T10:19:06Z</time>
      </trkpt>
      <trkpt lat="49.34604" lon="6.79706">
        <ele>217.4</ele>
        <time>2019-09-08T10:19:16Z</time>
      </trkpt>
      <trkpt lat="49.34609" lon="6.79717">
        <ele>217.4</ele>
        <time>2019-09-08T10:19:26Z</time>
      </trkpt>
      <trkpt lat="49.34614" lon="6.79727">
        <ele>217.4</ele>
        <time>2019-09-08T10:19:36Z</time>
      </trkpt>
      <trkpt lat="49.3462" lon="6.79736">
        <ele>217.88</ele>
        <time>2019-09-08T10:19:46Z</time>
      </trkpt>
      <trkpt lat="49.34626" lon="6.79745">
        <ele>217.88</ele>
        <time>2019-09-08T10:19:56Z</time>
      </trkpt>
      <trkpt lat="49.34632" lon="6.79754">
        <ele>217.88</ele>
        <time>2019-09-08T10:20:06Z</time>
      </trkpt>
      <trkpt lat="49.34637" lon="6.79763">
        <ele>217.88</ele>
        <time>2019-09-08T10:20:16Z</time>
      </trkpt>
      <trkpt lat="49.34644" lon="6.79771">
        <ele>217.88</ele>
        <time>2019-09-08T10:20:26Z</time>
      </trkpt>
      <trkpt lat="49.3465" lon="6.79779">
        <ele>217.88</ele>
        <time>2019-09-08T10:20:36Z</time>
      </trkpt>
      <trkpt lat="49.34654" lon="6.79789">
        <ele>217.88</ele>
        <time>2019-09-08T10:20:46Z</time>
      </trkpt>
      <trkpt lat="49.34659" lon="6.79797">
        <ele>217.88</ele>
        <time>2019-09-08T10:20:56Z</time>
      </trkpt>
      <trkpt lat="49.34665" lon="6.79807">
        <ele>217.88</ele>
        <time>2019-09-08T10:21:06Z</time>
      </trkpt>
      <trkpt lat="49.3467" lon="6.79815">
        <ele>217.88</ele>
        <time>2019-09-08T10:21:16Z</time>
      </trkpt>
      <trkpt lat="49.34671" lon="6.79818">
        <ele>217.88</ele>
        <time>2019-09-08T10:21:26Z</time>
      </trkpt>
      <trkpt lat="49.3467" lon="6.7982">
        <ele>217.88</ele>
        <time>2019-09-08T10:21:36Z</time>
      </trkpt>
      <trkpt lat="49.34675" lon="6.79827">
        <ele>217.88</ele>
        <time>2019-09-08T10:21:46Z</time>
      </trkpt>
      <trkpt lat="49.3468" lon="6.79836">
        <ele>217.88</ele>
        <time>2019-09-08T10:21:56Z</time>
      </trkpt>
      <trkpt lat="49.34679" lon="6.79836">
        <ele>217.88</ele>
        <time>2019-09-08T10:22:06Z</time>
      </trkpt>
      <trkpt lat="49.34681" lon="6.79839">
        <ele>217.88</ele>
        <time>2019-09-08T10:22:16Z</time>
      </trkpt>
      <trkpt lat="49.34683" lon="6.79842">
        <ele>217.88</ele>
        <time>2019-09-08T10:22:26Z</time>
      </trkpt>
      <trkpt lat="49.34676" lon="6.79845">
        <ele>217.88</ele>
        <time>2019-09-08T10:22:36Z</time>
      </trkpt>
      <trkpt lat="49.3467" lon="6.79853">
        <ele>217.88</ele>
        <time>2019-09-08T10:22:46Z</time>
      </trkpt>
      <trkpt lat="49.34664" lon="6.79858">
        <ele>217.88</ele>
        <time>2019-09-08T10:22:56Z</time>
      </trkpt>
      <trkpt lat="49.34657" lon="6.79862">
        <ele>217.88</ele>
        <time>2019-09-08T10:23:06Z</time>
      </trkpt>
      <trkpt lat="49.34653" lon="6.79859">
        <ele>217.88</ele>
        <time>2019-09-08T10:23:16Z</time>
      </trkpt>
      <trkpt lat="49.34654" lon="6.79862">
        <ele>217.88</ele>
        <time>2019-09-08T10:23:26Z</time>
      </trkpt>
      <trkpt lat="49.34653" lon="6.79866">
        <ele>217.88</ele>
        <time>2019-09-08T10:23:36Z</time>
      </trkpt>
      <trkpt lat="49.34653" lon="6.79868">
        <ele>217.88</ele>
        <time>2019-09-08T10:23:46Z</time>
      </trkpt>
      <trkpt lat="49.34654" lon="6.79869">
        <ele>217.88</ele>
        <time>2019-09-08T10:23:56Z</time>
      </trkpt>
      <trkpt lat="49.34655" lon="6.79872">
        <ele>217.88</ele>
        <time>2019-09-08T10:24:06Z</time>
      </trkpt>
      <trkpt lat="49.34655" lon="6.79872">
        <ele>217.88</ele>
        <time>2019-09-08T10:24:16Z</time>
      </trkpt>
      <trkpt lat="49.34656" lon="6.79869">
        <ele>218.36</ele>
        <time>2019-09-08T10:24:26Z</time>
      </trkpt>
      <trkpt lat="49.34662" lon="6.79864">
        <ele>218.36</ele>
        <time>2019-09-08T10:24:36Z</time>
      </trkpt>
      <trkpt lat="49.3467" lon="6.79863">
        <ele>218.36</ele>
        <time>2019-09-08T10:24:46Z</time>
      </trkpt>
      <trkpt lat="49.34677" lon="6.79855">
        <ele>218.36</ele>
        <time>2019-09-08T10:24:56Z</time>
      </trkpt>
      <trkpt lat="49.34684" lon="6.79854">
        <ele>218.36</ele>
        <time>2019-09-08T10:25:06Z</time>
      </trkpt>
      <trkpt lat="49.34687" lon="6.79862">
        <ele>218.36</ele>
        <time>2019-09-08T10:25:16Z</time>
      </trkpt>
      <trkpt lat="49.3469" lon="6.79875">
        <ele>217.4</ele>
        <time>2019-09-08T10:25:26Z</time>
      </trkpt>
      <trkpt lat="49.34694" lon="6.79889">
        <ele>217.4</ele>
        <time>2019-09-08T10:25:36Z</time>
      </trkpt>
      <trkpt lat="49.34699" lon="6.79902">
        <ele>216.91</ele>
        <time>2019-09-08T10:25:46Z</time>
      </trkpt>
      <trkpt lat="49.34703" lon="6.79914">
        <ele>216.91</ele>
        <time>2019-09-08T10:25:56Z</time>
      </trkpt>
      <trkpt lat="49.34705" lon="6.79916">
        <ele>216.91</ele>
        <time>2019-09-08T10:26:06Z</time>
      </trkpt>
      <trkpt lat="49.3471" lon="6.79928">
        <ele>216.43</ele>
        <time>2019-09-08T10:26:16Z</time>
      </trkpt>
      <trkpt lat="49.34714" lon="6.79941">
        <ele>216.43</ele>
        <time>2019-09-08T10:26:26Z</time>
      </trkpt>
      <trkpt lat="49.34719" lon="6.79954">
        <ele>215.95</ele>
        <time>2019-09-08T10:26:36Z</time>
      </trkpt>
      <trkpt lat="49.34724" lon="6.79965">
        <ele>215.47</ele>
        <time>2019-09-08T10:26:46Z</time>
      </trkpt>
      <trkpt lat="49.34728" lon="6.79978">
        <ele>214.99</ele>
        <time>2019-09-08T10:26:56Z</time>
      </trkpt>
      <trkpt lat="49.34733" lon="6.7999">
        <ele>214.99</ele>
        <time>2019-09-08T10:27:06Z</time>
      </trkpt>
      <trkpt lat="49.34737" lon="6.80001">
        <ele>214.51</ele>
        <time>2019-09-08T10:27:16Z</time>
      </trkpt>
      <trkpt lat="49.34741" lon="6.80012">
        <ele>214.03</ele>
        <time>2019-09-08T10:27:26Z</time>
      </trkpt>
      <trkpt lat="49.34746" lon="6.80024">
        <ele>214.03</ele>
        <time>2019-09-08T10:27:36Z</time>
      </trkpt>
      <trkpt lat="49.3475" lon="6.80036">
        <ele>213.55</ele>
        <time>2019-09-08T10:27:46Z</time>
      </trkpt>
      <trkpt lat="49.34755" lon="6.80048">
        <ele>213.55</ele>
        <time>2019-09-08T10:27:56Z</time>
      </trkpt>
      <trkpt lat="49.3476" lon="6.80059">
        <ele>213.55</ele>
        <time>2019-09-08T10:28:06Z</time>
      </trkpt>
      <trkpt lat="49.34764" lon="6.80071">
        <ele>213.07</ele>
        <time>2019-09-08T10:28:16Z</time>
      </trkpt>
      <trkpt lat="49.34768" lon="6.80083">
        <ele>212.59</ele>
        <time>2019-09-08T10:28:26Z</time>
      </trkpt>
      <trkpt lat="49.34773" lon="6.80094">
        <ele>212.59</ele>
        <time>2019-09-08T10:28:36Z</time>
      </trkpt>
      <trkpt lat="49.34778" lon="6.80106">
        <ele>212.11</ele>
        <time>2019-09-08T10:28:46Z</time>
      </trkpt>
      <trkpt lat="49.34781" lon="6.80118">
        <ele>212.11</ele>
        <time>2019-09-08T10:28:56Z</time>
      </trkpt>
      <trkpt lat="49.34782" lon="6.80126">
        <ele>212.11</ele>
        <time>2019-09-08T10:29:06Z</time>
      </trkpt>
      <trkpt lat="49.34787" lon="6.80138">
        <ele>211.63</ele>
        <time>2019-09-08T10:29:16Z</time>
      </trkpt>
      <trkpt lat="49.34792" lon="6.80149">
        <ele>211.15</ele>
        <time>2019-09-08T10:29:26Z</time>
      </trkpt>
      <trkpt lat="49.34798" lon="6.80161">
        <ele>211.15</ele>
        <time>2019-09-08T10:29:36Z</time>
      </trkpt>
      <trkpt lat="49.34803" lon="6.80174">
        <ele>210.67</ele>
        <time>2019-09-08T10:29:46Z</time>
      </trkpt>
      <trkpt lat="49.34804" lon="6.80177">
        <ele>210.19</ele>
        <time>2019-09-08T10:29:56Z</time>
      </trkpt>
      <trkpt lat="49.34806" lon="6.80181">
        <ele>209.22</ele>
        <time>2019-09-08T10:30:06Z</time>
      </trkpt>
      <trkpt lat="49.3481" lon="6.80193">
        <ele>209.22</ele>
        <time>2019-09-08T10:30:16Z</time>
      </trkpt>
      <trkpt lat="49.34816" lon="6.80205">
        <ele>209.22</ele>
        <time>2019-09-08T10:30:26Z</time>
      </trkpt>
      <trkpt lat="49.3482" lon="6.80217">
        <ele>208.74</ele>
        <time>2019-09-08T10:30:36Z</time>
      </trkpt>
      <trkpt lat="49.34826" lon="6.80227">
        <ele>208.26</ele>
        <time>2019-09-08T10:30:46Z</time>
      </trkpt>
      <trkpt lat="49.34832" lon="6.80238">
        <ele>207.78</ele>
        <time>2019-09-08T10:30:56Z</time>
      </trkpt>
      <trkpt lat="49.34837" lon="6.80248">
        <ele>207.3</ele>
        <time>2019-09-08T10:31:06Z</time>
      </trkpt>
      <trkpt lat="49.34842" lon="6.8026">
        <ele>206.34</ele>
        <time>2019-09-08T10:31:16Z</time>
      </trkpt>
      <trkpt lat="49.34847" lon="6.8027">
        <ele>206.34</ele>
        <time>2019-09-08T10:31:26Z</time>
      </trkpt>
      <trkpt lat="49.34854" lon="6.8028">
        <ele>206.34</ele>
        <time>2019-09-08T10:31:36Z</time>
      </trkpt>
      <trkpt lat="49.34861" lon="6.8029">
        <ele>204.9</ele>
        <time>2019-09-08T10:31:46Z</time>
      </trkpt>
      <trkpt lat="49.34866" lon="6.80301">
        <ele>204.9</ele>
        <time>2019-09-08T10:31:56Z</time>
      </trkpt>
      <trkpt lat="49.34873" lon="6.80308">
        <ele>204.42</ele>
        <time>2019-09-08T10:32:06Z</time>
      </trkpt>
      <trkpt lat="49.3488" lon="6.80316">
        <ele>204.42</ele>
        <time>2019-09-08T10:32:16Z</time>
      </trkpt>
      <trkpt lat="49.34886" lon="6.8032">
        <ele>203.94</ele>
        <time>2019-09-08T10:32:26Z</time>
      </trkpt>
      <trkpt lat="49.34892" lon="6.80326">
        <ele>203.94</ele>
        <time>2019-09-08T10:32:36Z</time>
      </trkpt>
      <trkpt lat="49.34901" lon="6.80329">
        <ele>202.98</ele>
        <time>2019-09-08T10:32:46Z</time>
      </trkpt>
      <trkpt lat="49.34909" lon="6.80333">
        <ele>202.98</ele>
        <time>2019-09-08T10:32:56Z</time>
      </trkpt>
      <trkpt lat="49.34919" lon="6.80336">
        <ele>202.98</ele>
        <time>2019-09-08T10:33:06Z</time>
      </trkpt>
      <trkpt lat="49.34926" lon="6.80339">
        <ele>202.49</ele>
        <time>2019-09-08T10:33:16Z</time>
      </trkpt>
      <trkpt lat="49.34934" lon="6.80344">
        <ele>202.49</ele>
        <time>2019-09-08T10:33:26Z</time>
      </trkpt>
      <trkpt lat="49.34942" lon="6.8035">
        <ele>202.49</ele>
        <time>2019-09-08T10:33:36Z</time>
      </trkpt>
      <trkpt lat="49.34949" lon="6.80354">
        <ele>202.49</ele>
        <time>2019-09-08T10:33:46Z</time>
      </trkpt>
      <trkpt lat="49.34957" lon="6.80359">
        <ele>202.01</ele>
        <time>2019-09-08T10:33:56Z</time>
      </trkpt>
      <trkpt lat="49.34965" lon="6.80364">
        <ele>202.01</ele>
        <time>2019-09-08T10:34:06Z</time>
      </trkpt>
      <trkpt lat="49.34971" lon="6.80368">
        <ele>202.01</ele>
        <time>2019-09-08T10:34:16Z</time>
      </trkpt>
      <trkpt lat="49.34979" lon="6.8037">
        <ele>202.01</ele>
        <time>2019-09-08T10:34:26Z</time>
      </trkpt>
      <trkpt lat="49.34988" lon="6.80374">
        <ele>202.01</ele>
        <time>2019-09-08T10:34:36Z</time>
      </trkpt>
      <trkpt lat="49.34997" lon="6.80378">
        <ele>202.01</ele>
        <time>2019-09-08T10:34:46Z</time>
      </trkpt>
      <trkpt lat="49.35003" lon="6.80382">
        <ele>202.01</ele>
        <time>2019-09-08T10:34:56Z</time>
      </trkpt>
      <trkpt lat="49.35006" lon="6.80383">
        <ele>202.01</ele>
        <time>2019-09-08T10:35:06Z</time>
      </trkpt>
      <trkpt lat="49.3501" lon="6.80386">
        <ele>202.01</ele>
        <time>2019-09-08T10:35:16Z</time>
      </trkpt>
      <trkpt lat="49.35013" lon="6.80375">
        <ele>202.01</ele>
        <time>2019-09-08T10:35:26Z</time>
      </trkpt>
      <trkpt lat="49.35019" lon="6.80368">
        <ele>202.01</ele>
        <time>2019-09-08T10:35:36Z</time>
      </trkpt>
      <trkpt lat="49.35023" lon="6.80362">
        <ele>202.01</ele>
        <time>2019-09-08T10:35:46Z</time>
      </trkpt>
      <trkpt lat="49.35023" lon="6.80362">
        <ele>202.01</ele>
        <time>2019-09-08T10:35:56Z</time>
      </trkpt>
      <trkpt lat="49.35024" lon="6.80356">
        <ele>202.01</ele>
        <time>2019-09-08T10:36:06Z</time>
      </trkpt>
      <trkpt lat="49.3503" lon="6.80359">
        <ele>202.01</ele>
        <time>2019-09-08T10:36:16Z</time>
      </trkpt>
      <trkpt lat="49.35025" lon="6.80374">
        <ele>202.01</ele>
        <time>2019-09-08T10:36:26Z</time>
      </trkpt>
      <trkpt lat="49.35031" lon="6.80367">
        <ele>201.53</ele>
        <time>2019-09-08T10:36:36Z</time>
      </trkpt>
      <trkpt lat="49.35032" lon="6.80357">
        <ele>201.53</ele>
        <time>2019-09-08T10:36:46Z</time>
      </trkpt>
      <trkpt lat="49.3503" lon="6.80357">
        <ele>201.53</ele>
        <time>2019-09-08T10:36:56Z</time>
      </trkpt>
      <trkpt lat="49.35029" lon="6.80355">
        <ele>201.53</ele>
        <time>2019-09-08T10:37:06Z</time>
      </trkpt>
      <trkpt lat="49.35031" lon="6.80355">
        <ele>201.53</ele>
        <time>2019-09-08T10:37:16Z</time>
      </trkpt>
      <trkpt lat="49.35031" lon="6.80356">
        <ele>201.53</ele>
        <time>2019-09-08T10:37:26Z</time>
      </trkpt>
      <trkpt lat="49.35033" lon="6.80356">
        <ele>201.53</ele>
        <time>2019-09-08T10:37:36Z</time>
      </trkpt>
      <trkpt lat="49.35033" lon="6.80358">
        <ele>201.53</ele>
        <time>2019-09-08T10:37:46Z</time>
      </trkpt>
      <trkpt lat="49.35034" lon="6.8036">
        <ele>201.53</ele>
        <time>2019-09-08T10:37:56Z</time>
      </trkpt>
      <trkpt lat="49.35033" lon="6.80361">
        <ele>201.53</ele>
        <time>2019-09-08T10:38:06Z</time>
      </trkpt>
      <trkpt lat="49.35031" lon="6.80363">
        <ele>201.53</ele>
        <time>2019-09-08T10:38:16Z</time>
      </trkpt>
      <trkpt lat="49.3503" lon="6.80363">
        <ele>201.53</ele>
        <time>2019-09-08T10:38:26Z</time>
      </trkpt>
      <trkpt lat="49.35027" lon="6.80366">
        <ele>201.53</ele>
        <time>2019-09-08T10:38:36Z</time>
      </trkpt>
      <trkpt lat="49.35024" lon="6.80363">
        <ele>201.53</ele>
        <time>2019-09-08T10:38:46Z</time>
      </trkpt>
      <trkpt lat="49.35023" lon="6.8036">
        <ele>201.53</ele>
        <time>2019-09-08T10:38:56Z</time>
      </trkpt>
      <trkpt lat="49.35026" lon="6.80361">
        <ele>201.53</ele>
        <time>2019-09-08T10:39:06Z</time>
      </trkpt>
      <trkpt lat="49.35029" lon="6.80366">
        <ele>201.05</ele>
        <time>2019-09-08T10:39:16Z</time>
      </trkpt>
      <trkpt lat="49.35029" lon="6.80357">
        <ele>200.57</ele>
        <time>2019-09-08T10:39:26Z</time>
      </trkpt>
      <trkpt lat="49.35029" lon="6.80353">
        <ele>200.57</ele>
        <time>2019-09-08T10:39:36Z</time>
      </trkpt>
      <trkpt lat="49.35029" lon="6.80353">
        <ele>200.57</ele>
        <time>2019-09-08T10:39:46Z</time>
      </trkpt>
      <trkpt lat="49.35028" lon="6.80354">
        <ele>202.01</ele>
        <time>2019-09-08T10:39:56Z</time>
      </trkpt>
      <trkpt lat="49.35028" lon="6.80354">
        <ele>202.01</ele>
        <time>2019-09-08T10:40:06Z</time>
      </trkpt>
      <trkpt lat="49.35031" lon="6.80354">
        <ele>201.53</ele>
        <time>2019-09-08T10:40:16Z</time>
      </trkpt>
      <trkpt lat="49.35029" lon="6.80355">
        <ele>201.53</ele>
        <time>2019-09-08T10:40:26Z</time>
      </trkpt>
      <trkpt lat="49.35029" lon="6.80358">
        <ele>201.53</ele>
        <time>2019-09-08T10:40:36Z</time>
      </trkpt>
      <trkpt lat="49.3503" lon="6.80356">
        <ele>201.05</ele>
        <time>2019-09-08T10:40:46Z</time>
      </trkpt>
      <trkpt lat="49.35027" lon="6.80356">
        <ele>201.05</ele>
        <time>2019-09-08T10:40:56Z</time>
      </trkpt>
      <trkpt lat="49.35027" lon="6.80356">
        <ele>201.05</ele>
        <time>2019-09-08T10:41:06Z</time>
      </trkpt>
      <trkpt lat="49.35028" lon="6.80356">
        <ele>201.05</ele>
        <time>2019-09-08T10:41:16Z</time>
      </trkpt>
      <trkpt lat="49.35029" lon="6.80354">
        <ele>201.05</ele>
        <time>2019-09-08T10:41:26Z</time>
      </trkpt>
      <trkpt lat="49.35028" lon="6.80353">
        <ele>201.05</ele>
        <time>2019-09-08T10:41:36Z</time>
      </trkpt>
      <trkpt lat="49.35026" lon="6.80353">
        <ele>201.05</ele>
        <time>2019-09-08T10:41:46Z</time>
      </trkpt>
      <trkpt lat="49.35027" lon="6.80351">
        <ele>201.05</ele>
        <time>2019-09-08T10:41:56Z</time>
      </trkpt>
      <trkpt lat="49.35028" lon="6.80355">
        <ele>201.05</ele>
        <time>2019-09-08T10:42:06Z</time>
      </trkpt>
      <trkpt lat="49.35028" lon="6.80355">
        <ele>201.05</ele>
        <time>2019-09-08T10:42:16Z</time>
      </trkpt>
      <trkpt lat="49.35029" lon="6.80355">
        <ele>201.05</ele>
        <time>2019-09-08T10:42:26Z</time>
      </trkpt>
      <trkpt lat="49.35029" lon="6.80355">
        <ele>201.05</ele>
        <time>2019-09-08T10:42:36Z</time>
      </trkpt>
      <trkpt lat="49.35029" lon="6.80356">
        <ele>202.01</ele>
        <time>2019-09-08T10:42:46Z</time>
      </trkpt>
      <trkpt lat="49.3503" lon="6.80357">
        <ele>202.01</ele>
        <time>2019-09-08T10:42:56Z</time>
      </trkpt>
      <trkpt lat="49.35031" lon="6.80357">
        <ele>202.01</ele>
        <time>2019-09-08T10:43:06Z</time>
      </trkpt>
      <trkpt lat="49.35031" lon="6.80356">
        <ele>202.01</ele>
        <time>2019-09-08T10:43:16Z</time>
      </trkpt>
      <trkpt lat="49.3503" lon="6.80357">
        <ele>202.01</ele>
        <time>2019-09-08T10:43:26Z</time>
      </trkpt>
      <trkpt lat="49.35029" lon="6.80358">
        <ele>202.01</ele>
        <time>2019-09-08T10:43:36Z</time>
      </trkpt>
      <trkpt lat="49.3503" lon="6.80357">
        <ele>202.01</ele>
        <time>2019-09-08T10:43:46Z</time>
      </trkpt>
      <trkpt lat="49.35031" lon="6.80357">
        <ele>202.01</ele>
        <time>2019-09-08T10:43:56Z</time>
      </trkpt>
      <trkpt lat="49.35031" lon="6.80356">
        <ele>202.01</ele>
        <time>2019-09-08T10:44:06Z</time>
      </trkpt>
      <trkpt lat="49.35031" lon="6.80356">
        <ele>202.01</ele>
        <time>2019-09-08T10:44:16Z</time>
      </trkpt>
      <trkpt lat="49.35033" lon="6.80356">
        <ele>202.49</ele>
        <time>2019-09-08T10:44:26Z</time>
      </trkpt>
      <trkpt lat="49.35033" lon="6.80356">
        <ele>202.01</ele>
        <time>2019-09-08T10:44:36Z</time>
      </trkpt>
      <trkpt lat="49.35032" lon="6.80352">
        <ele>202.01</ele>
        <time>2019-09-08T10:44:46Z</time>
      </trkpt>
      <trkpt lat="49.35033" lon="6.80352">
        <ele>202.01</ele>
        <time>2019-09-08T10:44:56Z</time>
      </trkpt>
      <trkpt lat="49.35034" lon="6.80355">
        <ele>202.01</ele>
        <time>2019-09-08T10:45:06Z</time>
      </trkpt>
      <trkpt lat="49.35034" lon="6.80352">
        <ele>202.01</ele>
        <time>2019-09-08T10:45:16Z</time>
      </trkpt>
      <trkpt lat="49.35033" lon="6.80352">
        <ele>202.01</ele>
        <time>2019-09-08T10:45:26Z</time>
      </trkpt>
      <trkpt lat="49.35035" lon="6.80354">
        <ele>202.01</ele>
        <time>2019-09-08T10:45:36Z</time>
      </trkpt>
      <trkpt lat="49.35034" lon="6.80358">
        <ele>202.01</ele>
        <time>2019-09-08T10:45:46Z</time>
      </trkpt>
      <trkpt lat="49.35035" lon="6.80359">
        <ele>202.01</ele>
        <time>2019-09-08T10:45:56Z</time>
      </trkpt>
      <trkpt lat="49.35037" lon="6.80366">
        <ele>202.01</ele>
        <time>2019-09-08T10:46:06Z</time>
      </trkpt>
      <trkpt lat="49.35037" lon="6.80375">
        <ele>202.01</ele>
        <time>2019-09-08T10:46:16Z</time>
      </trkpt>
      <trkpt lat="49.35038" lon="6.80386">
        <ele>202.01</ele>
        <time>2019-09-08T10:46:26Z</time>
      </trkpt>
      <trkpt lat="49.35043" lon="6.80393">
        <ele>202.01</ele>
        <time>2019-09-08T10:46:36Z</time>
      </trkpt>
      <trkpt lat="49.35049" lon="6.80396">
        <ele>202.01</ele>
        <time>2019-09-08T10:46:46Z</time>
      </trkpt>
      <trkpt lat="49.35057" lon="6.80399">
        <ele>202.01</ele>
        <time>2019-09-08T10:46:56Z</time>
      </trkpt>
      <trkpt lat="49.35063" lon="6.80403">
        <ele>200.57</ele>
        <time>2019-09-08T10:47:06Z</time>
      </trkpt>
      <trkpt lat="49.3507" lon="6.80407">
        <ele>200.57</ele>
        <time>2019-09-08T10:47:16Z</time>
      </trkpt>
      <trkpt lat="49.35077" lon="6.80412">
        <ele>200.57</ele>
        <time>2019-09-08T10:47:26Z</time>
      </trkpt>
      <trkpt lat="49.35084" lon="6.80417">
        <ele>200.57</ele>
        <time>2019-09-08T10:47:36Z</time>
      </trkpt>
      <trkpt lat="49.35091" lon="6.80422">
        <ele>200.57</ele>
        <time>2019-09-08T10:47:46Z</time>
      </trkpt>
      <trkpt lat="49.35099" lon="6.80429">
        <ele>200.57</ele>
        <time>2019-09-08T10:47:56Z</time>
      </trkpt>
      <trkpt lat="49.35107" lon="6.80432">
        <ele>200.57</ele>
        <time>2019-09-08T10:48:06Z</time>
      </trkpt>
      <trkpt lat="49.35114" lon="6.80436">
        <ele>200.57</ele>
        <time>2019-09-08T10:48:16Z</time>
      </trkpt>
      <trkpt lat="49.35122" lon="6.80442">
        <ele>200.57</ele>
        <time>2019-09-08T10:48:26Z</time>
      </trkpt>
      <trkpt lat="49.35129" lon="6.80446">
        <ele>200.57</ele>
        <time>2019-09-08T10:48:36Z</time>
      </trkpt>
      <trkpt lat="49.35135" lon="6.80452">
        <ele>200.57</ele>
        <time>2019-09-08T10:48:46Z</time>
      </trkpt>
      <trkpt lat="49.35142" lon="6.80457">
        <ele>200.57</ele>
        <time>2019-09-08T10:48:56Z</time>
      </trkpt>
      <trkpt lat="49.35149" lon="6.8046">
        <ele>200.57</ele>
        <time>2019-09-08T10:49:06Z</time>
      </trkpt>
      <trkpt lat="49.35159" lon="6.80464">
        <ele>200.57</ele>
        <time>2019-09-08T10:49:16Z</time>
      </trkpt>
      <trkpt lat="49.35166" lon="6.80469">
        <ele>200.57</ele>
        <time>2019-09-08T10:49:26Z</time>
      </trkpt>
      <trkpt lat="49.35174" lon="6.80474">
        <ele>200.57</ele>
        <time>2019-09-08T10:49:36Z</time>
      </trkpt>
      <trkpt lat="49.35181" lon="6.8048">
        <ele>200.57</ele>
        <time>2019-09-08T10:49:46Z</time>
      </trkpt>
      <trkpt lat="49.35188" lon="6.80484">
        <ele>200.57</ele>
        <time>2019-09-08T10:49:56Z</time>
      </trkpt>
      <trkpt lat="49.35197" lon="6.80488">
        <ele>200.57</ele>
        <time>2019-09-08T10:50:06Z</time>
      </trkpt>
      <trkpt lat="49.35205" lon="6.80494">
        <ele>202.01</ele>
        <time>2019-09-08T10:50:16Z</time>
      </trkpt>
      <trkpt lat="49.35213" lon="6.80499">
        <ele>202.01</ele>
        <time>2019-09-08T10:50:26Z</time>
      </trkpt>
      <trkpt lat="49.35219" lon="6.80504">
        <ele>202.01</ele>
        <time>2019-09-08T10:50:36Z</time>
      </trkpt>
      <trkpt lat="49.35223" lon="6.8051">
        <ele>202.49</ele>
        <time>2019-09-08T10:50:46Z</time>
      </trkpt>
      <trkpt lat="49.35224" lon="6.80511">
        <ele>202.49</ele>
        <time>2019-09-08T10:50:56Z</time>
      </trkpt>
      <trkpt lat="49.35224" lon="6.80512">
        <ele>202.49</ele>
        <time>2019-09-08T10:51:06Z</time>
      </trkpt>
      <trkpt lat="49.35224" lon="6.80518">
        <ele>202.49</ele>
        <time>2019-09-08T10:51:16Z</time>
      </trkpt>
      <trkpt lat="49.35226" lon="6.80518">
        <ele>202.49</ele>
        <time>2019-09-08T10:51:26Z</time>
      </trkpt>
      <trkpt lat="49.35225" lon="6.80515">
        <ele>202.49</ele>
        <time>2019-09-08T10:51:36Z</time>
      </trkpt>
      <trkpt lat="49.35224" lon="6.80516">
        <ele>202.49</ele>
        <time>2019-09-08T10:51:46Z</time>
      </trkpt>
      <trkpt lat="49.35223" lon="6.80514">
        <ele>202.49</ele>
        <time>2019-09-08T10:51:56Z</time>
      </trkpt>
      <trkpt lat="49.35223" lon="6.80515">
        <ele>202.49</ele>
        <time>2019-09-08T10:52:06Z</time>
      </trkpt>
      <trkpt lat="49.35224" lon="6.80515">
        <ele>202.98</ele>
        <time>2019-09-08T10:52:16Z</time>
      </trkpt>
      <trkpt lat="49.35224" lon="6.80515">
        <ele>202.98</ele>
        <time>2019-09-08T10:52:26Z</time>
      </trkpt>
      <trkpt lat="49.35223" lon="6.80515">
        <ele>202.98</ele>
        <time>2019-09-08T10:52:36Z</time>
      </trkpt>
      <trkpt lat="49.35225" lon="6.80514">
        <ele>202.98</ele>
        <time>2019-09-08T10:52:46Z</time>
      </trkpt>
      <trkpt lat="49.35224" lon="6.80516">
        <ele>202.98</ele>
        <time>2019-09-08T10:52:56Z</time>
      </trkpt>
      <trkpt lat="49.35222" lon="6.80513">
        <ele>202.98</ele>
        <time>2019-09-08T10:53:06Z</time>
      </trkpt>
      <trkpt lat="49.35219" lon="6.80512">
        <ele>203.46</ele>
        <time>2019-09-08T10:53:16Z</time>
      </trkpt>
      <trkpt lat="49.35217" lon="6.8051">
        <ele>204.42</ele>
        <time>2019-09-08T10:53:26Z</time>
      </trkpt>
      <trkpt lat="49.35221" lon="6.80513">
        <ele>204.42</ele>
        <time>2019-09-08T10:53:36Z</time>
      </trkpt>
      <trkpt lat="49.35223" lon="6.80511">
        <ele>204.42</ele>
        <time>2019-09-08T10:53:46Z</time>
      </trkpt>
      <trkpt lat="49.35222" lon="6.80512">
        <ele>204.42</ele>
        <time>2019-09-08T10:53:56Z</time>
      </trkpt>
      <trkpt lat="49.35223" lon="6.80514">
        <ele>204.42</ele>
        <time>2019-09-08T10:54:06Z</time>
      </trkpt>
      <trkpt lat="49.35223" lon="6.80516">
        <ele>204.9</ele>
        <time>2019-09-08T10:54:16Z</time>
      </trkpt>
      <trkpt lat="49.35223" lon="6.8052">
        <ele>204.9</ele>
        <time>2019-09-08T10:54:26Z</time>
      </trkpt>
      <trkpt lat="49.35223" lon="6.80523">
        <ele>204.9</ele>
        <time>2019-09-08T10:54:36Z</time>
      </trkpt>
      <trkpt lat="49.35222" lon="6.80524">
        <ele>204.9</ele>
        <time>2019-09-08T10:54:46Z</time>
      </trkpt>
      <trkpt lat="49.35223" lon="6.80521">
        <ele>204.9</ele>
        <time>2019-09-08T10:54:56Z</time>
      </trkpt>
      <trkpt lat="49.35224" lon="6.80522">
        <ele>204.9</ele>
        <time>2019-09-08T10:55:06Z</time>
      </trkpt>
      <trkpt lat="49.35223" lon="6.80525">
        <ele>205.38</ele>
        <time>2019-09-08T10:55:16Z</time>
      </trkpt>
      <trkpt lat="49.35223" lon="6.80524">
        <ele>205.38</ele>
        <time>2019-09-08T10:55:26Z</time>
      </trkpt>
      <trkpt lat="49.35224" lon="6.80524">
        <ele>205.38</ele>
        <time>2019-09-08T10:55:30Z</time>
      </trkpt>
    </trkseg>
  </trk>
</gpx>